<?xml version="1.0" encoding="UTF-8" standalone="no" ?>
<gpx xmlns="http://www.topografix.com/GPX/1/1" xmlns:xsi="http://www.w3.org/2001/XMLSchema-instance" xsi:schemaLocation="http://www.topografix.com/GPX/1/1 http://www.topografix.com/GPX/1/1/gpx.xsd" version="1.1" creator="VisuGPX - https://www.visugpx.com">
  <metadata>
    <name>Rando Montsales</name>
  </metadata>
  <trk>
    <name><![CDATA[Rando Montsales]]></name>
    <trkseg>
      <trkpt lat="44.49165" lon="1.96171">
        <ele>360.025089</ele>
        <time>2022-05-22T06:09:49.375Z</time>
      </trkpt>
      <trkpt lat="44.49155" lon="1.96171">
        <ele>360.025089</ele>
        <time>2022-05-22T06:10:41.690Z</time>
      </trkpt>
      <trkpt lat="44.49143" lon="1.96169">
        <ele>360.025089</ele>
        <time>2022-05-22T06:10:44.691Z</time>
      </trkpt>
      <trkpt lat="44.49132" lon="1.96167">
        <ele>360.025089</ele>
        <time>2022-05-22T06:10:48.687Z</time>
      </trkpt>
      <trkpt lat="44.49126" lon="1.96176">
        <ele>360.025089</ele>
        <time>2022-05-22T06:10:52.686Z</time>
      </trkpt>
      <trkpt lat="44.4912" lon="1.96189">
        <ele>360.025089</ele>
        <time>2022-05-22T06:10:56.685Z</time>
      </trkpt>
      <trkpt lat="44.49115" lon="1.96203">
        <ele>360.025089</ele>
        <time>2022-05-22T06:11:00.687Z</time>
      </trkpt>
      <trkpt lat="44.49111" lon="1.96215">
        <ele>360.025089</ele>
        <time>2022-05-22T06:11:03.688Z</time>
      </trkpt>
      <trkpt lat="44.49109" lon="1.96228">
        <ele>360.025089</ele>
        <time>2022-05-22T06:11:06.683Z</time>
      </trkpt>
      <trkpt lat="44.49106" lon="1.9624">
        <ele>360.049915</ele>
        <time>2022-05-22T06:11:09.685Z</time>
      </trkpt>
      <trkpt lat="44.49102" lon="1.96255">
        <ele>360.160909</ele>
        <time>2022-05-22T06:11:13.689Z</time>
      </trkpt>
      <trkpt lat="44.49098" lon="1.96271">
        <ele>360.271006</ele>
        <time>2022-05-22T06:11:17.685Z</time>
      </trkpt>
      <trkpt lat="44.49093" lon="1.96282">
        <ele>360.360884</ele>
        <time>2022-05-22T06:11:20.685Z</time>
      </trkpt>
      <trkpt lat="44.49088" lon="1.96296">
        <ele>360.4647</ele>
        <time>2022-05-22T06:11:24.684Z</time>
      </trkpt>
      <trkpt lat="44.49083" lon="1.96308">
        <ele>360.557167</ele>
        <time>2022-05-22T06:11:27.687Z</time>
      </trkpt>
      <trkpt lat="44.49077" lon="1.96319">
        <ele>360.651006</ele>
        <time>2022-05-22T06:11:30.687Z</time>
      </trkpt>
      <trkpt lat="44.49073" lon="1.96331">
        <ele>360.741011</ele>
        <time>2022-05-22T06:11:33.694Z</time>
      </trkpt>
      <trkpt lat="44.49069" lon="1.96346">
        <ele>360.85113</ele>
        <time>2022-05-22T06:11:37.693Z</time>
      </trkpt>
      <trkpt lat="44.49065" lon="1.9636">
        <ele>360.947599</ele>
        <time>2022-05-22T06:11:40.688Z</time>
      </trkpt>
      <trkpt lat="44.49062" lon="1.96374">
        <ele>361.047576</ele>
        <time>2022-05-22T06:11:43.694Z</time>
      </trkpt>
      <trkpt lat="44.49058" lon="1.96386">
        <ele>361.139256</ele>
        <time>2022-05-22T06:11:46.687Z</time>
      </trkpt>
      <trkpt lat="44.49048" lon="1.96387">
        <ele>361.236569</ele>
        <time>2022-05-22T06:11:49.085Z</time>
      </trkpt>
      <trkpt lat="44.49037" lon="1.96378">
        <ele>361.354369</ele>
        <time>2022-05-22T06:11:52.087Z</time>
      </trkpt>
      <trkpt lat="44.49026" lon="1.96373">
        <ele>361.461876</ele>
        <time>2022-05-22T06:11:55.085Z</time>
      </trkpt>
      <trkpt lat="44.49017" lon="1.9638">
        <ele>361.551341</ele>
        <time>2022-05-22T06:11:58.086Z</time>
      </trkpt>
      <trkpt lat="44.49013" lon="1.96394">
        <ele>361.654034</ele>
        <time>2022-05-22T06:12:01.085Z</time>
      </trkpt>
      <trkpt lat="44.49009" lon="1.96407">
        <ele>361.667723</ele>
        <time>2022-05-22T06:12:04.087Z</time>
      </trkpt>
      <trkpt lat="44.49006" lon="1.96421">
        <ele>361.440845</ele>
        <time>2022-05-22T06:12:07.085Z</time>
      </trkpt>
      <trkpt lat="44.49003" lon="1.96436">
        <ele>361.197322</ele>
        <time>2022-05-22T06:12:10.091Z</time>
      </trkpt>
      <trkpt lat="44.48998" lon="1.96453">
        <ele>360.919646</ele>
        <time>2022-05-22T06:12:13.087Z</time>
      </trkpt>
      <trkpt lat="44.48993" lon="1.9647">
        <ele>360.629778</ele>
        <time>2022-05-22T06:12:16.081Z</time>
      </trkpt>
      <trkpt lat="44.48987" lon="1.96486">
        <ele>360.362156</ele>
        <time>2022-05-22T06:12:19.089Z</time>
      </trkpt>
      <trkpt lat="44.48981" lon="1.96499">
        <ele>360.122611</ele>
        <time>2022-05-22T06:12:22.083Z</time>
      </trkpt>
      <trkpt lat="44.48976" lon="1.96512">
        <ele>359.882748</ele>
        <time>2022-05-22T06:12:25.089Z</time>
      </trkpt>
      <trkpt lat="44.48971" lon="1.96526">
        <ele>359.63864</ele>
        <time>2022-05-22T06:12:28.087Z</time>
      </trkpt>
      <trkpt lat="44.48966" lon="1.96542">
        <ele>359.37548</ele>
        <time>2022-05-22T06:12:31.086Z</time>
      </trkpt>
      <trkpt lat="44.48959" lon="1.96557">
        <ele>359.112708</ele>
        <time>2022-05-22T06:12:34.086Z</time>
      </trkpt>
      <trkpt lat="44.48952" lon="1.96569">
        <ele>358.865321</ele>
        <time>2022-05-22T06:12:37.084Z</time>
      </trkpt>
      <trkpt lat="44.48944" lon="1.96576">
        <ele>358.65422</ele>
        <time>2022-05-22T06:12:39.080Z</time>
      </trkpt>
      <trkpt lat="44.48937" lon="1.96586">
        <ele>358.438273</ele>
        <time>2022-05-22T06:12:41.086Z</time>
      </trkpt>
      <trkpt lat="44.48932" lon="1.96597">
        <ele>358.241325</ele>
        <time>2022-05-22T06:12:43.088Z</time>
      </trkpt>
      <trkpt lat="44.48926" lon="1.96615">
        <ele>357.929095</ele>
        <time>2022-05-22T06:12:46.086Z</time>
      </trkpt>
      <trkpt lat="44.4892" lon="1.96625">
        <ele>357.874623</ele>
        <time>2022-05-22T06:12:48.083Z</time>
      </trkpt>
      <trkpt lat="44.48913" lon="1.96636">
        <ele>357.931659</ele>
        <time>2022-05-22T06:12:50.089Z</time>
      </trkpt>
      <trkpt lat="44.48903" lon="1.96647">
        <ele>357.999824</ele>
        <time>2022-05-22T06:12:53.080Z</time>
      </trkpt>
      <trkpt lat="44.48895" lon="1.96655">
        <ele>358.055406</ele>
        <time>2022-05-22T06:12:55.085Z</time>
      </trkpt>
      <trkpt lat="44.48889" lon="1.96664">
        <ele>358.108133</ele>
        <time>2022-05-22T06:12:57.072Z</time>
      </trkpt>
      <trkpt lat="44.48881" lon="1.96673">
        <ele>358.164037</ele>
        <time>2022-05-22T06:12:59.085Z</time>
      </trkpt>
      <trkpt lat="44.48873" lon="1.96681">
        <ele>358.220824</ele>
        <time>2022-05-22T06:13:01.087Z</time>
      </trkpt>
      <trkpt lat="44.48866" lon="1.96691">
        <ele>358.275464</ele>
        <time>2022-05-22T06:13:03.086Z</time>
      </trkpt>
      <trkpt lat="44.48858" lon="1.96699">
        <ele>358.330386</ele>
        <time>2022-05-22T06:13:05.112Z</time>
      </trkpt>
      <trkpt lat="44.48847" lon="1.96708">
        <ele>358.399788</ele>
        <time>2022-05-22T06:13:08.103Z</time>
      </trkpt>
      <trkpt lat="44.48838" lon="1.96721">
        <ele>358.471524</ele>
        <time>2022-05-22T06:13:11.108Z</time>
      </trkpt>
      <trkpt lat="44.48833" lon="1.96734">
        <ele>358.531896</ele>
        <time>2022-05-22T06:13:14.109Z</time>
      </trkpt>
      <trkpt lat="44.48831" lon="1.96747">
        <ele>358.586279</ele>
        <time>2022-05-22T06:13:18.111Z</time>
      </trkpt>
      <trkpt lat="44.48828" lon="1.96762">
        <ele>358.647068</ele>
        <time>2022-05-22T06:13:23.104Z</time>
      </trkpt>
      <trkpt lat="44.48829" lon="1.96775">
        <ele>358.702311</ele>
        <time>2022-05-22T06:13:27.102Z</time>
      </trkpt>
      <trkpt lat="44.48834" lon="1.96789">
        <ele>358.764494</ele>
        <time>2022-05-22T06:13:31.109Z</time>
      </trkpt>
      <trkpt lat="44.4884" lon="1.96802">
        <ele>358.825131</ele>
        <time>2022-05-22T06:13:35.105Z</time>
      </trkpt>
      <trkpt lat="44.48845" lon="1.96815">
        <ele>359.123076</ele>
        <time>2022-05-22T06:13:39.108Z</time>
      </trkpt>
      <trkpt lat="44.48848" lon="1.96828">
        <ele>359.565907</ele>
        <time>2022-05-22T06:13:43.107Z</time>
      </trkpt>
      <trkpt lat="44.48853" lon="1.9684">
        <ele>360.042677</ele>
        <time>2022-05-22T06:13:47.112Z</time>
      </trkpt>
      <trkpt lat="44.48858" lon="1.96854">
        <ele>360.564782</ele>
        <time>2022-05-22T06:13:51.107Z</time>
      </trkpt>
      <trkpt lat="44.48861" lon="1.96867">
        <ele>361.001821</ele>
        <time>2022-05-22T06:13:54.105Z</time>
      </trkpt>
      <trkpt lat="44.48863" lon="1.96881">
        <ele>361.470002</ele>
        <time>2022-05-22T06:13:57.101Z</time>
      </trkpt>
      <trkpt lat="44.48866" lon="1.96894">
        <ele>361.931291</ele>
        <time>2022-05-22T06:14:00.110Z</time>
      </trkpt>
      <trkpt lat="44.48873" lon="1.96902">
        <ele>362.353102</ele>
        <time>2022-05-22T06:14:03.104Z</time>
      </trkpt>
      <trkpt lat="44.48881" lon="1.96906">
        <ele>362.785039</ele>
        <time>2022-05-22T06:14:06.106Z</time>
      </trkpt>
      <trkpt lat="44.48889" lon="1.96915">
        <ele>363.241873</ele>
        <time>2022-05-22T06:14:09.106Z</time>
      </trkpt>
      <trkpt lat="44.48892" lon="1.96928">
        <ele>363.713641</ele>
        <time>2022-05-22T06:14:12.112Z</time>
      </trkpt>
      <trkpt lat="44.48893" lon="1.96942">
        <ele>364.183903</ele>
        <time>2022-05-22T06:14:15.108Z</time>
      </trkpt>
      <trkpt lat="44.48896" lon="1.96957">
        <ele>364.693075</ele>
        <time>2022-05-22T06:14:18.203Z</time>
      </trkpt>
      <trkpt lat="44.48902" lon="1.96971">
        <ele>365.238398</ele>
        <time>2022-05-22T06:14:21.209Z</time>
      </trkpt>
      <trkpt lat="44.48911" lon="1.96977">
        <ele>365.699183</ele>
        <time>2022-05-22T06:14:24.216Z</time>
      </trkpt>
      <trkpt lat="44.4892" lon="1.96976">
        <ele>366.133298</ele>
        <time>2022-05-22T06:14:27.208Z</time>
      </trkpt>
      <trkpt lat="44.4893" lon="1.96976">
        <ele>366.571819</ele>
        <time>2022-05-22T06:14:30.204Z</time>
      </trkpt>
      <trkpt lat="44.48939" lon="1.96976">
        <ele>367.005793</ele>
        <time>2022-05-22T06:14:33.212Z</time>
      </trkpt>
      <trkpt lat="44.48949" lon="1.96976">
        <ele>367.421455</ele>
        <time>2022-05-22T06:14:37.220Z</time>
      </trkpt>
      <trkpt lat="44.48961" lon="1.96979">
        <ele>367.861858</ele>
        <time>2022-05-22T06:14:41.114Z</time>
      </trkpt>
      <trkpt lat="44.4897" lon="1.9698">
        <ele>368.209319</ele>
        <time>2022-05-22T06:14:44.109Z</time>
      </trkpt>
      <trkpt lat="44.48979" lon="1.96982">
        <ele>368.546269</ele>
        <time>2022-05-22T06:14:47.107Z</time>
      </trkpt>
      <trkpt lat="44.48991" lon="1.96985">
        <ele>368.980206</ele>
        <time>2022-05-22T06:14:51.808Z</time>
      </trkpt>
      <trkpt lat="44.49002" lon="1.96986">
        <ele>369.424398</ele>
        <time>2022-05-22T06:14:55.811Z</time>
      </trkpt>
      <trkpt lat="44.49011" lon="1.9699">
        <ele>369.760351</ele>
        <time>2022-05-22T06:14:58.805Z</time>
      </trkpt>
      <trkpt lat="44.49012" lon="1.97003">
        <ele>370.099137</ele>
        <time>2022-05-22T06:15:01.805Z</time>
      </trkpt>
      <trkpt lat="44.49011" lon="1.97019">
        <ele>370.530778</ele>
        <time>2022-05-22T06:15:04.804Z</time>
      </trkpt>
      <trkpt lat="44.49009" lon="1.97036">
        <ele>370.990802</ele>
        <time>2022-05-22T06:15:07.812Z</time>
      </trkpt>
      <trkpt lat="44.49011" lon="1.97053">
        <ele>371.43873</ele>
        <time>2022-05-22T06:15:10.804Z</time>
      </trkpt>
      <trkpt lat="44.4902" lon="1.9706">
        <ele>371.831751</ele>
        <time>2022-05-22T06:15:13.805Z</time>
      </trkpt>
      <trkpt lat="44.4903" lon="1.97064">
        <ele>372.206451</ele>
        <time>2022-05-22T06:15:16.805Z</time>
      </trkpt>
      <trkpt lat="44.4904" lon="1.97067">
        <ele>372.602874</ele>
        <time>2022-05-22T06:15:20.803Z</time>
      </trkpt>
      <trkpt lat="44.4905" lon="1.9707">
        <ele>372.978847</ele>
        <time>2022-05-22T06:15:24.805Z</time>
      </trkpt>
      <trkpt lat="44.49059" lon="1.97074">
        <ele>373.330372</ele>
        <time>2022-05-22T06:15:28.807Z</time>
      </trkpt>
      <trkpt lat="44.49068" lon="1.97082">
        <ele>373.721611</ele>
        <time>2022-05-22T06:15:34.801Z</time>
      </trkpt>
      <trkpt lat="44.49075" lon="1.97091">
        <ele>373.902651</ele>
        <time>2022-05-22T06:15:39.348Z</time>
      </trkpt>
      <trkpt lat="44.49084" lon="1.97099">
        <ele>373.840126</ele>
        <time>2022-05-22T06:15:43.342Z</time>
      </trkpt>
      <trkpt lat="44.49093" lon="1.97106">
        <ele>373.780465</ele>
        <time>2022-05-22T06:15:46.347Z</time>
      </trkpt>
      <trkpt lat="44.49102" lon="1.97112">
        <ele>373.717564</ele>
        <time>2022-05-22T06:15:49.348Z</time>
      </trkpt>
      <trkpt lat="44.49115" lon="1.97118">
        <ele>373.640981</ele>
        <time>2022-05-22T06:15:53.341Z</time>
      </trkpt>
      <trkpt lat="44.49126" lon="1.97125">
        <ele>373.569296</ele>
        <time>2022-05-22T06:15:56.341Z</time>
      </trkpt>
      <trkpt lat="44.49136" lon="1.97132">
        <ele>373.502622</ele>
        <time>2022-05-22T06:15:59.345Z</time>
      </trkpt>
      <trkpt lat="44.49144" lon="1.97142">
        <ele>373.436675</ele>
        <time>2022-05-22T06:16:02.346Z</time>
      </trkpt>
      <trkpt lat="44.4915" lon="1.97156">
        <ele>373.366605</ele>
        <time>2022-05-22T06:16:05.347Z</time>
      </trkpt>
      <trkpt lat="44.49157" lon="1.97172">
        <ele>373.289827</ele>
        <time>2022-05-22T06:16:08.351Z</time>
      </trkpt>
      <trkpt lat="44.49163" lon="1.97186">
        <ele>373.220472</ele>
        <time>2022-05-22T06:16:11.345Z</time>
      </trkpt>
      <trkpt lat="44.49169" lon="1.97196">
        <ele>373.164451</ele>
        <time>2022-05-22T06:16:13.343Z</time>
      </trkpt>
      <trkpt lat="44.49175" lon="1.97206">
        <ele>373.111197</ele>
        <time>2022-05-22T06:16:15.347Z</time>
      </trkpt>
      <trkpt lat="44.49183" lon="1.97223">
        <ele>373.023952</ele>
        <time>2022-05-22T06:16:18.347Z</time>
      </trkpt>
      <trkpt lat="44.49189" lon="1.97233">
        <ele>372.968098</ele>
        <time>2022-05-22T06:16:20.319Z</time>
      </trkpt>
      <trkpt lat="44.49196" lon="1.97247">
        <ele>372.897449</ele>
        <time>2022-05-22T06:16:23.314Z</time>
      </trkpt>
      <trkpt lat="44.49203" lon="1.97258">
        <ele>372.674402</ele>
        <time>2022-05-22T06:16:26.352Z</time>
      </trkpt>
      <trkpt lat="44.49213" lon="1.97271">
        <ele>372.124696</ele>
        <time>2022-05-22T06:16:29.315Z</time>
      </trkpt>
      <trkpt lat="44.49219" lon="1.97282">
        <ele>371.702774</ele>
        <time>2022-05-22T06:16:31.307Z</time>
      </trkpt>
      <trkpt lat="44.49227" lon="1.97293">
        <ele>371.221792</ele>
        <time>2022-05-22T06:16:33.310Z</time>
      </trkpt>
      <trkpt lat="44.49236" lon="1.97306">
        <ele>370.697759</ele>
        <time>2022-05-22T06:16:35.309Z</time>
      </trkpt>
      <trkpt lat="44.49243" lon="1.97321">
        <ele>370.164694</ele>
        <time>2022-05-22T06:16:37.312Z</time>
      </trkpt>
      <trkpt lat="44.4925" lon="1.97337">
        <ele>369.608929</ele>
        <time>2022-05-22T06:16:39.316Z</time>
      </trkpt>
      <trkpt lat="44.49256" lon="1.97357">
        <ele>368.950393</ele>
        <time>2022-05-22T06:16:41.311Z</time>
      </trkpt>
      <trkpt lat="44.49265" lon="1.97377">
        <ele>368.277529</ele>
        <time>2022-05-22T06:16:43.318Z</time>
      </trkpt>
      <trkpt lat="44.49272" lon="1.97397">
        <ele>367.589211</ele>
        <time>2022-05-22T06:16:45.310Z</time>
      </trkpt>
      <trkpt lat="44.49282" lon="1.97416">
        <ele>366.884096</ele>
        <time>2022-05-22T06:16:47.315Z</time>
      </trkpt>
      <trkpt lat="44.49288" lon="1.9743">
        <ele>366.416752</ele>
        <time>2022-05-22T06:16:48.314Z</time>
      </trkpt>
      <trkpt lat="44.49293" lon="1.97441">
        <ele>366.028966</ele>
        <time>2022-05-22T06:16:49.314Z</time>
      </trkpt>
      <trkpt lat="44.49302" lon="1.9746">
        <ele>365.377837</ele>
        <time>2022-05-22T06:16:51.309Z</time>
      </trkpt>
      <trkpt lat="44.49308" lon="1.97477">
        <ele>365.896828</ele>
        <time>2022-05-22T06:16:53.311Z</time>
      </trkpt>
      <trkpt lat="44.49313" lon="1.97491">
        <ele>366.351936</ele>
        <time>2022-05-22T06:16:55.314Z</time>
      </trkpt>
      <trkpt lat="44.49317" lon="1.97503">
        <ele>366.709578</ele>
        <time>2022-05-22T06:16:57.310Z</time>
      </trkpt>
      <trkpt lat="44.49321" lon="1.97514">
        <ele>367.061293</ele>
        <time>2022-05-22T06:16:59.316Z</time>
      </trkpt>
      <trkpt lat="44.49328" lon="1.97528">
        <ele>367.538082</ele>
        <time>2022-05-22T06:17:02.314Z</time>
      </trkpt>
      <trkpt lat="44.49332" lon="1.97542">
        <ele>367.951845</ele>
        <time>2022-05-22T06:17:05.317Z</time>
      </trkpt>
      <trkpt lat="44.49334" lon="1.97555">
        <ele>368.332882</ele>
        <time>2022-05-22T06:17:08.310Z</time>
      </trkpt>
      <trkpt lat="44.49336" lon="1.97569">
        <ele>368.708432</ele>
        <time>2022-05-22T06:17:11.315Z</time>
      </trkpt>
      <trkpt lat="44.49342" lon="1.9758">
        <ele>369.11061</ele>
        <time>2022-05-22T06:17:14.316Z</time>
      </trkpt>
      <trkpt lat="44.49349" lon="1.97592">
        <ele>369.551883</ele>
        <time>2022-05-22T06:17:18.316Z</time>
      </trkpt>
      <trkpt lat="44.49355" lon="1.97605">
        <ele>369.979508</ele>
        <time>2022-05-22T06:17:22.313Z</time>
      </trkpt>
      <trkpt lat="44.49362" lon="1.97618">
        <ele>370.438729</ele>
        <time>2022-05-22T06:17:26.317Z</time>
      </trkpt>
      <trkpt lat="44.49367" lon="1.9763">
        <ele>370.816198</ele>
        <time>2022-05-22T06:17:29.311Z</time>
      </trkpt>
      <trkpt lat="44.49371" lon="1.97643">
        <ele>371.226725</ele>
        <time>2022-05-22T06:17:32.314Z</time>
      </trkpt>
      <trkpt lat="44.49375" lon="1.97656">
        <ele>371.604516</ele>
        <time>2022-05-22T06:17:35.310Z</time>
      </trkpt>
      <trkpt lat="44.49381" lon="1.97666">
        <ele>371.979136</ele>
        <time>2022-05-22T06:17:38.314Z</time>
      </trkpt>
      <trkpt lat="44.49387" lon="1.97678">
        <ele>372.374396</ele>
        <time>2022-05-22T06:17:41.312Z</time>
      </trkpt>
      <trkpt lat="44.49392" lon="1.97691">
        <ele>372.814898</ele>
        <time>2022-05-22T06:17:44.313Z</time>
      </trkpt>
      <trkpt lat="44.49397" lon="1.97702">
        <ele>373.191827</ele>
        <time>2022-05-22T06:17:47.314Z</time>
      </trkpt>
      <trkpt lat="44.49402" lon="1.97717">
        <ele>373.658102</ele>
        <time>2022-05-22T06:17:51.314Z</time>
      </trkpt>
      <trkpt lat="44.49408" lon="1.97729">
        <ele>374.081582</ele>
        <time>2022-05-22T06:17:54.312Z</time>
      </trkpt>
      <trkpt lat="44.49413" lon="1.97741">
        <ele>374.489916</ele>
        <time>2022-05-22T06:17:57.311Z</time>
      </trkpt>
      <trkpt lat="44.4942" lon="1.97755">
        <ele>374.979504</ele>
        <time>2022-05-22T06:18:00.316Z</time>
      </trkpt>
      <trkpt lat="44.49426" lon="1.97769">
        <ele>375.45785</ele>
        <time>2022-05-22T06:18:03.313Z</time>
      </trkpt>
      <trkpt lat="44.49432" lon="1.97781">
        <ele>375.87426</ele>
        <time>2022-05-22T06:18:06.314Z</time>
      </trkpt>
      <trkpt lat="44.49438" lon="1.97795">
        <ele>376.334244</ele>
        <time>2022-05-22T06:18:09.314Z</time>
      </trkpt>
      <trkpt lat="44.49444" lon="1.97808">
        <ele>376.80094</ele>
        <time>2022-05-22T06:18:13.317Z</time>
      </trkpt>
      <trkpt lat="44.49448" lon="1.97821">
        <ele>377.205409</ele>
        <time>2022-05-22T06:18:16.313Z</time>
      </trkpt>
      <trkpt lat="44.49454" lon="1.97835">
        <ele>377.66234</ele>
        <time>2022-05-22T06:18:19.312Z</time>
      </trkpt>
      <trkpt lat="44.49458" lon="1.97847">
        <ele>378.061112</ele>
        <time>2022-05-22T06:18:22.316Z</time>
      </trkpt>
      <trkpt lat="44.49463" lon="1.97862">
        <ele>378.524986</ele>
        <time>2022-05-22T06:18:26.317Z</time>
      </trkpt>
      <trkpt lat="44.49468" lon="1.97876">
        <ele>378.983427</ele>
        <time>2022-05-22T06:18:30.309Z</time>
      </trkpt>
      <trkpt lat="44.49472" lon="1.97888">
        <ele>379.359349</ele>
        <time>2022-05-22T06:18:33.316Z</time>
      </trkpt>
      <trkpt lat="44.49477" lon="1.97899">
        <ele>379.838867</ele>
        <time>2022-05-22T06:18:36.313Z</time>
      </trkpt>
      <trkpt lat="44.49482" lon="1.9791">
        <ele>380.621798</ele>
        <time>2022-05-22T06:18:39.314Z</time>
      </trkpt>
      <trkpt lat="44.49485" lon="1.97922">
        <ele>381.387025</ele>
        <time>2022-05-22T06:18:42.313Z</time>
      </trkpt>
      <trkpt lat="44.49489" lon="1.97934">
        <ele>382.176167</ele>
        <time>2022-05-22T06:18:45.317Z</time>
      </trkpt>
      <trkpt lat="44.49494" lon="1.97946">
        <ele>383.052471</ele>
        <time>2022-05-22T06:18:49.309Z</time>
      </trkpt>
      <trkpt lat="44.49493" lon="1.97961">
        <ele>383.91286</ele>
        <time>2022-05-22T06:18:54.316Z</time>
      </trkpt>
      <trkpt lat="44.49489" lon="1.97973">
        <ele>384.760389</ele>
        <time>2022-05-22T06:18:59.316Z</time>
      </trkpt>
      <trkpt lat="44.49486" lon="1.97986">
        <ele>385.548354</ele>
        <time>2022-05-22T06:19:05.308Z</time>
      </trkpt>
      <trkpt lat="44.49482" lon="1.97997">
        <ele>386.33007</ele>
        <time>2022-05-22T06:19:11.317Z</time>
      </trkpt>
      <trkpt lat="44.49478" lon="1.98011">
        <ele>387.252248</ele>
        <time>2022-05-22T06:19:17.314Z</time>
      </trkpt>
      <trkpt lat="44.49474" lon="1.98024">
        <ele>388.060314</ele>
        <time>2022-05-22T06:19:22.313Z</time>
      </trkpt>
      <trkpt lat="44.49471" lon="1.98037">
        <ele>388.890991</ele>
        <time>2022-05-22T06:19:27.313Z</time>
      </trkpt>
      <trkpt lat="44.49468" lon="1.9805">
        <ele>389.767165</ele>
        <time>2022-05-22T06:19:33.313Z</time>
      </trkpt>
      <trkpt lat="44.49463" lon="1.98064">
        <ele>390.705419</ele>
        <time>2022-05-22T06:19:38.320Z</time>
      </trkpt>
      <trkpt lat="44.49457" lon="1.98077">
        <ele>391.612415</ele>
        <time>2022-05-22T06:19:44.316Z</time>
      </trkpt>
      <trkpt lat="44.49453" lon="1.98088">
        <ele>392.397316</ele>
        <time>2022-05-22T06:19:49.313Z</time>
      </trkpt>
      <trkpt lat="44.49448" lon="1.98102">
        <ele>393.286942</ele>
        <time>2022-05-22T06:19:55.316Z</time>
      </trkpt>
      <trkpt lat="44.49446" lon="1.98117">
        <ele>394.219356</ele>
        <time>2022-05-22T06:20:01.311Z</time>
      </trkpt>
      <trkpt lat="44.49442" lon="1.9813">
        <ele>394.964199</ele>
        <time>2022-05-22T06:20:06.311Z</time>
      </trkpt>
      <trkpt lat="44.4944" lon="1.98145">
        <ele>395.297738</ele>
        <time>2022-05-22T06:20:12.314Z</time>
      </trkpt>
      <trkpt lat="44.49437" lon="1.98158">
        <ele>395.600229</ele>
        <time>2022-05-22T06:20:17.311Z</time>
      </trkpt>
      <trkpt lat="44.49434" lon="1.98171">
        <ele>395.915237</ele>
        <time>2022-05-22T06:20:22.310Z</time>
      </trkpt>
      <trkpt lat="44.49428" lon="1.98183">
        <ele>396.236402</ele>
        <time>2022-05-22T06:20:28.304Z</time>
      </trkpt>
      <trkpt lat="44.49422" lon="1.98195">
        <ele>396.55388</ele>
        <time>2022-05-22T06:20:33.152Z</time>
      </trkpt>
      <trkpt lat="44.49417" lon="1.98206">
        <ele>396.844257</ele>
        <time>2022-05-22T06:20:37.150Z</time>
      </trkpt>
      <trkpt lat="44.49411" lon="1.98219">
        <ele>397.185751</ele>
        <time>2022-05-22T06:20:41.157Z</time>
      </trkpt>
      <trkpt lat="44.49404" lon="1.98232">
        <ele>397.550284</ele>
        <time>2022-05-22T06:20:45.150Z</time>
      </trkpt>
      <trkpt lat="44.49395" lon="1.98243">
        <ele>397.916396</ele>
        <time>2022-05-22T06:20:49.156Z</time>
      </trkpt>
      <trkpt lat="44.49387" lon="1.98253">
        <ele>398.249098</ele>
        <time>2022-05-22T06:20:52.149Z</time>
      </trkpt>
      <trkpt lat="44.4938" lon="1.98261">
        <ele>398.531164</ele>
        <time>2022-05-22T06:20:55.152Z</time>
      </trkpt>
      <trkpt lat="44.49373" lon="1.98271">
        <ele>398.83915</ele>
        <time>2022-05-22T06:20:58.157Z</time>
      </trkpt>
      <trkpt lat="44.49365" lon="1.98282">
        <ele>399.187089</ele>
        <time>2022-05-22T06:21:01.157Z</time>
      </trkpt>
      <trkpt lat="44.49359" lon="1.98292">
        <ele>399.481025</ele>
        <time>2022-05-22T06:21:04.154Z</time>
      </trkpt>
      <trkpt lat="44.49351" lon="1.98306">
        <ele>399.880827</ele>
        <time>2022-05-22T06:21:07.149Z</time>
      </trkpt>
      <trkpt lat="44.49342" lon="1.98319">
        <ele>400.280184</ele>
        <time>2022-05-22T06:21:10.156Z</time>
      </trkpt>
      <trkpt lat="44.49336" lon="1.98331">
        <ele>400.335759</ele>
        <time>2022-05-22T06:21:13.153Z</time>
      </trkpt>
      <trkpt lat="44.49326" lon="1.98343">
        <ele>399.751306</ele>
        <time>2022-05-22T06:21:16.153Z</time>
      </trkpt>
      <trkpt lat="44.49317" lon="1.98355">
        <ele>399.184432</ele>
        <time>2022-05-22T06:21:19.158Z</time>
      </trkpt>
      <trkpt lat="44.49312" lon="1.98366">
        <ele>398.754449</ele>
        <time>2022-05-22T06:21:22.157Z</time>
      </trkpt>
      <trkpt lat="44.49305" lon="1.98376">
        <ele>398.336411</ele>
        <time>2022-05-22T06:21:25.150Z</time>
      </trkpt>
      <trkpt lat="44.49296" lon="1.98384">
        <ele>397.856752</ele>
        <time>2022-05-22T06:21:28.157Z</time>
      </trkpt>
      <trkpt lat="44.49287" lon="1.98393">
        <ele>397.338909</ele>
        <time>2022-05-22T06:21:31.148Z</time>
      </trkpt>
      <trkpt lat="44.49279" lon="1.98403">
        <ele>396.845988</ele>
        <time>2022-05-22T06:21:34.154Z</time>
      </trkpt>
      <trkpt lat="44.49271" lon="1.98412">
        <ele>396.393451</ele>
        <time>2022-05-22T06:21:37.155Z</time>
      </trkpt>
      <trkpt lat="44.49263" lon="1.98421">
        <ele>395.916914</ele>
        <time>2022-05-22T06:21:40.153Z</time>
      </trkpt>
      <trkpt lat="44.49255" lon="1.98433">
        <ele>395.396106</ele>
        <time>2022-05-22T06:21:43.153Z</time>
      </trkpt>
      <trkpt lat="44.49248" lon="1.98447">
        <ele>394.87732</ele>
        <time>2022-05-22T06:21:46.154Z</time>
      </trkpt>
      <trkpt lat="44.49241" lon="1.9846">
        <ele>394.346004</ele>
        <time>2022-05-22T06:21:49.152Z</time>
      </trkpt>
      <trkpt lat="44.49235" lon="1.98472">
        <ele>393.858207</ele>
        <time>2022-05-22T06:21:52.149Z</time>
      </trkpt>
      <trkpt lat="44.49226" lon="1.98485">
        <ele>393.310186</ele>
        <time>2022-05-22T06:21:55.159Z</time>
      </trkpt>
      <trkpt lat="44.49216" lon="1.98497">
        <ele>392.697118</ele>
        <time>2022-05-22T06:21:58.147Z</time>
      </trkpt>
      <trkpt lat="44.49209" lon="1.98507">
        <ele>392.46217</ele>
        <time>2022-05-22T06:22:00.152Z</time>
      </trkpt>
      <trkpt lat="44.49201" lon="1.98518">
        <ele>392.571126</ele>
        <time>2022-05-22T06:22:02.154Z</time>
      </trkpt>
      <trkpt lat="44.49194" lon="1.98527">
        <ele>392.670243</ele>
        <time>2022-05-22T06:22:04.150Z</time>
      </trkpt>
      <trkpt lat="44.49185" lon="1.98534">
        <ele>392.776534</ele>
        <time>2022-05-22T06:22:06.147Z</time>
      </trkpt>
      <trkpt lat="44.49177" lon="1.98543">
        <ele>392.871848</ele>
        <time>2022-05-22T06:22:08.149Z</time>
      </trkpt>
      <trkpt lat="44.49164" lon="1.98552">
        <ele>393.018</ele>
        <time>2022-05-22T06:22:10.152Z</time>
      </trkpt>
      <trkpt lat="44.49156" lon="1.98561">
        <ele>393.124268</ele>
        <time>2022-05-22T06:22:12.154Z</time>
      </trkpt>
      <trkpt lat="44.49147" lon="1.98572">
        <ele>393.243607</ele>
        <time>2022-05-22T06:22:15.150Z</time>
      </trkpt>
      <trkpt lat="44.49137" lon="1.98583">
        <ele>393.372932</ele>
        <time>2022-05-22T06:22:18.152Z</time>
      </trkpt>
      <trkpt lat="44.4913" lon="1.98593">
        <ele>393.465133</ele>
        <time>2022-05-22T06:22:20.153Z</time>
      </trkpt>
      <trkpt lat="44.49123" lon="1.98603">
        <ele>393.567522</ele>
        <time>2022-05-22T06:22:22.152Z</time>
      </trkpt>
      <trkpt lat="44.49118" lon="1.98618">
        <ele>393.685265</ele>
        <time>2022-05-22T06:22:24.153Z</time>
      </trkpt>
      <trkpt lat="44.49113" lon="1.98632">
        <ele>393.799196</ele>
        <time>2022-05-22T06:22:26.159Z</time>
      </trkpt>
      <trkpt lat="44.49107" lon="1.98646">
        <ele>393.911396</ele>
        <time>2022-05-22T06:22:28.149Z</time>
      </trkpt>
      <trkpt lat="44.49102" lon="1.98657">
        <ele>394.00524</ele>
        <time>2022-05-22T06:22:30.154Z</time>
      </trkpt>
      <trkpt lat="44.49093" lon="1.9867">
        <ele>394.138736</ele>
        <time>2022-05-22T06:22:33.152Z</time>
      </trkpt>
      <trkpt lat="44.49079" lon="1.98671">
        <ele>394.115778</ele>
        <time>2022-05-22T06:22:35.151Z</time>
      </trkpt>
      <trkpt lat="44.49068" lon="1.98679">
        <ele>393.818139</ele>
        <time>2022-05-22T06:22:37.152Z</time>
      </trkpt>
      <trkpt lat="44.49057" lon="1.98686">
        <ele>393.546437</ele>
        <time>2022-05-22T06:22:39.151Z</time>
      </trkpt>
      <trkpt lat="44.49048" lon="1.98694">
        <ele>393.288848</ele>
        <time>2022-05-22T06:22:41.150Z</time>
      </trkpt>
      <trkpt lat="44.49038" lon="1.98706">
        <ele>393.004593</ele>
        <time>2022-05-22T06:22:44.149Z</time>
      </trkpt>
      <trkpt lat="44.49031" lon="1.98715">
        <ele>392.769091</ele>
        <time>2022-05-22T06:22:46.153Z</time>
      </trkpt>
      <trkpt lat="44.49023" lon="1.98723">
        <ele>392.556928</ele>
        <time>2022-05-22T06:22:48.151Z</time>
      </trkpt>
      <trkpt lat="44.49012" lon="1.9873">
        <ele>392.271945</ele>
        <time>2022-05-22T06:22:51.149Z</time>
      </trkpt>
      <trkpt lat="44.49002" lon="1.98739">
        <ele>392.002582</ele>
        <time>2022-05-22T06:22:54.151Z</time>
      </trkpt>
      <trkpt lat="44.49" lon="1.98753">
        <ele>391.760707</ele>
        <time>2022-05-22T06:22:58.154Z</time>
      </trkpt>
      <trkpt lat="44.49" lon="1.98767">
        <ele>391.523115</ele>
        <time>2022-05-22T06:23:02.152Z</time>
      </trkpt>
      <trkpt lat="44.48998" lon="1.98782">
        <ele>391.276431</ele>
        <time>2022-05-22T06:23:06.150Z</time>
      </trkpt>
      <trkpt lat="44.48996" lon="1.98796">
        <ele>391.03277</ele>
        <time>2022-05-22T06:23:10.155Z</time>
      </trkpt>
      <trkpt lat="44.48994" lon="1.98811">
        <ele>390.789109</ele>
        <time>2022-05-22T06:23:14.154Z</time>
      </trkpt>
      <trkpt lat="44.48992" lon="1.98824">
        <ele>390.57548</ele>
        <time>2022-05-22T06:23:17.150Z</time>
      </trkpt>
      <trkpt lat="44.4899" lon="1.98838">
        <ele>390.332433</ele>
        <time>2022-05-22T06:23:20.154Z</time>
      </trkpt>
      <trkpt lat="44.48989" lon="1.98854">
        <ele>390.074662</ele>
        <time>2022-05-22T06:23:24.149Z</time>
      </trkpt>
      <trkpt lat="44.48988" lon="1.98869">
        <ele>390.455196</ele>
        <time>2022-05-22T06:23:28.155Z</time>
      </trkpt>
      <trkpt lat="44.48988" lon="1.98884">
        <ele>390.839535</ele>
        <time>2022-05-22T06:23:32.146Z</time>
      </trkpt>
      <trkpt lat="44.4899" lon="1.98898">
        <ele>391.225621</ele>
        <time>2022-05-22T06:23:36.149Z</time>
      </trkpt>
      <trkpt lat="44.48992" lon="1.98913">
        <ele>391.620713</ele>
        <time>2022-05-22T06:23:40.145Z</time>
      </trkpt>
      <trkpt lat="44.48994" lon="1.98926">
        <ele>391.980817</ele>
        <time>2022-05-22T06:23:44.150Z</time>
      </trkpt>
      <trkpt lat="44.48996" lon="1.9894">
        <ele>392.351162</ele>
        <time>2022-05-22T06:23:48.150Z</time>
      </trkpt>
      <trkpt lat="44.48997" lon="1.98954">
        <ele>392.720015</ele>
        <time>2022-05-22T06:23:53.152Z</time>
      </trkpt>
      <trkpt lat="44.48994" lon="1.98968">
        <ele>393.103622</ele>
        <time>2022-05-22T06:23:57.146Z</time>
      </trkpt>
      <trkpt lat="44.48993" lon="1.98981">
        <ele>393.447683</ele>
        <time>2022-05-22T06:24:01.154Z</time>
      </trkpt>
      <trkpt lat="44.48993" lon="1.98997">
        <ele>393.868847</ele>
        <time>2022-05-22T06:24:05.147Z</time>
      </trkpt>
      <trkpt lat="44.48994" lon="1.99013">
        <ele>394.288857</ele>
        <time>2022-05-22T06:24:09.161Z</time>
      </trkpt>
      <trkpt lat="44.48996" lon="1.99027">
        <ele>394.674201</ele>
        <time>2022-05-22T06:24:12.148Z</time>
      </trkpt>
      <trkpt lat="44.48999" lon="1.99041">
        <ele>395.042672</ele>
        <time>2022-05-22T06:24:15.152Z</time>
      </trkpt>
      <trkpt lat="44.49003" lon="1.99056">
        <ele>395.478876</ele>
        <time>2022-05-22T06:24:18.148Z</time>
      </trkpt>
      <trkpt lat="44.49004" lon="1.99074">
        <ele>395.935057</ele>
        <time>2022-05-22T06:24:21.148Z</time>
      </trkpt>
      <trkpt lat="44.49005" lon="1.99089">
        <ele>396.333777</ele>
        <time>2022-05-22T06:24:24.153Z</time>
      </trkpt>
      <trkpt lat="44.49006" lon="1.99103">
        <ele>396.679075</ele>
        <time>2022-05-22T06:24:27.154Z</time>
      </trkpt>
      <trkpt lat="44.49007" lon="1.99118">
        <ele>396.258339</ele>
        <time>2022-05-22T06:24:31.151Z</time>
      </trkpt>
      <trkpt lat="44.4901" lon="1.99131">
        <ele>395.89112</ele>
        <time>2022-05-22T06:24:34.153Z</time>
      </trkpt>
      <trkpt lat="44.49011" lon="1.99146">
        <ele>395.486723</ele>
        <time>2022-05-22T06:24:37.149Z</time>
      </trkpt>
      <trkpt lat="44.49012" lon="1.99161">
        <ele>395.052384</ele>
        <time>2022-05-22T06:24:41.157Z</time>
      </trkpt>
      <trkpt lat="44.49014" lon="1.99176">
        <ele>394.645237</ele>
        <time>2022-05-22T06:24:44.139Z</time>
      </trkpt>
      <trkpt lat="44.49017" lon="1.99191">
        <ele>394.225021</ele>
        <time>2022-05-22T06:24:48.164Z</time>
      </trkpt>
      <trkpt lat="44.49005" lon="1.99192">
        <ele>393.757808</ele>
        <time>2022-05-22T06:24:51.154Z</time>
      </trkpt>
      <trkpt lat="44.48996" lon="1.99193">
        <ele>393.408687</ele>
        <time>2022-05-22T06:24:53.145Z</time>
      </trkpt>
      <trkpt lat="44.48985" lon="1.99195">
        <ele>392.979947</ele>
        <time>2022-05-22T06:24:55.152Z</time>
      </trkpt>
      <trkpt lat="44.48974" lon="1.99195">
        <ele>392.557934</ele>
        <time>2022-05-22T06:24:57.151Z</time>
      </trkpt>
      <trkpt lat="44.48959" lon="1.99196">
        <ele>391.996154</ele>
        <time>2022-05-22T06:24:59.154Z</time>
      </trkpt>
      <trkpt lat="44.48945" lon="1.99198">
        <ele>391.439522</ele>
        <time>2022-05-22T06:25:01.145Z</time>
      </trkpt>
      <trkpt lat="44.48931" lon="1.99199">
        <ele>390.920578</ele>
        <time>2022-05-22T06:25:03.157Z</time>
      </trkpt>
      <trkpt lat="44.4892" lon="1.992">
        <ele>390.473927</ele>
        <time>2022-05-22T06:25:05.159Z</time>
      </trkpt>
      <trkpt lat="44.48907" lon="1.99201">
        <ele>389.961233</ele>
        <time>2022-05-22T06:25:07.151Z</time>
      </trkpt>
      <trkpt lat="44.48894" lon="1.99201">
        <ele>389.222229</ele>
        <time>2022-05-22T06:25:09.152Z</time>
      </trkpt>
      <trkpt lat="44.48881" lon="1.99198">
        <ele>388.131666</ele>
        <time>2022-05-22T06:25:11.157Z</time>
      </trkpt>
      <trkpt lat="44.48868" lon="1.99199">
        <ele>387.11841</ele>
        <time>2022-05-22T06:25:13.155Z</time>
      </trkpt>
      <trkpt lat="44.48857" lon="1.99198">
        <ele>386.20811</ele>
        <time>2022-05-22T06:25:15.159Z</time>
      </trkpt>
      <trkpt lat="44.48844" lon="1.99196">
        <ele>385.228878</ele>
        <time>2022-05-22T06:25:17.151Z</time>
      </trkpt>
      <trkpt lat="44.48831" lon="1.99198">
        <ele>384.163771</ele>
        <time>2022-05-22T06:25:19.148Z</time>
      </trkpt>
      <trkpt lat="44.48815" lon="1.99199">
        <ele>382.888439</ele>
        <time>2022-05-22T06:25:21.154Z</time>
      </trkpt>
      <trkpt lat="44.48801" lon="1.99197">
        <ele>381.761386</ele>
        <time>2022-05-22T06:25:23.150Z</time>
      </trkpt>
      <trkpt lat="44.48788" lon="1.99197">
        <ele>380.772796</ele>
        <time>2022-05-22T06:25:25.148Z</time>
      </trkpt>
      <trkpt lat="44.48778" lon="1.99198">
        <ele>379.970707</ele>
        <time>2022-05-22T06:25:27.154Z</time>
      </trkpt>
      <trkpt lat="44.48767" lon="1.99197">
        <ele>379.117766</ele>
        <time>2022-05-22T06:25:30.153Z</time>
      </trkpt>
      <trkpt lat="44.48759" lon="1.99202">
        <ele>378.393936</ele>
        <time>2022-05-22T06:25:36.154Z</time>
      </trkpt>
      <trkpt lat="44.48753" lon="1.99214">
        <ele>377.585498</ele>
        <time>2022-05-22T06:25:40.150Z</time>
      </trkpt>
      <trkpt lat="44.48751" lon="1.99227">
        <ele>376.823795</ele>
        <time>2022-05-22T06:25:43.149Z</time>
      </trkpt>
      <trkpt lat="44.48751" lon="1.99241">
        <ele>376.027956</ele>
        <time>2022-05-22T06:25:46.152Z</time>
      </trkpt>
      <trkpt lat="44.48745" lon="1.99256">
        <ele>375.298906</ele>
        <time>2022-05-22T06:25:49.154Z</time>
      </trkpt>
      <trkpt lat="44.48737" lon="1.99266">
        <ele>374.911743</ele>
        <time>2022-05-22T06:25:51.152Z</time>
      </trkpt>
      <trkpt lat="44.48726" lon="1.99281">
        <ele>374.338667</ele>
        <time>2022-05-22T06:25:53.150Z</time>
      </trkpt>
      <trkpt lat="44.48713" lon="1.99292">
        <ele>373.767967</ele>
        <time>2022-05-22T06:25:55.142Z</time>
      </trkpt>
      <trkpt lat="44.48701" lon="1.99296">
        <ele>373.329432</ele>
        <time>2022-05-22T06:25:56.144Z</time>
      </trkpt>
      <trkpt lat="44.48685" lon="1.99304">
        <ele>372.708369</ele>
        <time>2022-05-22T06:25:58.152Z</time>
      </trkpt>
      <trkpt lat="44.48672" lon="1.99311">
        <ele>372.166417</ele>
        <time>2022-05-22T06:26:00.154Z</time>
      </trkpt>
      <trkpt lat="44.48658" lon="1.99319">
        <ele>371.630413</ele>
        <time>2022-05-22T06:26:02.150Z</time>
      </trkpt>
      <trkpt lat="44.48647" lon="1.99327">
        <ele>371.179502</ele>
        <time>2022-05-22T06:26:04.151Z</time>
      </trkpt>
      <trkpt lat="44.48635" lon="1.99331">
        <ele>370.710739</ele>
        <time>2022-05-22T06:26:06.154Z</time>
      </trkpt>
      <trkpt lat="44.48622" lon="1.99334">
        <ele>370.21487</ele>
        <time>2022-05-22T06:26:09.164Z</time>
      </trkpt>
      <trkpt lat="44.48611" lon="1.99336">
        <ele>369.821072</ele>
        <time>2022-05-22T06:26:13.148Z</time>
      </trkpt>
      <trkpt lat="44.48602" lon="1.99341">
        <ele>369.455494</ele>
        <time>2022-05-22T06:26:16.147Z</time>
      </trkpt>
      <trkpt lat="44.48595" lon="1.9935">
        <ele>369.098075</ele>
        <time>2022-05-22T06:26:19.148Z</time>
      </trkpt>
      <trkpt lat="44.48588" lon="1.99358">
        <ele>368.680697</ele>
        <time>2022-05-22T06:26:22.149Z</time>
      </trkpt>
      <trkpt lat="44.48573" lon="1.99353">
        <ele>367.64933</ele>
        <time>2022-05-22T06:26:25.148Z</time>
      </trkpt>
      <trkpt lat="44.48563" lon="1.99349">
        <ele>366.903201</ele>
        <time>2022-05-22T06:26:27.148Z</time>
      </trkpt>
      <trkpt lat="44.48551" lon="1.99348">
        <ele>366.132067</ele>
        <time>2022-05-22T06:26:29.147Z</time>
      </trkpt>
      <trkpt lat="44.48541" lon="1.99351">
        <ele>365.421924</ele>
        <time>2022-05-22T06:26:31.152Z</time>
      </trkpt>
      <trkpt lat="44.4853" lon="1.99355">
        <ele>364.660507</ele>
        <time>2022-05-22T06:26:33.160Z</time>
      </trkpt>
      <trkpt lat="44.48521" lon="1.9936">
        <ele>364.016824</ele>
        <time>2022-05-22T06:26:35.149Z</time>
      </trkpt>
      <trkpt lat="44.4851" lon="1.99369">
        <ele>363.15237</ele>
        <time>2022-05-22T06:26:37.152Z</time>
      </trkpt>
      <trkpt lat="44.48502" lon="1.9938">
        <ele>362.367088</ele>
        <time>2022-05-22T06:26:39.146Z</time>
      </trkpt>
      <trkpt lat="44.48499" lon="1.99396">
        <ele>361.608322</ele>
        <time>2022-05-22T06:26:41.149Z</time>
      </trkpt>
      <trkpt lat="44.48498" lon="1.99412">
        <ele>360.813282</ele>
        <time>2022-05-22T06:26:43.153Z</time>
      </trkpt>
      <trkpt lat="44.48498" lon="1.99427">
        <ele>360.093584</ele>
        <time>2022-05-22T06:26:45.151Z</time>
      </trkpt>
      <trkpt lat="44.48496" lon="1.99442">
        <ele>359.356088</ele>
        <time>2022-05-22T06:26:47.150Z</time>
      </trkpt>
      <trkpt lat="44.48493" lon="1.99458">
        <ele>358.567607</ele>
        <time>2022-05-22T06:26:49.149Z</time>
      </trkpt>
      <trkpt lat="44.48491" lon="1.99473">
        <ele>357.81381</ele>
        <time>2022-05-22T06:26:51.153Z</time>
      </trkpt>
      <trkpt lat="44.48487" lon="1.99489">
        <ele>357.009721</ele>
        <time>2022-05-22T06:26:53.153Z</time>
      </trkpt>
      <trkpt lat="44.48478" lon="1.99502">
        <ele>356.600394</ele>
        <time>2022-05-22T06:26:55.154Z</time>
      </trkpt>
      <trkpt lat="44.48468" lon="1.99514">
        <ele>356.449937</ele>
        <time>2022-05-22T06:26:57.154Z</time>
      </trkpt>
      <trkpt lat="44.48455" lon="1.99525">
        <ele>356.275499</ele>
        <time>2022-05-22T06:26:59.155Z</time>
      </trkpt>
      <trkpt lat="44.48441" lon="1.99536">
        <ele>356.097129</ele>
        <time>2022-05-22T06:27:01.151Z</time>
      </trkpt>
      <trkpt lat="44.48427" lon="1.99548">
        <ele>355.907692</ele>
        <time>2022-05-22T06:27:03.146Z</time>
      </trkpt>
      <trkpt lat="44.48412" lon="1.99559">
        <ele>355.714672</ele>
        <time>2022-05-22T06:27:05.156Z</time>
      </trkpt>
      <trkpt lat="44.48397" lon="1.99569">
        <ele>355.53348</ele>
        <time>2022-05-22T06:27:07.154Z</time>
      </trkpt>
      <trkpt lat="44.48384" lon="1.99574">
        <ele>355.375495</ele>
        <time>2022-05-22T06:27:09.147Z</time>
      </trkpt>
      <trkpt lat="44.48374" lon="1.99577">
        <ele>355.258503</ele>
        <time>2022-05-22T06:27:11.155Z</time>
      </trkpt>
      <trkpt lat="44.48363" lon="1.99584">
        <ele>355.130173</ele>
        <time>2022-05-22T06:27:14.156Z</time>
      </trkpt>
      <trkpt lat="44.48361" lon="1.99596">
        <ele>355.026606</ele>
        <time>2022-05-22T06:27:17.151Z</time>
      </trkpt>
      <trkpt lat="44.4836" lon="1.99613">
        <ele>354.893525</ele>
        <time>2022-05-22T06:27:20.148Z</time>
      </trkpt>
      <trkpt lat="44.48359" lon="1.99628">
        <ele>354.766937</ele>
        <time>2022-05-22T06:27:23.150Z</time>
      </trkpt>
      <trkpt lat="44.48356" lon="1.99642">
        <ele>354.688822</ele>
        <time>2022-05-22T06:27:26.152Z</time>
      </trkpt>
      <trkpt lat="44.48354" lon="1.99658">
        <ele>355.114613</ele>
        <time>2022-05-22T06:27:29.151Z</time>
      </trkpt>
      <trkpt lat="44.48353" lon="1.99674">
        <ele>355.553855</ele>
        <time>2022-05-22T06:27:32.152Z</time>
      </trkpt>
      <trkpt lat="44.48354" lon="1.9969">
        <ele>355.99506</ele>
        <time>2022-05-22T06:27:35.151Z</time>
      </trkpt>
      <trkpt lat="44.48354" lon="1.99708">
        <ele>356.46285</ele>
        <time>2022-05-22T06:27:38.151Z</time>
      </trkpt>
      <trkpt lat="44.48353" lon="1.99725">
        <ele>356.937422</ele>
        <time>2022-05-22T06:27:41.147Z</time>
      </trkpt>
      <trkpt lat="44.4835" lon="1.99743">
        <ele>357.426573</ele>
        <time>2022-05-22T06:27:44.149Z</time>
      </trkpt>
      <trkpt lat="44.48345" lon="1.99758">
        <ele>357.88558</ele>
        <time>2022-05-22T06:27:47.148Z</time>
      </trkpt>
      <trkpt lat="44.48338" lon="1.99772">
        <ele>358.34331</ele>
        <time>2022-05-22T06:27:50.156Z</time>
      </trkpt>
      <trkpt lat="44.4833" lon="1.99785">
        <ele>358.806983</ele>
        <time>2022-05-22T06:27:53.156Z</time>
      </trkpt>
      <trkpt lat="44.48322" lon="1.99798">
        <ele>359.274476</ele>
        <time>2022-05-22T06:27:56.150Z</time>
      </trkpt>
      <trkpt lat="44.48315" lon="1.99813">
        <ele>359.752105</ele>
        <time>2022-05-22T06:27:59.153Z</time>
      </trkpt>
      <trkpt lat="44.48313" lon="1.99831">
        <ele>360.238443</ele>
        <time>2022-05-22T06:28:02.154Z</time>
      </trkpt>
      <trkpt lat="44.48312" lon="1.99844">
        <ele>360.590187</ele>
        <time>2022-05-22T06:28:04.149Z</time>
      </trkpt>
      <trkpt lat="44.48315" lon="1.99861">
        <ele>361.071908</ele>
        <time>2022-05-22T06:28:07.151Z</time>
      </trkpt>
      <trkpt lat="44.48318" lon="1.99877">
        <ele>361.566926</ele>
        <time>2022-05-22T06:28:10.153Z</time>
      </trkpt>
      <trkpt lat="44.48318" lon="1.99892">
        <ele>362.32321</ele>
        <time>2022-05-22T06:28:14.151Z</time>
      </trkpt>
      <trkpt lat="44.48316" lon="1.99906">
        <ele>363.051711</ele>
        <time>2022-05-22T06:28:18.154Z</time>
      </trkpt>
      <trkpt lat="44.48314" lon="1.9992">
        <ele>363.777341</ele>
        <time>2022-05-22T06:28:22.151Z</time>
      </trkpt>
      <trkpt lat="44.4831" lon="1.99934">
        <ele>364.516049</ele>
        <time>2022-05-22T06:28:26.153Z</time>
      </trkpt>
      <trkpt lat="44.48306" lon="1.99947">
        <ele>365.242425</ele>
        <time>2022-05-22T06:28:30.154Z</time>
      </trkpt>
      <trkpt lat="44.483" lon="1.9996">
        <ele>366.009476</ele>
        <time>2022-05-22T06:28:34.149Z</time>
      </trkpt>
      <trkpt lat="44.48298" lon="1.99973">
        <ele>366.702062</ele>
        <time>2022-05-22T06:28:38.152Z</time>
      </trkpt>
      <trkpt lat="44.48295" lon="1.99986">
        <ele>367.369524</ele>
        <time>2022-05-22T06:28:42.151Z</time>
      </trkpt>
      <trkpt lat="44.48292" lon="2">
        <ele>368.134477</ele>
        <time>2022-05-22T06:28:47.149Z</time>
      </trkpt>
      <trkpt lat="44.48288" lon="2.00013">
        <ele>368.827775</ele>
        <time>2022-05-22T06:28:51.147Z</time>
      </trkpt>
      <trkpt lat="44.48286" lon="2.00026">
        <ele>369.484354</ele>
        <time>2022-05-22T06:28:55.151Z</time>
      </trkpt>
      <trkpt lat="44.48283" lon="2.00038">
        <ele>370.129835</ele>
        <time>2022-05-22T06:28:59.153Z</time>
      </trkpt>
      <trkpt lat="44.48278" lon="2.0005">
        <ele>370.833456</ele>
        <time>2022-05-22T06:29:03.149Z</time>
      </trkpt>
      <trkpt lat="44.48273" lon="2.00063">
        <ele>371.581965</ele>
        <time>2022-05-22T06:29:07.156Z</time>
      </trkpt>
      <trkpt lat="44.48269" lon="2.00075">
        <ele>372.231046</ele>
        <time>2022-05-22T06:29:11.141Z</time>
      </trkpt>
      <trkpt lat="44.48264" lon="2.00087">
        <ele>372.943548</ele>
        <time>2022-05-22T06:29:15.155Z</time>
      </trkpt>
      <trkpt lat="44.48259" lon="2.00098">
        <ele>373.627061</ele>
        <time>2022-05-22T06:29:19.154Z</time>
      </trkpt>
      <trkpt lat="44.48253" lon="2.0011">
        <ele>374.186287</ele>
        <time>2022-05-22T06:29:24.151Z</time>
      </trkpt>
      <trkpt lat="44.48246" lon="2.00122">
        <ele>373.977332</ele>
        <time>2022-05-22T06:29:29.156Z</time>
      </trkpt>
      <trkpt lat="44.48242" lon="2.00136">
        <ele>373.773406</ele>
        <time>2022-05-22T06:29:34.154Z</time>
      </trkpt>
      <trkpt lat="44.4825" lon="2.00144">
        <ele>373.567982</ele>
        <time>2022-05-22T06:29:39.150Z</time>
      </trkpt>
      <trkpt lat="44.48262" lon="2.00144">
        <ele>373.35318</ele>
        <time>2022-05-22T06:29:43.144Z</time>
      </trkpt>
      <trkpt lat="44.48272" lon="2.00146">
        <ele>373.161591</ele>
        <time>2022-05-22T06:29:46.151Z</time>
      </trkpt>
      <trkpt lat="44.48281" lon="2.0015">
        <ele>372.965623</ele>
        <time>2022-05-22T06:29:49.153Z</time>
      </trkpt>
      <trkpt lat="44.48293" lon="2.00158">
        <ele>372.730329</ele>
        <time>2022-05-22T06:29:52.150Z</time>
      </trkpt>
      <trkpt lat="44.48302" lon="2.00161">
        <ele>372.554301</ele>
        <time>2022-05-22T06:29:54.149Z</time>
      </trkpt>
      <trkpt lat="44.48312" lon="2.00163">
        <ele>372.351053</ele>
        <time>2022-05-22T06:29:56.155Z</time>
      </trkpt>
      <trkpt lat="44.48324" lon="2.00159">
        <ele>372.123719</ele>
        <time>2022-05-22T06:29:58.149Z</time>
      </trkpt>
      <trkpt lat="44.48335" lon="2.0015">
        <ele>371.873321</ele>
        <time>2022-05-22T06:30:00.152Z</time>
      </trkpt>
      <trkpt lat="44.48347" lon="2.00135">
        <ele>371.569035</ele>
        <time>2022-05-22T06:30:02.151Z</time>
      </trkpt>
      <trkpt lat="44.48361" lon="2.00125">
        <ele>371.271292</ele>
        <time>2022-05-22T06:30:04.155Z</time>
      </trkpt>
      <trkpt lat="44.48374" lon="2.0012">
        <ele>371.007598</ele>
        <time>2022-05-22T06:30:06.153Z</time>
      </trkpt>
      <trkpt lat="44.48388" lon="2.00125">
        <ele>371.009977</ele>
        <time>2022-05-22T06:30:08.152Z</time>
      </trkpt>
      <trkpt lat="44.48397" lon="2.00134">
        <ele>371.578759</ele>
        <time>2022-05-22T06:30:10.152Z</time>
      </trkpt>
      <trkpt lat="44.48407" lon="2.00144">
        <ele>372.269041</ele>
        <time>2022-05-22T06:30:13.150Z</time>
      </trkpt>
      <trkpt lat="44.48416" lon="2.00153">
        <ele>372.857071</ele>
        <time>2022-05-22T06:30:16.152Z</time>
      </trkpt>
      <trkpt lat="44.48425" lon="2.00162">
        <ele>373.500591</ele>
        <time>2022-05-22T06:30:19.152Z</time>
      </trkpt>
      <trkpt lat="44.48435" lon="2.00172">
        <ele>374.121866</ele>
        <time>2022-05-22T06:30:22.154Z</time>
      </trkpt>
      <trkpt lat="44.48444" lon="2.0018">
        <ele>374.714418</ele>
        <time>2022-05-22T06:30:27.151Z</time>
      </trkpt>
      <trkpt lat="44.48452" lon="2.00186">
        <ele>375.209683</ele>
        <time>2022-05-22T06:30:31.150Z</time>
      </trkpt>
      <trkpt lat="44.48461" lon="2.00194">
        <ele>375.780507</ele>
        <time>2022-05-22T06:30:35.153Z</time>
      </trkpt>
      <trkpt lat="44.4847" lon="2.00202">
        <ele>376.351906</ele>
        <time>2022-05-22T06:30:39.146Z</time>
      </trkpt>
      <trkpt lat="44.48478" lon="2.00208">
        <ele>376.863383</ele>
        <time>2022-05-22T06:30:43.173Z</time>
      </trkpt>
      <trkpt lat="44.48486" lon="2.00215">
        <ele>377.389949</ele>
        <time>2022-05-22T06:30:47.149Z</time>
      </trkpt>
      <trkpt lat="44.48494" lon="2.00223">
        <ele>377.91271</ele>
        <time>2022-05-22T06:30:51.159Z</time>
      </trkpt>
      <trkpt lat="44.48501" lon="2.00232">
        <ele>378.445511</ele>
        <time>2022-05-22T06:30:55.154Z</time>
      </trkpt>
      <trkpt lat="44.48509" lon="2.00241">
        <ele>379.011889</ele>
        <time>2022-05-22T06:30:59.152Z</time>
      </trkpt>
      <trkpt lat="44.48517" lon="2.00249">
        <ele>379.535218</ele>
        <time>2022-05-22T06:31:03.149Z</time>
      </trkpt>
      <trkpt lat="44.48526" lon="2.00255">
        <ele>380.049695</ele>
        <time>2022-05-22T06:31:07.151Z</time>
      </trkpt>
      <trkpt lat="44.48534" lon="2.00259">
        <ele>380.540069</ele>
        <time>2022-05-22T06:31:11.152Z</time>
      </trkpt>
      <trkpt lat="44.48543" lon="2.00261">
        <ele>381.047671</ele>
        <time>2022-05-22T06:31:15.150Z</time>
      </trkpt>
      <trkpt lat="44.48554" lon="2.00262">
        <ele>381.642628</ele>
        <time>2022-05-22T06:31:20.149Z</time>
      </trkpt>
      <trkpt lat="44.48565" lon="2.00262">
        <ele>382.237275</ele>
        <time>2022-05-22T06:31:25.150Z</time>
      </trkpt>
      <trkpt lat="44.48574" lon="2.00261">
        <ele>382.738062</ele>
        <time>2022-05-22T06:31:29.150Z</time>
      </trkpt>
      <trkpt lat="44.48584" lon="2.00263">
        <ele>383.285242</ele>
        <time>2022-05-22T06:31:34.142Z</time>
      </trkpt>
      <trkpt lat="44.48593" lon="2.00265">
        <ele>383.781899</ele>
        <time>2022-05-22T06:31:39.150Z</time>
      </trkpt>
      <trkpt lat="44.48602" lon="2.00268">
        <ele>384.298188</ele>
        <time>2022-05-22T06:31:44.159Z</time>
      </trkpt>
      <trkpt lat="44.48611" lon="2.00273">
        <ele>384.833882</ele>
        <time>2022-05-22T06:31:50.155Z</time>
      </trkpt>
      <trkpt lat="44.4862" lon="2.0028">
        <ele>385.374569</ele>
        <time>2022-05-22T06:31:56.152Z</time>
      </trkpt>
      <trkpt lat="44.48628" lon="2.00285">
        <ele>385.903045</ele>
        <time>2022-05-22T06:32:01.154Z</time>
      </trkpt>
      <trkpt lat="44.48637" lon="2.0029">
        <ele>386.398651</ele>
        <time>2022-05-22T06:32:05.148Z</time>
      </trkpt>
      <trkpt lat="44.48645" lon="2.00296">
        <ele>386.900983</ele>
        <time>2022-05-22T06:32:09.156Z</time>
      </trkpt>
      <trkpt lat="44.48653" lon="2.00304">
        <ele>387.455796</ele>
        <time>2022-05-22T06:32:13.142Z</time>
      </trkpt>
      <trkpt lat="44.48661" lon="2.0031">
        <ele>387.974198</ele>
        <time>2022-05-22T06:32:17.151Z</time>
      </trkpt>
      <trkpt lat="44.48671" lon="2.00313">
        <ele>388.523066</ele>
        <time>2022-05-22T06:32:21.157Z</time>
      </trkpt>
      <trkpt lat="44.48679" lon="2.00306">
        <ele>389.058149</ele>
        <time>2022-05-22T06:32:25.153Z</time>
      </trkpt>
      <trkpt lat="44.48687" lon="2.00297">
        <ele>389.587571</ele>
        <time>2022-05-22T06:32:29.152Z</time>
      </trkpt>
      <trkpt lat="44.48696" lon="2.00285">
        <ele>390.268415</ele>
        <time>2022-05-22T06:32:33.152Z</time>
      </trkpt>
      <trkpt lat="44.48702" lon="2.00276">
        <ele>390.169708</ele>
        <time>2022-05-22T06:32:35.150Z</time>
      </trkpt>
      <trkpt lat="44.48709" lon="2.00264">
        <ele>389.506601</ele>
        <time>2022-05-22T06:32:37.158Z</time>
      </trkpt>
      <trkpt lat="44.48718" lon="2.0025">
        <ele>388.748525</ele>
        <time>2022-05-22T06:32:39.152Z</time>
      </trkpt>
      <trkpt lat="44.48727" lon="2.00234">
        <ele>387.879287</ele>
        <time>2022-05-22T06:32:41.153Z</time>
      </trkpt>
      <trkpt lat="44.48735" lon="2.00214">
        <ele>386.900297</ele>
        <time>2022-05-22T06:32:43.157Z</time>
      </trkpt>
      <trkpt lat="44.48745" lon="2.00192">
        <ele>385.804327</ele>
        <time>2022-05-22T06:32:45.154Z</time>
      </trkpt>
      <trkpt lat="44.48749" lon="2.00181">
        <ele>385.255777</ele>
        <time>2022-05-22T06:32:46.164Z</time>
      </trkpt>
      <trkpt lat="44.48754" lon="2.0017">
        <ele>384.676175</ele>
        <time>2022-05-22T06:32:47.155Z</time>
      </trkpt>
      <trkpt lat="44.4876" lon="2.00157">
        <ele>384.038918</ele>
        <time>2022-05-22T06:32:48.154Z</time>
      </trkpt>
      <trkpt lat="44.48767" lon="2.00146">
        <ele>383.417758</ele>
        <time>2022-05-22T06:32:49.152Z</time>
      </trkpt>
      <trkpt lat="44.48774" lon="2.00135">
        <ele>382.809086</ele>
        <time>2022-05-22T06:32:50.163Z</time>
      </trkpt>
      <trkpt lat="44.48781" lon="2.00125">
        <ele>382.214799</ele>
        <time>2022-05-22T06:32:51.154Z</time>
      </trkpt>
      <trkpt lat="44.48788" lon="2.00117">
        <ele>381.632165</ele>
        <time>2022-05-22T06:32:52.148Z</time>
      </trkpt>
      <trkpt lat="44.48796" lon="2.00108">
        <ele>381.036316</ele>
        <time>2022-05-22T06:32:53.150Z</time>
      </trkpt>
      <trkpt lat="44.48804" lon="2.001">
        <ele>380.450377</ele>
        <time>2022-05-22T06:32:54.158Z</time>
      </trkpt>
      <trkpt lat="44.4882" lon="2.00086">
        <ele>379.299892</ele>
        <time>2022-05-22T06:32:56.152Z</time>
      </trkpt>
      <trkpt lat="44.48829" lon="2.00079">
        <ele>378.633307</ele>
        <time>2022-05-22T06:32:57.154Z</time>
      </trkpt>
      <trkpt lat="44.48837" lon="2.00074">
        <ele>378.014134</ele>
        <time>2022-05-22T06:32:58.152Z</time>
      </trkpt>
      <trkpt lat="44.48847" lon="2.00069">
        <ele>377.352706</ele>
        <time>2022-05-22T06:32:59.151Z</time>
      </trkpt>
      <trkpt lat="44.48856" lon="2.00066">
        <ele>376.731311</ele>
        <time>2022-05-22T06:33:00.148Z</time>
      </trkpt>
      <trkpt lat="44.48865" lon="2.0006">
        <ele>376.084442</ele>
        <time>2022-05-22T06:33:01.147Z</time>
      </trkpt>
      <trkpt lat="44.48882" lon="2.00054">
        <ele>374.882415</ele>
        <time>2022-05-22T06:33:03.155Z</time>
      </trkpt>
      <trkpt lat="44.48892" lon="2.0005">
        <ele>374.227828</ele>
        <time>2022-05-22T06:33:04.152Z</time>
      </trkpt>
      <trkpt lat="44.48908" lon="2.00044">
        <ele>373.118901</ele>
        <time>2022-05-22T06:33:06.174Z</time>
      </trkpt>
      <trkpt lat="44.48925" lon="2.0004">
        <ele>371.966915</ele>
        <time>2022-05-22T06:33:08.151Z</time>
      </trkpt>
      <trkpt lat="44.48942" lon="2.00035">
        <ele>370.8297</ele>
        <time>2022-05-22T06:33:10.159Z</time>
      </trkpt>
      <trkpt lat="44.48958" lon="2.00029">
        <ele>369.721987</ele>
        <time>2022-05-22T06:33:12.150Z</time>
      </trkpt>
      <trkpt lat="44.48973" lon="2.0002">
        <ele>368.659862</ele>
        <time>2022-05-22T06:33:14.157Z</time>
      </trkpt>
      <trkpt lat="44.48988" lon="2.00011">
        <ele>367.967965</ele>
        <time>2022-05-22T06:33:16.153Z</time>
      </trkpt>
      <trkpt lat="44.49001" lon="1.99998">
        <ele>368.287248</ele>
        <time>2022-05-22T06:33:18.153Z</time>
      </trkpt>
      <trkpt lat="44.49013" lon="1.99984">
        <ele>368.592893</ele>
        <time>2022-05-22T06:33:20.157Z</time>
      </trkpt>
      <trkpt lat="44.49024" lon="1.9997">
        <ele>368.886504</ele>
        <time>2022-05-22T06:33:22.153Z</time>
      </trkpt>
      <trkpt lat="44.49035" lon="1.99957">
        <ele>369.161982</ele>
        <time>2022-05-22T06:33:24.149Z</time>
      </trkpt>
      <trkpt lat="44.49044" lon="1.99944">
        <ele>369.427648</ele>
        <time>2022-05-22T06:33:26.151Z</time>
      </trkpt>
      <trkpt lat="44.49054" lon="1.99934">
        <ele>369.656017</ele>
        <time>2022-05-22T06:33:28.158Z</time>
      </trkpt>
      <trkpt lat="44.49063" lon="1.99922">
        <ele>369.90112</ele>
        <time>2022-05-22T06:33:31.154Z</time>
      </trkpt>
      <trkpt lat="44.49071" lon="1.9991">
        <ele>370.128762</ele>
        <time>2022-05-22T06:33:34.149Z</time>
      </trkpt>
      <trkpt lat="44.49079" lon="1.99901">
        <ele>370.342813</ele>
        <time>2022-05-22T06:33:37.155Z</time>
      </trkpt>
      <trkpt lat="44.49087" lon="1.9989">
        <ele>370.559564</ele>
        <time>2022-05-22T06:33:40.158Z</time>
      </trkpt>
      <trkpt lat="44.49096" lon="1.99879">
        <ele>370.793193</ele>
        <time>2022-05-22T06:33:43.153Z</time>
      </trkpt>
      <trkpt lat="44.49105" lon="1.99867">
        <ele>371.035369</ele>
        <time>2022-05-22T06:33:46.154Z</time>
      </trkpt>
      <trkpt lat="44.49115" lon="1.99855">
        <ele>371.300655</ele>
        <time>2022-05-22T06:33:49.146Z</time>
      </trkpt>
      <trkpt lat="44.49122" lon="1.99846">
        <ele>371.47721</ele>
        <time>2022-05-22T06:33:51.154Z</time>
      </trkpt>
      <trkpt lat="44.4913" lon="1.99837">
        <ele>371.651691</ele>
        <time>2022-05-22T06:33:53.156Z</time>
      </trkpt>
      <trkpt lat="44.49138" lon="1.99828">
        <ele>371.834483</ele>
        <time>2022-05-22T06:33:55.153Z</time>
      </trkpt>
      <trkpt lat="44.49145" lon="1.99819">
        <ele>372.004176</ele>
        <time>2022-05-22T06:33:57.141Z</time>
      </trkpt>
      <trkpt lat="44.49153" lon="1.99812">
        <ele>372.167359</ele>
        <time>2022-05-22T06:33:59.152Z</time>
      </trkpt>
      <trkpt lat="44.4916" lon="1.99803">
        <ele>372.328047</ele>
        <time>2022-05-22T06:34:01.152Z</time>
      </trkpt>
      <trkpt lat="44.4917" lon="1.99793">
        <ele>372.542613</ele>
        <time>2022-05-22T06:34:04.151Z</time>
      </trkpt>
      <trkpt lat="44.49177" lon="1.99785">
        <ele>372.698674</ele>
        <time>2022-05-22T06:34:06.153Z</time>
      </trkpt>
      <trkpt lat="44.49187" lon="1.99774">
        <ele>372.926704</ele>
        <time>2022-05-22T06:34:09.149Z</time>
      </trkpt>
      <trkpt lat="44.49198" lon="1.99764">
        <ele>373.155178</ele>
        <time>2022-05-22T06:34:12.152Z</time>
      </trkpt>
      <trkpt lat="44.49206" lon="1.99757">
        <ele>373.312904</ele>
        <time>2022-05-22T06:34:14.157Z</time>
      </trkpt>
      <trkpt lat="44.49218" lon="1.99745">
        <ele>373.572358</ele>
        <time>2022-05-22T06:34:17.154Z</time>
      </trkpt>
      <trkpt lat="44.49227" lon="1.99738">
        <ele>373.739344</ele>
        <time>2022-05-22T06:34:19.151Z</time>
      </trkpt>
      <trkpt lat="44.49235" lon="1.99732">
        <ele>373.915159</ele>
        <time>2022-05-22T06:34:21.155Z</time>
      </trkpt>
      <trkpt lat="44.49244" lon="1.99727">
        <ele>374.073985</ele>
        <time>2022-05-22T06:34:23.151Z</time>
      </trkpt>
      <trkpt lat="44.49253" lon="1.99724">
        <ele>374.240054</ele>
        <time>2022-05-22T06:34:25.156Z</time>
      </trkpt>
      <trkpt lat="44.49266" lon="1.99723">
        <ele>374.461585</ele>
        <time>2022-05-22T06:34:28.151Z</time>
      </trkpt>
      <trkpt lat="44.49277" lon="1.99724">
        <ele>374.647738</ele>
        <time>2022-05-22T06:34:31.152Z</time>
      </trkpt>
      <trkpt lat="44.49287" lon="1.99721">
        <ele>374.839605</ele>
        <time>2022-05-22T06:34:35.154Z</time>
      </trkpt>
      <trkpt lat="44.49298" lon="1.99716">
        <ele>375.042284</ele>
        <time>2022-05-22T06:34:39.151Z</time>
      </trkpt>
      <trkpt lat="44.49305" lon="1.99708">
        <ele>375.211121</ele>
        <time>2022-05-22T06:34:43.154Z</time>
      </trkpt>
      <trkpt lat="44.49314" lon="1.99698">
        <ele>375.407601</ele>
        <time>2022-05-22T06:34:48.153Z</time>
      </trkpt>
      <trkpt lat="44.49324" lon="1.99691">
        <ele>375.607706</ele>
        <time>2022-05-22T06:34:53.154Z</time>
      </trkpt>
      <trkpt lat="44.49334" lon="1.99684">
        <ele>375.79831</ele>
        <time>2022-05-22T06:34:58.152Z</time>
      </trkpt>
      <trkpt lat="44.49342" lon="1.99676">
        <ele>375.982658</ele>
        <time>2022-05-22T06:35:02.144Z</time>
      </trkpt>
      <trkpt lat="44.49351" lon="1.99668">
        <ele>376.171349</ele>
        <time>2022-05-22T06:35:07.150Z</time>
      </trkpt>
      <trkpt lat="44.49357" lon="1.99658">
        <ele>376.331793</ele>
        <time>2022-05-22T06:35:11.150Z</time>
      </trkpt>
      <trkpt lat="44.49366" lon="1.99653">
        <ele>376.513105</ele>
        <time>2022-05-22T06:35:15.162Z</time>
      </trkpt>
      <trkpt lat="44.49375" lon="1.99647">
        <ele>376.693372</ele>
        <time>2022-05-22T06:35:19.163Z</time>
      </trkpt>
      <trkpt lat="44.49383" lon="1.99639">
        <ele>376.864484</ele>
        <time>2022-05-22T06:35:22.154Z</time>
      </trkpt>
      <trkpt lat="44.49391" lon="1.99631">
        <ele>377.039924</ele>
        <time>2022-05-22T06:35:25.154Z</time>
      </trkpt>
      <trkpt lat="44.49399" lon="1.99623">
        <ele>377.201681</ele>
        <time>2022-05-22T06:35:28.152Z</time>
      </trkpt>
      <trkpt lat="44.49408" lon="1.99614">
        <ele>377.396053</ele>
        <time>2022-05-22T06:35:31.154Z</time>
      </trkpt>
      <trkpt lat="44.49417" lon="1.99605">
        <ele>377.594692</ele>
        <time>2022-05-22T06:35:34.168Z</time>
      </trkpt>
      <trkpt lat="44.49426" lon="1.99597">
        <ele>377.637604</ele>
        <time>2022-05-22T06:35:37.151Z</time>
      </trkpt>
      <trkpt lat="44.49437" lon="1.99587">
        <ele>377.19649</ele>
        <time>2022-05-22T06:35:40.155Z</time>
      </trkpt>
      <trkpt lat="44.49448" lon="1.99577">
        <ele>376.732829</ele>
        <time>2022-05-22T06:35:43.159Z</time>
      </trkpt>
      <trkpt lat="44.49455" lon="1.9957">
        <ele>376.40991</ele>
        <time>2022-05-22T06:35:45.150Z</time>
      </trkpt>
      <trkpt lat="44.49463" lon="1.99561">
        <ele>376.062611</ele>
        <time>2022-05-22T06:35:47.153Z</time>
      </trkpt>
      <trkpt lat="44.49472" lon="1.99553">
        <ele>375.666518</ele>
        <time>2022-05-22T06:35:49.152Z</time>
      </trkpt>
      <trkpt lat="44.4948" lon="1.99546">
        <ele>375.347299</ele>
        <time>2022-05-22T06:35:51.153Z</time>
      </trkpt>
      <trkpt lat="44.4949" lon="1.99537">
        <ele>374.939737</ele>
        <time>2022-05-22T06:35:53.156Z</time>
      </trkpt>
      <trkpt lat="44.49498" lon="1.99526">
        <ele>374.54005</ele>
        <time>2022-05-22T06:35:55.154Z</time>
      </trkpt>
      <trkpt lat="44.49505" lon="1.99512">
        <ele>374.110554</ele>
        <time>2022-05-22T06:35:57.156Z</time>
      </trkpt>
      <trkpt lat="44.49514" lon="1.99504">
        <ele>373.74442</ele>
        <time>2022-05-22T06:35:59.161Z</time>
      </trkpt>
      <trkpt lat="44.49524" lon="1.99493">
        <ele>373.293408</ele>
        <time>2022-05-22T06:36:01.152Z</time>
      </trkpt>
      <trkpt lat="44.49534" lon="1.9948">
        <ele>372.812793</ele>
        <time>2022-05-22T06:36:03.155Z</time>
      </trkpt>
      <trkpt lat="44.49547" lon="1.99468">
        <ele>372.271729</ele>
        <time>2022-05-22T06:36:05.154Z</time>
      </trkpt>
      <trkpt lat="44.49558" lon="1.99456">
        <ele>371.78084</ele>
        <time>2022-05-22T06:36:07.150Z</time>
      </trkpt>
      <trkpt lat="44.4957" lon="1.99446">
        <ele>371.278432</ele>
        <time>2022-05-22T06:36:09.150Z</time>
      </trkpt>
      <trkpt lat="44.49581" lon="1.99433">
        <ele>370.779807</ele>
        <time>2022-05-22T06:36:11.154Z</time>
      </trkpt>
      <trkpt lat="44.49595" lon="1.99422">
        <ele>370.209981</ele>
        <time>2022-05-22T06:36:13.152Z</time>
      </trkpt>
      <trkpt lat="44.49607" lon="1.99408">
        <ele>369.665675</ele>
        <time>2022-05-22T06:36:15.159Z</time>
      </trkpt>
      <trkpt lat="44.49621" lon="1.99395">
        <ele>369.069359</ele>
        <time>2022-05-22T06:36:17.372Z</time>
      </trkpt>
      <trkpt lat="44.49635" lon="1.99381">
        <ele>368.455664</ele>
        <time>2022-05-22T06:36:19.362Z</time>
      </trkpt>
      <trkpt lat="44.4965" lon="1.99371">
        <ele>367.860781</ele>
        <time>2022-05-22T06:36:21.365Z</time>
      </trkpt>
      <trkpt lat="44.49659" lon="1.99367">
        <ele>367.537093</ele>
        <time>2022-05-22T06:36:22.392Z</time>
      </trkpt>
      <trkpt lat="44.49675" lon="1.9936">
        <ele>366.929683</ele>
        <time>2022-05-22T06:36:24.364Z</time>
      </trkpt>
      <trkpt lat="44.4969" lon="1.99355">
        <ele>366.395042</ele>
        <time>2022-05-22T06:36:26.370Z</time>
      </trkpt>
      <trkpt lat="44.49701" lon="1.99349">
        <ele>365.961504</ele>
        <time>2022-05-22T06:36:28.368Z</time>
      </trkpt>
      <trkpt lat="44.49712" lon="1.99343">
        <ele>365.541741</ele>
        <time>2022-05-22T06:36:30.375Z</time>
      </trkpt>
      <trkpt lat="44.49721" lon="1.9934">
        <ele>365.199599</ele>
        <time>2022-05-22T06:36:32.363Z</time>
      </trkpt>
      <trkpt lat="44.49732" lon="1.99338">
        <ele>364.871273</ele>
        <time>2022-05-22T06:36:35.371Z</time>
      </trkpt>
      <trkpt lat="44.49736" lon="1.99325">
        <ele>364.59224</ele>
        <time>2022-05-22T06:36:38.370Z</time>
      </trkpt>
      <trkpt lat="44.49742" lon="1.99313">
        <ele>364.308</ele>
        <time>2022-05-22T06:36:41.370Z</time>
      </trkpt>
      <trkpt lat="44.49747" lon="1.99298">
        <ele>363.993227</ele>
        <time>2022-05-22T06:36:44.363Z</time>
      </trkpt>
      <trkpt lat="44.49751" lon="1.99282">
        <ele>363.658586</ele>
        <time>2022-05-22T06:36:48.368Z</time>
      </trkpt>
      <trkpt lat="44.49755" lon="1.9927">
        <ele>363.407552</ele>
        <time>2022-05-22T06:36:50.373Z</time>
      </trkpt>
      <trkpt lat="44.49763" lon="1.99259">
        <ele>363.088491</ele>
        <time>2022-05-22T06:36:53.369Z</time>
      </trkpt>
      <trkpt lat="44.49769" lon="1.99247">
        <ele>362.810317</ele>
        <time>2022-05-22T06:36:55.369Z</time>
      </trkpt>
      <trkpt lat="44.49776" lon="1.99235">
        <ele>362.509717</ele>
        <time>2022-05-22T06:36:57.370Z</time>
      </trkpt>
      <trkpt lat="44.49782" lon="1.99225">
        <ele>362.245616</ele>
        <time>2022-05-22T06:36:59.371Z</time>
      </trkpt>
      <trkpt lat="44.4979" lon="1.99214">
        <ele>361.945282</ele>
        <time>2022-05-22T06:37:01.366Z</time>
      </trkpt>
      <trkpt lat="44.49795" lon="1.99201">
        <ele>361.652082</ele>
        <time>2022-05-22T06:37:03.366Z</time>
      </trkpt>
      <trkpt lat="44.49799" lon="1.99188">
        <ele>361.385292</ele>
        <time>2022-05-22T06:37:05.367Z</time>
      </trkpt>
      <trkpt lat="44.49806" lon="1.99173">
        <ele>361.024684</ele>
        <time>2022-05-22T06:37:07.367Z</time>
      </trkpt>
      <trkpt lat="44.49812" lon="1.9916">
        <ele>360.726157</ele>
        <time>2022-05-22T06:37:09.367Z</time>
      </trkpt>
      <trkpt lat="44.49818" lon="1.99147">
        <ele>360.422142</ele>
        <time>2022-05-22T06:37:11.366Z</time>
      </trkpt>
      <trkpt lat="44.49825" lon="1.99133">
        <ele>360.124421</ele>
        <time>2022-05-22T06:37:13.362Z</time>
      </trkpt>
      <trkpt lat="44.49831" lon="1.99121">
        <ele>360.345931</ele>
        <time>2022-05-22T06:37:15.367Z</time>
      </trkpt>
      <trkpt lat="44.49837" lon="1.99109">
        <ele>360.574539</ele>
        <time>2022-05-22T06:37:17.367Z</time>
      </trkpt>
      <trkpt lat="44.49844" lon="1.99095">
        <ele>360.816559</ele>
        <time>2022-05-22T06:37:19.365Z</time>
      </trkpt>
      <trkpt lat="44.49852" lon="1.99084">
        <ele>361.049648</ele>
        <time>2022-05-22T06:37:21.368Z</time>
      </trkpt>
      <trkpt lat="44.49859" lon="1.9907">
        <ele>361.300224</ele>
        <time>2022-05-22T06:37:23.364Z</time>
      </trkpt>
      <trkpt lat="44.49866" lon="1.99056">
        <ele>361.556377</ele>
        <time>2022-05-22T06:37:25.366Z</time>
      </trkpt>
      <trkpt lat="44.49873" lon="1.99043">
        <ele>361.794484</ele>
        <time>2022-05-22T06:37:27.371Z</time>
      </trkpt>
      <trkpt lat="44.4988" lon="1.99031">
        <ele>362.027958</ele>
        <time>2022-05-22T06:37:29.372Z</time>
      </trkpt>
      <trkpt lat="44.49888" lon="1.99015">
        <ele>362.311983</ele>
        <time>2022-05-22T06:37:31.373Z</time>
      </trkpt>
      <trkpt lat="44.49897" lon="1.99001">
        <ele>362.596796</ele>
        <time>2022-05-22T06:37:33.368Z</time>
      </trkpt>
      <trkpt lat="44.49906" lon="1.98987">
        <ele>362.868028</ele>
        <time>2022-05-22T06:37:35.362Z</time>
      </trkpt>
      <trkpt lat="44.49914" lon="1.98973">
        <ele>363.131403</ele>
        <time>2022-05-22T06:37:37.368Z</time>
      </trkpt>
      <trkpt lat="44.49921" lon="1.98957">
        <ele>363.405865</ele>
        <time>2022-05-22T06:37:39.365Z</time>
      </trkpt>
      <trkpt lat="44.49928" lon="1.98943">
        <ele>363.654801</ele>
        <time>2022-05-22T06:37:41.368Z</time>
      </trkpt>
      <trkpt lat="44.49935" lon="1.9893">
        <ele>364.140038</ele>
        <time>2022-05-22T06:37:43.367Z</time>
      </trkpt>
      <trkpt lat="44.49942" lon="1.98917">
        <ele>365.203129</ele>
        <time>2022-05-22T06:37:45.368Z</time>
      </trkpt>
      <trkpt lat="44.49947" lon="1.98905">
        <ele>366.15857</ele>
        <time>2022-05-22T06:37:47.365Z</time>
      </trkpt>
      <trkpt lat="44.49956" lon="1.98891">
        <ele>367.400312</ele>
        <time>2022-05-22T06:37:50.367Z</time>
      </trkpt>
      <trkpt lat="44.49966" lon="1.9888">
        <ele>368.59342</ele>
        <time>2022-05-22T06:37:53.367Z</time>
      </trkpt>
      <trkpt lat="44.49973" lon="1.9887">
        <ele>369.473317</ele>
        <time>2022-05-22T06:37:56.365Z</time>
      </trkpt>
      <trkpt lat="44.49979" lon="1.98859">
        <ele>370.413439</ele>
        <time>2022-05-22T06:37:59.363Z</time>
      </trkpt>
      <trkpt lat="44.49986" lon="1.9885">
        <ele>371.331937</ele>
        <time>2022-05-22T06:38:03.806Z</time>
      </trkpt>
      <trkpt lat="44.49993" lon="1.98839">
        <ele>372.301835</ele>
        <time>2022-05-22T06:38:07.808Z</time>
      </trkpt>
      <trkpt lat="44.50001" lon="1.98829">
        <ele>373.261367</ele>
        <time>2022-05-22T06:38:13.817Z</time>
      </trkpt>
      <trkpt lat="44.50008" lon="1.9882">
        <ele>374.186883</ele>
        <time>2022-05-22T06:38:19.824Z</time>
      </trkpt>
      <trkpt lat="44.50016" lon="1.98811">
        <ele>375.111363</ele>
        <time>2022-05-22T06:38:25.819Z</time>
      </trkpt>
      <trkpt lat="44.50022" lon="1.98801">
        <ele>375.957601</ele>
        <time>2022-05-22T06:38:30.803Z</time>
      </trkpt>
      <trkpt lat="44.50027" lon="1.98791">
        <ele>376.841944</ele>
        <time>2022-05-22T06:38:36.808Z</time>
      </trkpt>
      <trkpt lat="44.50034" lon="1.98779">
        <ele>377.802251</ele>
        <time>2022-05-22T06:38:42.813Z</time>
      </trkpt>
      <trkpt lat="44.5004" lon="1.98768">
        <ele>378.79505</ele>
        <time>2022-05-22T06:38:47.808Z</time>
      </trkpt>
      <trkpt lat="44.50048" lon="1.98757">
        <ele>379.81851</ele>
        <time>2022-05-22T06:38:53.807Z</time>
      </trkpt>
      <trkpt lat="44.50055" lon="1.98745">
        <ele>380.671296</ele>
        <time>2022-05-22T06:38:58.807Z</time>
      </trkpt>
      <trkpt lat="44.50062" lon="1.98735">
        <ele>380.919888</ele>
        <time>2022-05-22T06:39:04.808Z</time>
      </trkpt>
      <trkpt lat="44.5007" lon="1.98725">
        <ele>381.174905</ele>
        <time>2022-05-22T06:39:10.807Z</time>
      </trkpt>
      <trkpt lat="44.50076" lon="1.98713">
        <ele>381.42584</ele>
        <time>2022-05-22T06:39:15.806Z</time>
      </trkpt>
      <trkpt lat="44.50083" lon="1.98703">
        <ele>381.676893</ele>
        <time>2022-05-22T06:39:20.811Z</time>
      </trkpt>
      <trkpt lat="44.50092" lon="1.98698">
        <ele>381.896653</ele>
        <time>2022-05-22T06:39:26.806Z</time>
      </trkpt>
      <trkpt lat="44.50084" lon="1.9869">
        <ele>382.123763</ele>
        <time>2022-05-22T06:39:55.808Z</time>
      </trkpt>
      <trkpt lat="44.50091" lon="1.98699">
        <ele>382.342006</ele>
        <time>2022-05-22T06:40:18.808Z</time>
      </trkpt>
      <trkpt lat="44.50098" lon="1.98706">
        <ele>382.560272</ele>
        <time>2022-05-22T06:40:45.803Z</time>
      </trkpt>
      <trkpt lat="44.50107" lon="1.98713">
        <ele>382.791037</ele>
        <time>2022-05-22T06:40:52.806Z</time>
      </trkpt>
      <trkpt lat="44.50115" lon="1.98717">
        <ele>383.014875</ele>
        <time>2022-05-22T06:40:56.821Z</time>
      </trkpt>
      <trkpt lat="44.50126" lon="1.9872">
        <ele>383.278842</ele>
        <time>2022-05-22T06:40:59.813Z</time>
      </trkpt>
      <trkpt lat="44.50139" lon="1.98725">
        <ele>383.590534</ele>
        <time>2022-05-22T06:41:01.804Z</time>
      </trkpt>
      <trkpt lat="44.50151" lon="1.98732">
        <ele>383.904883</ele>
        <time>2022-05-22T06:41:03.806Z</time>
      </trkpt>
      <trkpt lat="44.50162" lon="1.9874">
        <ele>384.208055</ele>
        <time>2022-05-22T06:41:05.811Z</time>
      </trkpt>
      <trkpt lat="44.50172" lon="1.98751">
        <ele>384.514228</ele>
        <time>2022-05-22T06:41:07.809Z</time>
      </trkpt>
      <trkpt lat="44.50183" lon="1.98764">
        <ele>384.846718</ele>
        <time>2022-05-22T06:41:09.808Z</time>
      </trkpt>
      <trkpt lat="44.50191" lon="1.9878">
        <ele>385.052645</ele>
        <time>2022-05-22T06:41:11.806Z</time>
      </trkpt>
      <trkpt lat="44.50201" lon="1.98797">
        <ele>385.216038</ele>
        <time>2022-05-22T06:41:13.805Z</time>
      </trkpt>
      <trkpt lat="44.50212" lon="1.98814">
        <ele>385.387719</ele>
        <time>2022-05-22T06:41:15.811Z</time>
      </trkpt>
      <trkpt lat="44.50218" lon="1.98823">
        <ele>385.481081</ele>
        <time>2022-05-22T06:41:16.808Z</time>
      </trkpt>
      <trkpt lat="44.50222" lon="1.98842">
        <ele>385.62379</ele>
        <time>2022-05-22T06:41:18.811Z</time>
      </trkpt>
      <trkpt lat="44.50226" lon="1.9886">
        <ele>385.765638</ele>
        <time>2022-05-22T06:41:20.812Z</time>
      </trkpt>
      <trkpt lat="44.50232" lon="1.98874">
        <ele>385.885875</ele>
        <time>2022-05-22T06:41:22.808Z</time>
      </trkpt>
      <trkpt lat="44.50236" lon="1.98888">
        <ele>385.999829</ele>
        <time>2022-05-22T06:41:25.807Z</time>
      </trkpt>
      <trkpt lat="44.50239" lon="1.98903">
        <ele>386.115502</ele>
        <time>2022-05-22T06:41:30.811Z</time>
      </trkpt>
      <trkpt lat="44.50245" lon="1.98915">
        <ele>386.219036</ele>
        <time>2022-05-22T06:41:34.806Z</time>
      </trkpt>
      <trkpt lat="44.5025" lon="1.98928">
        <ele>386.329895</ele>
        <time>2022-05-22T06:41:39.823Z</time>
      </trkpt>
      <trkpt lat="44.50257" lon="1.98939">
        <ele>386.437208</ele>
        <time>2022-05-22T06:41:44.803Z</time>
      </trkpt>
      <trkpt lat="44.50265" lon="1.98948">
        <ele>386.54738</ele>
        <time>2022-05-22T06:41:49.808Z</time>
      </trkpt>
      <trkpt lat="44.50272" lon="1.98956">
        <ele>386.641201</ele>
        <time>2022-05-22T06:41:54.809Z</time>
      </trkpt>
      <trkpt lat="44.50279" lon="1.98966">
        <ele>386.73833</ele>
        <time>2022-05-22T06:42:01.807Z</time>
      </trkpt>
      <trkpt lat="44.50287" lon="1.98975">
        <ele>386.914914</ele>
        <time>2022-05-22T06:42:07.809Z</time>
      </trkpt>
      <trkpt lat="44.50294" lon="1.98982">
        <ele>387.209001</ele>
        <time>2022-05-22T06:42:11.805Z</time>
      </trkpt>
      <trkpt lat="44.50304" lon="1.98989">
        <ele>387.558228</ele>
        <time>2022-05-22T06:42:16.808Z</time>
      </trkpt>
      <trkpt lat="44.50313" lon="1.98998">
        <ele>387.909756</ele>
        <time>2022-05-22T06:42:21.808Z</time>
      </trkpt>
      <trkpt lat="44.50321" lon="1.99007">
        <ele>388.249666</ele>
        <time>2022-05-22T06:42:26.811Z</time>
      </trkpt>
      <trkpt lat="44.50329" lon="1.99017">
        <ele>388.602614</ele>
        <time>2022-05-22T06:42:32.827Z</time>
      </trkpt>
      <trkpt lat="44.50336" lon="1.99027">
        <ele>388.932527</ele>
        <time>2022-05-22T06:42:36.806Z</time>
      </trkpt>
      <trkpt lat="44.50344" lon="1.99037">
        <ele>389.281745</ele>
        <time>2022-05-22T06:42:41.806Z</time>
      </trkpt>
      <trkpt lat="44.50352" lon="1.99045">
        <ele>389.615086</ele>
        <time>2022-05-22T06:42:46.814Z</time>
      </trkpt>
      <trkpt lat="44.5036" lon="1.99056">
        <ele>389.959797</ele>
        <time>2022-05-22T06:42:51.809Z</time>
      </trkpt>
      <trkpt lat="44.50367" lon="1.99066">
        <ele>390.296884</ele>
        <time>2022-05-22T06:42:56.818Z</time>
      </trkpt>
      <trkpt lat="44.50375" lon="1.99076">
        <ele>390.628612</ele>
        <time>2022-05-22T06:43:01.805Z</time>
      </trkpt>
      <trkpt lat="44.50385" lon="1.99083">
        <ele>390.993721</ele>
        <time>2022-05-22T06:43:06.814Z</time>
      </trkpt>
      <trkpt lat="44.50394" lon="1.99081">
        <ele>391.297607</ele>
        <time>2022-05-22T06:43:10.811Z</time>
      </trkpt>
      <trkpt lat="44.50401" lon="1.99073">
        <ele>391.602612</ele>
        <time>2022-05-22T06:43:13.806Z</time>
      </trkpt>
      <trkpt lat="44.50409" lon="1.99061">
        <ele>391.971521</ele>
        <time>2022-05-22T06:43:16.810Z</time>
      </trkpt>
      <trkpt lat="44.50418" lon="1.99048">
        <ele>392.409722</ele>
        <time>2022-05-22T06:43:19.814Z</time>
      </trkpt>
      <trkpt lat="44.50426" lon="1.99039">
        <ele>392.66173</ele>
        <time>2022-05-22T06:43:21.812Z</time>
      </trkpt>
      <trkpt lat="44.50433" lon="1.99029">
        <ele>392.440367</ele>
        <time>2022-05-22T06:43:23.808Z</time>
      </trkpt>
      <trkpt lat="44.50439" lon="1.99014">
        <ele>392.168521</ele>
        <time>2022-05-22T06:43:26.814Z</time>
      </trkpt>
      <trkpt lat="44.50448" lon="1.99001">
        <ele>391.889933</ele>
        <time>2022-05-22T06:43:29.813Z</time>
      </trkpt>
      <trkpt lat="44.50457" lon="1.98988">
        <ele>391.606125</ele>
        <time>2022-05-22T06:43:32.806Z</time>
      </trkpt>
      <trkpt lat="44.50466" lon="1.98975">
        <ele>391.330654</ele>
        <time>2022-05-22T06:43:35.812Z</time>
      </trkpt>
      <trkpt lat="44.50474" lon="1.98963">
        <ele>391.059456</ele>
        <time>2022-05-22T06:43:38.815Z</time>
      </trkpt>
      <trkpt lat="44.50483" lon="1.98951">
        <ele>390.792011</ele>
        <time>2022-05-22T06:43:41.808Z</time>
      </trkpt>
      <trkpt lat="44.50492" lon="1.98939">
        <ele>390.520685</ele>
        <time>2022-05-22T06:43:44.821Z</time>
      </trkpt>
      <trkpt lat="44.50501" lon="1.98925">
        <ele>390.227371</ele>
        <time>2022-05-22T06:43:47.813Z</time>
      </trkpt>
      <trkpt lat="44.5051" lon="1.98913">
        <ele>389.949996</ele>
        <time>2022-05-22T06:43:50.810Z</time>
      </trkpt>
      <trkpt lat="44.5052" lon="1.98902">
        <ele>389.665616</ele>
        <time>2022-05-22T06:43:53.813Z</time>
      </trkpt>
      <trkpt lat="44.50529" lon="1.9889">
        <ele>389.392811</ele>
        <time>2022-05-22T06:43:56.813Z</time>
      </trkpt>
      <trkpt lat="44.50536" lon="1.98881">
        <ele>389.194355</ele>
        <time>2022-05-22T06:43:58.810Z</time>
      </trkpt>
      <trkpt lat="44.50543" lon="1.98871">
        <ele>388.974492</ele>
        <time>2022-05-22T06:44:00.809Z</time>
      </trkpt>
      <trkpt lat="44.50554" lon="1.98858">
        <ele>388.69891</ele>
        <time>2022-05-22T06:44:03.815Z</time>
      </trkpt>
      <trkpt lat="44.50564" lon="1.98848">
        <ele>388.546963</ele>
        <time>2022-05-22T06:44:05.804Z</time>
      </trkpt>
      <trkpt lat="44.50573" lon="1.98837">
        <ele>388.400445</ele>
        <time>2022-05-22T06:44:07.808Z</time>
      </trkpt>
      <trkpt lat="44.50582" lon="1.98824">
        <ele>388.252507</ele>
        <time>2022-05-22T06:44:09.812Z</time>
      </trkpt>
      <trkpt lat="44.50594" lon="1.98817">
        <ele>388.093446</ele>
        <time>2022-05-22T06:44:11.809Z</time>
      </trkpt>
      <trkpt lat="44.50608" lon="1.98815">
        <ele>387.933991</ele>
        <time>2022-05-22T06:44:13.801Z</time>
      </trkpt>
      <trkpt lat="44.50623" lon="1.98819">
        <ele>387.753701</ele>
        <time>2022-05-22T06:44:15.806Z</time>
      </trkpt>
      <trkpt lat="44.50635" lon="1.9882">
        <ele>387.604237</ele>
        <time>2022-05-22T06:44:17.808Z</time>
      </trkpt>
      <trkpt lat="44.50647" lon="1.98821">
        <ele>387.460828</ele>
        <time>2022-05-22T06:44:19.806Z</time>
      </trkpt>
      <trkpt lat="44.50658" lon="1.98821">
        <ele>387.325967</ele>
        <time>2022-05-22T06:44:21.813Z</time>
      </trkpt>
      <trkpt lat="44.5067" lon="1.98821">
        <ele>387.183956</ele>
        <time>2022-05-22T06:44:23.806Z</time>
      </trkpt>
      <trkpt lat="44.50681" lon="1.98818">
        <ele>387.053464</ele>
        <time>2022-05-22T06:44:25.811Z</time>
      </trkpt>
      <trkpt lat="44.50691" lon="1.98815">
        <ele>386.925628</ele>
        <time>2022-05-22T06:44:27.811Z</time>
      </trkpt>
      <trkpt lat="44.50701" lon="1.98809">
        <ele>386.805178</ele>
        <time>2022-05-22T06:44:29.808Z</time>
      </trkpt>
      <trkpt lat="44.5071" lon="1.98802">
        <ele>386.681069</ele>
        <time>2022-05-22T06:44:31.812Z</time>
      </trkpt>
      <trkpt lat="44.50721" lon="1.98795">
        <ele>386.577074</ele>
        <time>2022-05-22T06:44:33.820Z</time>
      </trkpt>
      <trkpt lat="44.50731" lon="1.98787">
        <ele>386.537743</ele>
        <time>2022-05-22T06:44:35.810Z</time>
      </trkpt>
      <trkpt lat="44.5074" lon="1.98783">
        <ele>386.502567</ele>
        <time>2022-05-22T06:44:37.806Z</time>
      </trkpt>
      <trkpt lat="44.50753" lon="1.98778">
        <ele>386.456468</ele>
        <time>2022-05-22T06:44:40.806Z</time>
      </trkpt>
      <trkpt lat="44.50766" lon="1.98776">
        <ele>386.411073</ele>
        <time>2022-05-22T06:44:43.812Z</time>
      </trkpt>
      <trkpt lat="44.50778" lon="1.98771">
        <ele>386.368535</ele>
        <time>2022-05-22T06:44:46.813Z</time>
      </trkpt>
      <trkpt lat="44.5079" lon="1.98768">
        <ele>386.326929</ele>
        <time>2022-05-22T06:44:49.813Z</time>
      </trkpt>
      <trkpt lat="44.50802" lon="1.98766">
        <ele>386.286044</ele>
        <time>2022-05-22T06:44:52.810Z</time>
      </trkpt>
      <trkpt lat="44.50813" lon="1.98763">
        <ele>386.24558</ele>
        <time>2022-05-22T06:44:55.806Z</time>
      </trkpt>
      <trkpt lat="44.50825" lon="1.98758">
        <ele>386.202616</ele>
        <time>2022-05-22T06:44:58.811Z</time>
      </trkpt>
      <trkpt lat="44.50835" lon="1.98758">
        <ele>386.16946</ele>
        <time>2022-05-22T06:45:00.809Z</time>
      </trkpt>
      <trkpt lat="44.50845" lon="1.98757">
        <ele>386.134579</ele>
        <time>2022-05-22T06:45:03.808Z</time>
      </trkpt>
      <trkpt lat="44.50857" lon="1.98761">
        <ele>386.092401</ele>
        <time>2022-05-22T06:45:06.809Z</time>
      </trkpt>
      <trkpt lat="44.50866" lon="1.98767">
        <ele>386.057022</ele>
        <time>2022-05-22T06:45:08.807Z</time>
      </trkpt>
      <trkpt lat="44.50877" lon="1.98775">
        <ele>386.014367</ele>
        <time>2022-05-22T06:45:10.774Z</time>
      </trkpt>
      <trkpt lat="44.50888" lon="1.98781">
        <ele>385.973631</ele>
        <time>2022-05-22T06:45:12.778Z</time>
      </trkpt>
      <trkpt lat="44.50898" lon="1.98789">
        <ele>385.916153</ele>
        <time>2022-05-22T06:45:14.774Z</time>
      </trkpt>
      <trkpt lat="44.50909" lon="1.98798">
        <ele>385.849571</ele>
        <time>2022-05-22T06:45:16.824Z</time>
      </trkpt>
      <trkpt lat="44.50917" lon="1.98804">
        <ele>385.803063</ele>
        <time>2022-05-22T06:45:17.823Z</time>
      </trkpt>
      <trkpt lat="44.5093" lon="1.98815">
        <ele>385.726066</ele>
        <time>2022-05-22T06:45:19.819Z</time>
      </trkpt>
      <trkpt lat="44.50938" lon="1.98821">
        <ele>385.678122</ele>
        <time>2022-05-22T06:45:20.822Z</time>
      </trkpt>
      <trkpt lat="44.50953" lon="1.98832">
        <ele>385.593946</ele>
        <time>2022-05-22T06:45:22.822Z</time>
      </trkpt>
      <trkpt lat="44.50966" lon="1.9884">
        <ele>385.517922</ele>
        <time>2022-05-22T06:45:24.817Z</time>
      </trkpt>
      <trkpt lat="44.50977" lon="1.98849">
        <ele>385.452234</ele>
        <time>2022-05-22T06:45:26.822Z</time>
      </trkpt>
      <trkpt lat="44.5099" lon="1.98858">
        <ele>385.38079</ele>
        <time>2022-05-22T06:45:28.821Z</time>
      </trkpt>
      <trkpt lat="44.50998" lon="1.98867">
        <ele>385.326526</ele>
        <time>2022-05-22T06:45:30.817Z</time>
      </trkpt>
      <trkpt lat="44.5101" lon="1.98877">
        <ele>385.257393</ele>
        <time>2022-05-22T06:45:33.821Z</time>
      </trkpt>
      <trkpt lat="44.5102" lon="1.98884">
        <ele>385.19896</ele>
        <time>2022-05-22T06:45:36.831Z</time>
      </trkpt>
      <trkpt lat="44.51028" lon="1.98892">
        <ele>385.150577</ele>
        <time>2022-05-22T06:45:39.820Z</time>
      </trkpt>
      <trkpt lat="44.51036" lon="1.98902">
        <ele>385.092893</ele>
        <time>2022-05-22T06:45:41.820Z</time>
      </trkpt>
      <trkpt lat="44.51046" lon="1.9891">
        <ele>385.057538</ele>
        <time>2022-05-22T06:45:45.827Z</time>
      </trkpt>
      <trkpt lat="44.51054" lon="1.98917">
        <ele>385.092003</ele>
        <time>2022-05-22T06:45:48.825Z</time>
      </trkpt>
      <trkpt lat="44.51062" lon="1.98925">
        <ele>385.129429</ele>
        <time>2022-05-22T06:45:51.826Z</time>
      </trkpt>
      <trkpt lat="44.5107" lon="1.98933">
        <ele>385.168096</ele>
        <time>2022-05-22T06:45:54.822Z</time>
      </trkpt>
      <trkpt lat="44.5108" lon="1.98939">
        <ele>385.209963</ele>
        <time>2022-05-22T06:45:57.818Z</time>
      </trkpt>
      <trkpt lat="44.5109" lon="1.98943">
        <ele>385.251748</ele>
        <time>2022-05-22T06:46:00.824Z</time>
      </trkpt>
      <trkpt lat="44.51102" lon="1.98947">
        <ele>385.298696</ele>
        <time>2022-05-22T06:46:03.819Z</time>
      </trkpt>
      <trkpt lat="44.51115" lon="1.98949">
        <ele>385.3463</ele>
        <time>2022-05-22T06:46:06.819Z</time>
      </trkpt>
      <trkpt lat="44.51127" lon="1.98951">
        <ele>385.395195</ele>
        <time>2022-05-22T06:46:09.819Z</time>
      </trkpt>
      <trkpt lat="44.51139" lon="1.98952">
        <ele>385.439784</ele>
        <time>2022-05-22T06:46:12.824Z</time>
      </trkpt>
      <trkpt lat="44.5115" lon="1.98953">
        <ele>385.483564</ele>
        <time>2022-05-22T06:46:15.819Z</time>
      </trkpt>
      <trkpt lat="44.51161" lon="1.98955">
        <ele>385.523865</ele>
        <time>2022-05-22T06:46:18.827Z</time>
      </trkpt>
      <trkpt lat="44.51169" lon="1.98959">
        <ele>385.560281</ele>
        <time>2022-05-22T06:46:21.819Z</time>
      </trkpt>
      <trkpt lat="44.51177" lon="1.98952">
        <ele>385.597379</ele>
        <time>2022-05-22T06:46:37.821Z</time>
      </trkpt>
      <trkpt lat="44.51178" lon="1.98936">
        <ele>385.639282</ele>
        <time>2022-05-22T06:46:42.831Z</time>
      </trkpt>
      <trkpt lat="44.51178" lon="1.9892">
        <ele>385.683694</ele>
        <time>2022-05-22T06:46:45.822Z</time>
      </trkpt>
      <trkpt lat="44.51182" lon="1.98902">
        <ele>385.734508</ele>
        <time>2022-05-22T06:46:48.827Z</time>
      </trkpt>
      <trkpt lat="44.51183" lon="1.9889">
        <ele>385.61156</ele>
        <time>2022-05-22T06:46:50.822Z</time>
      </trkpt>
      <trkpt lat="44.51185" lon="1.98867">
        <ele>385.358095</ele>
        <time>2022-05-22T06:46:53.818Z</time>
      </trkpt>
      <trkpt lat="44.51188" lon="1.98852">
        <ele>385.176381</ele>
        <time>2022-05-22T06:46:55.825Z</time>
      </trkpt>
      <trkpt lat="44.5119" lon="1.98834">
        <ele>384.971243</ele>
        <time>2022-05-22T06:46:58.824Z</time>
      </trkpt>
      <trkpt lat="44.51192" lon="1.98821">
        <ele>384.81333</ele>
        <time>2022-05-22T06:47:00.818Z</time>
      </trkpt>
      <trkpt lat="44.51198" lon="1.98806">
        <ele>384.62059</ele>
        <time>2022-05-22T06:47:03.823Z</time>
      </trkpt>
      <trkpt lat="44.51203" lon="1.98792">
        <ele>384.446544</ele>
        <time>2022-05-22T06:47:06.823Z</time>
      </trkpt>
      <trkpt lat="44.51206" lon="1.98778">
        <ele>384.278839</ele>
        <time>2022-05-22T06:47:09.816Z</time>
      </trkpt>
      <trkpt lat="44.51207" lon="1.98762">
        <ele>384.10207</ele>
        <time>2022-05-22T06:47:12.820Z</time>
      </trkpt>
      <trkpt lat="44.51206" lon="1.98745">
        <ele>383.911972</ele>
        <time>2022-05-22T06:47:15.828Z</time>
      </trkpt>
      <trkpt lat="44.51202" lon="1.9873">
        <ele>383.723429</ele>
        <time>2022-05-22T06:47:18.823Z</time>
      </trkpt>
      <trkpt lat="44.51197" lon="1.98717">
        <ele>383.556667</ele>
        <time>2022-05-22T06:47:21.829Z</time>
      </trkpt>
      <trkpt lat="44.51191" lon="1.98708">
        <ele>383.41145</ele>
        <time>2022-05-22T06:47:24.821Z</time>
      </trkpt>
      <trkpt lat="44.51183" lon="1.98698">
        <ele>383.24105</ele>
        <time>2022-05-22T06:47:27.819Z</time>
      </trkpt>
      <trkpt lat="44.51175" lon="1.98688">
        <ele>383.076142</ele>
        <time>2022-05-22T06:47:30.821Z</time>
      </trkpt>
      <trkpt lat="44.51167" lon="1.98678">
        <ele>382.912796</ele>
        <time>2022-05-22T06:47:33.819Z</time>
      </trkpt>
      <trkpt lat="44.5116" lon="1.98667">
        <ele>383.6486</ele>
        <time>2022-05-22T06:47:36.820Z</time>
      </trkpt>
      <trkpt lat="44.51153" lon="1.98655">
        <ele>384.58999</ele>
        <time>2022-05-22T06:47:39.819Z</time>
      </trkpt>
      <trkpt lat="44.51146" lon="1.98641">
        <ele>385.655745</ele>
        <time>2022-05-22T06:47:42.825Z</time>
      </trkpt>
      <trkpt lat="44.5114" lon="1.98631">
        <ele>386.432254</ele>
        <time>2022-05-22T06:47:44.825Z</time>
      </trkpt>
      <trkpt lat="44.51135" lon="1.98618">
        <ele>387.332562</ele>
        <time>2022-05-22T06:47:47.820Z</time>
      </trkpt>
      <trkpt lat="44.51131" lon="1.98605">
        <ele>388.182498</ele>
        <time>2022-05-22T06:47:50.830Z</time>
      </trkpt>
      <trkpt lat="44.51127" lon="1.98592">
        <ele>388.98777</ele>
        <time>2022-05-22T06:47:53.821Z</time>
      </trkpt>
      <trkpt lat="44.51123" lon="1.9858">
        <ele>389.805283</ele>
        <time>2022-05-22T06:47:56.818Z</time>
      </trkpt>
      <trkpt lat="44.51119" lon="1.98566">
        <ele>390.720182</ele>
        <time>2022-05-22T06:48:00.821Z</time>
      </trkpt>
      <trkpt lat="44.51114" lon="1.98552">
        <ele>391.660925</ele>
        <time>2022-05-22T06:48:04.826Z</time>
      </trkpt>
      <trkpt lat="44.51111" lon="1.98539">
        <ele>392.507791</ele>
        <time>2022-05-22T06:48:08.833Z</time>
      </trkpt>
      <trkpt lat="44.51104" lon="1.98528">
        <ele>393.352103</ele>
        <time>2022-05-22T06:48:13.819Z</time>
      </trkpt>
      <trkpt lat="44.51099" lon="1.98518">
        <ele>394.118296</ele>
        <time>2022-05-22T06:48:18.818Z</time>
      </trkpt>
      <trkpt lat="44.51095" lon="1.98506">
        <ele>394.910095</ele>
        <time>2022-05-22T06:48:23.820Z</time>
      </trkpt>
      <trkpt lat="44.51095" lon="1.98492">
        <ele>395.772746</ele>
        <time>2022-05-22T06:48:28.821Z</time>
      </trkpt>
      <trkpt lat="44.51094" lon="1.98479">
        <ele>396.557496</ele>
        <time>2022-05-22T06:48:33.823Z</time>
      </trkpt>
      <trkpt lat="44.51095" lon="1.98464">
        <ele>397.478289</ele>
        <time>2022-05-22T06:48:39.822Z</time>
      </trkpt>
      <trkpt lat="44.51098" lon="1.9845">
        <ele>398.29509</ele>
        <time>2022-05-22T06:48:45.821Z</time>
      </trkpt>
      <trkpt lat="44.51099" lon="1.98436">
        <ele>398.979073</ele>
        <time>2022-05-22T06:48:50.839Z</time>
      </trkpt>
      <trkpt lat="44.51103" lon="1.98425">
        <ele>399.595725</ele>
        <time>2022-05-22T06:48:55.826Z</time>
      </trkpt>
      <trkpt lat="44.51107" lon="1.98412">
        <ele>400.280209</ele>
        <time>2022-05-22T06:49:01.830Z</time>
      </trkpt>
      <trkpt lat="44.5111" lon="1.98398">
        <ele>400.999975</ele>
        <time>2022-05-22T06:49:07.823Z</time>
      </trkpt>
      <trkpt lat="44.51114" lon="1.98385">
        <ele>401.691394</ele>
        <time>2022-05-22T06:49:13.819Z</time>
      </trkpt>
      <trkpt lat="44.51115" lon="1.98372">
        <ele>402.347763</ele>
        <time>2022-05-22T06:49:18.812Z</time>
      </trkpt>
      <trkpt lat="44.51121" lon="1.9836">
        <ele>403.044456</ele>
        <time>2022-05-22T06:49:23.821Z</time>
      </trkpt>
      <trkpt lat="44.51123" lon="1.98346">
        <ele>403.733959</ele>
        <time>2022-05-22T06:49:29.822Z</time>
      </trkpt>
      <trkpt lat="44.51127" lon="1.98333">
        <ele>404.441626</ele>
        <time>2022-05-22T06:49:35.828Z</time>
      </trkpt>
      <trkpt lat="44.5113" lon="1.98321">
        <ele>405.071058</ele>
        <time>2022-05-22T06:49:40.823Z</time>
      </trkpt>
      <trkpt lat="44.51134" lon="1.98308">
        <ele>405.747282</ele>
        <time>2022-05-22T06:49:45.824Z</time>
      </trkpt>
      <trkpt lat="44.51138" lon="1.98294">
        <ele>406.480538</ele>
        <time>2022-05-22T06:49:51.822Z</time>
      </trkpt>
      <trkpt lat="44.51145" lon="1.98283">
        <ele>407.221623</ele>
        <time>2022-05-22T06:49:56.821Z</time>
      </trkpt>
      <trkpt lat="44.51152" lon="1.98272">
        <ele>407.950093</ele>
        <time>2022-05-22T06:50:02.825Z</time>
      </trkpt>
      <trkpt lat="44.51161" lon="1.98267">
        <ele>408.585598</ele>
        <time>2022-05-22T06:50:08.820Z</time>
      </trkpt>
      <trkpt lat="44.5117" lon="1.98263">
        <ele>409.26578</ele>
        <time>2022-05-22T06:50:13.826Z</time>
      </trkpt>
      <trkpt lat="44.51178" lon="1.98255">
        <ele>409.967869</ele>
        <time>2022-05-22T06:50:18.817Z</time>
      </trkpt>
      <trkpt lat="44.51188" lon="1.9825">
        <ele>410.458986</ele>
        <time>2022-05-22T06:50:22.823Z</time>
      </trkpt>
      <trkpt lat="44.51199" lon="1.98247">
        <ele>410.362271</ele>
        <time>2022-05-22T06:50:25.824Z</time>
      </trkpt>
      <trkpt lat="44.5121" lon="1.98242">
        <ele>410.258745</ele>
        <time>2022-05-22T06:50:28.819Z</time>
      </trkpt>
      <trkpt lat="44.5122" lon="1.98237">
        <ele>410.160397</ele>
        <time>2022-05-22T06:50:31.825Z</time>
      </trkpt>
      <trkpt lat="44.51228" lon="1.98229">
        <ele>410.071728</ele>
        <time>2022-05-22T06:50:34.349Z</time>
      </trkpt>
      <trkpt lat="44.51236" lon="1.98218">
        <ele>409.974045</ele>
        <time>2022-05-22T06:50:37.353Z</time>
      </trkpt>
      <trkpt lat="44.51243" lon="1.98206">
        <ele>409.87672</ele>
        <time>2022-05-22T06:50:40.353Z</time>
      </trkpt>
      <trkpt lat="44.5125" lon="1.98195">
        <ele>409.781021</ele>
        <time>2022-05-22T06:50:43.354Z</time>
      </trkpt>
      <trkpt lat="44.51256" lon="1.98184">
        <ele>409.693301</ele>
        <time>2022-05-22T06:50:46.353Z</time>
      </trkpt>
      <trkpt lat="44.51264" lon="1.98173">
        <ele>409.58946</ele>
        <time>2022-05-22T06:50:50.356Z</time>
      </trkpt>
      <trkpt lat="44.51269" lon="1.98162">
        <ele>409.505726</ele>
        <time>2022-05-22T06:50:53.353Z</time>
      </trkpt>
      <trkpt lat="44.51276" lon="1.98151">
        <ele>409.413902</ele>
        <time>2022-05-22T06:50:56.353Z</time>
      </trkpt>
      <trkpt lat="44.51287" lon="1.98143">
        <ele>409.304376</ele>
        <time>2022-05-22T06:50:59.348Z</time>
      </trkpt>
      <trkpt lat="44.51296" lon="1.98136">
        <ele>409.214033</ele>
        <time>2022-05-22T06:51:01.355Z</time>
      </trkpt>
      <trkpt lat="44.51304" lon="1.98128">
        <ele>409.129078</ele>
        <time>2022-05-22T06:51:03.354Z</time>
      </trkpt>
      <trkpt lat="44.51311" lon="1.98119">
        <ele>409.045845</ele>
        <time>2022-05-22T06:51:05.346Z</time>
      </trkpt>
      <trkpt lat="44.51319" lon="1.98112">
        <ele>408.954508</ele>
        <time>2022-05-22T06:51:07.355Z</time>
      </trkpt>
      <trkpt lat="44.51329" lon="1.98105">
        <ele>408.758208</ele>
        <time>2022-05-22T06:51:09.354Z</time>
      </trkpt>
      <trkpt lat="44.51338" lon="1.98098">
        <ele>408.220195</ele>
        <time>2022-05-22T06:51:11.352Z</time>
      </trkpt>
      <trkpt lat="44.51347" lon="1.9809">
        <ele>407.644556</ele>
        <time>2022-05-22T06:51:13.357Z</time>
      </trkpt>
      <trkpt lat="44.51356" lon="1.98083">
        <ele>407.079369</ele>
        <time>2022-05-22T06:51:15.353Z</time>
      </trkpt>
      <trkpt lat="44.51364" lon="1.98076">
        <ele>406.569661</ele>
        <time>2022-05-22T06:51:17.352Z</time>
      </trkpt>
      <trkpt lat="44.51375" lon="1.98067">
        <ele>405.881816</ele>
        <time>2022-05-22T06:51:20.350Z</time>
      </trkpt>
      <trkpt lat="44.51384" lon="1.9806">
        <ele>405.352175</ele>
        <time>2022-05-22T06:51:22.357Z</time>
      </trkpt>
      <trkpt lat="44.51392" lon="1.98053">
        <ele>404.846625</ele>
        <time>2022-05-22T06:51:24.355Z</time>
      </trkpt>
      <trkpt lat="44.51401" lon="1.9804">
        <ele>404.120623</ele>
        <time>2022-05-22T06:51:27.354Z</time>
      </trkpt>
      <trkpt lat="44.51419" lon="1.98026">
        <ele>403.018345</ele>
        <time>2022-05-22T06:51:29.345Z</time>
      </trkpt>
      <trkpt lat="44.51432" lon="1.98022">
        <ele>402.294735</ele>
        <time>2022-05-22T06:51:31.352Z</time>
      </trkpt>
      <trkpt lat="44.51443" lon="1.98018">
        <ele>401.676881</ele>
        <time>2022-05-22T06:51:33.353Z</time>
      </trkpt>
      <trkpt lat="44.51461" lon="1.98013">
        <ele>400.718825</ele>
        <time>2022-05-22T06:51:35.349Z</time>
      </trkpt>
      <trkpt lat="44.51476" lon="1.98008">
        <ele>399.902403</ele>
        <time>2022-05-22T06:51:37.350Z</time>
      </trkpt>
      <trkpt lat="44.5149" lon="1.98002">
        <ele>399.083313</ele>
        <time>2022-05-22T06:51:39.357Z</time>
      </trkpt>
      <trkpt lat="44.51504" lon="1.97993">
        <ele>398.068207</ele>
        <time>2022-05-22T06:51:41.351Z</time>
      </trkpt>
      <trkpt lat="44.51514" lon="1.97985">
        <ele>397.330273</ele>
        <time>2022-05-22T06:51:43.351Z</time>
      </trkpt>
      <trkpt lat="44.51525" lon="1.97979">
        <ele>396.595585</ele>
        <time>2022-05-22T06:51:45.347Z</time>
      </trkpt>
      <trkpt lat="44.51539" lon="1.97972">
        <ele>395.64857</ele>
        <time>2022-05-22T06:51:47.347Z</time>
      </trkpt>
      <trkpt lat="44.5155" lon="1.97962">
        <ele>394.782598</ele>
        <time>2022-05-22T06:51:49.351Z</time>
      </trkpt>
      <trkpt lat="44.51561" lon="1.97952">
        <ele>393.967305</ele>
        <time>2022-05-22T06:51:51.352Z</time>
      </trkpt>
      <trkpt lat="44.51571" lon="1.97946">
        <ele>393.261072</ele>
        <time>2022-05-22T06:51:53.351Z</time>
      </trkpt>
      <trkpt lat="44.51582" lon="1.97935">
        <ele>392.415991</ele>
        <time>2022-05-22T06:51:55.350Z</time>
      </trkpt>
      <trkpt lat="44.51589" lon="1.97926">
        <ele>391.798284</ele>
        <time>2022-05-22T06:51:57.351Z</time>
      </trkpt>
      <trkpt lat="44.51598" lon="1.97919">
        <ele>391.132551</ele>
        <time>2022-05-22T06:51:59.350Z</time>
      </trkpt>
      <trkpt lat="44.51609" lon="1.97908">
        <ele>390.290514</ele>
        <time>2022-05-22T06:52:01.351Z</time>
      </trkpt>
      <trkpt lat="44.51616" lon="1.97896">
        <ele>389.554018</ele>
        <time>2022-05-22T06:52:03.350Z</time>
      </trkpt>
      <trkpt lat="44.51628" lon="1.97884">
        <ele>388.648817</ele>
        <time>2022-05-22T06:52:05.351Z</time>
      </trkpt>
      <trkpt lat="44.51641" lon="1.97876">
        <ele>387.714877</ele>
        <time>2022-05-22T06:52:07.355Z</time>
      </trkpt>
      <trkpt lat="44.51651" lon="1.97875">
        <ele>388.055901</ele>
        <time>2022-05-22T06:52:09.349Z</time>
      </trkpt>
      <trkpt lat="44.5166" lon="1.97872">
        <ele>388.465036</ele>
        <time>2022-05-22T06:52:16.363Z</time>
      </trkpt>
      <trkpt lat="44.51665" lon="1.9786">
        <ele>388.883259</ele>
        <time>2022-05-22T06:52:25.350Z</time>
      </trkpt>
      <trkpt lat="44.5167" lon="1.97846">
        <ele>389.325711</ele>
        <time>2022-05-22T06:52:33.350Z</time>
      </trkpt>
      <trkpt lat="44.51673" lon="1.97832">
        <ele>389.768869</ele>
        <time>2022-05-22T06:52:39.353Z</time>
      </trkpt>
      <trkpt lat="44.51677" lon="1.9782">
        <ele>390.178998</ele>
        <time>2022-05-22T06:52:43.354Z</time>
      </trkpt>
      <trkpt lat="44.5168" lon="1.97806">
        <ele>390.614209</ele>
        <time>2022-05-22T06:52:48.348Z</time>
      </trkpt>
      <trkpt lat="44.51683" lon="1.97792">
        <ele>391.053367</ele>
        <time>2022-05-22T06:52:53.349Z</time>
      </trkpt>
      <trkpt lat="44.51684" lon="1.97777">
        <ele>391.500327</ele>
        <time>2022-05-22T06:52:59.353Z</time>
      </trkpt>
      <trkpt lat="44.51688" lon="1.97764">
        <ele>391.914173</ele>
        <time>2022-05-22T06:53:04.348Z</time>
      </trkpt>
      <trkpt lat="44.51694" lon="1.97754">
        <ele>392.300131</ele>
        <time>2022-05-22T06:53:08.349Z</time>
      </trkpt>
      <trkpt lat="44.517" lon="1.97741">
        <ele>392.741896</ele>
        <time>2022-05-22T06:53:12.355Z</time>
      </trkpt>
      <trkpt lat="44.51705" lon="1.9773">
        <ele>393.14969</ele>
        <time>2022-05-22T06:53:15.354Z</time>
      </trkpt>
      <trkpt lat="44.51713" lon="1.9772">
        <ele>393.591109</ele>
        <time>2022-05-22T06:53:18.351Z</time>
      </trkpt>
      <trkpt lat="44.51723" lon="1.97711">
        <ele>394.085935</ele>
        <time>2022-05-22T06:53:21.350Z</time>
      </trkpt>
      <trkpt lat="44.51733" lon="1.97698">
        <ele>394.640815</ele>
        <time>2022-05-22T06:53:24.356Z</time>
      </trkpt>
      <trkpt lat="44.51739" lon="1.97688">
        <ele>395.054198</ele>
        <time>2022-05-22T06:53:26.350Z</time>
      </trkpt>
      <trkpt lat="44.51746" lon="1.97678">
        <ele>395.078631</ele>
        <time>2022-05-22T06:53:28.346Z</time>
      </trkpt>
      <trkpt lat="44.51752" lon="1.97667">
        <ele>394.879013</ele>
        <time>2022-05-22T06:53:30.353Z</time>
      </trkpt>
      <trkpt lat="44.51759" lon="1.97652">
        <ele>394.616953</ele>
        <time>2022-05-22T06:53:33.354Z</time>
      </trkpt>
      <trkpt lat="44.51764" lon="1.97637">
        <ele>394.380537</ele>
        <time>2022-05-22T06:53:36.348Z</time>
      </trkpt>
      <trkpt lat="44.5177" lon="1.97623">
        <ele>394.14092</ele>
        <time>2022-05-22T06:53:39.354Z</time>
      </trkpt>
      <trkpt lat="44.51772" lon="1.97607">
        <ele>393.910909</ele>
        <time>2022-05-22T06:53:43.351Z</time>
      </trkpt>
      <trkpt lat="44.51772" lon="1.9759">
        <ele>393.665643</ele>
        <time>2022-05-22T06:53:46.351Z</time>
      </trkpt>
      <trkpt lat="44.51775" lon="1.97573">
        <ele>393.411389</ele>
        <time>2022-05-22T06:53:49.351Z</time>
      </trkpt>
      <trkpt lat="44.51777" lon="1.97554">
        <ele>393.143156</ele>
        <time>2022-05-22T06:53:52.354Z</time>
      </trkpt>
      <trkpt lat="44.51778" lon="1.97537">
        <ele>392.881248</ele>
        <time>2022-05-22T06:53:55.350Z</time>
      </trkpt>
      <trkpt lat="44.51781" lon="1.97519">
        <ele>392.621835</ele>
        <time>2022-05-22T06:53:58.357Z</time>
      </trkpt>
      <trkpt lat="44.51784" lon="1.97504">
        <ele>392.400305</ele>
        <time>2022-05-22T06:54:01.354Z</time>
      </trkpt>
      <trkpt lat="44.51787" lon="1.9749">
        <ele>392.182371</ele>
        <time>2022-05-22T06:54:04.352Z</time>
      </trkpt>
      <trkpt lat="44.5179" lon="1.97477">
        <ele>391.991159</ele>
        <time>2022-05-22T06:54:07.349Z</time>
      </trkpt>
      <trkpt lat="44.51794" lon="1.97465">
        <ele>391.795752</ele>
        <time>2022-05-22T06:54:10.362Z</time>
      </trkpt>
      <trkpt lat="44.51797" lon="1.97452">
        <ele>391.600386</ele>
        <time>2022-05-22T06:54:13.350Z</time>
      </trkpt>
      <trkpt lat="44.51798" lon="1.97438">
        <ele>391.41707</ele>
        <time>2022-05-22T06:54:16.353Z</time>
      </trkpt>
      <trkpt lat="44.51797" lon="1.9742">
        <ele>391.206806</ele>
        <time>2022-05-22T06:54:19.349Z</time>
      </trkpt>
      <trkpt lat="44.51797" lon="1.97404">
        <ele>391.024546</ele>
        <time>2022-05-22T06:54:22.354Z</time>
      </trkpt>
      <trkpt lat="44.51798" lon="1.97386">
        <ele>390.81248</ele>
        <time>2022-05-22T06:54:25.351Z</time>
      </trkpt>
      <trkpt lat="44.51801" lon="1.97374">
        <ele>390.655892</ele>
        <time>2022-05-22T06:54:27.353Z</time>
      </trkpt>
      <trkpt lat="44.51806" lon="1.97357">
        <ele>390.436725</ele>
        <time>2022-05-22T06:54:30.356Z</time>
      </trkpt>
      <trkpt lat="44.5181" lon="1.97339">
        <ele>390.217541</ele>
        <time>2022-05-22T06:54:33.350Z</time>
      </trkpt>
      <trkpt lat="44.51813" lon="1.97322">
        <ele>390.011031</ele>
        <time>2022-05-22T06:54:36.354Z</time>
      </trkpt>
      <trkpt lat="44.51812" lon="1.97304">
        <ele>389.793398</ele>
        <time>2022-05-22T06:54:39.347Z</time>
      </trkpt>
      <trkpt lat="44.51813" lon="1.9729">
        <ele>389.634706</ele>
        <time>2022-05-22T06:54:41.130Z</time>
      </trkpt>
      <trkpt lat="44.51815" lon="1.97278">
        <ele>389.480342</ele>
        <time>2022-05-22T06:54:42.133Z</time>
      </trkpt>
      <trkpt lat="44.51822" lon="1.97264">
        <ele>389.282212</ele>
        <time>2022-05-22T06:54:44.139Z</time>
      </trkpt>
      <trkpt lat="44.51829" lon="1.97253">
        <ele>389.106006</ele>
        <time>2022-05-22T06:54:46.130Z</time>
      </trkpt>
      <trkpt lat="44.51836" lon="1.97243">
        <ele>388.934189</ele>
        <time>2022-05-22T06:54:48.131Z</time>
      </trkpt>
      <trkpt lat="44.51844" lon="1.97232">
        <ele>388.75528</ele>
        <time>2022-05-22T06:54:50.136Z</time>
      </trkpt>
      <trkpt lat="44.51851" lon="1.9722">
        <ele>388.575346</ele>
        <time>2022-05-22T06:54:52.132Z</time>
      </trkpt>
      <trkpt lat="44.51858" lon="1.97206">
        <ele>388.49269</ele>
        <time>2022-05-22T06:54:55.132Z</time>
      </trkpt>
      <trkpt lat="44.51864" lon="1.97197">
        <ele>388.434569</ele>
        <time>2022-05-22T06:54:57.132Z</time>
      </trkpt>
      <trkpt lat="44.51875" lon="1.97186">
        <ele>388.352604</ele>
        <time>2022-05-22T06:55:00.132Z</time>
      </trkpt>
      <trkpt lat="44.51885" lon="1.97178">
        <ele>388.276667</ele>
        <time>2022-05-22T06:55:03.133Z</time>
      </trkpt>
      <trkpt lat="44.51893" lon="1.97171">
        <ele>388.213592</ele>
        <time>2022-05-22T06:55:06.134Z</time>
      </trkpt>
      <trkpt lat="44.51902" lon="1.97164">
        <ele>388.14803</ele>
        <time>2022-05-22T06:55:09.123Z</time>
      </trkpt>
      <trkpt lat="44.51907" lon="1.97153">
        <ele>388.086376</ele>
        <time>2022-05-22T06:55:12.133Z</time>
      </trkpt>
      <trkpt lat="44.51906" lon="1.9714">
        <ele>388.028403</ele>
        <time>2022-05-22T06:55:15.130Z</time>
      </trkpt>
      <trkpt lat="44.51901" lon="1.97124">
        <ele>387.948971</ele>
        <time>2022-05-22T06:59:28.133Z</time>
      </trkpt>
      <trkpt lat="44.5189" lon="1.97117">
        <ele>387.870145</ele>
        <time>2022-05-22T06:59:35.134Z</time>
      </trkpt>
      <trkpt lat="44.51883" lon="1.97107">
        <ele>387.804634</ele>
        <time>2022-05-22T06:59:38.134Z</time>
      </trkpt>
      <trkpt lat="44.5188" lon="1.97089">
        <ele>387.718769</ele>
        <time>2022-05-22T06:59:41.129Z</time>
      </trkpt>
      <trkpt lat="44.51878" lon="1.97074">
        <ele>387.649663</ele>
        <time>2022-05-22T06:59:43.133Z</time>
      </trkpt>
      <trkpt lat="44.51876" lon="1.9706">
        <ele>387.586282</ele>
        <time>2022-05-22T06:59:45.135Z</time>
      </trkpt>
      <trkpt lat="44.51879" lon="1.97046">
        <ele>387.519386</ele>
        <time>2022-05-22T06:59:47.136Z</time>
      </trkpt>
      <trkpt lat="44.51877" lon="1.97028">
        <ele>387.438993</ele>
        <time>2022-05-22T06:59:50.132Z</time>
      </trkpt>
      <trkpt lat="44.51867" lon="1.97018">
        <ele>387.348759</ele>
        <time>2022-05-22T06:59:53.134Z</time>
      </trkpt>
      <trkpt lat="44.51854" lon="1.97019">
        <ele>387.253833</ele>
        <time>2022-05-22T06:59:56.131Z</time>
      </trkpt>
      <trkpt lat="44.51842" lon="1.97015">
        <ele>387.161436</ele>
        <time>2022-05-22T06:59:59.129Z</time>
      </trkpt>
      <trkpt lat="44.51835" lon="1.97001">
        <ele>387.065202</ele>
        <time>2022-05-22T07:00:02.135Z</time>
      </trkpt>
      <trkpt lat="44.51831" lon="1.96988">
        <ele>386.990612</ele>
        <time>2022-05-22T07:00:04.134Z</time>
      </trkpt>
      <trkpt lat="44.51832" lon="1.96974">
        <ele>386.91649</ele>
        <time>2022-05-22T07:00:06.132Z</time>
      </trkpt>
      <trkpt lat="44.51828" lon="1.96959">
        <ele>386.82874</ele>
        <time>2022-05-22T07:00:08.132Z</time>
      </trkpt>
      <trkpt lat="44.51824" lon="1.96945">
        <ele>386.746793</ele>
        <time>2022-05-22T07:00:10.130Z</time>
      </trkpt>
      <trkpt lat="44.51821" lon="1.96931">
        <ele>386.669966</ele>
        <time>2022-05-22T07:00:12.134Z</time>
      </trkpt>
      <trkpt lat="44.51817" lon="1.96919">
        <ele>386.597523</ele>
        <time>2022-05-22T07:00:14.131Z</time>
      </trkpt>
      <trkpt lat="44.51815" lon="1.96902">
        <ele>386.508459</ele>
        <time>2022-05-22T07:00:17.127Z</time>
      </trkpt>
      <trkpt lat="44.51809" lon="1.96886">
        <ele>386.410352</ele>
        <time>2022-05-22T07:00:20.133Z</time>
      </trkpt>
      <trkpt lat="44.51805" lon="1.9687">
        <ele>386.319509</ele>
        <time>2022-05-22T07:00:23.135Z</time>
      </trkpt>
      <trkpt lat="44.51804" lon="1.96853">
        <ele>386.224588</ele>
        <time>2022-05-22T07:00:26.131Z</time>
      </trkpt>
      <trkpt lat="44.51802" lon="1.9684">
        <ele>386.156497</ele>
        <time>2022-05-22T07:00:29.133Z</time>
      </trkpt>
      <trkpt lat="44.51797" lon="1.96828">
        <ele>386.081986</ele>
        <time>2022-05-22T07:00:32.133Z</time>
      </trkpt>
      <trkpt lat="44.51789" lon="1.96817">
        <ele>386.14023</ele>
        <time>2022-05-22T07:00:35.134Z</time>
      </trkpt>
      <trkpt lat="44.51781" lon="1.96808">
        <ele>386.235374</ele>
        <time>2022-05-22T07:00:38.135Z</time>
      </trkpt>
      <trkpt lat="44.51773" lon="1.968">
        <ele>386.32689</ele>
        <time>2022-05-22T07:00:41.129Z</time>
      </trkpt>
      <trkpt lat="44.51765" lon="1.96791">
        <ele>386.419535</ele>
        <time>2022-05-22T07:00:44.797Z</time>
      </trkpt>
      <trkpt lat="44.51757" lon="1.96784">
        <ele>386.509527</ele>
        <time>2022-05-22T07:00:47.794Z</time>
      </trkpt>
      <trkpt lat="44.51749" lon="1.96774">
        <ele>386.608672</ele>
        <time>2022-05-22T07:00:50.795Z</time>
      </trkpt>
      <trkpt lat="44.51742" lon="1.96763">
        <ele>386.706229</ele>
        <time>2022-05-22T07:00:53.798Z</time>
      </trkpt>
      <trkpt lat="44.51738" lon="1.96751">
        <ele>386.789346</ele>
        <time>2022-05-22T07:00:56.796Z</time>
      </trkpt>
      <trkpt lat="44.51738" lon="1.96737">
        <ele>386.88203</ele>
        <time>2022-05-22T07:01:00.795Z</time>
      </trkpt>
      <trkpt lat="44.51741" lon="1.96722">
        <ele>386.986772</ele>
        <time>2022-05-22T07:01:09.795Z</time>
      </trkpt>
      <trkpt lat="44.51745" lon="1.96707">
        <ele>387.091501</ele>
        <time>2022-05-22T07:01:12.797Z</time>
      </trkpt>
      <trkpt lat="44.51748" lon="1.9669">
        <ele>387.205931</ele>
        <time>2022-05-22T07:01:15.800Z</time>
      </trkpt>
      <trkpt lat="44.51751" lon="1.96674">
        <ele>387.311676</ele>
        <time>2022-05-22T07:01:18.796Z</time>
      </trkpt>
      <trkpt lat="44.51754" lon="1.96657">
        <ele>387.427842</ele>
        <time>2022-05-22T07:01:21.799Z</time>
      </trkpt>
      <trkpt lat="44.51756" lon="1.96645">
        <ele>387.51273</ele>
        <time>2022-05-22T07:01:23.799Z</time>
      </trkpt>
      <trkpt lat="44.51759" lon="1.96629">
        <ele>387.62034</ele>
        <time>2022-05-22T07:01:25.798Z</time>
      </trkpt>
      <trkpt lat="44.51761" lon="1.96615">
        <ele>387.710939</ele>
        <time>2022-05-22T07:01:27.799Z</time>
      </trkpt>
      <trkpt lat="44.51767" lon="1.966">
        <ele>386.758883</ele>
        <time>2022-05-22T07:01:29.797Z</time>
      </trkpt>
      <trkpt lat="44.51768" lon="1.96586">
        <ele>385.974411</ele>
        <time>2022-05-22T07:01:31.797Z</time>
      </trkpt>
      <trkpt lat="44.51769" lon="1.96573">
        <ele>385.200474</ele>
        <time>2022-05-22T07:01:33.796Z</time>
      </trkpt>
      <trkpt lat="44.5177" lon="1.96557">
        <ele>384.321677</ele>
        <time>2022-05-22T07:01:36.798Z</time>
      </trkpt>
      <trkpt lat="44.51767" lon="1.96544">
        <ele>383.509466</ele>
        <time>2022-05-22T07:01:40.793Z</time>
      </trkpt>
      <trkpt lat="44.51761" lon="1.96534">
        <ele>382.760858</ele>
        <time>2022-05-22T07:01:54.794Z</time>
      </trkpt>
      <trkpt lat="44.51769" lon="1.96525">
        <ele>381.942708</ele>
        <time>2022-05-22T07:08:40.382Z</time>
      </trkpt>
      <trkpt lat="44.51775" lon="1.96515">
        <ele>381.151612</ele>
        <time>2022-05-22T07:08:44.381Z</time>
      </trkpt>
      <trkpt lat="44.51769" lon="1.96501">
        <ele>380.216244</ele>
        <time>2022-05-22T07:08:48.385Z</time>
      </trkpt>
      <trkpt lat="44.5176" lon="1.96492">
        <ele>379.320056</ele>
        <time>2022-05-22T07:08:51.387Z</time>
      </trkpt>
      <trkpt lat="44.51751" lon="1.96482">
        <ele>378.395161</ele>
        <time>2022-05-22T07:08:54.385Z</time>
      </trkpt>
      <trkpt lat="44.51745" lon="1.96472">
        <ele>377.650428</ele>
        <time>2022-05-22T07:08:56.388Z</time>
      </trkpt>
      <trkpt lat="44.51736" lon="1.96459">
        <ele>376.641352</ele>
        <time>2022-05-22T07:08:59.383Z</time>
      </trkpt>
      <trkpt lat="44.51726" lon="1.96451">
        <ele>375.715315</ele>
        <time>2022-05-22T07:09:02.385Z</time>
      </trkpt>
      <trkpt lat="44.51721" lon="1.9644">
        <ele>374.985658</ele>
        <time>2022-05-22T07:09:07.384Z</time>
      </trkpt>
      <trkpt lat="44.51722" lon="1.96426">
        <ele>374.164203</ele>
        <time>2022-05-22T07:09:12.379Z</time>
      </trkpt>
      <trkpt lat="44.51727" lon="1.96413">
        <ele>373.379743</ele>
        <time>2022-05-22T07:09:16.379Z</time>
      </trkpt>
      <trkpt lat="44.51728" lon="1.964">
        <ele>373.363647</ele>
        <time>2022-05-22T07:09:20.386Z</time>
      </trkpt>
      <trkpt lat="44.51729" lon="1.96385">
        <ele>373.527053</ele>
        <time>2022-05-22T07:09:24.382Z</time>
      </trkpt>
      <trkpt lat="44.51728" lon="1.96372">
        <ele>373.669052</ele>
        <time>2022-05-22T07:09:28.384Z</time>
      </trkpt>
      <trkpt lat="44.51725" lon="1.96358">
        <ele>373.838904</ele>
        <time>2022-05-22T07:09:32.380Z</time>
      </trkpt>
      <trkpt lat="44.5172" lon="1.96346">
        <ele>373.981903</ele>
        <time>2022-05-22T07:09:35.388Z</time>
      </trkpt>
      <trkpt lat="44.51713" lon="1.96334">
        <ele>374.149748</ele>
        <time>2022-05-22T07:09:39.381Z</time>
      </trkpt>
      <trkpt lat="44.51709" lon="1.96323">
        <ele>374.293094</ele>
        <time>2022-05-22T07:09:43.386Z</time>
      </trkpt>
      <trkpt lat="44.51704" lon="1.96311">
        <ele>374.444093</ele>
        <time>2022-05-22T07:09:46.392Z</time>
      </trkpt>
      <trkpt lat="44.51696" lon="1.96299">
        <ele>374.617781</ele>
        <time>2022-05-22T07:09:49.378Z</time>
      </trkpt>
      <trkpt lat="44.51689" lon="1.96289">
        <ele>374.780421</ele>
        <time>2022-05-22T07:09:52.388Z</time>
      </trkpt>
      <trkpt lat="44.51682" lon="1.96275">
        <ele>374.964255</ele>
        <time>2022-05-22T07:09:55.386Z</time>
      </trkpt>
      <trkpt lat="44.51679" lon="1.9626">
        <ele>375.134849</ele>
        <time>2022-05-22T07:09:58.387Z</time>
      </trkpt>
      <trkpt lat="44.5168" lon="1.96246">
        <ele>375.286304</ele>
        <time>2022-05-22T07:09:59.385Z</time>
      </trkpt>
      <trkpt lat="44.51678" lon="1.96234">
        <ele>375.425775</ele>
        <time>2022-05-22T07:10:01.383Z</time>
      </trkpt>
      <trkpt lat="44.51678" lon="1.96221">
        <ele>375.563694</ele>
        <time>2022-05-22T07:10:03.381Z</time>
      </trkpt>
      <trkpt lat="44.51676" lon="1.96208">
        <ele>375.715654</ele>
        <time>2022-05-22T07:10:05.378Z</time>
      </trkpt>
      <trkpt lat="44.51672" lon="1.96195">
        <ele>375.858936</ele>
        <time>2022-05-22T07:10:07.383Z</time>
      </trkpt>
      <trkpt lat="44.51671" lon="1.96183">
        <ele>375.999809</ele>
        <time>2022-05-22T07:10:09.382Z</time>
      </trkpt>
      <trkpt lat="44.51666" lon="1.96166">
        <ele>375.87195</ele>
        <time>2022-05-22T07:10:12.381Z</time>
      </trkpt>
      <trkpt lat="44.51664" lon="1.96153">
        <ele>375.770801</ele>
        <time>2022-05-22T07:10:15.385Z</time>
      </trkpt>
      <trkpt lat="44.51663" lon="1.96137">
        <ele>375.646521</ele>
        <time>2022-05-22T07:10:19.385Z</time>
      </trkpt>
      <trkpt lat="44.5166" lon="1.96122">
        <ele>375.528215</ele>
        <time>2022-05-22T07:10:23.381Z</time>
      </trkpt>
      <trkpt lat="44.51661" lon="1.96108">
        <ele>375.420298</ele>
        <time>2022-05-22T07:10:26.384Z</time>
      </trkpt>
      <trkpt lat="44.51663" lon="1.96091">
        <ele>375.287396</ele>
        <time>2022-05-22T07:10:29.375Z</time>
      </trkpt>
      <trkpt lat="44.51663" lon="1.96076">
        <ele>375.174718</ele>
        <time>2022-05-22T07:10:32.387Z</time>
      </trkpt>
      <trkpt lat="44.51661" lon="1.96061">
        <ele>375.052521</ele>
        <time>2022-05-22T07:10:36.377Z</time>
      </trkpt>
      <trkpt lat="44.51658" lon="1.96045">
        <ele>374.929265</ele>
        <time>2022-05-22T07:10:39.386Z</time>
      </trkpt>
      <trkpt lat="44.51655" lon="1.96032">
        <ele>374.819919</ele>
        <time>2022-05-22T07:10:42.385Z</time>
      </trkpt>
      <trkpt lat="44.5165" lon="1.96021">
        <ele>374.72176</ele>
        <time>2022-05-22T07:10:45.383Z</time>
      </trkpt>
      <trkpt lat="44.51644" lon="1.96007">
        <ele>374.600767</ele>
        <time>2022-05-22T07:10:49.383Z</time>
      </trkpt>
      <trkpt lat="44.5164" lon="1.95994">
        <ele>374.486347</ele>
        <time>2022-05-22T07:10:52.376Z</time>
      </trkpt>
      <trkpt lat="44.51635" lon="1.9598">
        <ele>374.368702</ele>
        <time>2022-05-22T07:10:55.380Z</time>
      </trkpt>
      <trkpt lat="44.51631" lon="1.95964">
        <ele>374.238408</ele>
        <time>2022-05-22T07:10:58.393Z</time>
      </trkpt>
      <trkpt lat="44.51627" lon="1.95951">
        <ele>374.133032</ele>
        <time>2022-05-22T07:11:00.377Z</time>
      </trkpt>
      <trkpt lat="44.51621" lon="1.95936">
        <ele>373.701415</ele>
        <time>2022-05-22T07:11:03.390Z</time>
      </trkpt>
      <trkpt lat="44.51617" lon="1.95924">
        <ele>373.21987</ele>
        <time>2022-05-22T07:11:05.381Z</time>
      </trkpt>
      <trkpt lat="44.51615" lon="1.95911">
        <ele>372.727644</ele>
        <time>2022-05-22T07:11:07.389Z</time>
      </trkpt>
      <trkpt lat="44.51611" lon="1.95898">
        <ele>372.183421</ele>
        <time>2022-05-22T07:11:10.384Z</time>
      </trkpt>
      <trkpt lat="44.51606" lon="1.95885">
        <ele>371.5743</ele>
        <time>2022-05-22T07:11:13.388Z</time>
      </trkpt>
      <trkpt lat="44.51599" lon="1.95872">
        <ele>370.982837</ele>
        <time>2022-05-22T07:11:16.382Z</time>
      </trkpt>
      <trkpt lat="44.51594" lon="1.95859">
        <ele>370.40125</ele>
        <time>2022-05-22T07:11:19.380Z</time>
      </trkpt>
      <trkpt lat="44.51587" lon="1.95849">
        <ele>369.873566</ele>
        <time>2022-05-22T07:11:23.383Z</time>
      </trkpt>
      <trkpt lat="44.51579" lon="1.95839">
        <ele>369.306909</ele>
        <time>2022-05-22T07:11:28.385Z</time>
      </trkpt>
      <trkpt lat="44.51572" lon="1.9583">
        <ele>368.801399</ele>
        <time>2022-05-22T07:11:33.380Z</time>
      </trkpt>
      <trkpt lat="44.51568" lon="1.95819">
        <ele>368.306581</ele>
        <time>2022-05-22T07:11:36.385Z</time>
      </trkpt>
      <trkpt lat="44.51564" lon="1.95806">
        <ele>367.770015</ele>
        <time>2022-05-22T07:11:40.378Z</time>
      </trkpt>
      <trkpt lat="44.51565" lon="1.9579">
        <ele>367.175472</ele>
        <time>2022-05-22T07:11:44.387Z</time>
      </trkpt>
      <trkpt lat="44.51561" lon="1.95777">
        <ele>366.600388</ele>
        <time>2022-05-22T07:11:48.378Z</time>
      </trkpt>
      <trkpt lat="44.51552" lon="1.9577">
        <ele>366.0511</ele>
        <time>2022-05-22T07:11:51.382Z</time>
      </trkpt>
      <trkpt lat="44.51544" lon="1.9576">
        <ele>365.500134</ele>
        <time>2022-05-22T07:11:54.390Z</time>
      </trkpt>
      <trkpt lat="44.51542" lon="1.95746">
        <ele>364.947042</ele>
        <time>2022-05-22T07:11:58.379Z</time>
      </trkpt>
      <trkpt lat="44.51544" lon="1.95733">
        <ele>364.427264</ele>
        <time>2022-05-22T07:12:02.387Z</time>
      </trkpt>
      <trkpt lat="44.51547" lon="1.95721">
        <ele>364.413382</ele>
        <time>2022-05-22T07:12:07.382Z</time>
      </trkpt>
      <trkpt lat="44.5154" lon="1.95709">
        <ele>364.397315</ele>
        <time>2022-05-22T07:12:11.509Z</time>
      </trkpt>
      <trkpt lat="44.51535" lon="1.95699">
        <ele>364.38359</ele>
        <time>2022-05-22T07:12:15.517Z</time>
      </trkpt>
      <trkpt lat="44.51532" lon="1.95687">
        <ele>364.369759</ele>
        <time>2022-05-22T07:12:20.247Z</time>
      </trkpt>
      <trkpt lat="44.51527" lon="1.95675">
        <ele>364.355324</ele>
        <time>2022-05-22T07:12:24.249Z</time>
      </trkpt>
      <trkpt lat="44.51522" lon="1.95664">
        <ele>364.340606</ele>
        <time>2022-05-22T07:12:29.246Z</time>
      </trkpt>
      <trkpt lat="44.51519" lon="1.9565">
        <ele>364.324947</ele>
        <time>2022-05-22T07:12:35.251Z</time>
      </trkpt>
      <trkpt lat="44.51516" lon="1.95636">
        <ele>364.309372</ele>
        <time>2022-05-22T07:12:41.247Z</time>
      </trkpt>
      <trkpt lat="44.51512" lon="1.95624">
        <ele>364.293618</ele>
        <time>2022-05-22T07:12:47.248Z</time>
      </trkpt>
      <trkpt lat="44.51507" lon="1.95612">
        <ele>364.278728</ele>
        <time>2022-05-22T07:12:52.253Z</time>
      </trkpt>
      <trkpt lat="44.51502" lon="1.95597">
        <ele>364.260917</ele>
        <time>2022-05-22T07:12:57.253Z</time>
      </trkpt>
      <trkpt lat="44.51496" lon="1.95584">
        <ele>364.244758</ele>
        <time>2022-05-22T07:13:01.247Z</time>
      </trkpt>
      <trkpt lat="44.5149" lon="1.95574">
        <ele>364.229651</ele>
        <time>2022-05-22T07:13:05.249Z</time>
      </trkpt>
      <trkpt lat="44.5148" lon="1.95571">
        <ele>364.215188</ele>
        <time>2022-05-22T07:13:08.242Z</time>
      </trkpt>
      <trkpt lat="44.51473" lon="1.95579">
        <ele>364.200764</ele>
        <time>2022-05-22T07:13:12.270Z</time>
      </trkpt>
      <trkpt lat="44.51464" lon="1.95587">
        <ele>364.184828</ele>
        <time>2022-05-22T07:13:16.245Z</time>
      </trkpt>
      <trkpt lat="44.51455" lon="1.95596">
        <ele>364.16777</ele>
        <time>2022-05-22T07:13:20.250Z</time>
      </trkpt>
      <trkpt lat="44.51444" lon="1.95604">
        <ele>364.139737</ele>
        <time>2022-05-22T07:13:24.248Z</time>
      </trkpt>
      <trkpt lat="44.51434" lon="1.95606">
        <ele>364.08397</ele>
        <time>2022-05-22T07:13:27.247Z</time>
      </trkpt>
      <trkpt lat="44.51424" lon="1.95614">
        <ele>364.019491</ele>
        <time>2022-05-22T07:13:31.246Z</time>
      </trkpt>
      <trkpt lat="44.51411" lon="1.95614">
        <ele>363.952245</ele>
        <time>2022-05-22T07:13:34.247Z</time>
      </trkpt>
      <trkpt lat="44.51398" lon="1.95613">
        <ele>363.876749</ele>
        <time>2022-05-22T07:13:37.248Z</time>
      </trkpt>
      <trkpt lat="44.51386" lon="1.95613">
        <ele>363.812707</ele>
        <time>2022-05-22T07:13:39.249Z</time>
      </trkpt>
      <trkpt lat="44.51375" lon="1.95615">
        <ele>363.753198</ele>
        <time>2022-05-22T07:13:41.246Z</time>
      </trkpt>
      <trkpt lat="44.51364" lon="1.95623">
        <ele>363.684241</ele>
        <time>2022-05-22T07:13:44.244Z</time>
      </trkpt>
      <trkpt lat="44.51354" lon="1.9563">
        <ele>363.619818</ele>
        <time>2022-05-22T07:13:47.251Z</time>
      </trkpt>
      <trkpt lat="44.51342" lon="1.95635">
        <ele>363.552435</ele>
        <time>2022-05-22T07:13:50.246Z</time>
      </trkpt>
      <trkpt lat="44.51332" lon="1.95635">
        <ele>363.497757</ele>
        <time>2022-05-22T07:13:52.251Z</time>
      </trkpt>
      <trkpt lat="44.51319" lon="1.95639">
        <ele>363.429217</ele>
        <time>2022-05-22T07:13:55.251Z</time>
      </trkpt>
      <trkpt lat="44.51309" lon="1.95644">
        <ele>363.370348</ele>
        <time>2022-05-22T07:13:57.246Z</time>
      </trkpt>
      <trkpt lat="44.513" lon="1.95649">
        <ele>363.313942</ele>
        <time>2022-05-22T07:14:00.251Z</time>
      </trkpt>
      <trkpt lat="44.51289" lon="1.95653">
        <ele>363.252523</ele>
        <time>2022-05-22T07:14:03.248Z</time>
      </trkpt>
      <trkpt lat="44.51277" lon="1.95655">
        <ele>363.185538</ele>
        <time>2022-05-22T07:14:06.251Z</time>
      </trkpt>
      <trkpt lat="44.51267" lon="1.95658">
        <ele>363.310824</ele>
        <time>2022-05-22T07:14:09.252Z</time>
      </trkpt>
      <trkpt lat="44.51257" lon="1.95663">
        <ele>363.544998</ele>
        <time>2022-05-22T07:14:13.246Z</time>
      </trkpt>
      <trkpt lat="44.51245" lon="1.95667">
        <ele>363.798093</ele>
        <time>2022-05-22T07:14:17.249Z</time>
      </trkpt>
      <trkpt lat="44.51233" lon="1.95666">
        <ele>364.041148</ele>
        <time>2022-05-22T07:14:20.250Z</time>
      </trkpt>
      <trkpt lat="44.51223" lon="1.95666">
        <ele>364.246905</ele>
        <time>2022-05-22T07:14:22.246Z</time>
      </trkpt>
      <trkpt lat="44.51214" lon="1.95666">
        <ele>364.444165</ele>
        <time>2022-05-22T07:14:24.250Z</time>
      </trkpt>
      <trkpt lat="44.51201" lon="1.95664">
        <ele>364.702598</ele>
        <time>2022-05-22T07:14:27.250Z</time>
      </trkpt>
      <trkpt lat="44.51188" lon="1.95664">
        <ele>364.978778</ele>
        <time>2022-05-22T07:14:30.250Z</time>
      </trkpt>
      <trkpt lat="44.51177" lon="1.95664">
        <ele>365.213456</ele>
        <time>2022-05-22T07:14:33.246Z</time>
      </trkpt>
      <trkpt lat="44.51167" lon="1.95665">
        <ele>365.421736</ele>
        <time>2022-05-22T07:14:36.249Z</time>
      </trkpt>
      <trkpt lat="44.51157" lon="1.95667">
        <ele>365.613478</ele>
        <time>2022-05-22T07:14:39.248Z</time>
      </trkpt>
      <trkpt lat="44.51148" lon="1.9567">
        <ele>365.821382</ele>
        <time>2022-05-22T07:14:42.255Z</time>
      </trkpt>
      <trkpt lat="44.51136" lon="1.9567">
        <ele>366.064341</ele>
        <time>2022-05-22T07:14:46.255Z</time>
      </trkpt>
      <trkpt lat="44.51125" lon="1.95668">
        <ele>366.290353</ele>
        <time>2022-05-22T07:14:49.249Z</time>
      </trkpt>
      <trkpt lat="44.51115" lon="1.95666">
        <ele>366.495986</ele>
        <time>2022-05-22T07:14:52.241Z</time>
      </trkpt>
      <trkpt lat="44.51105" lon="1.95663">
        <ele>366.716758</ele>
        <time>2022-05-22T07:14:55.254Z</time>
      </trkpt>
      <trkpt lat="44.51094" lon="1.95659">
        <ele>366.963174</ele>
        <time>2022-05-22T07:14:58.252Z</time>
      </trkpt>
      <trkpt lat="44.51083" lon="1.95655">
        <ele>367.367669</ele>
        <time>2022-05-22T07:15:02.249Z</time>
      </trkpt>
      <trkpt lat="44.51073" lon="1.95652">
        <ele>367.730421</ele>
        <time>2022-05-22T07:15:05.251Z</time>
      </trkpt>
      <trkpt lat="44.51063" lon="1.95649">
        <ele>368.079063</ele>
        <time>2022-05-22T07:15:08.245Z</time>
      </trkpt>
      <trkpt lat="44.51054" lon="1.95648">
        <ele>368.399921</ele>
        <time>2022-05-22T07:15:11.250Z</time>
      </trkpt>
      <trkpt lat="44.51044" lon="1.95651">
        <ele>368.771071</ele>
        <time>2022-05-22T07:15:16.250Z</time>
      </trkpt>
      <trkpt lat="44.51033" lon="1.95654">
        <ele>369.142794</ele>
        <time>2022-05-22T07:15:21.247Z</time>
      </trkpt>
      <trkpt lat="44.51024" lon="1.95655">
        <ele>369.475051</ele>
        <time>2022-05-22T07:15:25.242Z</time>
      </trkpt>
      <trkpt lat="44.51013" lon="1.95656">
        <ele>369.848335</ele>
        <time>2022-05-22T07:15:30.388Z</time>
      </trkpt>
      <trkpt lat="44.51003" lon="1.95659">
        <ele>370.183914</ele>
        <time>2022-05-22T07:15:34.384Z</time>
      </trkpt>
      <trkpt lat="44.50992" lon="1.95661">
        <ele>370.573795</ele>
        <time>2022-05-22T07:15:38.517Z</time>
      </trkpt>
      <trkpt lat="44.50984" lon="1.95665">
        <ele>370.885378</ele>
        <time>2022-05-22T07:15:41.514Z</time>
      </trkpt>
      <trkpt lat="44.50975" lon="1.95672">
        <ele>371.223125</ele>
        <time>2022-05-22T07:15:44.516Z</time>
      </trkpt>
      <trkpt lat="44.50967" lon="1.95676">
        <ele>371.543522</ele>
        <time>2022-05-22T07:15:48.514Z</time>
      </trkpt>
      <trkpt lat="44.50958" lon="1.9568">
        <ele>371.874031</ele>
        <time>2022-05-22T07:15:51.518Z</time>
      </trkpt>
      <trkpt lat="44.50949" lon="1.95686">
        <ele>372.218965</ele>
        <time>2022-05-22T07:15:55.520Z</time>
      </trkpt>
      <trkpt lat="44.5094" lon="1.9569">
        <ele>372.548364</ele>
        <time>2022-05-22T07:15:58.513Z</time>
      </trkpt>
      <trkpt lat="44.5093" lon="1.95694">
        <ele>372.908097</ele>
        <time>2022-05-22T07:16:01.514Z</time>
      </trkpt>
      <trkpt lat="44.50921" lon="1.957">
        <ele>373.082618</ele>
        <time>2022-05-22T07:16:04.511Z</time>
      </trkpt>
      <trkpt lat="44.50912" lon="1.95706">
        <ele>372.790513</ele>
        <time>2022-05-22T07:16:07.516Z</time>
      </trkpt>
      <trkpt lat="44.50903" lon="1.9571">
        <ele>372.52334</ele>
        <time>2022-05-22T07:16:10.518Z</time>
      </trkpt>
      <trkpt lat="44.50892" lon="1.95707">
        <ele>372.192907</ele>
        <time>2022-05-22T07:16:13.481Z</time>
      </trkpt>
      <trkpt lat="44.50882" lon="1.9571">
        <ele>371.881407</ele>
        <time>2022-05-22T07:16:17.492Z</time>
      </trkpt>
      <trkpt lat="44.50875" lon="1.95721">
        <ele>371.573695</ele>
        <time>2022-05-22T07:16:21.648Z</time>
      </trkpt>
      <trkpt lat="44.50869" lon="1.95733">
        <ele>371.273536</ele>
        <time>2022-05-22T07:16:24.651Z</time>
      </trkpt>
      <trkpt lat="44.50863" lon="1.95745">
        <ele>370.955055</ele>
        <time>2022-05-22T07:16:27.645Z</time>
      </trkpt>
      <trkpt lat="44.50858" lon="1.95757">
        <ele>370.667268</ele>
        <time>2022-05-22T07:16:30.646Z</time>
      </trkpt>
      <trkpt lat="44.50852" lon="1.9577">
        <ele>370.332521</ele>
        <time>2022-05-22T07:16:34.654Z</time>
      </trkpt>
      <trkpt lat="44.50844" lon="1.95779">
        <ele>370.054069</ele>
        <time>2022-05-22T07:16:38.650Z</time>
      </trkpt>
      <trkpt lat="44.50834" lon="1.95778">
        <ele>369.735049</ele>
        <time>2022-05-22T07:16:42.648Z</time>
      </trkpt>
      <trkpt lat="44.50823" lon="1.95776">
        <ele>369.426975</ele>
        <time>2022-05-22T07:16:48.646Z</time>
      </trkpt>
      <trkpt lat="44.50816" lon="1.95769">
        <ele>369.150524</ele>
        <time>2022-05-22T07:16:51.652Z</time>
      </trkpt>
      <trkpt lat="44.50804" lon="1.95762">
        <ele>368.781686</ele>
        <time>2022-05-22T07:16:54.647Z</time>
      </trkpt>
      <trkpt lat="44.50795" lon="1.95759">
        <ele>368.514039</ele>
        <time>2022-05-22T07:16:56.644Z</time>
      </trkpt>
      <trkpt lat="44.50786" lon="1.9576">
        <ele>368.239779</ele>
        <time>2022-05-22T07:16:57.647Z</time>
      </trkpt>
      <trkpt lat="44.50775" lon="1.95757">
        <ele>367.912637</ele>
        <time>2022-05-22T07:16:59.648Z</time>
      </trkpt>
      <trkpt lat="44.50761" lon="1.95753">
        <ele>367.192448</ele>
        <time>2022-05-22T07:17:01.641Z</time>
      </trkpt>
      <trkpt lat="44.50751" lon="1.9575">
        <ele>366.607941</ele>
        <time>2022-05-22T07:17:03.649Z</time>
      </trkpt>
      <trkpt lat="44.50741" lon="1.95748">
        <ele>366.062896</ele>
        <time>2022-05-22T07:17:06.643Z</time>
      </trkpt>
      <trkpt lat="44.50732" lon="1.95743">
        <ele>365.541352</ele>
        <time>2022-05-22T07:17:11.647Z</time>
      </trkpt>
      <trkpt lat="44.5073" lon="1.95718">
        <ele>364.567203</ele>
        <time>2022-05-22T07:17:58.938Z</time>
      </trkpt>
      <trkpt lat="44.50729" lon="1.957">
        <ele>363.857117</ele>
        <time>2022-05-22T07:18:02.940Z</time>
      </trkpt>
      <trkpt lat="44.50726" lon="1.95682">
        <ele>363.154337</ele>
        <time>2022-05-22T07:18:05.939Z</time>
      </trkpt>
      <trkpt lat="44.50723" lon="1.95664">
        <ele>362.40625</ele>
        <time>2022-05-22T07:18:08.935Z</time>
      </trkpt>
      <trkpt lat="44.50722" lon="1.9565">
        <ele>361.857075</ele>
        <time>2022-05-22T07:18:09.938Z</time>
      </trkpt>
      <trkpt lat="44.50723" lon="1.95632">
        <ele>361.157155</ele>
        <time>2022-05-22T07:18:11.935Z</time>
      </trkpt>
      <trkpt lat="44.50724" lon="1.95612">
        <ele>360.378457</ele>
        <time>2022-05-22T07:18:13.939Z</time>
      </trkpt>
      <trkpt lat="44.50722" lon="1.95593">
        <ele>359.62668</ele>
        <time>2022-05-22T07:18:15.934Z</time>
      </trkpt>
      <trkpt lat="44.50722" lon="1.95572">
        <ele>358.844761</ele>
        <time>2022-05-22T07:18:17.928Z</time>
      </trkpt>
      <trkpt lat="44.50722" lon="1.95555">
        <ele>358.179004</ele>
        <time>2022-05-22T07:18:19.935Z</time>
      </trkpt>
      <trkpt lat="44.50723" lon="1.95532">
        <ele>357.934164</ele>
        <time>2022-05-22T07:18:21.941Z</time>
      </trkpt>
      <trkpt lat="44.50726" lon="1.95513">
        <ele>357.819144</ele>
        <time>2022-05-22T07:18:23.937Z</time>
      </trkpt>
      <trkpt lat="44.5073" lon="1.95494">
        <ele>357.70334</ele>
        <time>2022-05-22T07:18:25.935Z</time>
      </trkpt>
      <trkpt lat="44.50736" lon="1.95477">
        <ele>357.593351</ele>
        <time>2022-05-22T07:18:27.934Z</time>
      </trkpt>
      <trkpt lat="44.50739" lon="1.9546">
        <ele>357.488667</ele>
        <time>2022-05-22T07:18:29.938Z</time>
      </trkpt>
      <trkpt lat="44.50741" lon="1.95443">
        <ele>357.386395</ele>
        <time>2022-05-22T07:18:31.933Z</time>
      </trkpt>
      <trkpt lat="44.50743" lon="1.95426">
        <ele>357.284978</ele>
        <time>2022-05-22T07:18:33.935Z</time>
      </trkpt>
      <trkpt lat="44.50748" lon="1.9541">
        <ele>357.187884</ele>
        <time>2022-05-22T07:18:35.938Z</time>
      </trkpt>
      <trkpt lat="44.50752" lon="1.95398">
        <ele>357.10803</ele>
        <time>2022-05-22T07:18:37.935Z</time>
      </trkpt>
      <trkpt lat="44.50756" lon="1.95384">
        <ele>357.022292</ele>
        <time>2022-05-22T07:18:41.932Z</time>
      </trkpt>
      <trkpt lat="44.50743" lon="1.95374">
        <ele>356.900324</ele>
        <time>2022-05-22T07:32:50.943Z</time>
      </trkpt>
      <trkpt lat="44.50733" lon="1.95366">
        <ele>356.807068</ele>
        <time>2022-05-22T07:32:54.942Z</time>
      </trkpt>
      <trkpt lat="44.50723" lon="1.95358">
        <ele>356.709151</ele>
        <time>2022-05-22T07:32:58.936Z</time>
      </trkpt>
      <trkpt lat="44.50712" lon="1.95352">
        <ele>356.616958</ele>
        <time>2022-05-22T07:33:02.946Z</time>
      </trkpt>
      <trkpt lat="44.50704" lon="1.95347">
        <ele>356.567165</ele>
        <time>2022-05-22T07:33:06.936Z</time>
      </trkpt>
      <trkpt lat="44.50693" lon="1.9534">
        <ele>356.54451</ele>
        <time>2022-05-22T07:33:10.934Z</time>
      </trkpt>
      <trkpt lat="44.50684" lon="1.95334">
        <ele>356.524745</ele>
        <time>2022-05-22T07:33:13.937Z</time>
      </trkpt>
      <trkpt lat="44.50674" lon="1.95328">
        <ele>356.502977</ele>
        <time>2022-05-22T07:33:17.938Z</time>
      </trkpt>
      <trkpt lat="44.50663" lon="1.95325">
        <ele>356.480387</ele>
        <time>2022-05-22T07:33:20.933Z</time>
      </trkpt>
      <trkpt lat="44.50652" lon="1.95332">
        <ele>356.458386</ele>
        <time>2022-05-22T07:33:23.938Z</time>
      </trkpt>
      <trkpt lat="44.50643" lon="1.95341">
        <ele>356.435956</ele>
        <time>2022-05-22T07:33:26.935Z</time>
      </trkpt>
      <trkpt lat="44.50634" lon="1.95352">
        <ele>356.412461</ele>
        <time>2022-05-22T07:33:29.937Z</time>
      </trkpt>
      <trkpt lat="44.50626" lon="1.95359">
        <ele>356.393954</ele>
        <time>2022-05-22T07:33:31.938Z</time>
      </trkpt>
      <trkpt lat="44.50613" lon="1.95367">
        <ele>356.367936</ele>
        <time>2022-05-22T07:33:34.942Z</time>
      </trkpt>
      <trkpt lat="44.50601" lon="1.95374">
        <ele>356.34213</ele>
        <time>2022-05-22T07:33:36.937Z</time>
      </trkpt>
      <trkpt lat="44.50592" lon="1.95379">
        <ele>356.322056</ele>
        <time>2022-05-22T07:33:38.937Z</time>
      </trkpt>
      <trkpt lat="44.50579" lon="1.95386">
        <ele>356.295938</ele>
        <time>2022-05-22T07:33:41.932Z</time>
      </trkpt>
      <trkpt lat="44.50569" lon="1.95393">
        <ele>356.273466</ele>
        <time>2022-05-22T07:33:43.942Z</time>
      </trkpt>
      <trkpt lat="44.50558" lon="1.95395">
        <ele>356.253229</ele>
        <time>2022-05-22T07:33:45.933Z</time>
      </trkpt>
      <trkpt lat="44.5055" lon="1.95403">
        <ele>356.232653</ele>
        <time>2022-05-22T07:33:47.934Z</time>
      </trkpt>
      <trkpt lat="44.5054" lon="1.95409">
        <ele>356.273047</ele>
        <time>2022-05-22T07:33:49.936Z</time>
      </trkpt>
      <trkpt lat="44.50531" lon="1.95416">
        <ele>356.357681</ele>
        <time>2022-05-22T07:33:51.941Z</time>
      </trkpt>
      <trkpt lat="44.50522" lon="1.9542">
        <ele>356.429713</ele>
        <time>2022-05-22T07:33:53.936Z</time>
      </trkpt>
      <trkpt lat="44.50513" lon="1.95423">
        <ele>356.500938</ele>
        <time>2022-05-22T07:33:55.933Z</time>
      </trkpt>
      <trkpt lat="44.50503" lon="1.95427">
        <ele>356.580364</ele>
        <time>2022-05-22T07:33:57.939Z</time>
      </trkpt>
      <trkpt lat="44.50489" lon="1.95432">
        <ele>356.695487</ele>
        <time>2022-05-22T07:34:00.934Z</time>
      </trkpt>
      <trkpt lat="44.5048" lon="1.95439">
        <ele>356.777614</ele>
        <time>2022-05-22T07:34:03.941Z</time>
      </trkpt>
      <trkpt lat="44.5047" lon="1.95447">
        <ele>356.869843</ele>
        <time>2022-05-22T07:34:06.938Z</time>
      </trkpt>
      <trkpt lat="44.50459" lon="1.95449">
        <ele>356.959812</ele>
        <time>2022-05-22T07:34:09.939Z</time>
      </trkpt>
      <trkpt lat="44.5045" lon="1.95456">
        <ele>357.037555</ele>
        <time>2022-05-22T07:34:12.948Z</time>
      </trkpt>
      <trkpt lat="44.50442" lon="1.95463">
        <ele>357.114764</ele>
        <time>2022-05-22T07:34:16.938Z</time>
      </trkpt>
      <trkpt lat="44.50432" lon="1.95474">
        <ele>357.215437</ele>
        <time>2022-05-22T07:34:20.953Z</time>
      </trkpt>
      <trkpt lat="44.50421" lon="1.95479">
        <ele>357.30219</ele>
        <time>2022-05-22T07:34:23.937Z</time>
      </trkpt>
      <trkpt lat="44.50409" lon="1.95479">
        <ele>357.397615</ele>
        <time>2022-05-22T07:34:26.937Z</time>
      </trkpt>
      <trkpt lat="44.50396" lon="1.95476">
        <ele>357.499375</ele>
        <time>2022-05-22T07:34:29.933Z</time>
      </trkpt>
      <trkpt lat="44.50385" lon="1.95472">
        <ele>357.591655</ele>
        <time>2022-05-22T07:34:32.934Z</time>
      </trkpt>
      <trkpt lat="44.50373" lon="1.9547">
        <ele>357.798161</ele>
        <time>2022-05-22T07:34:35.938Z</time>
      </trkpt>
      <trkpt lat="44.50362" lon="1.9547">
        <ele>358.141909</ele>
        <time>2022-05-22T07:34:38.935Z</time>
      </trkpt>
      <trkpt lat="44.50349" lon="1.95472">
        <ele>358.522862</ele>
        <time>2022-05-22T07:34:41.938Z</time>
      </trkpt>
      <trkpt lat="44.50341" lon="1.95463">
        <ele>358.83686</ele>
        <time>2022-05-22T07:34:45.942Z</time>
      </trkpt>
      <trkpt lat="44.50342" lon="1.95448">
        <ele>359.151546</ele>
        <time>2022-05-22T07:34:49.935Z</time>
      </trkpt>
      <trkpt lat="44.50342" lon="1.95432">
        <ele>359.499931</ele>
        <time>2022-05-22T07:34:53.939Z</time>
      </trkpt>
      <trkpt lat="44.5034" lon="1.95415">
        <ele>359.86058</ele>
        <time>2022-05-22T07:34:56.942Z</time>
      </trkpt>
      <trkpt lat="44.50338" lon="1.95403">
        <ele>360.143121</ele>
        <time>2022-05-22T07:34:58.329Z</time>
      </trkpt>
      <trkpt lat="44.50335" lon="1.95385">
        <ele>360.527471</ele>
        <time>2022-05-22T07:35:00.309Z</time>
      </trkpt>
      <trkpt lat="44.5033" lon="1.95368">
        <ele>360.924527</ele>
        <time>2022-05-22T07:35:03.312Z</time>
      </trkpt>
      <trkpt lat="44.50326" lon="1.9535">
        <ele>361.340926</ele>
        <time>2022-05-22T07:35:06.304Z</time>
      </trkpt>
      <trkpt lat="44.50322" lon="1.95333">
        <ele>361.715701</ele>
        <time>2022-05-22T07:35:09.305Z</time>
      </trkpt>
      <trkpt lat="44.50319" lon="1.95317">
        <ele>362.069993</ele>
        <time>2022-05-22T07:35:12.309Z</time>
      </trkpt>
      <trkpt lat="44.50315" lon="1.953">
        <ele>362.457548</ele>
        <time>2022-05-22T07:35:15.310Z</time>
      </trkpt>
      <trkpt lat="44.50316" lon="1.95283">
        <ele>362.813206</ele>
        <time>2022-05-22T07:35:17.306Z</time>
      </trkpt>
      <trkpt lat="44.50315" lon="1.9527">
        <ele>363.019065</ele>
        <time>2022-05-22T07:35:19.305Z</time>
      </trkpt>
      <trkpt lat="44.50313" lon="1.95254">
        <ele>362.349293</ele>
        <time>2022-05-22T07:35:21.308Z</time>
      </trkpt>
      <trkpt lat="44.50311" lon="1.95239">
        <ele>361.744032</ele>
        <time>2022-05-22T07:35:23.308Z</time>
      </trkpt>
      <trkpt lat="44.50306" lon="1.95225">
        <ele>361.132647</ele>
        <time>2022-05-22T07:35:25.305Z</time>
      </trkpt>
      <trkpt lat="44.50302" lon="1.95212">
        <ele>360.534552</ele>
        <time>2022-05-22T07:35:27.309Z</time>
      </trkpt>
      <trkpt lat="44.503" lon="1.95197">
        <ele>359.935919</ele>
        <time>2022-05-22T07:35:29.309Z</time>
      </trkpt>
      <trkpt lat="44.50295" lon="1.95182">
        <ele>359.27167</ele>
        <time>2022-05-22T07:35:31.313Z</time>
      </trkpt>
      <trkpt lat="44.50292" lon="1.9517">
        <ele>358.744696</ele>
        <time>2022-05-22T07:35:33.634Z</time>
      </trkpt>
      <trkpt lat="44.50285" lon="1.95154">
        <ele>358.027121</ele>
        <time>2022-05-22T07:35:36.627Z</time>
      </trkpt>
      <trkpt lat="44.50281" lon="1.95141">
        <ele>357.44595</ele>
        <time>2022-05-22T07:35:39.627Z</time>
      </trkpt>
      <trkpt lat="44.50274" lon="1.95127">
        <ele>356.776032</ele>
        <time>2022-05-22T07:35:42.627Z</time>
      </trkpt>
      <trkpt lat="44.50267" lon="1.95114">
        <ele>356.079669</ele>
        <time>2022-05-22T07:35:45.627Z</time>
      </trkpt>
      <trkpt lat="44.50261" lon="1.95099">
        <ele>355.413766</ele>
        <time>2022-05-22T07:35:48.627Z</time>
      </trkpt>
      <trkpt lat="44.50256" lon="1.95086">
        <ele>354.814376</ele>
        <time>2022-05-22T07:35:51.627Z</time>
      </trkpt>
      <trkpt lat="44.50257" lon="1.9507">
        <ele>354.167959</ele>
        <time>2022-05-22T07:35:54.627Z</time>
      </trkpt>
      <trkpt lat="44.50257" lon="1.95057">
        <ele>353.658196</ele>
        <time>2022-05-22T07:35:56.629Z</time>
      </trkpt>
      <trkpt lat="44.50257" lon="1.95034">
        <ele>352.601186</ele>
        <time>2022-05-22T07:35:58.629Z</time>
      </trkpt>
      <trkpt lat="44.50258" lon="1.95018">
        <ele>351.453816</ele>
        <time>2022-05-22T07:36:00.621Z</time>
      </trkpt>
      <trkpt lat="44.50261" lon="1.95003">
        <ele>350.426543</ele>
        <time>2022-05-22T07:36:02.632Z</time>
      </trkpt>
      <trkpt lat="44.50261" lon="1.94988">
        <ele>349.420768</ele>
        <time>2022-05-22T07:36:04.628Z</time>
      </trkpt>
      <trkpt lat="44.50257" lon="1.94969">
        <ele>348.062649</ele>
        <time>2022-05-22T07:36:07.631Z</time>
      </trkpt>
      <trkpt lat="44.50257" lon="1.94956">
        <ele>347.124551</ele>
        <time>2022-05-22T07:36:10.626Z</time>
      </trkpt>
      <trkpt lat="44.50261" lon="1.94943">
        <ele>346.241626</ele>
        <time>2022-05-22T07:36:12.632Z</time>
      </trkpt>
      <trkpt lat="44.50265" lon="1.94931">
        <ele>345.297478</ele>
        <time>2022-05-22T07:36:13.628Z</time>
      </trkpt>
      <trkpt lat="44.50269" lon="1.94919">
        <ele>344.390886</ele>
        <time>2022-05-22T07:36:15.621Z</time>
      </trkpt>
      <trkpt lat="44.50275" lon="1.94907">
        <ele>343.40563</ele>
        <time>2022-05-22T07:36:18.626Z</time>
      </trkpt>
      <trkpt lat="44.50264" lon="1.94905">
        <ele>342.380527</ele>
        <time>2022-05-22T07:36:23.629Z</time>
      </trkpt>
      <trkpt lat="44.50256" lon="1.94897">
        <ele>341.457498</ele>
        <time>2022-05-22T07:36:27.627Z</time>
      </trkpt>
      <trkpt lat="44.50263" lon="1.94883">
        <ele>340.281187</ele>
        <time>2022-05-22T07:36:31.629Z</time>
      </trkpt>
      <trkpt lat="44.50271" lon="1.94874">
        <ele>339.263899</ele>
        <time>2022-05-22T07:36:34.627Z</time>
      </trkpt>
      <trkpt lat="44.50282" lon="1.94865">
        <ele>338.11958</ele>
        <time>2022-05-22T07:36:37.628Z</time>
      </trkpt>
      <trkpt lat="44.5029" lon="1.94858">
        <ele>337.202194</ele>
        <time>2022-05-22T07:36:40.619Z</time>
      </trkpt>
      <trkpt lat="44.50301" lon="1.94851">
        <ele>336.040465</ele>
        <time>2022-05-22T07:36:43.625Z</time>
      </trkpt>
      <trkpt lat="44.5031" lon="1.94843">
        <ele>334.772014</ele>
        <time>2022-05-22T07:36:47.624Z</time>
      </trkpt>
      <trkpt lat="44.50319" lon="1.94833">
        <ele>333.255794</ele>
        <time>2022-05-22T07:36:51.631Z</time>
      </trkpt>
      <trkpt lat="44.50327" lon="1.94825">
        <ele>331.950712</ele>
        <time>2022-05-22T07:36:55.628Z</time>
      </trkpt>
      <trkpt lat="44.50335" lon="1.94813">
        <ele>330.437661</ele>
        <time>2022-05-22T07:36:59.634Z</time>
      </trkpt>
      <trkpt lat="44.50341" lon="1.94799">
        <ele>328.845062</ele>
        <time>2022-05-22T07:37:03.623Z</time>
      </trkpt>
      <trkpt lat="44.50349" lon="1.94787">
        <ele>327.290585</ele>
        <time>2022-05-22T07:37:07.623Z</time>
      </trkpt>
      <trkpt lat="44.50357" lon="1.94775">
        <ele>325.700063</ele>
        <time>2022-05-22T07:37:10.621Z</time>
      </trkpt>
      <trkpt lat="44.50364" lon="1.94764">
        <ele>324.369091</ele>
        <time>2022-05-22T07:37:13.626Z</time>
      </trkpt>
      <trkpt lat="44.50372" lon="1.94755">
        <ele>322.992503</ele>
        <time>2022-05-22T07:37:16.627Z</time>
      </trkpt>
      <trkpt lat="44.50381" lon="1.94746">
        <ele>321.551184</ele>
        <time>2022-05-22T07:37:19.625Z</time>
      </trkpt>
      <trkpt lat="44.50388" lon="1.94738">
        <ele>320.327331</ele>
        <time>2022-05-22T07:37:22.626Z</time>
      </trkpt>
      <trkpt lat="44.50396" lon="1.94731">
        <ele>319.021272</ele>
        <time>2022-05-22T07:37:25.612Z</time>
      </trkpt>
      <trkpt lat="44.50404" lon="1.94725">
        <ele>317.816778</ele>
        <time>2022-05-22T07:37:28.625Z</time>
      </trkpt>
      <trkpt lat="44.50415" lon="1.94716">
        <ele>316.263535</ele>
        <time>2022-05-22T07:37:32.627Z</time>
      </trkpt>
      <trkpt lat="44.50424" lon="1.94713">
        <ele>315.033089</ele>
        <time>2022-05-22T07:37:35.613Z</time>
      </trkpt>
      <trkpt lat="44.50434" lon="1.9471">
        <ele>313.645355</ele>
        <time>2022-05-22T07:37:37.625Z</time>
      </trkpt>
      <trkpt lat="44.50444" lon="1.94707">
        <ele>312.234979</ele>
        <time>2022-05-22T07:37:39.628Z</time>
      </trkpt>
      <trkpt lat="44.50454" lon="1.94703">
        <ele>310.913178</ele>
        <time>2022-05-22T07:37:41.620Z</time>
      </trkpt>
      <trkpt lat="44.50466" lon="1.94693">
        <ele>309.127585</ele>
        <time>2022-05-22T07:37:44.627Z</time>
      </trkpt>
      <trkpt lat="44.50475" lon="1.94688">
        <ele>307.87336</ele>
        <time>2022-05-22T07:37:46.629Z</time>
      </trkpt>
      <trkpt lat="44.50485" lon="1.94684">
        <ele>306.593508</ele>
        <time>2022-05-22T07:37:48.630Z</time>
      </trkpt>
      <trkpt lat="44.50494" lon="1.94679">
        <ele>305.39481</ele>
        <time>2022-05-22T07:37:50.623Z</time>
      </trkpt>
      <trkpt lat="44.50505" lon="1.94675">
        <ele>303.92499</ele>
        <time>2022-05-22T07:37:53.634Z</time>
      </trkpt>
      <trkpt lat="44.50515" lon="1.94671">
        <ele>302.631904</ele>
        <time>2022-05-22T07:37:56.623Z</time>
      </trkpt>
      <trkpt lat="44.50525" lon="1.94667">
        <ele>301.193829</ele>
        <time>2022-05-22T07:37:59.624Z</time>
      </trkpt>
      <trkpt lat="44.50535" lon="1.9466">
        <ele>299.817704</ele>
        <time>2022-05-22T07:38:02.623Z</time>
      </trkpt>
      <trkpt lat="44.50547" lon="1.94654">
        <ele>298.16428</ele>
        <time>2022-05-22T07:38:05.622Z</time>
      </trkpt>
      <trkpt lat="44.50559" lon="1.94652">
        <ele>296.681625</ele>
        <time>2022-05-22T07:38:08.626Z</time>
      </trkpt>
      <trkpt lat="44.5057" lon="1.94648">
        <ele>295.260435</ele>
        <time>2022-05-22T07:38:12.622Z</time>
      </trkpt>
      <trkpt lat="44.50578" lon="1.94643">
        <ele>294.107756</ele>
        <time>2022-05-22T07:38:15.629Z</time>
      </trkpt>
      <trkpt lat="44.50588" lon="1.9464">
        <ele>292.781168</ele>
        <time>2022-05-22T07:38:18.632Z</time>
      </trkpt>
      <trkpt lat="44.50598" lon="1.94634">
        <ele>291.462294</ele>
        <time>2022-05-22T07:38:21.625Z</time>
      </trkpt>
      <trkpt lat="44.50607" lon="1.94627">
        <ele>290.057185</ele>
        <time>2022-05-22T07:38:24.625Z</time>
      </trkpt>
      <trkpt lat="44.50619" lon="1.94625">
        <ele>288.335634</ele>
        <time>2022-05-22T07:38:28.624Z</time>
      </trkpt>
      <trkpt lat="44.50629" lon="1.9462">
        <ele>286.378297</ele>
        <time>2022-05-22T07:38:31.626Z</time>
      </trkpt>
      <trkpt lat="44.50638" lon="1.94611">
        <ele>284.238344</ele>
        <time>2022-05-22T07:38:36.624Z</time>
      </trkpt>
      <trkpt lat="44.50649" lon="1.94606">
        <ele>282.210848</ele>
        <time>2022-05-22T07:38:39.624Z</time>
      </trkpt>
      <trkpt lat="44.50657" lon="1.94602">
        <ele>280.523544</ele>
        <time>2022-05-22T07:38:41.627Z</time>
      </trkpt>
      <trkpt lat="44.50667" lon="1.94597">
        <ele>278.684699</ele>
        <time>2022-05-22T07:38:43.623Z</time>
      </trkpt>
      <trkpt lat="44.50676" lon="1.94589">
        <ele>276.557014</ele>
        <time>2022-05-22T07:38:46.620Z</time>
      </trkpt>
      <trkpt lat="44.50687" lon="1.94586">
        <ele>274.511576</ele>
        <time>2022-05-22T07:38:50.622Z</time>
      </trkpt>
      <trkpt lat="44.50698" lon="1.94578">
        <ele>272.188</ele>
        <time>2022-05-22T07:38:53.627Z</time>
      </trkpt>
      <trkpt lat="44.50707" lon="1.9457">
        <ele>270.291112</ele>
        <time>2022-05-22T07:38:57.624Z</time>
      </trkpt>
      <trkpt lat="44.50717" lon="1.94561">
        <ele>268.090757</ele>
        <time>2022-05-22T07:39:00.623Z</time>
      </trkpt>
      <trkpt lat="44.50725" lon="1.94554">
        <ele>266.345325</ele>
        <time>2022-05-22T07:39:04.626Z</time>
      </trkpt>
      <trkpt lat="44.50734" lon="1.94546">
        <ele>264.333223</ele>
        <time>2022-05-22T07:39:08.628Z</time>
      </trkpt>
      <trkpt lat="44.50743" lon="1.9454">
        <ele>262.395243</ele>
        <time>2022-05-22T07:39:12.629Z</time>
      </trkpt>
      <trkpt lat="44.50754" lon="1.9453">
        <ele>259.980504</ele>
        <time>2022-05-22T07:39:15.628Z</time>
      </trkpt>
      <trkpt lat="44.50766" lon="1.94525">
        <ele>257.75865</ele>
        <time>2022-05-22T07:39:17.625Z</time>
      </trkpt>
      <trkpt lat="44.50781" lon="1.94517">
        <ele>255.099499</ele>
        <time>2022-05-22T07:39:19.628Z</time>
      </trkpt>
      <trkpt lat="44.50794" lon="1.94512">
        <ele>253.787324</ele>
        <time>2022-05-22T07:39:21.625Z</time>
      </trkpt>
      <trkpt lat="44.50805" lon="1.94507">
        <ele>252.616757</ele>
        <time>2022-05-22T07:39:23.626Z</time>
      </trkpt>
      <trkpt lat="44.50817" lon="1.94505">
        <ele>251.482057</ele>
        <time>2022-05-22T07:39:25.626Z</time>
      </trkpt>
      <trkpt lat="44.50828" lon="1.94505">
        <ele>250.325156</ele>
        <time>2022-05-22T07:39:27.623Z</time>
      </trkpt>
      <trkpt lat="44.5084" lon="1.94508">
        <ele>249.146819</ele>
        <time>2022-05-22T07:39:29.628Z</time>
      </trkpt>
      <trkpt lat="44.50854" lon="1.94516">
        <ele>247.669849</ele>
        <time>2022-05-22T07:39:31.630Z</time>
      </trkpt>
      <trkpt lat="44.50864" lon="1.94517">
        <ele>246.724263</ele>
        <time>2022-05-22T07:39:33.626Z</time>
      </trkpt>
      <trkpt lat="44.50874" lon="1.94515">
        <ele>245.753325</ele>
        <time>2022-05-22T07:39:35.629Z</time>
      </trkpt>
      <trkpt lat="44.50884" lon="1.94513">
        <ele>244.741531</ele>
        <time>2022-05-22T07:39:37.626Z</time>
      </trkpt>
      <trkpt lat="44.50893" lon="1.94514">
        <ele>243.83263</ele>
        <time>2022-05-22T07:39:39.626Z</time>
      </trkpt>
      <trkpt lat="44.50903" lon="1.94515">
        <ele>242.838853</ele>
        <time>2022-05-22T07:39:41.640Z</time>
      </trkpt>
      <trkpt lat="44.50915" lon="1.94512">
        <ele>241.608352</ele>
        <time>2022-05-22T07:39:43.634Z</time>
      </trkpt>
      <trkpt lat="44.50926" lon="1.94502">
        <ele>240.371903</ele>
        <time>2022-05-22T07:39:45.629Z</time>
      </trkpt>
      <trkpt lat="44.50933" lon="1.94486">
        <ele>239.056859</ele>
        <time>2022-05-22T07:39:47.615Z</time>
      </trkpt>
      <trkpt lat="44.50945" lon="1.94475">
        <ele>237.661087</ele>
        <time>2022-05-22T07:39:49.628Z</time>
      </trkpt>
      <trkpt lat="44.50954" lon="1.94467">
        <ele>236.771581</ele>
        <time>2022-05-22T07:39:51.629Z</time>
      </trkpt>
      <trkpt lat="44.50963" lon="1.94462">
        <ele>235.970617</ele>
        <time>2022-05-22T07:39:53.624Z</time>
      </trkpt>
      <trkpt lat="44.50972" lon="1.94456">
        <ele>235.120387</ele>
        <time>2022-05-22T07:39:56.628Z</time>
      </trkpt>
      <trkpt lat="44.50982" lon="1.94459">
        <ele>234.233918</ele>
        <time>2022-05-22T07:39:58.631Z</time>
      </trkpt>
      <trkpt lat="44.50995" lon="1.94462">
        <ele>233.116975</ele>
        <time>2022-05-22T07:40:00.623Z</time>
      </trkpt>
      <trkpt lat="44.51004" lon="1.94462">
        <ele>232.342355</ele>
        <time>2022-05-22T07:40:02.630Z</time>
      </trkpt>
      <trkpt lat="44.51014" lon="1.94458">
        <ele>231.486486</ele>
        <time>2022-05-22T07:40:04.629Z</time>
      </trkpt>
      <trkpt lat="44.51026" lon="1.94453">
        <ele>230.468676</ele>
        <time>2022-05-22T07:40:06.623Z</time>
      </trkpt>
      <trkpt lat="44.51033" lon="1.94443">
        <ele>229.599745</ele>
        <time>2022-05-22T07:40:08.627Z</time>
      </trkpt>
      <trkpt lat="44.51038" lon="1.9443">
        <ele>228.661928</ele>
        <time>2022-05-22T07:40:10.627Z</time>
      </trkpt>
      <trkpt lat="44.5104" lon="1.94416">
        <ele>227.835655</ele>
        <time>2022-05-22T07:40:12.625Z</time>
      </trkpt>
      <trkpt lat="44.51043" lon="1.944">
        <ele>226.848048</ele>
        <time>2022-05-22T07:40:15.626Z</time>
      </trkpt>
      <trkpt lat="44.51047" lon="1.94387">
        <ele>225.998164</ele>
        <time>2022-05-22T07:40:17.625Z</time>
      </trkpt>
      <trkpt lat="44.51045" lon="1.9437">
        <ele>224.952044</ele>
        <time>2022-05-22T07:40:19.628Z</time>
      </trkpt>
      <trkpt lat="44.51038" lon="1.94355">
        <ele>223.853359</ele>
        <time>2022-05-22T07:40:21.626Z</time>
      </trkpt>
      <trkpt lat="44.51027" lon="1.94343">
        <ele>222.640902</ele>
        <time>2022-05-22T07:40:23.628Z</time>
      </trkpt>
      <trkpt lat="44.51014" lon="1.94329">
        <ele>221.23026</ele>
        <time>2022-05-22T07:40:25.640Z</time>
      </trkpt>
      <trkpt lat="44.51002" lon="1.94311">
        <ele>219.715307</ele>
        <time>2022-05-22T07:40:27.630Z</time>
      </trkpt>
      <trkpt lat="44.50991" lon="1.94292">
        <ele>218.148083</ele>
        <time>2022-05-22T07:40:29.635Z</time>
      </trkpt>
      <trkpt lat="44.50985" lon="1.94282">
        <ele>217.358603</ele>
        <time>2022-05-22T07:40:30.625Z</time>
      </trkpt>
      <trkpt lat="44.5098" lon="1.94272">
        <ele>216.564909</ele>
        <time>2022-05-22T07:40:31.629Z</time>
      </trkpt>
      <trkpt lat="44.50972" lon="1.94249">
        <ele>215.005864</ele>
        <time>2022-05-22T07:40:33.628Z</time>
      </trkpt>
      <trkpt lat="44.50971" lon="1.94236">
        <ele>214.185778</ele>
        <time>2022-05-22T07:40:34.627Z</time>
      </trkpt>
      <trkpt lat="44.50971" lon="1.94222">
        <ele>213.321999</ele>
        <time>2022-05-22T07:40:35.627Z</time>
      </trkpt>
      <trkpt lat="44.50972" lon="1.94198">
        <ele>211.810658</ele>
        <time>2022-05-22T07:40:37.628Z</time>
      </trkpt>
      <trkpt lat="44.50974" lon="1.94179">
        <ele>210.680205</ele>
        <time>2022-05-22T07:40:39.624Z</time>
      </trkpt>
      <trkpt lat="44.50965" lon="1.94174">
        <ele>209.862285</ele>
        <time>2022-05-22T07:40:42.624Z</time>
      </trkpt>
      <trkpt lat="44.50957" lon="1.94181">
        <ele>209.039065</ele>
        <time>2022-05-22T07:40:44.624Z</time>
      </trkpt>
      <trkpt lat="44.50949" lon="1.94189">
        <ele>208.168877</ele>
        <time>2022-05-22T07:40:46.623Z</time>
      </trkpt>
      <trkpt lat="44.50941" lon="1.94198">
        <ele>207.287398</ele>
        <time>2022-05-22T07:40:48.625Z</time>
      </trkpt>
      <trkpt lat="44.50933" lon="1.94205">
        <ele>207.024348</ele>
        <time>2022-05-22T07:40:50.626Z</time>
      </trkpt>
      <trkpt lat="44.50924" lon="1.94212">
        <ele>207.25605</ele>
        <time>2022-05-22T07:40:52.630Z</time>
      </trkpt>
      <trkpt lat="44.50912" lon="1.94216">
        <ele>207.567524</ele>
        <time>2022-05-22T07:40:55.623Z</time>
      </trkpt>
      <trkpt lat="44.509" lon="1.94217">
        <ele>207.860559</ele>
        <time>2022-05-22T07:40:58.621Z</time>
      </trkpt>
      <trkpt lat="44.50888" lon="1.94216">
        <ele>208.150425</ele>
        <time>2022-05-22T07:41:01.620Z</time>
      </trkpt>
      <trkpt lat="44.50875" lon="1.94216">
        <ele>208.46176</ele>
        <time>2022-05-22T07:41:04.624Z</time>
      </trkpt>
      <trkpt lat="44.50866" lon="1.9422">
        <ele>208.695039</ele>
        <time>2022-05-22T07:41:06.626Z</time>
      </trkpt>
      <trkpt lat="44.50855" lon="1.94226">
        <ele>208.972152</ele>
        <time>2022-05-22T07:41:08.628Z</time>
      </trkpt>
      <trkpt lat="44.50846" lon="1.9423">
        <ele>209.211064</ele>
        <time>2022-05-22T07:41:10.624Z</time>
      </trkpt>
      <trkpt lat="44.50836" lon="1.94234">
        <ele>209.467594</ele>
        <time>2022-05-22T07:41:12.623Z</time>
      </trkpt>
      <trkpt lat="44.50825" lon="1.94237">
        <ele>209.742673</ele>
        <time>2022-05-22T07:41:14.624Z</time>
      </trkpt>
      <trkpt lat="44.50813" lon="1.94242">
        <ele>210.046367</ele>
        <time>2022-05-22T07:41:17.629Z</time>
      </trkpt>
      <trkpt lat="44.50803" lon="1.94243">
        <ele>210.278897</ele>
        <time>2022-05-22T07:41:19.623Z</time>
      </trkpt>
      <trkpt lat="44.50794" lon="1.94245">
        <ele>210.506798</ele>
        <time>2022-05-22T07:41:21.622Z</time>
      </trkpt>
      <trkpt lat="44.50783" lon="1.94248">
        <ele>210.768538</ele>
        <time>2022-05-22T07:41:23.627Z</time>
      </trkpt>
      <trkpt lat="44.50774" lon="1.94251">
        <ele>211.010523</ele>
        <time>2022-05-22T07:41:25.628Z</time>
      </trkpt>
      <trkpt lat="44.50761" lon="1.94253">
        <ele>211.334295</ele>
        <time>2022-05-22T07:41:27.630Z</time>
      </trkpt>
      <trkpt lat="44.50747" lon="1.94256">
        <ele>211.763264</ele>
        <time>2022-05-22T07:41:30.628Z</time>
      </trkpt>
      <trkpt lat="44.50738" lon="1.94261">
        <ele>212.066551</ele>
        <time>2022-05-22T07:41:32.622Z</time>
      </trkpt>
      <trkpt lat="44.50728" lon="1.94264">
        <ele>212.368591</ele>
        <time>2022-05-22T07:41:34.627Z</time>
      </trkpt>
      <trkpt lat="44.50715" lon="1.94266">
        <ele>212.763557</ele>
        <time>2022-05-22T07:41:37.627Z</time>
      </trkpt>
      <trkpt lat="44.50703" lon="1.94271">
        <ele>213.160571</ele>
        <time>2022-05-22T07:41:40.628Z</time>
      </trkpt>
      <trkpt lat="44.50693" lon="1.9428">
        <ele>213.521229</ele>
        <time>2022-05-22T07:41:43.623Z</time>
      </trkpt>
      <trkpt lat="44.50683" lon="1.94287">
        <ele>213.859577</ele>
        <time>2022-05-22T07:41:46.628Z</time>
      </trkpt>
      <trkpt lat="44.50674" lon="1.94292">
        <ele>214.138603</ele>
        <time>2022-05-22T07:41:49.628Z</time>
      </trkpt>
      <trkpt lat="44.50663" lon="1.94299">
        <ele>214.515837</ele>
        <time>2022-05-22T07:41:53.629Z</time>
      </trkpt>
      <trkpt lat="44.50652" lon="1.94305">
        <ele>214.864733</ele>
        <time>2022-05-22T07:41:56.621Z</time>
      </trkpt>
      <trkpt lat="44.50642" lon="1.94311">
        <ele>215.215636</ele>
        <time>2022-05-22T07:41:59.629Z</time>
      </trkpt>
      <trkpt lat="44.50632" lon="1.94319">
        <ele>215.55307</ele>
        <time>2022-05-22T07:42:02.626Z</time>
      </trkpt>
      <trkpt lat="44.50624" lon="1.94327">
        <ele>215.85354</ele>
        <time>2022-05-22T07:42:05.628Z</time>
      </trkpt>
      <trkpt lat="44.50616" lon="1.94333">
        <ele>216.145074</ele>
        <time>2022-05-22T07:42:08.626Z</time>
      </trkpt>
      <trkpt lat="44.50606" lon="1.94336">
        <ele>216.449616</ele>
        <time>2022-05-22T07:42:11.624Z</time>
      </trkpt>
      <trkpt lat="44.50597" lon="1.94337">
        <ele>216.72862</ele>
        <time>2022-05-22T07:42:14.628Z</time>
      </trkpt>
      <trkpt lat="44.50587" lon="1.94338">
        <ele>216.876704</ele>
        <time>2022-05-22T07:42:17.624Z</time>
      </trkpt>
      <trkpt lat="44.50577" lon="1.94339">
        <ele>217.033111</ele>
        <time>2022-05-22T07:42:20.622Z</time>
      </trkpt>
      <trkpt lat="44.50567" lon="1.94341">
        <ele>217.195953</ele>
        <time>2022-05-22T07:42:23.627Z</time>
      </trkpt>
      <trkpt lat="44.50555" lon="1.94342">
        <ele>217.366664</ele>
        <time>2022-05-22T07:42:27.630Z</time>
      </trkpt>
      <trkpt lat="44.50545" lon="1.94345">
        <ele>217.532325</ele>
        <time>2022-05-22T07:42:31.623Z</time>
      </trkpt>
      <trkpt lat="44.50535" lon="1.94344">
        <ele>217.679229</ele>
        <time>2022-05-22T07:42:34.628Z</time>
      </trkpt>
      <trkpt lat="44.50523" lon="1.94344">
        <ele>217.865965</ele>
        <time>2022-05-22T07:42:37.626Z</time>
      </trkpt>
      <trkpt lat="44.5051" lon="1.94345">
        <ele>218.060883</ele>
        <time>2022-05-22T07:42:40.625Z</time>
      </trkpt>
      <trkpt lat="44.505" lon="1.94348">
        <ele>218.211686</ele>
        <time>2022-05-22T07:42:42.626Z</time>
      </trkpt>
      <trkpt lat="44.50491" lon="1.94352">
        <ele>218.362591</ele>
        <time>2022-05-22T07:42:44.627Z</time>
      </trkpt>
      <trkpt lat="44.50479" lon="1.94357">
        <ele>218.550582</ele>
        <time>2022-05-22T07:42:47.627Z</time>
      </trkpt>
      <trkpt lat="44.50469" lon="1.9436">
        <ele>218.699433</ele>
        <time>2022-05-22T07:42:50.625Z</time>
      </trkpt>
      <trkpt lat="44.5046" lon="1.94361">
        <ele>218.837859</ele>
        <time>2022-05-22T07:42:52.624Z</time>
      </trkpt>
      <trkpt lat="44.5045" lon="1.94366">
        <ele>219.005865</ele>
        <time>2022-05-22T07:42:55.628Z</time>
      </trkpt>
      <trkpt lat="44.50438" lon="1.9437">
        <ele>219.18254</ele>
        <time>2022-05-22T07:42:58.621Z</time>
      </trkpt>
      <trkpt lat="44.50428" lon="1.94373">
        <ele>219.347155</ele>
        <time>2022-05-22T07:43:01.630Z</time>
      </trkpt>
      <trkpt lat="44.50416" lon="1.94376">
        <ele>219.723387</ele>
        <time>2022-05-22T07:43:04.628Z</time>
      </trkpt>
      <trkpt lat="44.50404" lon="1.9438">
        <ele>220.640953</ele>
        <time>2022-05-22T07:43:07.627Z</time>
      </trkpt>
      <trkpt lat="44.50392" lon="1.94386">
        <ele>221.624372</ele>
        <time>2022-05-22T07:43:10.626Z</time>
      </trkpt>
      <trkpt lat="44.5038" lon="1.94391">
        <ele>222.573847</ele>
        <time>2022-05-22T07:43:13.626Z</time>
      </trkpt>
      <trkpt lat="44.50368" lon="1.94395">
        <ele>223.499888</ele>
        <time>2022-05-22T07:43:16.626Z</time>
      </trkpt>
      <trkpt lat="44.50356" lon="1.94398">
        <ele>224.412605</ele>
        <time>2022-05-22T07:43:19.625Z</time>
      </trkpt>
      <trkpt lat="44.50346" lon="1.94401">
        <ele>225.193536</ele>
        <time>2022-05-22T07:43:22.625Z</time>
      </trkpt>
      <trkpt lat="44.50334" lon="1.944">
        <ele>226.15601</ele>
        <time>2022-05-22T07:43:26.624Z</time>
      </trkpt>
      <trkpt lat="44.50322" lon="1.94389">
        <ele>227.202784</ele>
        <time>2022-05-22T07:43:29.624Z</time>
      </trkpt>
      <trkpt lat="44.50316" lon="1.94378">
        <ele>227.983169</ele>
        <time>2022-05-22T07:43:31.624Z</time>
      </trkpt>
      <trkpt lat="44.50309" lon="1.94369">
        <ele>228.690495</ele>
        <time>2022-05-22T07:43:33.634Z</time>
      </trkpt>
      <trkpt lat="44.50302" lon="1.94359">
        <ele>229.42286</ele>
        <time>2022-05-22T07:43:35.623Z</time>
      </trkpt>
      <trkpt lat="44.50294" lon="1.9435">
        <ele>230.201274</ele>
        <time>2022-05-22T07:43:38.625Z</time>
      </trkpt>
      <trkpt lat="44.50284" lon="1.94341">
        <ele>231.118669</ele>
        <time>2022-05-22T07:43:41.629Z</time>
      </trkpt>
      <trkpt lat="44.50275" lon="1.94336">
        <ele>231.821819</ele>
        <time>2022-05-22T07:43:44.631Z</time>
      </trkpt>
      <trkpt lat="44.50266" lon="1.94333">
        <ele>232.529751</ele>
        <time>2022-05-22T07:43:48.626Z</time>
      </trkpt>
      <trkpt lat="44.50257" lon="1.94328">
        <ele>233.263673</ele>
        <time>2022-05-22T07:43:53.624Z</time>
      </trkpt>
      <trkpt lat="44.50249" lon="1.94321">
        <ele>234.160722</ele>
        <time>2022-05-22T07:43:58.623Z</time>
      </trkpt>
      <trkpt lat="44.5024" lon="1.94316">
        <ele>235.127115</ele>
        <time>2022-05-22T07:44:03.622Z</time>
      </trkpt>
      <trkpt lat="44.50232" lon="1.94308">
        <ele>236.03697</ele>
        <time>2022-05-22T07:44:08.625Z</time>
      </trkpt>
      <trkpt lat="44.50228" lon="1.94297">
        <ele>236.885633</ele>
        <time>2022-05-22T07:44:13.625Z</time>
      </trkpt>
      <trkpt lat="44.50223" lon="1.94284">
        <ele>237.84589</ele>
        <time>2022-05-22T07:44:20.625Z</time>
      </trkpt>
      <trkpt lat="44.50214" lon="1.94278">
        <ele>238.819214</ele>
        <time>2022-05-22T07:44:28.625Z</time>
      </trkpt>
      <trkpt lat="44.50205" lon="1.94276">
        <ele>239.690901</ele>
        <time>2022-05-22T07:44:34.623Z</time>
      </trkpt>
      <trkpt lat="44.50195" lon="1.9427">
        <ele>240.697409</ele>
        <time>2022-05-22T07:44:41.621Z</time>
      </trkpt>
      <trkpt lat="44.50185" lon="1.94272">
        <ele>241.57073</ele>
        <time>2022-05-22T07:44:47.636Z</time>
      </trkpt>
      <trkpt lat="44.50176" lon="1.9427">
        <ele>242.471708</ele>
        <time>2022-05-22T07:44:54.630Z</time>
      </trkpt>
      <trkpt lat="44.50167" lon="1.94265">
        <ele>243.421966</ele>
        <time>2022-05-22T07:45:00.631Z</time>
      </trkpt>
      <trkpt lat="44.50158" lon="1.94258">
        <ele>244.332894</ele>
        <time>2022-05-22T07:45:07.634Z</time>
      </trkpt>
      <trkpt lat="44.5015" lon="1.94255">
        <ele>245.203208</ele>
        <time>2022-05-22T07:45:13.633Z</time>
      </trkpt>
      <trkpt lat="44.50139" lon="1.94252">
        <ele>246.194874</ele>
        <time>2022-05-22T07:45:21.629Z</time>
      </trkpt>
      <trkpt lat="44.5013" lon="1.9425">
        <ele>247.089867</ele>
        <time>2022-05-22T07:45:29.625Z</time>
      </trkpt>
      <trkpt lat="44.50122" lon="1.94244">
        <ele>247.938046</ele>
        <time>2022-05-22T07:45:36.630Z</time>
      </trkpt>
      <trkpt lat="44.50112" lon="1.9424">
        <ele>248.875583</ele>
        <time>2022-05-22T07:45:43.625Z</time>
      </trkpt>
      <trkpt lat="44.50103" lon="1.94234">
        <ele>249.855457</ele>
        <time>2022-05-22T07:45:50.628Z</time>
      </trkpt>
      <trkpt lat="44.50095" lon="1.94229">
        <ele>251.026596</ele>
        <time>2022-05-22T07:46:03.628Z</time>
      </trkpt>
      <trkpt lat="44.50085" lon="1.94225">
        <ele>252.414092</ele>
        <time>2022-05-22T07:46:17.632Z</time>
      </trkpt>
      <trkpt lat="44.50072" lon="1.94218">
        <ele>254.463168</ele>
        <time>2022-05-22T07:47:09.630Z</time>
      </trkpt>
      <trkpt lat="44.50062" lon="1.94214">
        <ele>255.821243</ele>
        <time>2022-05-22T07:47:18.629Z</time>
      </trkpt>
      <trkpt lat="44.50053" lon="1.94213">
        <ele>257.190686</ele>
        <time>2022-05-22T07:47:30.625Z</time>
      </trkpt>
      <trkpt lat="44.50043" lon="1.94211">
        <ele>258.577739</ele>
        <time>2022-05-22T07:47:40.624Z</time>
      </trkpt>
      <trkpt lat="44.50033" lon="1.94209">
        <ele>259.956016</ele>
        <time>2022-05-22T07:47:54.629Z</time>
      </trkpt>
      <trkpt lat="44.50024" lon="1.94211">
        <ele>261.245696</ele>
        <time>2022-05-22T07:48:06.627Z</time>
      </trkpt>
      <trkpt lat="44.50015" lon="1.9421">
        <ele>262.58547</ele>
        <time>2022-05-22T07:48:19.629Z</time>
      </trkpt>
      <trkpt lat="44.50005" lon="1.94211">
        <ele>263.926263</ele>
        <time>2022-05-22T07:48:32.629Z</time>
      </trkpt>
      <trkpt lat="44.49996" lon="1.9421">
        <ele>265.24135</ele>
        <time>2022-05-22T07:48:43.629Z</time>
      </trkpt>
      <trkpt lat="44.49987" lon="1.9421">
        <ele>266.538486</ele>
        <time>2022-05-22T07:48:57.638Z</time>
      </trkpt>
      <trkpt lat="44.49977" lon="1.94208">
        <ele>267.862157</ele>
        <time>2022-05-22T07:49:11.623Z</time>
      </trkpt>
      <trkpt lat="44.49959" lon="1.94209">
        <ele>270.470704</ele>
        <time>2022-05-22T07:49:47.625Z</time>
      </trkpt>
      <trkpt lat="44.4995" lon="1.94209">
        <ele>271.79665</ele>
        <time>2022-05-22T07:49:53.626Z</time>
      </trkpt>
      <trkpt lat="44.4994" lon="1.94208">
        <ele>273.140644</ele>
        <time>2022-05-22T07:49:58.625Z</time>
      </trkpt>
      <trkpt lat="44.49929" lon="1.9421">
        <ele>274.665407</ele>
        <time>2022-05-22T07:50:03.630Z</time>
      </trkpt>
      <trkpt lat="44.4992" lon="1.94212">
        <ele>275.906415</ele>
        <time>2022-05-22T07:50:08.628Z</time>
      </trkpt>
      <trkpt lat="44.4991" lon="1.94214">
        <ele>276.965123</ele>
        <time>2022-05-22T07:50:13.626Z</time>
      </trkpt>
      <trkpt lat="44.49901" lon="1.94216">
        <ele>278.030176</ele>
        <time>2022-05-22T07:50:19.628Z</time>
      </trkpt>
      <trkpt lat="44.4989" lon="1.94219">
        <ele>279.229142</ele>
        <time>2022-05-22T07:50:25.626Z</time>
      </trkpt>
      <trkpt lat="44.49879" lon="1.94221">
        <ele>280.489503</ele>
        <time>2022-05-22T07:50:30.622Z</time>
      </trkpt>
      <trkpt lat="44.4987" lon="1.94221">
        <ele>281.497541</ele>
        <time>2022-05-22T07:50:35.628Z</time>
      </trkpt>
      <trkpt lat="44.4986" lon="1.94224">
        <ele>282.606732</ele>
        <time>2022-05-22T07:50:40.624Z</time>
      </trkpt>
      <trkpt lat="44.4985" lon="1.94227">
        <ele>283.803797</ele>
        <time>2022-05-22T07:50:45.630Z</time>
      </trkpt>
      <trkpt lat="44.49838" lon="1.94227">
        <ele>285.033271</ele>
        <time>2022-05-22T07:50:51.630Z</time>
      </trkpt>
      <trkpt lat="44.49829" lon="1.94226">
        <ele>286.088289</ele>
        <time>2022-05-22T07:50:56.627Z</time>
      </trkpt>
      <trkpt lat="44.49819" lon="1.94225">
        <ele>287.158906</ele>
        <time>2022-05-22T07:51:07.629Z</time>
      </trkpt>
      <trkpt lat="44.4981" lon="1.94224">
        <ele>288.200368</ele>
        <time>2022-05-22T07:51:20.634Z</time>
      </trkpt>
      <trkpt lat="44.49801" lon="1.94221">
        <ele>289.232603</ele>
        <time>2022-05-22T07:51:34.617Z</time>
      </trkpt>
      <trkpt lat="44.49792" lon="1.94221">
        <ele>290.240487</ele>
        <time>2022-05-22T07:51:54.629Z</time>
      </trkpt>
      <trkpt lat="44.49778" lon="1.94221">
        <ele>291.814304</ele>
        <time>2022-05-22T07:52:30.621Z</time>
      </trkpt>
      <trkpt lat="44.49769" lon="1.94226">
        <ele>292.818846</ele>
        <time>2022-05-22T07:52:35.629Z</time>
      </trkpt>
      <trkpt lat="44.4976" lon="1.94227">
        <ele>293.873302</ele>
        <time>2022-05-22T07:52:40.625Z</time>
      </trkpt>
      <trkpt lat="44.4975" lon="1.94231">
        <ele>295.052842</ele>
        <time>2022-05-22T07:52:46.624Z</time>
      </trkpt>
      <trkpt lat="44.4974" lon="1.94234">
        <ele>295.901301</ele>
        <time>2022-05-22T07:52:50.623Z</time>
      </trkpt>
      <trkpt lat="44.49733" lon="1.94241">
        <ele>296.654878</ele>
        <time>2022-05-22T07:52:54.628Z</time>
      </trkpt>
      <trkpt lat="44.49723" lon="1.94248">
        <ele>297.590596</ele>
        <time>2022-05-22T07:52:59.628Z</time>
      </trkpt>
      <trkpt lat="44.49712" lon="1.94254">
        <ele>298.554423</ele>
        <time>2022-05-22T07:53:03.629Z</time>
      </trkpt>
      <trkpt lat="44.49703" lon="1.94259">
        <ele>299.333217</ele>
        <time>2022-05-22T07:53:07.629Z</time>
      </trkpt>
      <trkpt lat="44.49694" lon="1.94263">
        <ele>300.145081</ele>
        <time>2022-05-22T07:53:12.627Z</time>
      </trkpt>
      <trkpt lat="44.49685" lon="1.94268">
        <ele>300.918254</ele>
        <time>2022-05-22T07:53:17.628Z</time>
      </trkpt>
      <trkpt lat="44.49675" lon="1.94272">
        <ele>301.774977</ele>
        <time>2022-05-22T07:53:22.630Z</time>
      </trkpt>
      <trkpt lat="44.49666" lon="1.94278">
        <ele>302.673955</ele>
        <time>2022-05-22T07:53:27.625Z</time>
      </trkpt>
      <trkpt lat="44.49656" lon="1.94283">
        <ele>303.495992</ele>
        <time>2022-05-22T07:53:33.626Z</time>
      </trkpt>
      <trkpt lat="44.49647" lon="1.94287">
        <ele>304.332231</ele>
        <time>2022-05-22T07:53:38.626Z</time>
      </trkpt>
      <trkpt lat="44.49638" lon="1.9429">
        <ele>305.096246</ele>
        <time>2022-05-22T07:53:42.626Z</time>
      </trkpt>
      <trkpt lat="44.49628" lon="1.94292">
        <ele>305.901626</ele>
        <time>2022-05-22T07:53:48.633Z</time>
      </trkpt>
      <trkpt lat="44.49619" lon="1.94299">
        <ele>306.748973</ele>
        <time>2022-05-22T07:53:53.635Z</time>
      </trkpt>
      <trkpt lat="44.49611" lon="1.94306">
        <ele>307.54649</ele>
        <time>2022-05-22T07:53:59.631Z</time>
      </trkpt>
      <trkpt lat="44.49603" lon="1.94312">
        <ele>308.302243</ele>
        <time>2022-05-22T07:54:07.629Z</time>
      </trkpt>
      <trkpt lat="44.49594" lon="1.94314">
        <ele>309.073118</ele>
        <time>2022-05-22T07:54:17.625Z</time>
      </trkpt>
      <trkpt lat="44.49585" lon="1.94318">
        <ele>309.832635</ele>
        <time>2022-05-22T07:54:28.626Z</time>
      </trkpt>
      <trkpt lat="44.49576" lon="1.94321">
        <ele>310.982504</ele>
        <time>2022-05-22T07:54:36.619Z</time>
      </trkpt>
      <trkpt lat="44.49567" lon="1.94324">
        <ele>312.785933</ele>
        <time>2022-05-22T07:54:45.624Z</time>
      </trkpt>
      <trkpt lat="44.49557" lon="1.94328">
        <ele>314.58941</ele>
        <time>2022-05-22T07:54:53.631Z</time>
      </trkpt>
      <trkpt lat="44.49548" lon="1.94333">
        <ele>316.418657</ele>
        <time>2022-05-22T07:54:59.632Z</time>
      </trkpt>
      <trkpt lat="44.49538" lon="1.94338">
        <ele>318.348164</ele>
        <time>2022-05-22T07:55:06.629Z</time>
      </trkpt>
      <trkpt lat="44.4953" lon="1.94344">
        <ele>320.031628</ele>
        <time>2022-05-22T07:55:11.630Z</time>
      </trkpt>
      <trkpt lat="44.49521" lon="1.94347">
        <ele>321.794687</ele>
        <time>2022-05-22T07:55:21.625Z</time>
      </trkpt>
      <trkpt lat="44.49513" lon="1.94355">
        <ele>323.517856</ele>
        <time>2022-05-22T07:55:27.626Z</time>
      </trkpt>
      <trkpt lat="44.49505" lon="1.94361">
        <ele>325.215342</ele>
        <time>2022-05-22T07:55:43.633Z</time>
      </trkpt>
      <trkpt lat="44.49497" lon="1.94367">
        <ele>326.943339</ele>
        <time>2022-05-22T07:55:55.629Z</time>
      </trkpt>
      <trkpt lat="44.49488" lon="1.94369">
        <ele>328.605052</ele>
        <time>2022-05-22T07:56:08.629Z</time>
      </trkpt>
      <trkpt lat="44.49479" lon="1.94371">
        <ele>330.358083</ele>
        <time>2022-05-22T07:56:37.630Z</time>
      </trkpt>
      <trkpt lat="44.49469" lon="1.94372">
        <ele>332.061329</ele>
        <time>2022-05-22T07:56:54.630Z</time>
      </trkpt>
      <trkpt lat="44.4946" lon="1.94375">
        <ele>333.7899</ele>
        <time>2022-05-22T07:57:07.637Z</time>
      </trkpt>
      <trkpt lat="44.49451" lon="1.94377">
        <ele>335.484439</ele>
        <time>2022-05-22T07:57:20.625Z</time>
      </trkpt>
      <trkpt lat="44.49442" lon="1.94382">
        <ele>337.230795</ele>
        <time>2022-05-22T07:57:36.634Z</time>
      </trkpt>
      <trkpt lat="44.4943" lon="1.9439">
        <ele>339.773755</ele>
        <time>2022-05-22T07:58:33.628Z</time>
      </trkpt>
      <trkpt lat="44.49421" lon="1.94394">
        <ele>341.479942</ele>
        <time>2022-05-22T07:58:38.627Z</time>
      </trkpt>
      <trkpt lat="44.49412" lon="1.94398">
        <ele>343.152429</ele>
        <time>2022-05-22T07:58:44.630Z</time>
      </trkpt>
      <trkpt lat="44.49403" lon="1.94401">
        <ele>344.27461</ele>
        <time>2022-05-22T07:58:56.629Z</time>
      </trkpt>
      <trkpt lat="44.49397" lon="1.9441">
        <ele>345.215443</ele>
        <time>2022-05-22T07:59:13.625Z</time>
      </trkpt>
      <trkpt lat="44.49389" lon="1.94418">
        <ele>346.156811</ele>
        <time>2022-05-22T07:59:35.630Z</time>
      </trkpt>
      <trkpt lat="44.4938" lon="1.94417">
        <ele>347.098276</ele>
        <time>2022-05-22T07:59:50.626Z</time>
      </trkpt>
      <trkpt lat="44.49371" lon="1.9442">
        <ele>348.021163</ele>
        <time>2022-05-22T08:00:03.626Z</time>
      </trkpt>
      <trkpt lat="44.49364" lon="1.94431">
        <ele>349.051095</ele>
        <time>2022-05-22T08:00:26.620Z</time>
      </trkpt>
      <trkpt lat="44.49357" lon="1.94439">
        <ele>350.060605</ele>
        <time>2022-05-22T08:00:33.629Z</time>
      </trkpt>
      <trkpt lat="44.4935" lon="1.94448">
        <ele>351.011694</ele>
        <time>2022-05-22T08:00:41.638Z</time>
      </trkpt>
      <trkpt lat="44.49341" lon="1.94455">
        <ele>352.081555</ele>
        <time>2022-05-22T08:00:48.633Z</time>
      </trkpt>
      <trkpt lat="44.49331" lon="1.94459">
        <ele>353.083256</ele>
        <time>2022-05-22T08:00:55.627Z</time>
      </trkpt>
      <trkpt lat="44.49322" lon="1.94464">
        <ele>354.083815</ele>
        <time>2022-05-22T08:01:01.624Z</time>
      </trkpt>
      <trkpt lat="44.49313" lon="1.94466">
        <ele>355.063378</ele>
        <time>2022-05-22T08:01:08.625Z</time>
      </trkpt>
      <trkpt lat="44.49304" lon="1.94471">
        <ele>356.014727</ele>
        <time>2022-05-22T08:01:14.629Z</time>
      </trkpt>
      <trkpt lat="44.49294" lon="1.94471">
        <ele>357.057909</ele>
        <time>2022-05-22T08:01:20.627Z</time>
      </trkpt>
      <trkpt lat="44.49284" lon="1.9447">
        <ele>358.044938</ele>
        <time>2022-05-22T08:01:28.628Z</time>
      </trkpt>
      <trkpt lat="44.49278" lon="1.9446">
        <ele>358.983485</ele>
        <time>2022-05-22T08:01:34.629Z</time>
      </trkpt>
      <trkpt lat="44.49272" lon="1.94449">
        <ele>359.968613</ele>
        <time>2022-05-22T08:01:42.628Z</time>
      </trkpt>
      <trkpt lat="44.49267" lon="1.94439">
        <ele>360.912284</ele>
        <time>2022-05-22T08:01:49.629Z</time>
      </trkpt>
      <trkpt lat="44.49266" lon="1.94425">
        <ele>361.89164</ele>
        <time>2022-05-22T08:01:57.629Z</time>
      </trkpt>
      <trkpt lat="44.49264" lon="1.94413">
        <ele>361.817523</ele>
        <time>2022-05-22T08:02:03.632Z</time>
      </trkpt>
      <trkpt lat="44.49258" lon="1.94402">
        <ele>361.737244</ele>
        <time>2022-05-22T08:02:08.643Z</time>
      </trkpt>
      <trkpt lat="44.4925" lon="1.9439">
        <ele>361.639072</ele>
        <time>2022-05-22T08:02:13.628Z</time>
      </trkpt>
      <trkpt lat="44.49244" lon="1.94377">
        <ele>361.550751</ele>
        <time>2022-05-22T08:02:16.636Z</time>
      </trkpt>
      <trkpt lat="44.49242" lon="1.94361">
        <ele>361.459627</ele>
        <time>2022-05-22T08:02:19.629Z</time>
      </trkpt>
      <trkpt lat="44.49238" lon="1.94348">
        <ele>361.375195</ele>
        <time>2022-05-22T08:02:22.628Z</time>
      </trkpt>
      <trkpt lat="44.49237" lon="1.94332">
        <ele>361.282357</ele>
        <time>2022-05-22T08:02:25.638Z</time>
      </trkpt>
      <trkpt lat="44.49236" lon="1.94318">
        <ele>361.199843</ele>
        <time>2022-05-22T08:02:27.443Z</time>
      </trkpt>
      <trkpt lat="44.49234" lon="1.94304">
        <ele>361.116517</ele>
        <time>2022-05-22T08:02:29.445Z</time>
      </trkpt>
      <trkpt lat="44.49231" lon="1.9429">
        <ele>361.029184</ele>
        <time>2022-05-22T08:02:30.442Z</time>
      </trkpt>
      <trkpt lat="44.49229" lon="1.94273">
        <ele>360.929674</ele>
        <time>2022-05-22T08:02:32.439Z</time>
      </trkpt>
      <trkpt lat="44.49226" lon="1.94256">
        <ele>360.826401</ele>
        <time>2022-05-22T08:02:34.437Z</time>
      </trkpt>
      <trkpt lat="44.49222" lon="1.94244">
        <ele>360.746927</ele>
        <time>2022-05-22T08:02:37.443Z</time>
      </trkpt>
      <trkpt lat="44.49216" lon="1.94233">
        <ele>360.665931</ele>
        <time>2022-05-22T08:02:40.890Z</time>
      </trkpt>
      <trkpt lat="44.49207" lon="1.94238">
        <ele>360.591576</ele>
        <time>2022-05-22T08:02:46.965Z</time>
      </trkpt>
      <trkpt lat="44.49199" lon="1.94245">
        <ele>360.507389</ele>
        <time>2022-05-22T08:02:51.964Z</time>
      </trkpt>
      <trkpt lat="44.4919" lon="1.94253">
        <ele>360.424581</ele>
        <time>2022-05-22T08:02:56.954Z</time>
      </trkpt>
      <trkpt lat="44.49183" lon="1.94263">
        <ele>360.903343</ele>
        <time>2022-05-22T08:03:01.956Z</time>
      </trkpt>
      <trkpt lat="44.49175" lon="1.94273">
        <ele>361.522229</ele>
        <time>2022-05-22T08:03:06.965Z</time>
      </trkpt>
      <trkpt lat="44.49168" lon="1.94282">
        <ele>362.035904</ele>
        <time>2022-05-22T08:03:10.956Z</time>
      </trkpt>
      <trkpt lat="44.49161" lon="1.94293">
        <ele>362.655186</ele>
        <time>2022-05-22T08:03:15.949Z</time>
      </trkpt>
      <trkpt lat="44.49155" lon="1.94303">
        <ele>363.181844</ele>
        <time>2022-05-22T08:03:19.953Z</time>
      </trkpt>
      <trkpt lat="44.49148" lon="1.94314">
        <ele>363.770452</ele>
        <time>2022-05-22T08:03:24.954Z</time>
      </trkpt>
      <trkpt lat="44.4914" lon="1.94324">
        <ele>364.378132</ele>
        <time>2022-05-22T08:03:29.954Z</time>
      </trkpt>
      <trkpt lat="44.49133" lon="1.94335">
        <ele>364.971935</ele>
        <time>2022-05-22T08:03:34.953Z</time>
      </trkpt>
      <trkpt lat="44.49126" lon="1.94344">
        <ele>365.496579</ele>
        <time>2022-05-22T08:03:38.955Z</time>
      </trkpt>
      <trkpt lat="44.49119" lon="1.94354">
        <ele>366.050577</ele>
        <time>2022-05-22T08:03:43.952Z</time>
      </trkpt>
      <trkpt lat="44.49114" lon="1.94366">
        <ele>366.617329</ele>
        <time>2022-05-22T08:03:49.956Z</time>
      </trkpt>
      <trkpt lat="44.49108" lon="1.94375">
        <ele>367.143433</ele>
        <time>2022-05-22T08:03:53.964Z</time>
      </trkpt>
      <trkpt lat="44.49101" lon="1.94385">
        <ele>367.711863</ele>
        <time>2022-05-22T08:03:58.956Z</time>
      </trkpt>
      <trkpt lat="44.49094" lon="1.94395">
        <ele>368.24889</ele>
        <time>2022-05-22T08:04:02.950Z</time>
      </trkpt>
      <trkpt lat="44.49087" lon="1.94404">
        <ele>368.770704</ele>
        <time>2022-05-22T08:04:06.955Z</time>
      </trkpt>
      <trkpt lat="44.49081" lon="1.94413">
        <ele>369.306461</ele>
        <time>2022-05-22T08:04:10.954Z</time>
      </trkpt>
      <trkpt lat="44.49075" lon="1.94423">
        <ele>369.835784</ele>
        <time>2022-05-22T08:04:14.952Z</time>
      </trkpt>
      <trkpt lat="44.49069" lon="1.94434">
        <ele>370.382738</ele>
        <time>2022-05-22T08:04:19.953Z</time>
      </trkpt>
      <trkpt lat="44.49063" lon="1.94445">
        <ele>370.668867</ele>
        <time>2022-05-22T08:04:23.945Z</time>
      </trkpt>
      <trkpt lat="44.49057" lon="1.94454">
        <ele>370.832328</ele>
        <time>2022-05-22T08:04:28.949Z</time>
      </trkpt>
      <trkpt lat="44.4905" lon="1.94464">
        <ele>371.012901</ele>
        <time>2022-05-22T08:04:33.957Z</time>
      </trkpt>
      <trkpt lat="44.49042" lon="1.9447">
        <ele>371.175641</ele>
        <time>2022-05-22T08:04:39.955Z</time>
      </trkpt>
      <trkpt lat="44.49027" lon="1.94467">
        <ele>371.456748</ele>
        <time>2022-05-22T08:11:27.437Z</time>
      </trkpt>
      <trkpt lat="44.49016" lon="1.94461">
        <ele>371.664074</ele>
        <time>2022-05-22T08:11:31.430Z</time>
      </trkpt>
      <trkpt lat="44.49005" lon="1.94457">
        <ele>371.857234</ele>
        <time>2022-05-22T08:11:35.432Z</time>
      </trkpt>
      <trkpt lat="44.48996" lon="1.94453">
        <ele>372.03857</ele>
        <time>2022-05-22T08:11:38.433Z</time>
      </trkpt>
      <trkpt lat="44.48985" lon="1.94447">
        <ele>372.243748</ele>
        <time>2022-05-22T08:11:41.425Z</time>
      </trkpt>
      <trkpt lat="44.48975" lon="1.94443">
        <ele>372.434843</ele>
        <time>2022-05-22T08:11:44.435Z</time>
      </trkpt>
      <trkpt lat="44.48964" lon="1.94439">
        <ele>372.637373</ele>
        <time>2022-05-22T08:11:47.433Z</time>
      </trkpt>
      <trkpt lat="44.48952" lon="1.94433">
        <ele>372.875614</ele>
        <time>2022-05-22T08:11:50.432Z</time>
      </trkpt>
      <trkpt lat="44.4894" lon="1.94428">
        <ele>373.100371</ele>
        <time>2022-05-22T08:11:53.429Z</time>
      </trkpt>
      <trkpt lat="44.48928" lon="1.94422">
        <ele>373.334365</ele>
        <time>2022-05-22T08:11:56.431Z</time>
      </trkpt>
      <trkpt lat="44.48918" lon="1.94415">
        <ele>373.528237</ele>
        <time>2022-05-22T08:11:59.432Z</time>
      </trkpt>
      <trkpt lat="44.48907" lon="1.94411">
        <ele>373.730812</ele>
        <time>2022-05-22T08:12:02.432Z</time>
      </trkpt>
      <trkpt lat="44.48895" lon="1.94406">
        <ele>373.848589</ele>
        <time>2022-05-22T08:12:05.425Z</time>
      </trkpt>
      <trkpt lat="44.48883" lon="1.94402">
        <ele>373.916067</ele>
        <time>2022-05-22T08:12:08.437Z</time>
      </trkpt>
      <trkpt lat="44.48871" lon="1.94397">
        <ele>373.984891</ele>
        <time>2022-05-22T08:12:11.431Z</time>
      </trkpt>
      <trkpt lat="44.4886" lon="1.94391">
        <ele>374.051236</ele>
        <time>2022-05-22T08:12:14.429Z</time>
      </trkpt>
      <trkpt lat="44.48848" lon="1.94384">
        <ele>374.120956</ele>
        <time>2022-05-22T08:12:17.431Z</time>
      </trkpt>
      <trkpt lat="44.48837" lon="1.94376">
        <ele>374.191526</ele>
        <time>2022-05-22T08:12:20.427Z</time>
      </trkpt>
      <trkpt lat="44.48828" lon="1.94365">
        <ele>374.26038</ele>
        <time>2022-05-22T08:12:23.428Z</time>
      </trkpt>
      <trkpt lat="44.48817" lon="1.94354">
        <ele>374.331402</ele>
        <time>2022-05-22T08:12:26.428Z</time>
      </trkpt>
      <trkpt lat="44.48806" lon="1.94347">
        <ele>374.399063</ele>
        <time>2022-05-22T08:12:29.432Z</time>
      </trkpt>
      <trkpt lat="44.48795" lon="1.94344">
        <ele>374.461712</ele>
        <time>2022-05-22T08:12:32.434Z</time>
      </trkpt>
      <trkpt lat="44.48784" lon="1.94337">
        <ele>374.526609</ele>
        <time>2022-05-22T08:12:35.434Z</time>
      </trkpt>
      <trkpt lat="44.48773" lon="1.94329">
        <ele>374.596016</ele>
        <time>2022-05-22T08:12:38.431Z</time>
      </trkpt>
      <trkpt lat="44.48761" lon="1.9432">
        <ele>374.670379</ele>
        <time>2022-05-22T08:12:41.429Z</time>
      </trkpt>
      <trkpt lat="44.4875" lon="1.94311">
        <ele>374.74349</ele>
        <time>2022-05-22T08:12:44.431Z</time>
      </trkpt>
      <trkpt lat="44.48742" lon="1.94303">
        <ele>374.779795</ele>
        <time>2022-05-22T08:12:46.436Z</time>
      </trkpt>
      <trkpt lat="44.48734" lon="1.94297">
        <ele>374.339371</ele>
        <time>2022-05-22T08:12:48.432Z</time>
      </trkpt>
      <trkpt lat="44.48723" lon="1.94289">
        <ele>373.77382</ele>
        <time>2022-05-22T08:12:51.431Z</time>
      </trkpt>
      <trkpt lat="44.48715" lon="1.94284">
        <ele>373.333658</ele>
        <time>2022-05-22T08:12:53.428Z</time>
      </trkpt>
      <trkpt lat="44.48707" lon="1.94278">
        <ele>372.906219</ele>
        <time>2022-05-22T08:12:55.436Z</time>
      </trkpt>
      <trkpt lat="44.48697" lon="1.94272">
        <ele>372.39989</ele>
        <time>2022-05-22T08:12:57.432Z</time>
      </trkpt>
      <trkpt lat="44.48687" lon="1.94265">
        <ele>371.87754</ele>
        <time>2022-05-22T08:12:59.431Z</time>
      </trkpt>
      <trkpt lat="44.48675" lon="1.94258">
        <ele>371.263556</ele>
        <time>2022-05-22T08:13:01.426Z</time>
      </trkpt>
      <trkpt lat="44.48664" lon="1.9425">
        <ele>370.633197</ele>
        <time>2022-05-22T08:13:03.433Z</time>
      </trkpt>
      <trkpt lat="44.48651" lon="1.94242">
        <ele>369.993102</ele>
        <time>2022-05-22T08:13:05.435Z</time>
      </trkpt>
      <trkpt lat="44.4864" lon="1.94231">
        <ele>369.320188</ele>
        <time>2022-05-22T08:13:07.440Z</time>
      </trkpt>
      <trkpt lat="44.48627" lon="1.94219">
        <ele>368.598428</ele>
        <time>2022-05-22T08:13:09.429Z</time>
      </trkpt>
      <trkpt lat="44.48613" lon="1.94207">
        <ele>367.785846</ele>
        <time>2022-05-22T08:13:11.431Z</time>
      </trkpt>
      <trkpt lat="44.48598" lon="1.94194">
        <ele>366.985373</ele>
        <time>2022-05-22T08:13:13.435Z</time>
      </trkpt>
      <trkpt lat="44.48585" lon="1.94184">
        <ele>366.285509</ele>
        <time>2022-05-22T08:13:15.431Z</time>
      </trkpt>
      <trkpt lat="44.48574" lon="1.94183">
        <ele>366.061914</ele>
        <time>2022-05-22T08:13:17.423Z</time>
      </trkpt>
      <trkpt lat="44.48563" lon="1.94185">
        <ele>365.857845</ele>
        <time>2022-05-22T08:13:19.425Z</time>
      </trkpt>
      <trkpt lat="44.4855" lon="1.94187">
        <ele>365.64561</ele>
        <time>2022-05-22T08:13:21.433Z</time>
      </trkpt>
      <trkpt lat="44.48539" lon="1.9419">
        <ele>365.447014</ele>
        <time>2022-05-22T08:13:23.434Z</time>
      </trkpt>
      <trkpt lat="44.48527" lon="1.94192">
        <ele>365.241257</ele>
        <time>2022-05-22T08:13:25.424Z</time>
      </trkpt>
      <trkpt lat="44.48514" lon="1.94193">
        <ele>365.028079</ele>
        <time>2022-05-22T08:13:27.426Z</time>
      </trkpt>
      <trkpt lat="44.48503" lon="1.94194">
        <ele>364.840728</ele>
        <time>2022-05-22T08:13:29.432Z</time>
      </trkpt>
      <trkpt lat="44.48494" lon="1.94195">
        <ele>364.680993</ele>
        <time>2022-05-22T08:13:31.432Z</time>
      </trkpt>
      <trkpt lat="44.48485" lon="1.94197">
        <ele>364.523667</ele>
        <time>2022-05-22T08:13:33.426Z</time>
      </trkpt>
      <trkpt lat="44.48475" lon="1.94198">
        <ele>364.360719</ele>
        <time>2022-05-22T08:13:35.435Z</time>
      </trkpt>
      <trkpt lat="44.48465" lon="1.942">
        <ele>364.182112</ele>
        <time>2022-05-22T08:13:37.438Z</time>
      </trkpt>
      <trkpt lat="44.48455" lon="1.942">
        <ele>364.022177</ele>
        <time>2022-05-22T08:13:39.432Z</time>
      </trkpt>
      <trkpt lat="44.48446" lon="1.94201">
        <ele>363.862076</ele>
        <time>2022-05-22T08:13:41.426Z</time>
      </trkpt>
      <trkpt lat="44.48433" lon="1.94204">
        <ele>363.637711</ele>
        <time>2022-05-22T08:13:44.429Z</time>
      </trkpt>
      <trkpt lat="44.4842" lon="1.94207">
        <ele>363.406226</ele>
        <time>2022-05-22T08:13:47.429Z</time>
      </trkpt>
      <trkpt lat="44.48409" lon="1.94208">
        <ele>363.230558</ele>
        <time>2022-05-22T08:13:49.426Z</time>
      </trkpt>
      <trkpt lat="44.48399" lon="1.9421">
        <ele>362.919828</ele>
        <time>2022-05-22T08:13:51.432Z</time>
      </trkpt>
      <trkpt lat="44.48389" lon="1.94211">
        <ele>362.514481</ele>
        <time>2022-05-22T08:13:53.433Z</time>
      </trkpt>
      <trkpt lat="44.4838" lon="1.9421">
        <ele>362.13346</ele>
        <time>2022-05-22T08:13:55.427Z</time>
      </trkpt>
      <trkpt lat="44.4837" lon="1.94212">
        <ele>361.750435</ele>
        <time>2022-05-22T08:13:57.427Z</time>
      </trkpt>
      <trkpt lat="44.48361" lon="1.94214">
        <ele>361.358381</ele>
        <time>2022-05-22T08:13:59.431Z</time>
      </trkpt>
      <trkpt lat="44.48349" lon="1.94217">
        <ele>360.881456</ele>
        <time>2022-05-22T08:14:01.429Z</time>
      </trkpt>
      <trkpt lat="44.48337" lon="1.94218">
        <ele>360.407443</ele>
        <time>2022-05-22T08:14:03.430Z</time>
      </trkpt>
      <trkpt lat="44.48325" lon="1.9422">
        <ele>359.932835</ele>
        <time>2022-05-22T08:14:05.431Z</time>
      </trkpt>
      <trkpt lat="44.48313" lon="1.94221">
        <ele>359.427091</ele>
        <time>2022-05-22T08:14:07.433Z</time>
      </trkpt>
      <trkpt lat="44.483" lon="1.94224">
        <ele>358.891257</ele>
        <time>2022-05-22T08:14:09.430Z</time>
      </trkpt>
      <trkpt lat="44.48286" lon="1.94228">
        <ele>358.336293</ele>
        <time>2022-05-22T08:14:11.430Z</time>
      </trkpt>
      <trkpt lat="44.48273" lon="1.9423">
        <ele>357.799938</ele>
        <time>2022-05-22T08:14:13.427Z</time>
      </trkpt>
      <trkpt lat="44.4826" lon="1.94231">
        <ele>357.293546</ele>
        <time>2022-05-22T08:14:15.429Z</time>
      </trkpt>
      <trkpt lat="44.48249" lon="1.94232">
        <ele>356.823353</ele>
        <time>2022-05-22T08:14:17.431Z</time>
      </trkpt>
      <trkpt lat="44.48236" lon="1.94234">
        <ele>356.315791</ele>
        <time>2022-05-22T08:14:19.426Z</time>
      </trkpt>
      <trkpt lat="44.48223" lon="1.94235">
        <ele>356.093278</ele>
        <time>2022-05-22T08:14:21.426Z</time>
      </trkpt>
      <trkpt lat="44.48212" lon="1.94237">
        <ele>356.428825</ele>
        <time>2022-05-22T08:14:23.432Z</time>
      </trkpt>
      <trkpt lat="44.48201" lon="1.94239">
        <ele>356.778133</ele>
        <time>2022-05-22T08:14:25.431Z</time>
      </trkpt>
      <trkpt lat="44.48192" lon="1.94241">
        <ele>357.065037</ele>
        <time>2022-05-22T08:14:27.432Z</time>
      </trkpt>
      <trkpt lat="44.48182" lon="1.94242">
        <ele>357.350627</ele>
        <time>2022-05-22T08:14:29.431Z</time>
      </trkpt>
      <trkpt lat="44.48169" lon="1.94243">
        <ele>357.761533</ele>
        <time>2022-05-22T08:14:32.429Z</time>
      </trkpt>
      <trkpt lat="44.4816" lon="1.94234">
        <ele>358.116238</ele>
        <time>2022-05-22T08:14:35.428Z</time>
      </trkpt>
      <trkpt lat="44.48157" lon="1.94216">
        <ele>358.525409</ele>
        <time>2022-05-22T08:14:38.432Z</time>
      </trkpt>
      <trkpt lat="44.48158" lon="1.94198">
        <ele>358.930713</ele>
        <time>2022-05-22T08:14:41.436Z</time>
      </trkpt>
      <trkpt lat="44.48158" lon="1.94185">
        <ele>359.225205</ele>
        <time>2022-05-22T08:14:43.433Z</time>
      </trkpt>
      <trkpt lat="44.48158" lon="1.94172">
        <ele>359.513141</ele>
        <time>2022-05-22T08:14:45.427Z</time>
      </trkpt>
      <trkpt lat="44.48158" lon="1.94154">
        <ele>359.896431</ele>
        <time>2022-05-22T08:14:48.427Z</time>
      </trkpt>
      <trkpt lat="44.48158" lon="1.94138">
        <ele>360.248428</ele>
        <time>2022-05-22T08:14:51.436Z</time>
      </trkpt>
      <trkpt lat="44.48158" lon="1.94123">
        <ele>360.600535</ele>
        <time>2022-05-22T08:14:54.429Z</time>
      </trkpt>
      <trkpt lat="44.48158" lon="1.9411">
        <ele>360.881748</ele>
        <time>2022-05-22T08:14:57.433Z</time>
      </trkpt>
      <trkpt lat="44.48157" lon="1.94095">
        <ele>361.209616</ele>
        <time>2022-05-22T08:15:01.424Z</time>
      </trkpt>
      <trkpt lat="44.48156" lon="1.94079">
        <ele>361.567973</ele>
        <time>2022-05-22T08:15:05.432Z</time>
      </trkpt>
      <trkpt lat="44.48153" lon="1.94067">
        <ele>362.049113</ele>
        <time>2022-05-22T08:15:09.427Z</time>
      </trkpt>
      <trkpt lat="44.4815" lon="1.94053">
        <ele>362.550072</ele>
        <time>2022-05-22T08:15:13.441Z</time>
      </trkpt>
      <trkpt lat="44.48148" lon="1.94039">
        <ele>363.055422</ele>
        <time>2022-05-22T08:15:17.429Z</time>
      </trkpt>
      <trkpt lat="44.48143" lon="1.94024">
        <ele>363.614109</ele>
        <time>2022-05-22T08:15:22.434Z</time>
      </trkpt>
      <trkpt lat="44.48139" lon="1.94012">
        <ele>364.077223</ele>
        <time>2022-05-22T08:15:26.434Z</time>
      </trkpt>
      <trkpt lat="44.48137" lon="1.93998">
        <ele>364.578064</ele>
        <time>2022-05-22T08:15:30.430Z</time>
      </trkpt>
      <trkpt lat="44.48136" lon="1.93985">
        <ele>365.042608</ele>
        <time>2022-05-22T08:15:33.427Z</time>
      </trkpt>
      <trkpt lat="44.48134" lon="1.93969">
        <ele>365.585873</ele>
        <time>2022-05-22T08:15:37.431Z</time>
      </trkpt>
      <trkpt lat="44.48131" lon="1.93957">
        <ele>366.024528</ele>
        <time>2022-05-22T08:15:40.429Z</time>
      </trkpt>
      <trkpt lat="44.48127" lon="1.93946">
        <ele>366.465281</ele>
        <time>2022-05-22T08:15:43.433Z</time>
      </trkpt>
      <trkpt lat="44.48126" lon="1.93933">
        <ele>366.9361</ele>
        <time>2022-05-22T08:15:46.433Z</time>
      </trkpt>
      <trkpt lat="44.48128" lon="1.93918">
        <ele>367.45724</ele>
        <time>2022-05-22T08:15:49.437Z</time>
      </trkpt>
      <trkpt lat="44.48128" lon="1.93904">
        <ele>367.931391</ele>
        <time>2022-05-22T08:15:52.436Z</time>
      </trkpt>
      <trkpt lat="44.48129" lon="1.93891">
        <ele>368.40061</ele>
        <time>2022-05-22T08:15:55.437Z</time>
      </trkpt>
      <trkpt lat="44.4813" lon="1.93875">
        <ele>368.962584</ele>
        <time>2022-05-22T08:15:59.440Z</time>
      </trkpt>
      <trkpt lat="44.48131" lon="1.93862">
        <ele>369.413318</ele>
        <time>2022-05-22T08:16:03.440Z</time>
      </trkpt>
      <trkpt lat="44.48131" lon="1.93848">
        <ele>369.911871</ele>
        <time>2022-05-22T08:16:08.437Z</time>
      </trkpt>
      <trkpt lat="44.48131" lon="1.93834">
        <ele>370.305877</ele>
        <time>2022-05-22T08:16:12.438Z</time>
      </trkpt>
      <trkpt lat="44.48132" lon="1.93821">
        <ele>370.178722</ele>
        <time>2022-05-22T08:16:16.440Z</time>
      </trkpt>
      <trkpt lat="44.48133" lon="1.93806">
        <ele>370.040225</ele>
        <time>2022-05-22T08:16:21.440Z</time>
      </trkpt>
      <trkpt lat="44.48134" lon="1.93792">
        <ele>369.906019</ele>
        <time>2022-05-22T08:16:25.434Z</time>
      </trkpt>
      <trkpt lat="44.48134" lon="1.93779">
        <ele>369.77622</ele>
        <time>2022-05-22T08:16:30.440Z</time>
      </trkpt>
      <trkpt lat="44.48133" lon="1.93765">
        <ele>369.642521</ele>
        <time>2022-05-22T08:16:34.436Z</time>
      </trkpt>
      <trkpt lat="44.48134" lon="1.93748">
        <ele>369.482691</ele>
        <time>2022-05-22T08:16:38.433Z</time>
      </trkpt>
      <trkpt lat="44.48135" lon="1.93734">
        <ele>369.344996</ele>
        <time>2022-05-22T08:16:41.442Z</time>
      </trkpt>
      <trkpt lat="44.48135" lon="1.93718">
        <ele>369.19415</ele>
        <time>2022-05-22T08:16:44.431Z</time>
      </trkpt>
      <trkpt lat="44.48135" lon="1.93701">
        <ele>369.025029</ele>
        <time>2022-05-22T08:16:47.439Z</time>
      </trkpt>
      <trkpt lat="44.48134" lon="1.93686">
        <ele>368.886166</ele>
        <time>2022-05-22T08:16:49.436Z</time>
      </trkpt>
      <trkpt lat="44.48134" lon="1.93673">
        <ele>368.755408</ele>
        <time>2022-05-22T08:16:51.437Z</time>
      </trkpt>
      <trkpt lat="44.48133" lon="1.93658">
        <ele>368.612596</ele>
        <time>2022-05-22T08:16:53.440Z</time>
      </trkpt>
      <trkpt lat="44.48134" lon="1.93641">
        <ele>368.453884</ele>
        <time>2022-05-22T08:16:55.439Z</time>
      </trkpt>
      <trkpt lat="44.48136" lon="1.93626">
        <ele>368.300581</ele>
        <time>2022-05-22T08:16:57.444Z</time>
      </trkpt>
      <trkpt lat="44.48138" lon="1.9361">
        <ele>368.143879</ele>
        <time>2022-05-22T08:16:59.442Z</time>
      </trkpt>
      <trkpt lat="44.48142" lon="1.93594">
        <ele>367.9877</ele>
        <time>2022-05-22T08:17:01.438Z</time>
      </trkpt>
      <trkpt lat="44.48144" lon="1.93581">
        <ele>367.727459</ele>
        <time>2022-05-22T08:17:03.439Z</time>
      </trkpt>
      <trkpt lat="44.48145" lon="1.93568">
        <ele>367.230175</ele>
        <time>2022-05-22T08:17:05.438Z</time>
      </trkpt>
      <trkpt lat="44.48147" lon="1.9355">
        <ele>366.536259</ele>
        <time>2022-05-22T08:17:08.439Z</time>
      </trkpt>
      <trkpt lat="44.48148" lon="1.93537">
        <ele>366.027885</ele>
        <time>2022-05-22T08:17:11.439Z</time>
      </trkpt>
      <trkpt lat="44.48149" lon="1.93519">
        <ele>365.363124</ele>
        <time>2022-05-22T08:17:14.435Z</time>
      </trkpt>
      <trkpt lat="44.48151" lon="1.93503">
        <ele>364.761324</ele>
        <time>2022-05-22T08:17:17.444Z</time>
      </trkpt>
      <trkpt lat="44.48153" lon="1.93489">
        <ele>364.198144</ele>
        <time>2022-05-22T08:17:20.441Z</time>
      </trkpt>
      <trkpt lat="44.48155" lon="1.93474">
        <ele>363.62473</ele>
        <time>2022-05-22T08:17:23.439Z</time>
      </trkpt>
      <trkpt lat="44.48158" lon="1.93459">
        <ele>363.065172</ele>
        <time>2022-05-22T08:17:26.445Z</time>
      </trkpt>
      <trkpt lat="44.48161" lon="1.93446">
        <ele>362.544703</ele>
        <time>2022-05-22T08:17:29.439Z</time>
      </trkpt>
      <trkpt lat="44.48163" lon="1.93433">
        <ele>362.02104</ele>
        <time>2022-05-22T08:17:32.442Z</time>
      </trkpt>
      <trkpt lat="44.48165" lon="1.9342">
        <ele>361.538131</ele>
        <time>2022-05-22T08:17:35.443Z</time>
      </trkpt>
      <trkpt lat="44.48167" lon="1.93404">
        <ele>360.925311</ele>
        <time>2022-05-22T08:17:38.440Z</time>
      </trkpt>
      <trkpt lat="44.48169" lon="1.93388">
        <ele>360.325939</ele>
        <time>2022-05-22T08:17:41.433Z</time>
      </trkpt>
      <trkpt lat="44.48171" lon="1.93373">
        <ele>359.738485</ele>
        <time>2022-05-22T08:17:44.439Z</time>
      </trkpt>
      <trkpt lat="44.48173" lon="1.93358">
        <ele>359.170519</ele>
        <time>2022-05-22T08:17:47.441Z</time>
      </trkpt>
      <trkpt lat="44.48175" lon="1.93344">
        <ele>358.627677</ele>
        <time>2022-05-22T08:17:50.437Z</time>
      </trkpt>
      <trkpt lat="44.48177" lon="1.93331">
        <ele>358.299281</ele>
        <time>2022-05-22T08:17:53.440Z</time>
      </trkpt>
      <trkpt lat="44.48181" lon="1.93318">
        <ele>358.086339</ele>
        <time>2022-05-22T08:17:56.441Z</time>
      </trkpt>
      <trkpt lat="44.48184" lon="1.93305">
        <ele>357.891083</ele>
        <time>2022-05-22T08:17:59.440Z</time>
      </trkpt>
      <trkpt lat="44.48188" lon="1.93293">
        <ele>357.696541</ele>
        <time>2022-05-22T08:18:02.440Z</time>
      </trkpt>
      <trkpt lat="44.48193" lon="1.93279">
        <ele>357.459142</ele>
        <time>2022-05-22T08:18:05.438Z</time>
      </trkpt>
      <trkpt lat="44.48196" lon="1.93265">
        <ele>357.25</ele>
        <time>2022-05-22T08:18:08.438Z</time>
      </trkpt>
      <trkpt lat="44.48199" lon="1.9325">
        <ele>357.015536</ele>
        <time>2022-05-22T08:18:12.435Z</time>
      </trkpt>
      <trkpt lat="44.48202" lon="1.93235">
        <ele>356.783405</ele>
        <time>2022-05-22T08:18:16.439Z</time>
      </trkpt>
      <trkpt lat="44.48202" lon="1.9322">
        <ele>356.57239</ele>
        <time>2022-05-22T08:18:21.438Z</time>
      </trkpt>
      <trkpt lat="44.48204" lon="1.93206">
        <ele>356.354683</ele>
        <time>2022-05-22T08:18:26.442Z</time>
      </trkpt>
      <trkpt lat="44.48207" lon="1.93194">
        <ele>356.168441</ele>
        <time>2022-05-22T08:18:29.436Z</time>
      </trkpt>
      <trkpt lat="44.48208" lon="1.93179">
        <ele>355.952556</ele>
        <time>2022-05-22T08:18:32.446Z</time>
      </trkpt>
      <trkpt lat="44.48209" lon="1.93167">
        <ele>355.762347</ele>
        <time>2022-05-22T08:18:34.439Z</time>
      </trkpt>
      <trkpt lat="44.48212" lon="1.9315">
        <ele>355.512596</ele>
        <time>2022-05-22T08:18:37.441Z</time>
      </trkpt>
      <trkpt lat="44.48216" lon="1.93136">
        <ele>355.288742</ele>
        <time>2022-05-22T08:18:40.439Z</time>
      </trkpt>
      <trkpt lat="44.48219" lon="1.93124">
        <ele>355.091819</ele>
        <time>2022-05-22T08:18:43.434Z</time>
      </trkpt>
      <trkpt lat="44.48222" lon="1.93107">
        <ele>354.836707</ele>
        <time>2022-05-22T08:18:46.441Z</time>
      </trkpt>
      <trkpt lat="44.48225" lon="1.93089">
        <ele>354.699248</ele>
        <time>2022-05-22T08:18:49.438Z</time>
      </trkpt>
      <trkpt lat="44.48229" lon="1.93071">
        <ele>354.70814</ele>
        <time>2022-05-22T08:18:52.440Z</time>
      </trkpt>
      <trkpt lat="44.48231" lon="1.93051">
        <ele>354.718111</ele>
        <time>2022-05-22T08:18:54.441Z</time>
      </trkpt>
      <trkpt lat="44.48233" lon="1.93038">
        <ele>354.724516</ele>
        <time>2022-05-22T08:18:56.445Z</time>
      </trkpt>
      <trkpt lat="44.48232" lon="1.93023">
        <ele>354.731672</ele>
        <time>2022-05-22T08:18:58.439Z</time>
      </trkpt>
      <trkpt lat="44.48233" lon="1.9301">
        <ele>354.737822</ele>
        <time>2022-05-22T08:19:00.434Z</time>
      </trkpt>
      <trkpt lat="44.48233" lon="1.92993">
        <ele>354.746096</ele>
        <time>2022-05-22T08:19:03.440Z</time>
      </trkpt>
      <trkpt lat="44.48236" lon="1.92976">
        <ele>354.754469</ele>
        <time>2022-05-22T08:19:06.441Z</time>
      </trkpt>
      <trkpt lat="44.48239" lon="1.92962">
        <ele>354.761564</ele>
        <time>2022-05-22T08:19:09.440Z</time>
      </trkpt>
      <trkpt lat="44.48241" lon="1.92949">
        <ele>354.768027</ele>
        <time>2022-05-22T08:19:12.439Z</time>
      </trkpt>
      <trkpt lat="44.48244" lon="1.92933">
        <ele>354.775949</ele>
        <time>2022-05-22T08:19:16.439Z</time>
      </trkpt>
      <trkpt lat="44.48249" lon="1.92921">
        <ele>354.782696</ele>
        <time>2022-05-22T08:19:19.442Z</time>
      </trkpt>
      <trkpt lat="44.48253" lon="1.92906">
        <ele>354.790782</ele>
        <time>2022-05-22T08:19:22.438Z</time>
      </trkpt>
      <trkpt lat="44.48256" lon="1.9289">
        <ele>354.7985</ele>
        <time>2022-05-22T08:19:25.440Z</time>
      </trkpt>
      <trkpt lat="44.48258" lon="1.92873">
        <ele>354.80696</ele>
        <time>2022-05-22T08:19:28.442Z</time>
      </trkpt>
      <trkpt lat="44.48259" lon="1.9286">
        <ele>354.813097</ele>
        <time>2022-05-22T08:19:31.445Z</time>
      </trkpt>
      <trkpt lat="44.48259" lon="1.92844">
        <ele>354.958144</ele>
        <time>2022-05-22T08:19:35.442Z</time>
      </trkpt>
      <trkpt lat="44.48261" lon="1.92831">
        <ele>355.201046</ele>
        <time>2022-05-22T08:19:38.441Z</time>
      </trkpt>
      <trkpt lat="44.48264" lon="1.92817">
        <ele>355.460705</ele>
        <time>2022-05-22T08:19:41.439Z</time>
      </trkpt>
      <trkpt lat="44.48267" lon="1.92801">
        <ele>355.745199</ele>
        <time>2022-05-22T08:19:44.436Z</time>
      </trkpt>
      <trkpt lat="44.48269" lon="1.92787">
        <ele>355.996201</ele>
        <time>2022-05-22T08:19:47.434Z</time>
      </trkpt>
      <trkpt lat="44.48272" lon="1.92774">
        <ele>356.227806</ele>
        <time>2022-05-22T08:19:50.435Z</time>
      </trkpt>
      <trkpt lat="44.48275" lon="1.92761">
        <ele>356.485326</ele>
        <time>2022-05-22T08:19:54.433Z</time>
      </trkpt>
      <trkpt lat="44.48278" lon="1.92746">
        <ele>356.758174</ele>
        <time>2022-05-22T08:19:58.438Z</time>
      </trkpt>
      <trkpt lat="44.48277" lon="1.92731">
        <ele>357.02652</ele>
        <time>2022-05-22T08:20:02.435Z</time>
      </trkpt>
      <trkpt lat="44.48275" lon="1.92718">
        <ele>357.253457</ele>
        <time>2022-05-22T08:20:05.437Z</time>
      </trkpt>
      <trkpt lat="44.4827" lon="1.92703">
        <ele>357.539257</ele>
        <time>2022-05-22T08:20:09.440Z</time>
      </trkpt>
      <trkpt lat="44.48267" lon="1.9269">
        <ele>357.782676</ele>
        <time>2022-05-22T08:20:13.435Z</time>
      </trkpt>
      <trkpt lat="44.48266" lon="1.92675">
        <ele>358.048861</ele>
        <time>2022-05-22T08:20:17.438Z</time>
      </trkpt>
      <trkpt lat="44.48266" lon="1.92659">
        <ele>358.335454</ele>
        <time>2022-05-22T08:20:21.441Z</time>
      </trkpt>
      <trkpt lat="44.48263" lon="1.92643">
        <ele>358.61253</ele>
        <time>2022-05-22T08:20:25.438Z</time>
      </trkpt>
      <trkpt lat="44.48259" lon="1.9263">
        <ele>358.8779</ele>
        <time>2022-05-22T08:20:29.433Z</time>
      </trkpt>
      <trkpt lat="44.48254" lon="1.92616">
        <ele>359.153053</ele>
        <time>2022-05-22T08:20:33.438Z</time>
      </trkpt>
      <trkpt lat="44.48247" lon="1.92603">
        <ele>359.499218</ele>
        <time>2022-05-22T08:20:37.441Z</time>
      </trkpt>
      <trkpt lat="44.48242" lon="1.92592">
        <ele>359.850061</ele>
        <time>2022-05-22T08:20:41.435Z</time>
      </trkpt>
      <trkpt lat="44.48237" lon="1.9258">
        <ele>360.190992</ele>
        <time>2022-05-22T08:20:45.437Z</time>
      </trkpt>
      <trkpt lat="44.48233" lon="1.92567">
        <ele>360.558783</ele>
        <time>2022-05-22T08:20:49.435Z</time>
      </trkpt>
      <trkpt lat="44.48229" lon="1.92553">
        <ele>360.937225</ele>
        <time>2022-05-22T08:20:53.436Z</time>
      </trkpt>
      <trkpt lat="44.48226" lon="1.92538">
        <ele>361.333686</ele>
        <time>2022-05-22T08:20:57.437Z</time>
      </trkpt>
      <trkpt lat="44.4822" lon="1.92523">
        <ele>361.744599</ele>
        <time>2022-05-22T08:21:01.443Z</time>
      </trkpt>
      <trkpt lat="44.48215" lon="1.9251">
        <ele>362.137171</ele>
        <time>2022-05-22T08:21:05.439Z</time>
      </trkpt>
      <trkpt lat="44.4821" lon="1.92496">
        <ele>362.51742</ele>
        <time>2022-05-22T08:21:09.440Z</time>
      </trkpt>
      <trkpt lat="44.48206" lon="1.92481">
        <ele>362.924632</ele>
        <time>2022-05-22T08:21:13.441Z</time>
      </trkpt>
      <trkpt lat="44.48201" lon="1.92468">
        <ele>363.293357</ele>
        <time>2022-05-22T08:21:17.437Z</time>
      </trkpt>
      <trkpt lat="44.48196" lon="1.92454">
        <ele>363.691575</ele>
        <time>2022-05-22T08:21:21.439Z</time>
      </trkpt>
      <trkpt lat="44.48192" lon="1.92442">
        <ele>364.02673</ele>
        <time>2022-05-22T08:21:24.439Z</time>
      </trkpt>
      <trkpt lat="44.48188" lon="1.92428">
        <ele>364.405322</ele>
        <time>2022-05-22T08:21:28.438Z</time>
      </trkpt>
      <trkpt lat="44.48185" lon="1.92414">
        <ele>364.777856</ele>
        <time>2022-05-22T08:21:32.437Z</time>
      </trkpt>
      <trkpt lat="44.48182" lon="1.92398">
        <ele>365.182319</ele>
        <time>2022-05-22T08:21:36.444Z</time>
      </trkpt>
      <trkpt lat="44.48181" lon="1.92385">
        <ele>365.504584</ele>
        <time>2022-05-22T08:21:39.436Z</time>
      </trkpt>
      <trkpt lat="44.48179" lon="1.92371">
        <ele>365.418093</ele>
        <time>2022-05-22T08:21:42.442Z</time>
      </trkpt>
      <trkpt lat="44.48177" lon="1.92358">
        <ele>365.184173</ele>
        <time>2022-05-22T08:21:45.440Z</time>
      </trkpt>
      <trkpt lat="44.48175" lon="1.92345">
        <ele>364.956455</ele>
        <time>2022-05-22T08:21:48.441Z</time>
      </trkpt>
      <trkpt lat="44.48174" lon="1.9233">
        <ele>364.691425</ele>
        <time>2022-05-22T08:21:52.439Z</time>
      </trkpt>
      <trkpt lat="44.48173" lon="1.92315">
        <ele>364.425071</ele>
        <time>2022-05-22T08:21:55.436Z</time>
      </trkpt>
      <trkpt lat="44.48173" lon="1.923">
        <ele>364.169759</ele>
        <time>2022-05-22T08:21:58.437Z</time>
      </trkpt>
      <trkpt lat="44.48173" lon="1.92286">
        <ele>363.925946</ele>
        <time>2022-05-22T08:22:01.444Z</time>
      </trkpt>
      <trkpt lat="44.48172" lon="1.9227">
        <ele>363.660916</ele>
        <time>2022-05-22T08:22:04.431Z</time>
      </trkpt>
      <trkpt lat="44.48173" lon="1.92255">
        <ele>363.387071</ele>
        <time>2022-05-22T08:22:07.439Z</time>
      </trkpt>
      <trkpt lat="44.48176" lon="1.92235">
        <ele>363.042472</ele>
        <time>2022-05-22T08:22:10.438Z</time>
      </trkpt>
      <trkpt lat="44.48179" lon="1.92222">
        <ele>362.805249</ele>
        <time>2022-05-22T08:22:12.442Z</time>
      </trkpt>
      <trkpt lat="44.48181" lon="1.92209">
        <ele>362.579386</ele>
        <time>2022-05-22T08:22:14.443Z</time>
      </trkpt>
      <trkpt lat="44.48184" lon="1.92191">
        <ele>362.25265</ele>
        <time>2022-05-22T08:22:17.439Z</time>
      </trkpt>
      <trkpt lat="44.48183" lon="1.92177">
        <ele>362.015621</ele>
        <time>2022-05-22T08:22:19.436Z</time>
      </trkpt>
      <trkpt lat="44.48184" lon="1.92164">
        <ele>361.782344</ele>
        <time>2022-05-22T08:22:21.434Z</time>
      </trkpt>
      <trkpt lat="44.48185" lon="1.9215">
        <ele>361.546948</ele>
        <time>2022-05-22T08:22:23.441Z</time>
      </trkpt>
      <trkpt lat="44.48184" lon="1.92131">
        <ele>361.227502</ele>
        <time>2022-05-22T08:22:26.439Z</time>
      </trkpt>
      <trkpt lat="44.48184" lon="1.92116">
        <ele>361.039229</ele>
        <time>2022-05-22T08:22:28.435Z</time>
      </trkpt>
      <trkpt lat="44.48185" lon="1.92103">
        <ele>360.877078</ele>
        <time>2022-05-22T08:22:30.441Z</time>
      </trkpt>
      <trkpt lat="44.48187" lon="1.92085">
        <ele>360.646289</ele>
        <time>2022-05-22T08:22:33.436Z</time>
      </trkpt>
      <trkpt lat="44.48188" lon="1.92072">
        <ele>360.482907</ele>
        <time>2022-05-22T08:22:35.440Z</time>
      </trkpt>
      <trkpt lat="44.48191" lon="1.92058">
        <ele>360.30851</ele>
        <time>2022-05-22T08:22:37.438Z</time>
      </trkpt>
      <trkpt lat="44.48192" lon="1.92045">
        <ele>360.13855</ele>
        <time>2022-05-22T08:22:39.441Z</time>
      </trkpt>
      <trkpt lat="44.48194" lon="1.92028">
        <ele>359.929085</ele>
        <time>2022-05-22T08:22:42.439Z</time>
      </trkpt>
      <trkpt lat="44.48198" lon="1.92011">
        <ele>359.707242</ele>
        <time>2022-05-22T08:22:45.440Z</time>
      </trkpt>
      <trkpt lat="44.48204" lon="1.91997">
        <ele>359.506719</ele>
        <time>2022-05-22T08:22:48.436Z</time>
      </trkpt>
      <trkpt lat="44.48209" lon="1.91981">
        <ele>359.289305</ele>
        <time>2022-05-22T08:22:51.440Z</time>
      </trkpt>
      <trkpt lat="44.48215" lon="1.91966">
        <ele>359.076312</ele>
        <time>2022-05-22T08:22:54.439Z</time>
      </trkpt>
      <trkpt lat="44.48219" lon="1.91952">
        <ele>358.888655</ele>
        <time>2022-05-22T08:22:57.440Z</time>
      </trkpt>
      <trkpt lat="44.48224" lon="1.9194">
        <ele>358.723098</ele>
        <time>2022-05-22T08:23:00.438Z</time>
      </trkpt>
      <trkpt lat="44.48228" lon="1.91925">
        <ele>358.524276</ele>
        <time>2022-05-22T08:23:03.438Z</time>
      </trkpt>
      <trkpt lat="44.48232" lon="1.91911">
        <ele>358.344033</ele>
        <time>2022-05-22T08:23:06.443Z</time>
      </trkpt>
      <trkpt lat="44.48235" lon="1.91899">
        <ele>358.183623</ele>
        <time>2022-05-22T08:23:09.440Z</time>
      </trkpt>
      <trkpt lat="44.48238" lon="1.91886">
        <ele>358.438619</ele>
        <time>2022-05-22T08:23:12.441Z</time>
      </trkpt>
      <trkpt lat="44.48244" lon="1.91875">
        <ele>358.883856</ele>
        <time>2022-05-22T08:23:15.439Z</time>
      </trkpt>
      <trkpt lat="44.48251" lon="1.91865">
        <ele>359.348946</ele>
        <time>2022-05-22T08:23:18.441Z</time>
      </trkpt>
      <trkpt lat="44.48258" lon="1.91854">
        <ele>359.850223</ele>
        <time>2022-05-22T08:23:21.435Z</time>
      </trkpt>
      <trkpt lat="44.48266" lon="1.91845">
        <ele>360.306269</ele>
        <time>2022-05-22T08:23:24.441Z</time>
      </trkpt>
      <trkpt lat="44.48273" lon="1.91835">
        <ele>360.765797</ele>
        <time>2022-05-22T08:23:28.439Z</time>
      </trkpt>
      <trkpt lat="44.4828" lon="1.91824">
        <ele>361.226364</ele>
        <time>2022-05-22T08:23:34.441Z</time>
      </trkpt>
      <trkpt lat="44.48288" lon="1.91814">
        <ele>361.748244</ele>
        <time>2022-05-22T08:23:39.442Z</time>
      </trkpt>
      <trkpt lat="44.48295" lon="1.91805">
        <ele>362.163342</ele>
        <time>2022-05-22T08:23:42.438Z</time>
      </trkpt>
      <trkpt lat="44.48303" lon="1.91796">
        <ele>362.657767</ele>
        <time>2022-05-22T08:23:46.439Z</time>
      </trkpt>
      <trkpt lat="44.4831" lon="1.91787">
        <ele>363.075832</ele>
        <time>2022-05-22T08:23:50.438Z</time>
      </trkpt>
      <trkpt lat="44.48319" lon="1.91777">
        <ele>363.600777</ele>
        <time>2022-05-22T08:23:54.440Z</time>
      </trkpt>
      <trkpt lat="44.48327" lon="1.91766">
        <ele>364.124268</ele>
        <time>2022-05-22T08:23:58.441Z</time>
      </trkpt>
      <trkpt lat="44.48333" lon="1.91755">
        <ele>364.578852</ele>
        <time>2022-05-22T08:24:02.442Z</time>
      </trkpt>
      <trkpt lat="44.48338" lon="1.91743">
        <ele>365.033293</ele>
        <time>2022-05-22T08:24:06.438Z</time>
      </trkpt>
      <trkpt lat="44.48343" lon="1.91729">
        <ele>365.526257</ele>
        <time>2022-05-22T08:24:10.438Z</time>
      </trkpt>
      <trkpt lat="44.48346" lon="1.91714">
        <ele>366.039781</ele>
        <time>2022-05-22T08:24:14.439Z</time>
      </trkpt>
      <trkpt lat="44.48349" lon="1.91701">
        <ele>366.274047</ele>
        <time>2022-05-22T08:24:17.521Z</time>
      </trkpt>
      <trkpt lat="44.48351" lon="1.91685">
        <ele>365.817549</ele>
        <time>2022-05-22T08:24:20.519Z</time>
      </trkpt>
      <trkpt lat="44.48353" lon="1.9167">
        <ele>365.386156</ele>
        <time>2022-05-22T08:24:23.518Z</time>
      </trkpt>
      <trkpt lat="44.48355" lon="1.91656">
        <ele>364.967968</ele>
        <time>2022-05-22T08:24:26.097Z</time>
      </trkpt>
      <trkpt lat="44.48356" lon="1.91639">
        <ele>364.484057</ele>
        <time>2022-05-22T08:24:29.106Z</time>
      </trkpt>
      <trkpt lat="44.48359" lon="1.91622">
        <ele>363.992148</ele>
        <time>2022-05-22T08:24:32.100Z</time>
      </trkpt>
      <trkpt lat="44.48361" lon="1.91609">
        <ele>363.630711</ele>
        <time>2022-05-22T08:24:34.096Z</time>
      </trkpt>
      <trkpt lat="44.48365" lon="1.91592">
        <ele>363.118348</ele>
        <time>2022-05-22T08:24:37.103Z</time>
      </trkpt>
      <trkpt lat="44.4837" lon="1.91574">
        <ele>362.576605</ele>
        <time>2022-05-22T08:24:40.102Z</time>
      </trkpt>
      <trkpt lat="44.48371" lon="1.91561">
        <ele>362.191339</ele>
        <time>2022-05-22T08:24:42.097Z</time>
      </trkpt>
      <trkpt lat="44.48372" lon="1.91548">
        <ele>361.824739</ele>
        <time>2022-05-22T08:24:43.097Z</time>
      </trkpt>
      <trkpt lat="44.4837" lon="1.91531">
        <ele>361.318536</ele>
        <time>2022-05-22T08:24:46.098Z</time>
      </trkpt>
      <trkpt lat="44.48369" lon="1.91518">
        <ele>360.949097</ele>
        <time>2022-05-22T08:24:48.100Z</time>
      </trkpt>
      <trkpt lat="44.4837" lon="1.91503">
        <ele>360.522579</ele>
        <time>2022-05-22T08:24:50.095Z</time>
      </trkpt>
      <trkpt lat="44.48368" lon="1.91486">
        <ele>360.058402</ele>
        <time>2022-05-22T08:24:52.099Z</time>
      </trkpt>
      <trkpt lat="44.48365" lon="1.91467">
        <ele>359.500526</ele>
        <time>2022-05-22T08:24:54.104Z</time>
      </trkpt>
      <trkpt lat="44.48363" lon="1.91449">
        <ele>359.079008</ele>
        <time>2022-05-22T08:24:56.103Z</time>
      </trkpt>
      <trkpt lat="44.48362" lon="1.91431">
        <ele>358.766632</ele>
        <time>2022-05-22T08:24:58.095Z</time>
      </trkpt>
      <trkpt lat="44.48362" lon="1.91414">
        <ele>358.47524</ele>
        <time>2022-05-22T08:25:00.102Z</time>
      </trkpt>
      <trkpt lat="44.48359" lon="1.91393">
        <ele>358.116239</ele>
        <time>2022-05-22T08:25:02.099Z</time>
      </trkpt>
      <trkpt lat="44.48359" lon="1.91374">
        <ele>357.79966</ele>
        <time>2022-05-22T08:25:04.102Z</time>
      </trkpt>
      <trkpt lat="44.48357" lon="1.91359">
        <ele>357.52854</ele>
        <time>2022-05-22T08:25:06.100Z</time>
      </trkpt>
      <trkpt lat="44.48355" lon="1.91343">
        <ele>357.262544</ele>
        <time>2022-05-22T08:25:08.100Z</time>
      </trkpt>
      <trkpt lat="44.48353" lon="1.91329">
        <ele>357.008121</ele>
        <time>2022-05-22T08:25:10.100Z</time>
      </trkpt>
      <trkpt lat="44.48354" lon="1.91313">
        <ele>356.749407</ele>
        <time>2022-05-22T08:25:12.100Z</time>
      </trkpt>
      <trkpt lat="44.48353" lon="1.91294">
        <ele>356.425467</ele>
        <time>2022-05-22T08:25:15.097Z</time>
      </trkpt>
      <trkpt lat="44.48349" lon="1.91276">
        <ele>356.091901</ele>
        <time>2022-05-22T08:25:18.102Z</time>
      </trkpt>
      <trkpt lat="44.48345" lon="1.91261">
        <ele>355.833645</ele>
        <time>2022-05-22T08:25:21.100Z</time>
      </trkpt>
      <trkpt lat="44.48344" lon="1.91246">
        <ele>355.577445</ele>
        <time>2022-05-22T08:25:25.101Z</time>
      </trkpt>
      <trkpt lat="44.48346" lon="1.9123">
        <ele>355.299707</ele>
        <time>2022-05-22T08:25:29.098Z</time>
      </trkpt>
      <trkpt lat="44.48346" lon="1.91217">
        <ele>355.0818</ele>
        <time>2022-05-22T08:25:32.099Z</time>
      </trkpt>
      <trkpt lat="44.48346" lon="1.91201">
        <ele>355.13124</ele>
        <time>2022-05-22T08:25:36.096Z</time>
      </trkpt>
      <trkpt lat="44.48346" lon="1.91187">
        <ele>355.516447</ele>
        <time>2022-05-22T08:25:39.096Z</time>
      </trkpt>
      <trkpt lat="44.48345" lon="1.91174">
        <ele>355.864733</ele>
        <time>2022-05-22T08:25:42.102Z</time>
      </trkpt>
      <trkpt lat="44.48343" lon="1.91158">
        <ele>356.291935</ele>
        <time>2022-05-22T08:25:46.100Z</time>
      </trkpt>
      <trkpt lat="44.48342" lon="1.91143">
        <ele>356.709589</ele>
        <time>2022-05-22T08:25:50.103Z</time>
      </trkpt>
      <trkpt lat="44.48339" lon="1.91129">
        <ele>357.124724</ele>
        <time>2022-05-22T08:25:54.100Z</time>
      </trkpt>
      <trkpt lat="44.48337" lon="1.91116">
        <ele>357.481095</ele>
        <time>2022-05-22T08:25:58.100Z</time>
      </trkpt>
      <trkpt lat="44.48336" lon="1.91101">
        <ele>357.876769</ele>
        <time>2022-05-22T08:26:03.099Z</time>
      </trkpt>
      <trkpt lat="44.48336" lon="1.91087">
        <ele>358.250853</ele>
        <time>2022-05-22T08:26:08.098Z</time>
      </trkpt>
      <trkpt lat="44.48338" lon="1.91075">
        <ele>358.596507</ele>
        <time>2022-05-22T08:26:13.099Z</time>
      </trkpt>
      <trkpt lat="44.48337" lon="1.91061">
        <ele>358.98023</ele>
        <time>2022-05-22T08:26:18.125Z</time>
      </trkpt>
      <trkpt lat="44.48335" lon="1.91045">
        <ele>359.408652</ele>
        <time>2022-05-22T08:26:23.096Z</time>
      </trkpt>
      <trkpt lat="44.48335" lon="1.91031">
        <ele>359.788214</ele>
        <time>2022-05-22T08:26:27.101Z</time>
      </trkpt>
      <trkpt lat="44.48334" lon="1.91017">
        <ele>360.164203</ele>
        <time>2022-05-22T08:26:31.096Z</time>
      </trkpt>
      <trkpt lat="44.48332" lon="1.91002">
        <ele>360.581854</ele>
        <time>2022-05-22T08:26:35.096Z</time>
      </trkpt>
      <trkpt lat="44.4833" lon="1.9099">
        <ele>360.92652</ele>
        <time>2022-05-22T08:26:39.100Z</time>
      </trkpt>
      <trkpt lat="44.48328" lon="1.90976">
        <ele>361.315102</ele>
        <time>2022-05-22T08:26:44.098Z</time>
      </trkpt>
      <trkpt lat="44.48325" lon="1.90963">
        <ele>361.659908</ele>
        <time>2022-05-22T08:26:47.097Z</time>
      </trkpt>
      <trkpt lat="44.48323" lon="1.90948">
        <ele>361.495917</ele>
        <time>2022-05-22T08:26:50.098Z</time>
      </trkpt>
      <trkpt lat="44.48322" lon="1.90931">
        <ele>361.107481</ele>
        <time>2022-05-22T08:26:53.099Z</time>
      </trkpt>
      <trkpt lat="44.48321" lon="1.90913">
        <ele>360.698119</ele>
        <time>2022-05-22T08:26:56.098Z</time>
      </trkpt>
      <trkpt lat="44.48321" lon="1.90898">
        <ele>360.339937</ele>
        <time>2022-05-22T08:26:58.102Z</time>
      </trkpt>
      <trkpt lat="44.48321" lon="1.90884">
        <ele>360.034356</ele>
        <time>2022-05-22T08:27:00.101Z</time>
      </trkpt>
      <trkpt lat="44.48324" lon="1.90872">
        <ele>359.742242</ele>
        <time>2022-05-22T08:27:02.097Z</time>
      </trkpt>
      <trkpt lat="44.48323" lon="1.90855">
        <ele>359.361154</ele>
        <time>2022-05-22T08:27:05.100Z</time>
      </trkpt>
      <trkpt lat="44.48324" lon="1.90841">
        <ele>359.047169</ele>
        <time>2022-05-22T08:27:07.101Z</time>
      </trkpt>
      <trkpt lat="44.48328" lon="1.90825">
        <ele>358.645557</ele>
        <time>2022-05-22T08:27:09.097Z</time>
      </trkpt>
      <trkpt lat="44.48329" lon="1.90811">
        <ele>358.319382</ele>
        <time>2022-05-22T08:27:11.101Z</time>
      </trkpt>
      <trkpt lat="44.4833" lon="1.90795">
        <ele>357.958233</ele>
        <time>2022-05-22T08:27:13.100Z</time>
      </trkpt>
      <trkpt lat="44.48333" lon="1.9078">
        <ele>357.603056</ele>
        <time>2022-05-22T08:27:15.090Z</time>
      </trkpt>
      <trkpt lat="44.48335" lon="1.90763">
        <ele>357.218886</ele>
        <time>2022-05-22T08:27:17.102Z</time>
      </trkpt>
      <trkpt lat="44.48335" lon="1.90746">
        <ele>356.81741</ele>
        <time>2022-05-22T08:27:19.099Z</time>
      </trkpt>
      <trkpt lat="44.48336" lon="1.90728">
        <ele>356.424621</ele>
        <time>2022-05-22T08:27:21.100Z</time>
      </trkpt>
      <trkpt lat="44.48338" lon="1.90715">
        <ele>356.119837</ele>
        <time>2022-05-22T08:27:23.098Z</time>
      </trkpt>
      <trkpt lat="44.48339" lon="1.90702">
        <ele>356.026658</ele>
        <time>2022-05-22T08:27:27.093Z</time>
      </trkpt>
      <trkpt lat="44.48348" lon="1.90693">
        <ele>356.046222</ele>
        <time>2022-05-22T08:27:30.096Z</time>
      </trkpt>
      <trkpt lat="44.48359" lon="1.90686">
        <ele>356.067246</ele>
        <time>2022-05-22T08:27:33.099Z</time>
      </trkpt>
      <trkpt lat="44.48368" lon="1.90678">
        <ele>356.086757</ele>
        <time>2022-05-22T08:27:36.097Z</time>
      </trkpt>
      <trkpt lat="44.48378" lon="1.9067">
        <ele>356.107533</ele>
        <time>2022-05-22T08:27:39.098Z</time>
      </trkpt>
      <trkpt lat="44.48387" lon="1.90661">
        <ele>356.128122</ele>
        <time>2022-05-22T08:27:42.099Z</time>
      </trkpt>
      <trkpt lat="44.48396" lon="1.90652">
        <ele>356.147761</ele>
        <time>2022-05-22T08:27:45.094Z</time>
      </trkpt>
      <trkpt lat="44.48404" lon="1.90642">
        <ele>356.166502</ele>
        <time>2022-05-22T08:27:48.100Z</time>
      </trkpt>
      <trkpt lat="44.48405" lon="1.90628">
        <ele>356.184478</ele>
        <time>2022-05-22T08:27:51.100Z</time>
      </trkpt>
      <trkpt lat="44.48405" lon="1.90611">
        <ele>356.205678</ele>
        <time>2022-05-22T08:27:54.102Z</time>
      </trkpt>
      <trkpt lat="44.48404" lon="1.90595">
        <ele>356.226693</ele>
        <time>2022-05-22T08:27:57.094Z</time>
      </trkpt>
      <trkpt lat="44.48404" lon="1.90579">
        <ele>356.247248</ele>
        <time>2022-05-22T08:28:00.093Z</time>
      </trkpt>
      <trkpt lat="44.48406" lon="1.90562">
        <ele>356.268843</ele>
        <time>2022-05-22T08:28:03.098Z</time>
      </trkpt>
      <trkpt lat="44.48407" lon="1.90546">
        <ele>356.289319</ele>
        <time>2022-05-22T08:28:06.094Z</time>
      </trkpt>
      <trkpt lat="44.4841" lon="1.9053">
        <ele>356.310733</ele>
        <time>2022-05-22T08:28:09.093Z</time>
      </trkpt>
      <trkpt lat="44.48414" lon="1.90514">
        <ele>356.331611</ele>
        <time>2022-05-22T08:28:12.094Z</time>
      </trkpt>
      <trkpt lat="44.48418" lon="1.90498">
        <ele>356.573629</ele>
        <time>2022-05-22T08:28:15.096Z</time>
      </trkpt>
      <trkpt lat="44.48421" lon="1.90481">
        <ele>356.896853</ele>
        <time>2022-05-22T08:28:18.098Z</time>
      </trkpt>
      <trkpt lat="44.48425" lon="1.90465">
        <ele>357.210991</ele>
        <time>2022-05-22T08:28:21.102Z</time>
      </trkpt>
      <trkpt lat="44.48426" lon="1.90448">
        <ele>357.534484</ele>
        <time>2022-05-22T08:28:24.094Z</time>
      </trkpt>
      <trkpt lat="44.48424" lon="1.90431">
        <ele>357.852843</ele>
        <time>2022-05-22T08:28:27.093Z</time>
      </trkpt>
      <trkpt lat="44.48423" lon="1.90413">
        <ele>358.186772</ele>
        <time>2022-05-22T08:28:30.094Z</time>
      </trkpt>
      <trkpt lat="44.48421" lon="1.90396">
        <ele>358.48995</ele>
        <time>2022-05-22T08:28:33.096Z</time>
      </trkpt>
      <trkpt lat="44.4842" lon="1.90381">
        <ele>358.775403</ele>
        <time>2022-05-22T08:28:36.964Z</time>
      </trkpt>
      <trkpt lat="44.48419" lon="1.90367">
        <ele>359.034417</ele>
        <time>2022-05-22T08:28:39.967Z</time>
      </trkpt>
      <trkpt lat="44.48418" lon="1.90353">
        <ele>359.287926</ele>
        <time>2022-05-22T08:28:42.962Z</time>
      </trkpt>
      <trkpt lat="44.48412" lon="1.90343">
        <ele>359.532045</ele>
        <time>2022-05-22T08:28:45.962Z</time>
      </trkpt>
      <trkpt lat="44.484" lon="1.90342">
        <ele>359.842417</ele>
        <time>2022-05-22T08:28:48.968Z</time>
      </trkpt>
      <trkpt lat="44.48388" lon="1.90341">
        <ele>360.142969</ele>
        <time>2022-05-22T08:28:51.967Z</time>
      </trkpt>
      <trkpt lat="44.48376" lon="1.90339">
        <ele>360.458341</ele>
        <time>2022-05-22T08:28:54.967Z</time>
      </trkpt>
      <trkpt lat="44.48364" lon="1.90336">
        <ele>360.770296</ele>
        <time>2022-05-22T08:28:57.308Z</time>
      </trkpt>
      <trkpt lat="44.48353" lon="1.90332">
        <ele>361.044783</ele>
        <time>2022-05-22T08:29:00.311Z</time>
      </trkpt>
      <trkpt lat="44.48343" lon="1.90327">
        <ele>361.266426</ele>
        <time>2022-05-22T08:29:03.307Z</time>
      </trkpt>
      <trkpt lat="44.48333" lon="1.90322">
        <ele>361.487054</ele>
        <time>2022-05-22T08:29:06.307Z</time>
      </trkpt>
      <trkpt lat="44.48325" lon="1.90318">
        <ele>361.675556</ele>
        <time>2022-05-22T08:29:09.299Z</time>
      </trkpt>
      <trkpt lat="44.48315" lon="1.90315">
        <ele>361.885349</ele>
        <time>2022-05-22T08:29:13.621Z</time>
      </trkpt>
      <trkpt lat="44.48306" lon="1.90311">
        <ele>362.078683</ele>
        <time>2022-05-22T08:29:18.623Z</time>
      </trkpt>
      <trkpt lat="44.48297" lon="1.90307">
        <ele>362.268493</ele>
        <time>2022-05-22T08:29:22.647Z</time>
      </trkpt>
      <trkpt lat="44.48288" lon="1.90301">
        <ele>362.483137</ele>
        <time>2022-05-22T08:29:26.653Z</time>
      </trkpt>
      <trkpt lat="44.48278" lon="1.90296">
        <ele>362.708231</ele>
        <time>2022-05-22T08:29:30.646Z</time>
      </trkpt>
      <trkpt lat="44.48267" lon="1.90294">
        <ele>362.928633</ele>
        <time>2022-05-22T08:29:35.650Z</time>
      </trkpt>
      <trkpt lat="44.48258" lon="1.90293">
        <ele>363.124647</ele>
        <time>2022-05-22T08:29:39.652Z</time>
      </trkpt>
      <trkpt lat="44.48247" lon="1.90291">
        <ele>363.348592</ele>
        <time>2022-05-22T08:29:44.650Z</time>
      </trkpt>
      <trkpt lat="44.48238" lon="1.90294">
        <ele>363.541581</ele>
        <time>2022-05-22T08:29:48.646Z</time>
      </trkpt>
      <trkpt lat="44.48228" lon="1.90299">
        <ele>363.75545</ele>
        <time>2022-05-22T08:29:52.648Z</time>
      </trkpt>
      <trkpt lat="44.48218" lon="1.90307">
        <ele>364.00056</ele>
        <time>2022-05-22T08:29:56.648Z</time>
      </trkpt>
      <trkpt lat="44.48209" lon="1.90313">
        <ele>364.205786</ele>
        <time>2022-05-22T08:30:00.644Z</time>
      </trkpt>
      <trkpt lat="44.48201" lon="1.90319">
        <ele>364.39851</ele>
        <time>2022-05-22T08:30:03.648Z</time>
      </trkpt>
      <trkpt lat="44.48192" lon="1.90324">
        <ele>364.586832</ele>
        <time>2022-05-22T08:30:07.646Z</time>
      </trkpt>
      <trkpt lat="44.48183" lon="1.90326">
        <ele>364.745365</ele>
        <time>2022-05-22T08:30:11.653Z</time>
      </trkpt>
      <trkpt lat="44.48174" lon="1.90331">
        <ele>364.844726</ele>
        <time>2022-05-22T08:30:15.652Z</time>
      </trkpt>
      <trkpt lat="44.48162" lon="1.90337">
        <ele>364.961332</ele>
        <time>2022-05-22T08:30:19.646Z</time>
      </trkpt>
      <trkpt lat="44.48154" lon="1.90343">
        <ele>365.047362</ele>
        <time>2022-05-22T08:30:22.414Z</time>
      </trkpt>
      <trkpt lat="44.48144" lon="1.90351">
        <ele>365.153533</ele>
        <time>2022-05-22T08:30:26.411Z</time>
      </trkpt>
      <trkpt lat="44.48136" lon="1.9036">
        <ele>365.25354</ele>
        <time>2022-05-22T08:30:30.404Z</time>
      </trkpt>
      <trkpt lat="44.48128" lon="1.90368">
        <ele>365.346937</ele>
        <time>2022-05-22T08:30:33.398Z</time>
      </trkpt>
      <trkpt lat="44.48118" lon="1.90375">
        <ele>365.45195</ele>
        <time>2022-05-22T08:30:36.395Z</time>
      </trkpt>
      <trkpt lat="44.48109" lon="1.90385">
        <ele>365.556208</ele>
        <time>2022-05-22T08:30:39.400Z</time>
      </trkpt>
      <trkpt lat="44.48103" lon="1.90394">
        <ele>365.642644</ele>
        <time>2022-05-22T08:30:42.405Z</time>
      </trkpt>
      <trkpt lat="44.48094" lon="1.90402">
        <ele>365.741272</ele>
        <time>2022-05-22T08:30:45.399Z</time>
      </trkpt>
      <trkpt lat="44.48086" lon="1.9041">
        <ele>365.833508</ele>
        <time>2022-05-22T08:30:48.402Z</time>
      </trkpt>
      <trkpt lat="44.48076" lon="1.90419">
        <ele>365.949986</ele>
        <time>2022-05-22T08:30:51.889Z</time>
      </trkpt>
      <trkpt lat="44.48068" lon="1.90426">
        <ele>366.035261</ele>
        <time>2022-05-22T08:30:53.884Z</time>
      </trkpt>
      <trkpt lat="44.48059" lon="1.90437">
        <ele>366.150318</ele>
        <time>2022-05-22T08:30:56.801Z</time>
      </trkpt>
      <trkpt lat="44.48054" lon="1.90447">
        <ele>366.236086</ele>
        <time>2022-05-22T08:30:59.797Z</time>
      </trkpt>
      <trkpt lat="44.48045" lon="1.90456">
        <ele>366.338064</ele>
        <time>2022-05-22T08:31:02.793Z</time>
      </trkpt>
      <trkpt lat="44.48034" lon="1.90464">
        <ele>366.310533</ele>
        <time>2022-05-22T08:31:05.798Z</time>
      </trkpt>
      <trkpt lat="44.48025" lon="1.90472">
        <ele>365.919832</ele>
        <time>2022-05-22T08:31:08.937Z</time>
      </trkpt>
      <trkpt lat="44.48017" lon="1.90482">
        <ele>365.524611</ele>
        <time>2022-05-22T08:31:11.940Z</time>
      </trkpt>
      <trkpt lat="44.48011" lon="1.90494">
        <ele>365.158613</ele>
        <time>2022-05-22T08:31:13.933Z</time>
      </trkpt>
      <trkpt lat="44.48003" lon="1.90506">
        <ele>364.745842</ele>
        <time>2022-05-22T08:31:16.937Z</time>
      </trkpt>
      <trkpt lat="44.47996" lon="1.90514">
        <ele>364.406998</ele>
        <time>2022-05-22T08:31:18.941Z</time>
      </trkpt>
      <trkpt lat="44.47988" lon="1.90527">
        <ele>363.981562</ele>
        <time>2022-05-22T08:31:22.934Z</time>
      </trkpt>
      <trkpt lat="44.47979" lon="1.90536">
        <ele>363.583683</ele>
        <time>2022-05-22T08:31:25.937Z</time>
      </trkpt>
      <trkpt lat="44.47968" lon="1.90545">
        <ele>363.146619</ele>
        <time>2022-05-22T08:31:28.943Z</time>
      </trkpt>
      <trkpt lat="44.47955" lon="1.90549">
        <ele>362.680496</ele>
        <time>2022-05-22T08:31:31.936Z</time>
      </trkpt>
      <trkpt lat="44.47946" lon="1.90551">
        <ele>362.35233</ele>
        <time>2022-05-22T08:31:34.936Z</time>
      </trkpt>
      <trkpt lat="44.47933" lon="1.90558">
        <ele>361.84273</ele>
        <time>2022-05-22T08:32:01.939Z</time>
      </trkpt>
      <trkpt lat="44.47924" lon="1.90563">
        <ele>361.49559</ele>
        <time>2022-05-22T08:32:05.937Z</time>
      </trkpt>
      <trkpt lat="44.47912" lon="1.90571">
        <ele>361.017272</ele>
        <time>2022-05-22T08:32:08.936Z</time>
      </trkpt>
      <trkpt lat="44.47903" lon="1.90577">
        <ele>360.667647</ele>
        <time>2022-05-22T08:32:10.938Z</time>
      </trkpt>
      <trkpt lat="44.47892" lon="1.90587">
        <ele>360.208211</ele>
        <time>2022-05-22T08:32:13.937Z</time>
      </trkpt>
      <trkpt lat="44.47883" lon="1.90598">
        <ele>359.978804</ele>
        <time>2022-05-22T08:32:16.935Z</time>
      </trkpt>
      <trkpt lat="44.47873" lon="1.9061">
        <ele>359.885388</ele>
        <time>2022-05-22T08:32:19.936Z</time>
      </trkpt>
      <trkpt lat="44.47862" lon="1.90618">
        <ele>359.796168</ele>
        <time>2022-05-22T08:32:21.937Z</time>
      </trkpt>
      <trkpt lat="44.47853" lon="1.90628">
        <ele>359.715848</ele>
        <time>2022-05-22T08:32:24.934Z</time>
      </trkpt>
      <trkpt lat="44.47844" lon="1.90636">
        <ele>359.641098</ele>
        <time>2022-05-22T08:32:27.940Z</time>
      </trkpt>
      <trkpt lat="44.47836" lon="1.90647">
        <ele>359.565063</ele>
        <time>2022-05-22T08:32:30.943Z</time>
      </trkpt>
      <trkpt lat="44.47828" lon="1.90655">
        <ele>359.49514</ele>
        <time>2022-05-22T08:32:32.935Z</time>
      </trkpt>
      <trkpt lat="44.47819" lon="1.90668">
        <ele>359.408428</ele>
        <time>2022-05-22T08:32:35.935Z</time>
      </trkpt>
      <trkpt lat="44.47809" lon="1.90675">
        <ele>359.325873</ele>
        <time>2022-05-22T08:32:38.933Z</time>
      </trkpt>
      <trkpt lat="44.47801" lon="1.90681">
        <ele>359.262048</ele>
        <time>2022-05-22T08:32:40.937Z</time>
      </trkpt>
      <trkpt lat="44.47791" lon="1.90686">
        <ele>359.190527</ele>
        <time>2022-05-22T08:32:43.935Z</time>
      </trkpt>
      <trkpt lat="44.47779" lon="1.90694">
        <ele>359.098114</ele>
        <time>2022-05-22T08:32:46.936Z</time>
      </trkpt>
      <trkpt lat="44.47768" lon="1.907">
        <ele>359.016165</ele>
        <time>2022-05-22T08:32:49.939Z</time>
      </trkpt>
      <trkpt lat="44.47759" lon="1.90704">
        <ele>358.950156</ele>
        <time>2022-05-22T08:32:51.938Z</time>
      </trkpt>
      <trkpt lat="44.47745" lon="1.90711">
        <ele>358.850532</ele>
        <time>2022-05-22T08:32:54.937Z</time>
      </trkpt>
      <trkpt lat="44.47735" lon="1.90715">
        <ele>358.777948</ele>
        <time>2022-05-22T08:32:57.938Z</time>
      </trkpt>
      <trkpt lat="44.47726" lon="1.90724">
        <ele>358.504912</ele>
        <time>2022-05-22T08:33:00.936Z</time>
      </trkpt>
      <trkpt lat="44.47716" lon="1.90728">
        <ele>358.217247</ele>
        <time>2022-05-22T08:33:04.937Z</time>
      </trkpt>
      <trkpt lat="44.47702" lon="1.90736">
        <ele>357.806048</ele>
        <time>2022-05-22T08:33:07.940Z</time>
      </trkpt>
      <trkpt lat="44.47693" lon="1.90742">
        <ele>357.546625</ele>
        <time>2022-05-22T08:33:09.927Z</time>
      </trkpt>
      <trkpt lat="44.47685" lon="1.90751">
        <ele>357.256723</ele>
        <time>2022-05-22T08:33:11.936Z</time>
      </trkpt>
      <trkpt lat="44.47673" lon="1.90762">
        <ele>356.891661</ele>
        <time>2022-05-22T08:33:13.939Z</time>
      </trkpt>
      <trkpt lat="44.47664" lon="1.9077">
        <ele>356.599238</ele>
        <time>2022-05-22T08:33:15.941Z</time>
      </trkpt>
      <trkpt lat="44.47657" lon="1.90778">
        <ele>356.336333</ele>
        <time>2022-05-22T08:33:17.947Z</time>
      </trkpt>
      <trkpt lat="44.47648" lon="1.90786">
        <ele>356.056823</ele>
        <time>2022-05-22T08:33:19.933Z</time>
      </trkpt>
      <trkpt lat="44.47636" lon="1.90795">
        <ele>355.696678</ele>
        <time>2022-05-22T08:33:22.939Z</time>
      </trkpt>
      <trkpt lat="44.47626" lon="1.90803">
        <ele>355.374966</ele>
        <time>2022-05-22T08:33:25.937Z</time>
      </trkpt>
      <trkpt lat="44.47613" lon="1.9081">
        <ele>355.01612</ele>
        <time>2022-05-22T08:33:28.935Z</time>
      </trkpt>
      <trkpt lat="44.47604" lon="1.90813">
        <ele>354.758242</ele>
        <time>2022-05-22T08:33:30.934Z</time>
      </trkpt>
      <trkpt lat="44.47594" lon="1.90816">
        <ele>354.477732</ele>
        <time>2022-05-22T08:33:32.938Z</time>
      </trkpt>
      <trkpt lat="44.47584" lon="1.90818">
        <ele>354.204985</ele>
        <time>2022-05-22T08:33:34.939Z</time>
      </trkpt>
      <trkpt lat="44.47574" lon="1.90821">
        <ele>353.937631</ele>
        <time>2022-05-22T08:33:36.936Z</time>
      </trkpt>
      <trkpt lat="44.47564" lon="1.90824">
        <ele>354.049794</ele>
        <time>2022-05-22T08:33:38.934Z</time>
      </trkpt>
      <trkpt lat="44.47554" lon="1.90827">
        <ele>354.17776</ele>
        <time>2022-05-22T08:33:40.946Z</time>
      </trkpt>
      <trkpt lat="44.47544" lon="1.90829">
        <ele>354.30314</ele>
        <time>2022-05-22T08:33:42.939Z</time>
      </trkpt>
      <trkpt lat="44.47534" lon="1.90832">
        <ele>354.42883</ele>
        <time>2022-05-22T08:33:44.937Z</time>
      </trkpt>
      <trkpt lat="44.47524" lon="1.90835">
        <ele>354.558399</ele>
        <time>2022-05-22T08:33:46.937Z</time>
      </trkpt>
      <trkpt lat="44.47511" lon="1.9084">
        <ele>354.719995</ele>
        <time>2022-05-22T08:33:49.940Z</time>
      </trkpt>
      <trkpt lat="44.47501" lon="1.90843">
        <ele>354.840828</ele>
        <time>2022-05-22T08:33:51.942Z</time>
      </trkpt>
      <trkpt lat="44.47491" lon="1.90848">
        <ele>354.980217</ele>
        <time>2022-05-22T08:33:54.938Z</time>
      </trkpt>
      <trkpt lat="44.47482" lon="1.9085">
        <ele>355.094336</ele>
        <time>2022-05-22T08:33:56.943Z</time>
      </trkpt>
      <trkpt lat="44.4747" lon="1.90854">
        <ele>355.241426</ele>
        <time>2022-05-22T08:33:59.940Z</time>
      </trkpt>
      <trkpt lat="44.47458" lon="1.90858">
        <ele>355.396266</ele>
        <time>2022-05-22T08:34:02.937Z</time>
      </trkpt>
      <trkpt lat="44.47448" lon="1.90862">
        <ele>355.523841</ele>
        <time>2022-05-22T08:34:04.934Z</time>
      </trkpt>
      <trkpt lat="44.47436" lon="1.90867">
        <ele>355.683299</ele>
        <time>2022-05-22T08:34:07.937Z</time>
      </trkpt>
      <trkpt lat="44.47423" lon="1.90873">
        <ele>355.842854</ele>
        <time>2022-05-22T08:34:10.940Z</time>
      </trkpt>
      <trkpt lat="44.47414" lon="1.90878">
        <ele>355.964302</ele>
        <time>2022-05-22T08:34:12.943Z</time>
      </trkpt>
      <trkpt lat="44.47401" lon="1.90885">
        <ele>356.133938</ele>
        <time>2022-05-22T08:34:15.941Z</time>
      </trkpt>
      <trkpt lat="44.47391" lon="1.90892">
        <ele>356.139999</ele>
        <time>2022-05-22T08:34:17.942Z</time>
      </trkpt>
      <trkpt lat="44.47381" lon="1.90899">
        <ele>356.128414</ele>
        <time>2022-05-22T08:34:19.934Z</time>
      </trkpt>
      <trkpt lat="44.47372" lon="1.90905">
        <ele>356.117246</ele>
        <time>2022-05-22T08:34:21.944Z</time>
      </trkpt>
      <trkpt lat="44.47363" lon="1.90912">
        <ele>356.1068</ele>
        <time>2022-05-22T08:34:23.940Z</time>
      </trkpt>
      <trkpt lat="44.47353" lon="1.90918">
        <ele>356.094865</ele>
        <time>2022-05-22T08:34:25.607Z</time>
      </trkpt>
      <trkpt lat="44.47342" lon="1.90922">
        <ele>356.082204</ele>
        <time>2022-05-22T08:34:27.608Z</time>
      </trkpt>
      <trkpt lat="44.4733" lon="1.90926">
        <ele>356.069539</ele>
        <time>2022-05-22T08:34:29.610Z</time>
      </trkpt>
      <trkpt lat="44.47319" lon="1.90929">
        <ele>356.057517</ele>
        <time>2022-05-22T08:34:31.609Z</time>
      </trkpt>
      <trkpt lat="44.47308" lon="1.90932">
        <ele>356.04596</ele>
        <time>2022-05-22T08:34:33.863Z</time>
      </trkpt>
      <trkpt lat="44.47298" lon="1.90934">
        <ele>356.035014</ele>
        <time>2022-05-22T08:34:35.859Z</time>
      </trkpt>
      <trkpt lat="44.47288" lon="1.90935">
        <ele>356.024401</ele>
        <time>2022-05-22T08:34:37.720Z</time>
      </trkpt>
      <trkpt lat="44.47278" lon="1.90936">
        <ele>356.013576</ele>
        <time>2022-05-22T08:34:39.718Z</time>
      </trkpt>
      <trkpt lat="44.47269" lon="1.90937">
        <ele>356.003861</ele>
        <time>2022-05-22T08:34:41.726Z</time>
      </trkpt>
      <trkpt lat="44.4726" lon="1.90934">
        <ele>355.994097</ele>
        <time>2022-05-22T08:34:43.727Z</time>
      </trkpt>
      <trkpt lat="44.4725" lon="1.90934">
        <ele>355.983727</ele>
        <time>2022-05-22T08:34:45.718Z</time>
      </trkpt>
      <trkpt lat="44.4724" lon="1.90933">
        <ele>355.973156</ele>
        <time>2022-05-22T08:34:47.713Z</time>
      </trkpt>
      <trkpt lat="44.4723" lon="1.90931">
        <ele>355.961825</ele>
        <time>2022-05-22T08:34:49.719Z</time>
      </trkpt>
      <trkpt lat="44.47221" lon="1.90928">
        <ele>356.106681</ele>
        <time>2022-05-22T08:34:51.720Z</time>
      </trkpt>
      <trkpt lat="44.4721" lon="1.90924">
        <ele>356.362075</ele>
        <time>2022-05-22T08:34:53.718Z</time>
      </trkpt>
      <trkpt lat="44.47199" lon="1.9092">
        <ele>356.606262</ele>
        <time>2022-05-22T08:34:55.725Z</time>
      </trkpt>
      <trkpt lat="44.47189" lon="1.90917">
        <ele>356.845106</ele>
        <time>2022-05-22T08:34:57.731Z</time>
      </trkpt>
      <trkpt lat="44.4718" lon="1.90914">
        <ele>357.050982</ele>
        <time>2022-05-22T08:34:59.722Z</time>
      </trkpt>
      <trkpt lat="44.47169" lon="1.90917">
        <ele>357.292614</ele>
        <time>2022-05-22T08:35:02.717Z</time>
      </trkpt>
      <trkpt lat="44.47165" lon="1.90933">
        <ele>357.555323</ele>
        <time>2022-05-22T08:35:05.720Z</time>
      </trkpt>
      <trkpt lat="44.47162" lon="1.9095">
        <ele>357.834763</ele>
        <time>2022-05-22T08:35:08.722Z</time>
      </trkpt>
      <trkpt lat="44.47159" lon="1.90965">
        <ele>358.097267</ele>
        <time>2022-05-22T08:35:11.723Z</time>
      </trkpt>
      <trkpt lat="44.47155" lon="1.90981">
        <ele>358.36202</ele>
        <time>2022-05-22T08:35:14.721Z</time>
      </trkpt>
      <trkpt lat="44.47151" lon="1.90997">
        <ele>358.624648</ele>
        <time>2022-05-22T08:35:17.724Z</time>
      </trkpt>
      <trkpt lat="44.47148" lon="1.91012">
        <ele>358.875299</ele>
        <time>2022-05-22T08:35:20.710Z</time>
      </trkpt>
      <trkpt lat="44.47144" lon="1.91026">
        <ele>359.108546</ele>
        <time>2022-05-22T08:35:23.722Z</time>
      </trkpt>
      <trkpt lat="44.47141" lon="1.91039">
        <ele>359.331373</ele>
        <time>2022-05-22T08:35:26.718Z</time>
      </trkpt>
      <trkpt lat="44.47139" lon="1.91052">
        <ele>359.552945</ele>
        <time>2022-05-22T08:35:29.715Z</time>
      </trkpt>
      <trkpt lat="44.47137" lon="1.91066">
        <ele>359.768963</ele>
        <time>2022-05-22T08:35:32.722Z</time>
      </trkpt>
      <trkpt lat="44.47136" lon="1.91081">
        <ele>360.040522</ele>
        <time>2022-05-22T08:35:36.717Z</time>
      </trkpt>
      <trkpt lat="44.47133" lon="1.91095">
        <ele>360.407131</ele>
        <time>2022-05-22T08:35:40.718Z</time>
      </trkpt>
      <trkpt lat="44.47131" lon="1.91108">
        <ele>360.752194</ele>
        <time>2022-05-22T08:35:44.723Z</time>
      </trkpt>
      <trkpt lat="44.47128" lon="1.91122">
        <ele>361.141271</ele>
        <time>2022-05-22T08:35:48.731Z</time>
      </trkpt>
      <trkpt lat="44.47125" lon="1.91136">
        <ele>361.517215</ele>
        <time>2022-05-22T08:35:53.723Z</time>
      </trkpt>
      <trkpt lat="44.47122" lon="1.9115">
        <ele>361.890876</ele>
        <time>2022-05-22T08:35:57.717Z</time>
      </trkpt>
      <trkpt lat="44.47121" lon="1.91163">
        <ele>362.24285</ele>
        <time>2022-05-22T08:36:01.719Z</time>
      </trkpt>
      <trkpt lat="44.47119" lon="1.91177">
        <ele>362.616511</ele>
        <time>2022-05-22T08:36:05.716Z</time>
      </trkpt>
      <trkpt lat="44.47117" lon="1.91192">
        <ele>363.010377</ele>
        <time>2022-05-22T08:36:09.720Z</time>
      </trkpt>
      <trkpt lat="44.47118" lon="1.91207">
        <ele>363.407659</ele>
        <time>2022-05-22T08:36:14.724Z</time>
      </trkpt>
      <trkpt lat="44.47118" lon="1.9122">
        <ele>363.748384</ele>
        <time>2022-05-22T08:36:18.724Z</time>
      </trkpt>
      <trkpt lat="44.47114" lon="1.91234">
        <ele>364.134351</ele>
        <time>2022-05-22T08:36:21.720Z</time>
      </trkpt>
      <trkpt lat="44.47111" lon="1.91249">
        <ele>364.536029</ele>
        <time>2022-05-22T08:36:24.729Z</time>
      </trkpt>
      <trkpt lat="44.47108" lon="1.91263">
        <ele>364.91614</ele>
        <time>2022-05-22T08:36:27.721Z</time>
      </trkpt>
      <trkpt lat="44.47105" lon="1.91277">
        <ele>365.289802</ele>
        <time>2022-05-22T08:36:30.722Z</time>
      </trkpt>
      <trkpt lat="44.47103" lon="1.91291">
        <ele>365.684051</ele>
        <time>2022-05-22T08:36:33.723Z</time>
      </trkpt>
      <trkpt lat="44.47099" lon="1.91306">
        <ele>366.082038</ele>
        <time>2022-05-22T08:36:36.288Z</time>
      </trkpt>
      <trkpt lat="44.47097" lon="1.91321">
        <ele>366.476751</ele>
        <time>2022-05-22T08:36:39.281Z</time>
      </trkpt>
      <trkpt lat="44.47093" lon="1.91336">
        <ele>366.738811</ele>
        <time>2022-05-22T08:36:42.284Z</time>
      </trkpt>
      <trkpt lat="44.47087" lon="1.9135">
        <ele>366.982175</ele>
        <time>2022-05-22T08:36:45.282Z</time>
      </trkpt>
      <trkpt lat="44.47083" lon="1.91364">
        <ele>367.215117</ele>
        <time>2022-05-22T08:36:48.282Z</time>
      </trkpt>
      <trkpt lat="44.47077" lon="1.91379">
        <ele>367.464741</ele>
        <time>2022-05-22T08:36:51.277Z</time>
      </trkpt>
      <trkpt lat="44.47071" lon="1.91395">
        <ele>367.731191</ele>
        <time>2022-05-22T08:36:54.279Z</time>
      </trkpt>
      <trkpt lat="44.47065" lon="1.9141">
        <ele>367.992282</ele>
        <time>2022-05-22T08:36:57.285Z</time>
      </trkpt>
      <trkpt lat="44.47061" lon="1.91425">
        <ele>368.23356</ele>
        <time>2022-05-22T08:37:00.279Z</time>
      </trkpt>
      <trkpt lat="44.47058" lon="1.91439">
        <ele>368.451628</ele>
        <time>2022-05-22T08:37:03.288Z</time>
      </trkpt>
      <trkpt lat="44.47054" lon="1.91455">
        <ele>368.707685</ele>
        <time>2022-05-22T08:37:06.282Z</time>
      </trkpt>
      <trkpt lat="44.47048" lon="1.91471">
        <ele>368.974056</ele>
        <time>2022-05-22T08:37:09.279Z</time>
      </trkpt>
      <trkpt lat="44.47042" lon="1.91486">
        <ele>369.23768</ele>
        <time>2022-05-22T08:37:12.282Z</time>
      </trkpt>
      <trkpt lat="44.47038" lon="1.91501">
        <ele>369.471244</ele>
        <time>2022-05-22T08:37:15.280Z</time>
      </trkpt>
      <trkpt lat="44.47035" lon="1.91518">
        <ele>369.728169</ele>
        <time>2022-05-22T08:37:19.281Z</time>
      </trkpt>
      <trkpt lat="44.47032" lon="1.91532">
        <ele>369.954906</ele>
        <time>2022-05-22T08:37:22.277Z</time>
      </trkpt>
      <trkpt lat="44.47029" lon="1.91545">
        <ele>370.150486</ele>
        <time>2022-05-22T08:37:25.279Z</time>
      </trkpt>
      <trkpt lat="44.47025" lon="1.91559">
        <ele>370.18962</ele>
        <time>2022-05-22T08:37:28.283Z</time>
      </trkpt>
      <trkpt lat="44.47022" lon="1.91572">
        <ele>369.958901</ele>
        <time>2022-05-22T08:37:31.278Z</time>
      </trkpt>
      <trkpt lat="44.47019" lon="1.91584">
        <ele>369.744224</ele>
        <time>2022-05-22T08:37:34.280Z</time>
      </trkpt>
      <trkpt lat="44.47017" lon="1.91598">
        <ele>369.504113</ele>
        <time>2022-05-22T08:37:37.295Z</time>
      </trkpt>
      <trkpt lat="44.47012" lon="1.91612">
        <ele>369.239449</ele>
        <time>2022-05-22T08:37:40.275Z</time>
      </trkpt>
      <trkpt lat="44.47008" lon="1.91626">
        <ele>368.978689</ele>
        <time>2022-05-22T08:37:43.278Z</time>
      </trkpt>
      <trkpt lat="44.47004" lon="1.9164">
        <ele>368.727374</ele>
        <time>2022-05-22T08:37:46.284Z</time>
      </trkpt>
      <trkpt lat="44.46997" lon="1.91656">
        <ele>368.419728</ele>
        <time>2022-05-22T08:37:50.277Z</time>
      </trkpt>
      <trkpt lat="44.46992" lon="1.91671">
        <ele>368.132208</ele>
        <time>2022-05-22T08:37:53.275Z</time>
      </trkpt>
      <trkpt lat="44.46991" lon="1.91685">
        <ele>367.894499</ele>
        <time>2022-05-22T08:37:56.285Z</time>
      </trkpt>
      <trkpt lat="44.46992" lon="1.917">
        <ele>367.638015</ele>
        <time>2022-05-22T08:37:59.282Z</time>
      </trkpt>
      <trkpt lat="44.46993" lon="1.91715">
        <ele>367.378401</ele>
        <time>2022-05-22T08:38:02.277Z</time>
      </trkpt>
      <trkpt lat="44.46994" lon="1.9173">
        <ele>367.116197</ele>
        <time>2022-05-22T08:38:05.278Z</time>
      </trkpt>
      <trkpt lat="44.46995" lon="1.91747">
        <ele>366.836704</ele>
        <time>2022-05-22T08:38:08.280Z</time>
      </trkpt>
      <trkpt lat="44.46995" lon="1.9176">
        <ele>366.621322</ele>
        <time>2022-05-22T08:38:11.278Z</time>
      </trkpt>
      <trkpt lat="44.46996" lon="1.91775">
        <ele>366.356096</ele>
        <time>2022-05-22T08:38:14.282Z</time>
      </trkpt>
      <trkpt lat="44.46997" lon="1.9179">
        <ele>366.110597</ele>
        <time>2022-05-22T08:38:17.278Z</time>
      </trkpt>
      <trkpt lat="44.47001" lon="1.91805">
        <ele>366.052766</ele>
        <time>2022-05-22T08:38:20.267Z</time>
      </trkpt>
      <trkpt lat="44.47003" lon="1.91819">
        <ele>366.088095</ele>
        <time>2022-05-22T08:38:23.283Z</time>
      </trkpt>
      <trkpt lat="44.47006" lon="1.91832">
        <ele>366.124945</ele>
        <time>2022-05-22T08:38:27.283Z</time>
      </trkpt>
      <trkpt lat="44.47008" lon="1.91846">
        <ele>366.162029</ele>
        <time>2022-05-22T08:38:31.287Z</time>
      </trkpt>
      <trkpt lat="44.47011" lon="1.91861">
        <ele>366.201276</ele>
        <time>2022-05-22T08:38:35.277Z</time>
      </trkpt>
      <trkpt lat="44.47016" lon="1.91875">
        <ele>366.239782</ele>
        <time>2022-05-22T08:38:38.282Z</time>
      </trkpt>
      <trkpt lat="44.47019" lon="1.91893">
        <ele>366.287469</ele>
        <time>2022-05-22T08:38:41.282Z</time>
      </trkpt>
      <trkpt lat="44.47021" lon="1.91913">
        <ele>366.338449</ele>
        <time>2022-05-22T08:38:44.275Z</time>
      </trkpt>
      <trkpt lat="44.47022" lon="1.9193">
        <ele>366.383546</ele>
        <time>2022-05-22T08:38:47.283Z</time>
      </trkpt>
      <trkpt lat="44.47025" lon="1.91947">
        <ele>366.427832</ele>
        <time>2022-05-22T08:38:50.283Z</time>
      </trkpt>
      <trkpt lat="44.47028" lon="1.91961">
        <ele>366.465524</ele>
        <time>2022-05-22T08:38:53.279Z</time>
      </trkpt>
      <trkpt lat="44.47032" lon="1.91975">
        <ele>366.502985</ele>
        <time>2022-05-22T08:38:56.279Z</time>
      </trkpt>
      <trkpt lat="44.47035" lon="1.9199">
        <ele>366.542744</ele>
        <time>2022-05-22T08:39:01.281Z</time>
      </trkpt>
      <trkpt lat="44.47037" lon="1.92005">
        <ele>366.58234</ele>
        <time>2022-05-22T08:39:05.284Z</time>
      </trkpt>
      <trkpt lat="44.47039" lon="1.92019">
        <ele>366.619244</ele>
        <time>2022-05-22T08:39:09.280Z</time>
      </trkpt>
      <trkpt lat="44.47042" lon="1.92033">
        <ele>366.654904</ele>
        <time>2022-05-22T08:39:13.277Z</time>
      </trkpt>
      <trkpt lat="44.47045" lon="1.92044">
        <ele>366.8669</ele>
        <time>2022-05-22T08:39:17.281Z</time>
      </trkpt>
      <trkpt lat="44.47049" lon="1.92057">
        <ele>367.235248</ele>
        <time>2022-05-22T08:39:21.282Z</time>
      </trkpt>
      <trkpt lat="44.47051" lon="1.92072">
        <ele>367.638462</ele>
        <time>2022-05-22T08:39:25.285Z</time>
      </trkpt>
      <trkpt lat="44.47053" lon="1.92088">
        <ele>368.075998</ele>
        <time>2022-05-22T08:39:29.279Z</time>
      </trkpt>
      <trkpt lat="44.47055" lon="1.92103">
        <ele>368.504848</ele>
        <time>2022-05-22T08:39:33.269Z</time>
      </trkpt>
      <trkpt lat="44.47057" lon="1.92117">
        <ele>368.886538</ele>
        <time>2022-05-22T08:39:37.278Z</time>
      </trkpt>
      <trkpt lat="44.47059" lon="1.9213">
        <ele>369.240327</ele>
        <time>2022-05-22T08:39:41.281Z</time>
      </trkpt>
      <trkpt lat="44.47063" lon="1.92144">
        <ele>369.640628</ele>
        <time>2022-05-22T08:39:45.281Z</time>
      </trkpt>
      <trkpt lat="44.47066" lon="1.92159">
        <ele>370.069992</ele>
        <time>2022-05-22T08:39:49.283Z</time>
      </trkpt>
      <trkpt lat="44.47069" lon="1.92174">
        <ele>370.48542</ele>
        <time>2022-05-22T08:39:53.287Z</time>
      </trkpt>
      <trkpt lat="44.47072" lon="1.92187">
        <ele>370.847609</ele>
        <time>2022-05-22T08:39:56.281Z</time>
      </trkpt>
      <trkpt lat="44.47075" lon="1.92204">
        <ele>371.312887</ele>
        <time>2022-05-22T08:40:00.287Z</time>
      </trkpt>
      <trkpt lat="44.47078" lon="1.92217">
        <ele>371.683933</ele>
        <time>2022-05-22T08:40:03.270Z</time>
      </trkpt>
      <trkpt lat="44.47079" lon="1.92232">
        <ele>372.086091</ele>
        <time>2022-05-22T08:40:06.277Z</time>
      </trkpt>
      <trkpt lat="44.47078" lon="1.92245">
        <ele>372.458575</ele>
        <time>2022-05-22T08:40:09.286Z</time>
      </trkpt>
      <trkpt lat="44.47076" lon="1.92258">
        <ele>372.79966</ele>
        <time>2022-05-22T08:40:12.282Z</time>
      </trkpt>
      <trkpt lat="44.47071" lon="1.92269">
        <ele>373.153672</ele>
        <time>2022-05-22T08:40:15.287Z</time>
      </trkpt>
      <trkpt lat="44.47065" lon="1.92281">
        <ele>373.556166</ele>
        <time>2022-05-22T08:40:19.278Z</time>
      </trkpt>
      <trkpt lat="44.47058" lon="1.92292">
        <ele>374.025657</ele>
        <time>2022-05-22T08:40:23.280Z</time>
      </trkpt>
      <trkpt lat="44.47052" lon="1.92304">
        <ele>374.492644</ele>
        <time>2022-05-22T08:40:28.277Z</time>
      </trkpt>
      <trkpt lat="44.47047" lon="1.92315">
        <ele>374.905288</ele>
        <time>2022-05-22T08:40:32.283Z</time>
      </trkpt>
      <trkpt lat="44.47041" lon="1.92327">
        <ele>375.339438</ele>
        <time>2022-05-22T08:40:36.275Z</time>
      </trkpt>
      <trkpt lat="44.47036" lon="1.92338">
        <ele>375.763473</ele>
        <time>2022-05-22T08:40:40.277Z</time>
      </trkpt>
      <trkpt lat="44.47029" lon="1.92351">
        <ele>376.24302</ele>
        <time>2022-05-22T08:40:45.287Z</time>
      </trkpt>
      <trkpt lat="44.47023" lon="1.92362">
        <ele>376.689807</ele>
        <time>2022-05-22T08:40:49.280Z</time>
      </trkpt>
      <trkpt lat="44.47017" lon="1.92376">
        <ele>377.192107</ele>
        <time>2022-05-22T08:40:53.282Z</time>
      </trkpt>
      <trkpt lat="44.47011" lon="1.92388">
        <ele>377.664866</ele>
        <time>2022-05-22T08:40:57.277Z</time>
      </trkpt>
      <trkpt lat="44.47005" lon="1.92402">
        <ele>378.160639</ele>
        <time>2022-05-22T08:41:01.284Z</time>
      </trkpt>
      <trkpt lat="44.46999" lon="1.92416">
        <ele>378.649685</ele>
        <time>2022-05-22T08:41:05.283Z</time>
      </trkpt>
      <trkpt lat="44.46993" lon="1.92426">
        <ele>379.058753</ele>
        <time>2022-05-22T08:41:08.287Z</time>
      </trkpt>
      <trkpt lat="44.46988" lon="1.92439">
        <ele>379.542052</ele>
        <time>2022-05-22T08:41:12.282Z</time>
      </trkpt>
      <trkpt lat="44.46983" lon="1.92453">
        <ele>380.000451</ele>
        <time>2022-05-22T08:41:16.280Z</time>
      </trkpt>
      <trkpt lat="44.46977" lon="1.92464">
        <ele>380.4224</ele>
        <time>2022-05-22T08:41:20.282Z</time>
      </trkpt>
      <trkpt lat="44.46971" lon="1.92477">
        <ele>380.915905</ele>
        <time>2022-05-22T08:41:24.280Z</time>
      </trkpt>
      <trkpt lat="44.46966" lon="1.92489">
        <ele>381.327957</ele>
        <time>2022-05-22T08:41:27.282Z</time>
      </trkpt>
      <trkpt lat="44.46961" lon="1.92501">
        <ele>381.690417</ele>
        <time>2022-05-22T08:41:31.276Z</time>
      </trkpt>
      <trkpt lat="44.46955" lon="1.92513">
        <ele>382.055446</ele>
        <time>2022-05-22T08:41:34.283Z</time>
      </trkpt>
      <trkpt lat="44.46948" lon="1.92523">
        <ele>382.41624</ele>
        <time>2022-05-22T08:41:37.280Z</time>
      </trkpt>
      <trkpt lat="44.46942" lon="1.92533">
        <ele>382.765208</ele>
        <time>2022-05-22T08:41:40.281Z</time>
      </trkpt>
      <trkpt lat="44.46934" lon="1.92542">
        <ele>383.102998</ele>
        <time>2022-05-22T08:41:43.281Z</time>
      </trkpt>
      <trkpt lat="44.46928" lon="1.92551">
        <ele>383.428152</ele>
        <time>2022-05-22T08:41:46.273Z</time>
      </trkpt>
      <trkpt lat="44.46921" lon="1.92561">
        <ele>383.794293</ele>
        <time>2022-05-22T08:41:49.278Z</time>
      </trkpt>
      <trkpt lat="44.46913" lon="1.92571">
        <ele>384.17003</ele>
        <time>2022-05-22T08:41:52.280Z</time>
      </trkpt>
      <trkpt lat="44.46908" lon="1.92583">
        <ele>384.520652</ele>
        <time>2022-05-22T08:41:56.280Z</time>
      </trkpt>
      <trkpt lat="44.46901" lon="1.92595">
        <ele>384.921023</ele>
        <time>2022-05-22T08:42:00.294Z</time>
      </trkpt>
      <trkpt lat="44.46895" lon="1.92606">
        <ele>385.267986</ele>
        <time>2022-05-22T08:42:03.275Z</time>
      </trkpt>
      <trkpt lat="44.46888" lon="1.92619">
        <ele>385.695285</ele>
        <time>2022-05-22T08:42:07.282Z</time>
      </trkpt>
      <trkpt lat="44.46882" lon="1.92631">
        <ele>386.039687</ele>
        <time>2022-05-22T08:42:10.278Z</time>
      </trkpt>
      <trkpt lat="44.46876" lon="1.92642">
        <ele>386.405866</ele>
        <time>2022-05-22T08:42:13.284Z</time>
      </trkpt>
      <trkpt lat="44.4687" lon="1.92654">
        <ele>386.79374</ele>
        <time>2022-05-22T08:42:17.298Z</time>
      </trkpt>
      <trkpt lat="44.46863" lon="1.92667">
        <ele>387.192073</ele>
        <time>2022-05-22T08:42:21.280Z</time>
      </trkpt>
      <trkpt lat="44.46857" lon="1.92681">
        <ele>387.622447</ele>
        <time>2022-05-22T08:42:25.280Z</time>
      </trkpt>
      <trkpt lat="44.4685" lon="1.92693">
        <ele>387.466014</ele>
        <time>2022-05-22T08:42:29.285Z</time>
      </trkpt>
      <trkpt lat="44.46843" lon="1.92704">
        <ele>387.193304</ele>
        <time>2022-05-22T08:42:32.287Z</time>
      </trkpt>
      <trkpt lat="44.46836" lon="1.92716">
        <ele>386.880166</ele>
        <time>2022-05-22T08:42:36.281Z</time>
      </trkpt>
      <trkpt lat="44.4683" lon="1.92729">
        <ele>386.582515</ele>
        <time>2022-05-22T08:42:40.282Z</time>
      </trkpt>
      <trkpt lat="44.46825" lon="1.92739">
        <ele>386.335832</ele>
        <time>2022-05-22T08:42:43.279Z</time>
      </trkpt>
      <trkpt lat="44.46816" lon="1.92752">
        <ele>385.991432</ele>
        <time>2022-05-22T08:42:46.284Z</time>
      </trkpt>
      <trkpt lat="44.46804" lon="1.92759">
        <ele>385.648387</ele>
        <time>2022-05-22T08:42:49.280Z</time>
      </trkpt>
      <trkpt lat="44.46793" lon="1.92763">
        <ele>385.342754</ele>
        <time>2022-05-22T08:42:52.283Z</time>
      </trkpt>
      <trkpt lat="44.46782" lon="1.92769">
        <ele>385.015161</ele>
        <time>2022-05-22T08:42:55.252Z</time>
      </trkpt>
      <trkpt lat="44.4677" lon="1.92775">
        <ele>384.658682</ele>
        <time>2022-05-22T08:42:58.249Z</time>
      </trkpt>
      <trkpt lat="44.46757" lon="1.92781">
        <ele>384.299625</ele>
        <time>2022-05-22T08:43:01.249Z</time>
      </trkpt>
      <trkpt lat="44.46745" lon="1.92786">
        <ele>383.94151</ele>
        <time>2022-05-22T08:43:04.246Z</time>
      </trkpt>
      <trkpt lat="44.46734" lon="1.92794">
        <ele>383.618456</ele>
        <time>2022-05-22T08:43:07.249Z</time>
      </trkpt>
      <trkpt lat="44.46731" lon="1.92808">
        <ele>383.330184</ele>
        <time>2022-05-22T08:43:10.243Z</time>
      </trkpt>
      <trkpt lat="44.46727" lon="1.92824">
        <ele>383.020029</ele>
        <time>2022-05-22T08:43:13.250Z</time>
      </trkpt>
      <trkpt lat="44.46725" lon="1.92841">
        <ele>382.848695</ele>
        <time>2022-05-22T08:43:16.248Z</time>
      </trkpt>
      <trkpt lat="44.46724" lon="1.92855">
        <ele>382.924033</ele>
        <time>2022-05-22T08:43:18.248Z</time>
      </trkpt>
      <trkpt lat="44.46722" lon="1.92873">
        <ele>383.028918</ele>
        <time>2022-05-22T08:43:21.252Z</time>
      </trkpt>
      <trkpt lat="44.46721" lon="1.92889">
        <ele>383.123304</ele>
        <time>2022-05-22T08:43:24.247Z</time>
      </trkpt>
      <trkpt lat="44.46719" lon="1.92906">
        <ele>383.220297</ele>
        <time>2022-05-22T08:43:27.250Z</time>
      </trkpt>
      <trkpt lat="44.46714" lon="1.92922">
        <ele>383.318852</ele>
        <time>2022-05-22T08:43:30.252Z</time>
      </trkpt>
      <trkpt lat="44.46713" lon="1.92936">
        <ele>383.402919</ele>
        <time>2022-05-22T08:43:33.248Z</time>
      </trkpt>
      <trkpt lat="44.46706" lon="1.92952">
        <ele>383.507229</ele>
        <time>2022-05-22T08:43:36.259Z</time>
      </trkpt>
      <trkpt lat="44.46703" lon="1.92967">
        <ele>383.59693</ele>
        <time>2022-05-22T08:43:39.245Z</time>
      </trkpt>
      <trkpt lat="44.467" lon="1.92984">
        <ele>383.696982</ele>
        <time>2022-05-22T08:43:42.248Z</time>
      </trkpt>
      <trkpt lat="44.46696" lon="1.93">
        <ele>383.792889</ele>
        <time>2022-05-22T08:43:45.253Z</time>
      </trkpt>
      <trkpt lat="44.46693" lon="1.93016">
        <ele>383.88849</ele>
        <time>2022-05-22T08:43:48.248Z</time>
      </trkpt>
      <trkpt lat="44.46691" lon="1.93033">
        <ele>383.986188</ele>
        <time>2022-05-22T08:43:50.989Z</time>
      </trkpt>
      <trkpt lat="44.46686" lon="1.9305">
        <ele>384.08931</ele>
        <time>2022-05-22T08:43:54.007Z</time>
      </trkpt>
      <trkpt lat="44.46683" lon="1.93067">
        <ele>384.186846</ele>
        <time>2022-05-22T08:43:57.005Z</time>
      </trkpt>
      <trkpt lat="44.4668" lon="1.93081">
        <ele>384.279785</ele>
        <time>2022-05-22T08:44:00.015Z</time>
      </trkpt>
      <trkpt lat="44.46679" lon="1.93097">
        <ele>384.399103</ele>
        <time>2022-05-22T08:44:03.008Z</time>
      </trkpt>
      <trkpt lat="44.4668" lon="1.93114">
        <ele>384.519611</ele>
        <time>2022-05-22T08:44:06.014Z</time>
      </trkpt>
      <trkpt lat="44.4668" lon="1.93131">
        <ele>384.645645</ele>
        <time>2022-05-22T08:44:09.004Z</time>
      </trkpt>
      <trkpt lat="44.46675" lon="1.9315">
        <ele>384.786644</ele>
        <time>2022-05-22T08:44:12.007Z</time>
      </trkpt>
      <trkpt lat="44.46672" lon="1.93167">
        <ele>384.916246</ele>
        <time>2022-05-22T08:44:15.008Z</time>
      </trkpt>
      <trkpt lat="44.4667" lon="1.93184">
        <ele>385.041448</ele>
        <time>2022-05-22T08:44:18.008Z</time>
      </trkpt>
      <trkpt lat="44.46666" lon="1.93197">
        <ele>385.141366</ele>
        <time>2022-05-22T08:44:20.009Z</time>
      </trkpt>
      <trkpt lat="44.46663" lon="1.93215">
        <ele>385.275673</ele>
        <time>2022-05-22T08:44:23.007Z</time>
      </trkpt>
      <trkpt lat="44.46662" lon="1.93233">
        <ele>385.405905</ele>
        <time>2022-05-22T08:44:26.003Z</time>
      </trkpt>
      <trkpt lat="44.46662" lon="1.93245">
        <ele>385.499774</ele>
        <time>2022-05-22T08:44:28.009Z</time>
      </trkpt>
      <trkpt lat="44.46661" lon="1.93258">
        <ele>385.592611</ele>
        <time>2022-05-22T08:44:30.007Z</time>
      </trkpt>
      <trkpt lat="44.4666" lon="1.93271">
        <ele>385.687927</ele>
        <time>2022-05-22T08:44:32.006Z</time>
      </trkpt>
      <trkpt lat="44.46659" lon="1.93288">
        <ele>385.811327</ele>
        <time>2022-05-22T08:44:35.007Z</time>
      </trkpt>
      <trkpt lat="44.46657" lon="1.93306">
        <ele>385.941145</ele>
        <time>2022-05-22T08:44:38.008Z</time>
      </trkpt>
      <trkpt lat="44.46656" lon="1.93323">
        <ele>386.066096</ele>
        <time>2022-05-22T08:44:41.006Z</time>
      </trkpt>
      <trkpt lat="44.46656" lon="1.93339">
        <ele>386.155884</ele>
        <time>2022-05-22T08:44:44.006Z</time>
      </trkpt>
      <trkpt lat="44.46655" lon="1.93356">
        <ele>386.247567</ele>
        <time>2022-05-22T08:44:47.004Z</time>
      </trkpt>
      <trkpt lat="44.46654" lon="1.93372">
        <ele>386.332704</ele>
        <time>2022-05-22T08:44:50.006Z</time>
      </trkpt>
      <trkpt lat="44.46654" lon="1.93387">
        <ele>386.414569</ele>
        <time>2022-05-22T08:44:53.005Z</time>
      </trkpt>
      <trkpt lat="44.46652" lon="1.93404">
        <ele>386.501917</ele>
        <time>2022-05-22T08:44:56.004Z</time>
      </trkpt>
      <trkpt lat="44.46652" lon="1.9342">
        <ele>386.59069</ele>
        <time>2022-05-22T08:44:59.009Z</time>
      </trkpt>
      <trkpt lat="44.46651" lon="1.9344">
        <ele>386.696198</ele>
        <time>2022-05-22T08:45:02.004Z</time>
      </trkpt>
      <trkpt lat="44.46649" lon="1.93458">
        <ele>386.792265</ele>
        <time>2022-05-22T08:45:05.005Z</time>
      </trkpt>
      <trkpt lat="44.46648" lon="1.93472">
        <ele>386.870504</ele>
        <time>2022-05-22T08:45:08.005Z</time>
      </trkpt>
      <trkpt lat="44.46645" lon="1.93486">
        <ele>386.945162</ele>
        <time>2022-05-22T08:45:11.007Z</time>
      </trkpt>
      <trkpt lat="44.4664" lon="1.93501">
        <ele>387.035941</ele>
        <time>2022-05-22T08:45:15.010Z</time>
      </trkpt>
      <trkpt lat="44.46631" lon="1.93511">
        <ele>387.122427</ele>
        <time>2022-05-22T08:45:19.679Z</time>
      </trkpt>
      <trkpt lat="44.46624" lon="1.9352">
        <ele>387.189836</ele>
        <time>2022-05-22T08:45:22.680Z</time>
      </trkpt>
      <trkpt lat="44.46619" lon="1.93534">
        <ele>387.271163</ele>
        <time>2022-05-22T08:45:25.672Z</time>
      </trkpt>
      <trkpt lat="44.46614" lon="1.93548">
        <ele>387.357348</ele>
        <time>2022-05-22T08:45:28.672Z</time>
      </trkpt>
      <trkpt lat="44.46609" lon="1.9356">
        <ele>387.437805</ele>
        <time>2022-05-22T08:45:31.665Z</time>
      </trkpt>
      <trkpt lat="44.46605" lon="1.93573">
        <ele>387.549623</ele>
        <time>2022-05-22T08:45:34.671Z</time>
      </trkpt>
      <trkpt lat="44.46602" lon="1.93587">
        <ele>387.670607</ele>
        <time>2022-05-22T08:45:37.672Z</time>
      </trkpt>
      <trkpt lat="44.46598" lon="1.93601">
        <ele>387.792</ele>
        <time>2022-05-22T08:45:40.671Z</time>
      </trkpt>
      <trkpt lat="44.46594" lon="1.93616">
        <ele>387.917833</ele>
        <time>2022-05-22T08:45:43.673Z</time>
      </trkpt>
      <trkpt lat="44.4659" lon="1.93631">
        <ele>388.047255</ele>
        <time>2022-05-22T08:45:46.669Z</time>
      </trkpt>
      <trkpt lat="44.46585" lon="1.93645">
        <ele>388.173081</ele>
        <time>2022-05-22T08:45:49.679Z</time>
      </trkpt>
      <trkpt lat="44.4658" lon="1.93659">
        <ele>388.298165</ele>
        <time>2022-05-22T08:45:52.670Z</time>
      </trkpt>
      <trkpt lat="44.46575" lon="1.93673">
        <ele>388.42253</ele>
        <time>2022-05-22T08:45:55.669Z</time>
      </trkpt>
      <trkpt lat="44.46571" lon="1.93688">
        <ele>388.547748</ele>
        <time>2022-05-22T08:45:58.671Z</time>
      </trkpt>
      <trkpt lat="44.46566" lon="1.93702">
        <ele>388.678864</ele>
        <time>2022-05-22T08:46:01.675Z</time>
      </trkpt>
      <trkpt lat="44.4656" lon="1.93718">
        <ele>388.820167</ele>
        <time>2022-05-22T08:46:04.672Z</time>
      </trkpt>
      <trkpt lat="44.46556" lon="1.93734">
        <ele>388.956741</ele>
        <time>2022-05-22T08:46:07.674Z</time>
      </trkpt>
      <trkpt lat="44.46551" lon="1.9375">
        <ele>389.09523</ele>
        <time>2022-05-22T08:46:10.669Z</time>
      </trkpt>
      <trkpt lat="44.46546" lon="1.93765">
        <ele>389.22546</ele>
        <time>2022-05-22T08:46:13.672Z</time>
      </trkpt>
      <trkpt lat="44.46542" lon="1.9378">
        <ele>389.359274</ele>
        <time>2022-05-22T08:46:16.674Z</time>
      </trkpt>
      <trkpt lat="44.46537" lon="1.93794">
        <ele>389.493865</ele>
        <time>2022-05-22T08:46:19.664Z</time>
      </trkpt>
      <trkpt lat="44.46532" lon="1.93809">
        <ele>389.642074</ele>
        <time>2022-05-22T08:46:22.674Z</time>
      </trkpt>
      <trkpt lat="44.46527" lon="1.93825">
        <ele>389.804122</ele>
        <time>2022-05-22T08:46:25.670Z</time>
      </trkpt>
      <trkpt lat="44.46523" lon="1.93837">
        <ele>389.926889</ele>
        <time>2022-05-22T08:46:27.666Z</time>
      </trkpt>
      <trkpt lat="44.4652" lon="1.93853">
        <ele>390.083427</ele>
        <time>2022-05-22T08:46:30.669Z</time>
      </trkpt>
      <trkpt lat="44.46516" lon="1.93869">
        <ele>390.242141</ele>
        <time>2022-05-22T08:46:33.672Z</time>
      </trkpt>
      <trkpt lat="44.46512" lon="1.93885">
        <ele>390.401685</ele>
        <time>2022-05-22T08:46:36.671Z</time>
      </trkpt>
      <trkpt lat="44.46508" lon="1.93901">
        <ele>390.558848</ele>
        <time>2022-05-22T08:46:39.673Z</time>
      </trkpt>
      <trkpt lat="44.46504" lon="1.93918">
        <ele>390.72416</ele>
        <time>2022-05-22T08:46:42.667Z</time>
      </trkpt>
      <trkpt lat="44.465" lon="1.93936">
        <ele>390.893822</ele>
        <time>2022-05-22T08:46:45.672Z</time>
      </trkpt>
      <trkpt lat="44.46497" lon="1.93954">
        <ele>391.06746</ele>
        <time>2022-05-22T08:46:48.675Z</time>
      </trkpt>
      <trkpt lat="44.46493" lon="1.93971">
        <ele>391.239861</ele>
        <time>2022-05-22T08:46:51.670Z</time>
      </trkpt>
      <trkpt lat="44.4649" lon="1.93989">
        <ele>391.410463</ele>
        <time>2022-05-22T08:46:54.672Z</time>
      </trkpt>
      <trkpt lat="44.46486" lon="1.94002">
        <ele>391.539782</ele>
        <time>2022-05-22T08:46:56.668Z</time>
      </trkpt>
      <trkpt lat="44.46485" lon="1.94018">
        <ele>391.690901</ele>
        <time>2022-05-22T08:46:59.668Z</time>
      </trkpt>
      <trkpt lat="44.46482" lon="1.94035">
        <ele>391.681451</ele>
        <time>2022-05-22T08:47:02.669Z</time>
      </trkpt>
      <trkpt lat="44.46479" lon="1.94051">
        <ele>391.391913</ele>
        <time>2022-05-22T08:47:05.669Z</time>
      </trkpt>
      <trkpt lat="44.46476" lon="1.94069">
        <ele>391.086689</ele>
        <time>2022-05-22T08:47:08.674Z</time>
      </trkpt>
      <trkpt lat="44.46473" lon="1.94085">
        <ele>390.803098</ele>
        <time>2022-05-22T08:47:11.673Z</time>
      </trkpt>
      <trkpt lat="44.46471" lon="1.94102">
        <ele>390.511186</ele>
        <time>2022-05-22T08:47:14.668Z</time>
      </trkpt>
      <trkpt lat="44.46469" lon="1.94116">
        <ele>390.269214</ele>
        <time>2022-05-22T08:47:16.674Z</time>
      </trkpt>
      <trkpt lat="44.46467" lon="1.9413">
        <ele>390.016952</ele>
        <time>2022-05-22T08:47:18.670Z</time>
      </trkpt>
      <trkpt lat="44.46466" lon="1.94147">
        <ele>389.739656</ele>
        <time>2022-05-22T08:47:20.669Z</time>
      </trkpt>
      <trkpt lat="44.46464" lon="1.94166">
        <ele>389.4032</ele>
        <time>2022-05-22T08:47:22.669Z</time>
      </trkpt>
      <trkpt lat="44.46462" lon="1.94185">
        <ele>389.072892</ele>
        <time>2022-05-22T08:47:24.673Z</time>
      </trkpt>
      <trkpt lat="44.46457" lon="1.94207">
        <ele>388.690144</ele>
        <time>2022-05-22T08:47:26.673Z</time>
      </trkpt>
      <trkpt lat="44.46448" lon="1.94228">
        <ele>388.281519</ele>
        <time>2022-05-22T08:47:28.666Z</time>
      </trkpt>
      <trkpt lat="44.4644" lon="1.94249">
        <ele>387.871702</ele>
        <time>2022-05-22T08:47:30.672Z</time>
      </trkpt>
      <trkpt lat="44.46436" lon="1.94261">
        <ele>387.646416</ele>
        <time>2022-05-22T08:47:31.670Z</time>
      </trkpt>
      <trkpt lat="44.4643" lon="1.94272">
        <ele>387.339738</ele>
        <time>2022-05-22T08:47:32.674Z</time>
      </trkpt>
      <trkpt lat="44.46425" lon="1.94283">
        <ele>386.935389</ele>
        <time>2022-05-22T08:47:33.674Z</time>
      </trkpt>
      <trkpt lat="44.46418" lon="1.94294">
        <ele>386.532937</ele>
        <time>2022-05-22T08:47:34.674Z</time>
      </trkpt>
      <trkpt lat="44.46413" lon="1.94306">
        <ele>386.126905</ele>
        <time>2022-05-22T08:47:35.671Z</time>
      </trkpt>
      <trkpt lat="44.46408" lon="1.94318">
        <ele>385.705903</ele>
        <time>2022-05-22T08:47:36.669Z</time>
      </trkpt>
      <trkpt lat="44.46402" lon="1.9433">
        <ele>385.279584</ele>
        <time>2022-05-22T08:47:37.672Z</time>
      </trkpt>
      <trkpt lat="44.46396" lon="1.94343">
        <ele>384.831877</ele>
        <time>2022-05-22T08:47:38.671Z</time>
      </trkpt>
      <trkpt lat="44.4639" lon="1.94354">
        <ele>384.422512</ele>
        <time>2022-05-22T08:47:39.674Z</time>
      </trkpt>
      <trkpt lat="44.46384" lon="1.94366">
        <ele>384.003845</ele>
        <time>2022-05-22T08:47:40.669Z</time>
      </trkpt>
      <trkpt lat="44.46378" lon="1.94379">
        <ele>383.549392</ele>
        <time>2022-05-22T08:47:41.672Z</time>
      </trkpt>
      <trkpt lat="44.46372" lon="1.94391">
        <ele>383.111721</ele>
        <time>2022-05-22T08:47:42.679Z</time>
      </trkpt>
      <trkpt lat="44.46368" lon="1.94403">
        <ele>382.741305</ele>
        <time>2022-05-22T08:47:43.670Z</time>
      </trkpt>
      <trkpt lat="44.46364" lon="1.94416">
        <ele>382.329238</ele>
        <time>2022-05-22T08:47:44.672Z</time>
      </trkpt>
      <trkpt lat="44.46361" lon="1.94429">
        <ele>381.913569</ele>
        <time>2022-05-22T08:47:45.672Z</time>
      </trkpt>
      <trkpt lat="44.46359" lon="1.94443">
        <ele>381.500767</ele>
        <time>2022-05-22T08:47:46.661Z</time>
      </trkpt>
      <trkpt lat="44.46359" lon="1.94468">
        <ele>380.758511</ele>
        <time>2022-05-22T08:47:48.673Z</time>
      </trkpt>
      <trkpt lat="44.46361" lon="1.94492">
        <ele>380.151863</ele>
        <time>2022-05-22T08:47:50.678Z</time>
      </trkpt>
      <trkpt lat="44.46364" lon="1.94514">
        <ele>380.250573</ele>
        <time>2022-05-22T08:47:52.682Z</time>
      </trkpt>
      <trkpt lat="44.46367" lon="1.94534">
        <ele>380.341112</ele>
        <time>2022-05-22T08:47:54.671Z</time>
      </trkpt>
      <trkpt lat="44.46369" lon="1.94552">
        <ele>380.421698</ele>
        <time>2022-05-22T08:47:56.673Z</time>
      </trkpt>
      <trkpt lat="44.46372" lon="1.94567">
        <ele>380.491716</ele>
        <time>2022-05-22T08:47:58.673Z</time>
      </trkpt>
      <trkpt lat="44.46373" lon="1.94582">
        <ele>380.559143</ele>
        <time>2022-05-22T08:48:00.668Z</time>
      </trkpt>
      <trkpt lat="44.46373" lon="1.94595">
        <ele>380.616799</ele>
        <time>2022-05-22T08:48:02.680Z</time>
      </trkpt>
      <trkpt lat="44.46376" lon="1.94612">
        <ele>380.695338</ele>
        <time>2022-05-22T08:48:05.675Z</time>
      </trkpt>
      <trkpt lat="44.46375" lon="1.94625">
        <ele>380.754573</ele>
        <time>2022-05-22T08:48:07.674Z</time>
      </trkpt>
      <trkpt lat="44.46377" lon="1.94638">
        <ele>380.815705</ele>
        <time>2022-05-22T08:48:09.675Z</time>
      </trkpt>
      <trkpt lat="44.46376" lon="1.94652">
        <ele>380.87889</ele>
        <time>2022-05-22T08:48:11.669Z</time>
      </trkpt>
      <trkpt lat="44.46378" lon="1.94668">
        <ele>380.950805</ele>
        <time>2022-05-22T08:48:13.444Z</time>
      </trkpt>
      <trkpt lat="44.46378" lon="1.94686">
        <ele>381.02902</ele>
        <time>2022-05-22T08:48:15.445Z</time>
      </trkpt>
      <trkpt lat="44.46388" lon="1.94697">
        <ele>381.106252</ele>
        <time>2022-05-22T08:48:19.438Z</time>
      </trkpt>
      <trkpt lat="44.46398" lon="1.94698">
        <ele>381.167288</ele>
        <time>2022-05-22T08:48:21.446Z</time>
      </trkpt>
      <trkpt lat="44.46409" lon="1.94698">
        <ele>381.23677</ele>
        <time>2022-05-22T08:48:24.444Z</time>
      </trkpt>
      <trkpt lat="44.46422" lon="1.94698">
        <ele>380.956118</ele>
        <time>2022-05-22T08:48:27.447Z</time>
      </trkpt>
      <trkpt lat="44.46435" lon="1.94697">
        <ele>380.470514</ele>
        <time>2022-05-22T08:48:30.442Z</time>
      </trkpt>
      <trkpt lat="44.46446" lon="1.94698">
        <ele>380.064114</ele>
        <time>2022-05-22T08:48:33.439Z</time>
      </trkpt>
      <trkpt lat="44.46458" lon="1.94698">
        <ele>379.612614</ele>
        <time>2022-05-22T08:48:37.445Z</time>
      </trkpt>
      <trkpt lat="44.46469" lon="1.947">
        <ele>379.218467</ele>
        <time>2022-05-22T08:48:39.444Z</time>
      </trkpt>
      <trkpt lat="44.46478" lon="1.94701">
        <ele>378.865979</ele>
        <time>2022-05-22T08:48:41.440Z</time>
      </trkpt>
      <trkpt lat="44.46488" lon="1.94705">
        <ele>378.491698</ele>
        <time>2022-05-22T08:48:43.447Z</time>
      </trkpt>
      <trkpt lat="44.46497" lon="1.94709">
        <ele>378.156879</ele>
        <time>2022-05-22T08:48:45.446Z</time>
      </trkpt>
      <trkpt lat="44.46508" lon="1.94716">
        <ele>377.704589</ele>
        <time>2022-05-22T08:48:47.450Z</time>
      </trkpt>
      <trkpt lat="44.46519" lon="1.9472">
        <ele>377.299213</ele>
        <time>2022-05-22T08:48:49.444Z</time>
      </trkpt>
      <trkpt lat="44.46528" lon="1.94727">
        <ele>376.913347</ele>
        <time>2022-05-22T08:48:52.444Z</time>
      </trkpt>
      <trkpt lat="44.46535" lon="1.94735">
        <ele>376.573803</ele>
        <time>2022-05-22T08:48:55.447Z</time>
      </trkpt>
      <trkpt lat="44.46545" lon="1.94743">
        <ele>376.152111</ele>
        <time>2022-05-22T08:48:58.448Z</time>
      </trkpt>
      <trkpt lat="44.46557" lon="1.94751">
        <ele>375.689196</ele>
        <time>2022-05-22T08:49:01.436Z</time>
      </trkpt>
      <trkpt lat="44.46566" lon="1.94755">
        <ele>375.311989</ele>
        <time>2022-05-22T08:49:04.444Z</time>
      </trkpt>
      <trkpt lat="44.46578" lon="1.94763">
        <ele>374.846802</ele>
        <time>2022-05-22T08:49:07.449Z</time>
      </trkpt>
      <trkpt lat="44.46589" lon="1.94772">
        <ele>374.563315</ele>
        <time>2022-05-22T08:49:10.447Z</time>
      </trkpt>
      <trkpt lat="44.466" lon="1.94779">
        <ele>374.403782</ele>
        <time>2022-05-22T08:49:13.441Z</time>
      </trkpt>
      <trkpt lat="44.46611" lon="1.94785">
        <ele>374.237734</ele>
        <time>2022-05-22T08:49:16.445Z</time>
      </trkpt>
      <trkpt lat="44.46621" lon="1.94793">
        <ele>374.081321</ele>
        <time>2022-05-22T08:49:20.442Z</time>
      </trkpt>
      <trkpt lat="44.4663" lon="1.948">
        <ele>373.948613</ele>
        <time>2022-05-22T08:49:24.435Z</time>
      </trkpt>
      <trkpt lat="44.46641" lon="1.94804">
        <ele>373.791708</ele>
        <time>2022-05-22T08:49:28.441Z</time>
      </trkpt>
      <trkpt lat="44.46651" lon="1.94808">
        <ele>373.647794</ele>
        <time>2022-05-22T08:49:31.444Z</time>
      </trkpt>
      <trkpt lat="44.46663" lon="1.94812">
        <ele>373.481848</ele>
        <time>2022-05-22T08:49:34.446Z</time>
      </trkpt>
      <trkpt lat="44.46672" lon="1.94815">
        <ele>373.353711</ele>
        <time>2022-05-22T08:49:36.446Z</time>
      </trkpt>
      <trkpt lat="44.46683" lon="1.94819">
        <ele>373.201423</ele>
        <time>2022-05-22T08:49:38.443Z</time>
      </trkpt>
      <trkpt lat="44.46696" lon="1.94821">
        <ele>373.015042</ele>
        <time>2022-05-22T08:49:39.450Z</time>
      </trkpt>
      <trkpt lat="44.4671" lon="1.94827">
        <ele>372.819409</ele>
        <time>2022-05-22T08:49:42.445Z</time>
      </trkpt>
      <trkpt lat="44.46721" lon="1.94834">
        <ele>372.656155</ele>
        <time>2022-05-22T08:49:44.452Z</time>
      </trkpt>
      <trkpt lat="44.46734" lon="1.94837">
        <ele>372.486283</ele>
        <time>2022-05-22T08:49:46.444Z</time>
      </trkpt>
      <trkpt lat="44.46742" lon="1.94843">
        <ele>372.355041</ele>
        <time>2022-05-22T08:49:48.442Z</time>
      </trkpt>
      <trkpt lat="44.46754" lon="1.94845">
        <ele>372.299403</ele>
        <time>2022-05-22T08:49:50.433Z</time>
      </trkpt>
      <trkpt lat="44.46764" lon="1.9485">
        <ele>372.55861</ele>
        <time>2022-05-22T08:49:52.456Z</time>
      </trkpt>
      <trkpt lat="44.46775" lon="1.94854">
        <ele>372.83286</ele>
        <time>2022-05-22T08:49:55.443Z</time>
      </trkpt>
      <trkpt lat="44.46785" lon="1.94861">
        <ele>373.106717</ele>
        <time>2022-05-22T08:49:58.445Z</time>
      </trkpt>
      <trkpt lat="44.46794" lon="1.94868">
        <ele>373.375148</ele>
        <time>2022-05-22T08:50:01.446Z</time>
      </trkpt>
      <trkpt lat="44.46802" lon="1.94875">
        <ele>373.603857</ele>
        <time>2022-05-22T08:50:05.440Z</time>
      </trkpt>
      <trkpt lat="44.4681" lon="1.94883">
        <ele>373.849737</ele>
        <time>2022-05-22T08:50:08.441Z</time>
      </trkpt>
      <trkpt lat="44.46819" lon="1.94886">
        <ele>374.091436</ele>
        <time>2022-05-22T08:50:11.452Z</time>
      </trkpt>
      <trkpt lat="44.46832" lon="1.94892">
        <ele>374.428037</ele>
        <time>2022-05-22T08:50:15.441Z</time>
      </trkpt>
      <trkpt lat="44.46843" lon="1.94899">
        <ele>374.729172</ele>
        <time>2022-05-22T08:50:18.440Z</time>
      </trkpt>
      <trkpt lat="44.46854" lon="1.94905">
        <ele>375.026388</ele>
        <time>2022-05-22T08:50:21.441Z</time>
      </trkpt>
      <trkpt lat="44.46865" lon="1.94912">
        <ele>375.308361</ele>
        <time>2022-05-22T08:50:24.444Z</time>
      </trkpt>
      <trkpt lat="44.46875" lon="1.94917">
        <ele>375.586386</ele>
        <time>2022-05-22T08:50:27.445Z</time>
      </trkpt>
      <trkpt lat="44.46884" lon="1.94923">
        <ele>375.831551</ele>
        <time>2022-05-22T08:50:30.457Z</time>
      </trkpt>
      <trkpt lat="44.46894" lon="1.94929">
        <ele>376.112065</ele>
        <time>2022-05-22T08:50:33.440Z</time>
      </trkpt>
      <trkpt lat="44.46904" lon="1.94934">
        <ele>376.372878</ele>
        <time>2022-05-22T08:50:36.445Z</time>
      </trkpt>
      <trkpt lat="44.46916" lon="1.94938">
        <ele>376.661077</ele>
        <time>2022-05-22T08:50:39.207Z</time>
      </trkpt>
      <trkpt lat="44.46921" lon="1.94949">
        <ele>377.239186</ele>
        <time>2022-05-22T08:50:45.203Z</time>
      </trkpt>
      <trkpt lat="44.46922" lon="1.94962">
        <ele>377.934878</ele>
        <time>2022-05-22T08:50:50.507Z</time>
      </trkpt>
      <trkpt lat="44.46922" lon="1.94977">
        <ele>378.730605</ele>
        <time>2022-05-22T08:50:55.508Z</time>
      </trkpt>
      <trkpt lat="44.46922" lon="1.94992">
        <ele>379.495206</ele>
        <time>2022-05-22T08:51:00.507Z</time>
      </trkpt>
      <trkpt lat="44.46921" lon="1.95005">
        <ele>380.176211</ele>
        <time>2022-05-22T08:51:05.512Z</time>
      </trkpt>
      <trkpt lat="44.46921" lon="1.95017">
        <ele>380.830934</ele>
        <time>2022-05-22T08:51:10.464Z</time>
      </trkpt>
      <trkpt lat="44.4692" lon="1.9503">
        <ele>381.511619</ele>
        <time>2022-05-22T08:51:16.278Z</time>
      </trkpt>
      <trkpt lat="44.46919" lon="1.95044">
        <ele>382.217711</ele>
        <time>2022-05-22T08:51:21.280Z</time>
      </trkpt>
      <trkpt lat="44.46915" lon="1.95058">
        <ele>383.002285</ele>
        <time>2022-05-22T08:51:26.280Z</time>
      </trkpt>
      <trkpt lat="44.46915" lon="1.95072">
        <ele>383.740396</ele>
        <time>2022-05-22T08:51:32.270Z</time>
      </trkpt>
      <trkpt lat="44.46914" lon="1.95086">
        <ele>384.488935</ele>
        <time>2022-05-22T08:51:37.278Z</time>
      </trkpt>
      <trkpt lat="44.46912" lon="1.951">
        <ele>385.224664</ele>
        <time>2022-05-22T08:51:43.280Z</time>
      </trkpt>
      <trkpt lat="44.4691" lon="1.95114">
        <ele>385.964189</ele>
        <time>2022-05-22T08:51:49.276Z</time>
      </trkpt>
      <trkpt lat="44.4691" lon="1.95126">
        <ele>386.624144</ele>
        <time>2022-05-22T08:51:55.275Z</time>
      </trkpt>
      <trkpt lat="44.46906" lon="1.95138">
        <ele>387.285945</ele>
        <time>2022-05-22T08:52:01.286Z</time>
      </trkpt>
      <trkpt lat="44.469" lon="1.9515">
        <ele>388.061472</ele>
        <time>2022-05-22T08:52:07.281Z</time>
      </trkpt>
      <trkpt lat="44.46894" lon="1.95161">
        <ele>388.80737</ele>
        <time>2022-05-22T08:52:14.284Z</time>
      </trkpt>
      <trkpt lat="44.46886" lon="1.9517">
        <ele>389.526417</ele>
        <time>2022-05-22T08:52:20.503Z</time>
      </trkpt>
      <trkpt lat="44.46878" lon="1.95176">
        <ele>389.93486</ele>
        <time>2022-05-22T08:52:26.503Z</time>
      </trkpt>
      <trkpt lat="44.46868" lon="1.95182">
        <ele>390.018943</ele>
        <time>2022-05-22T08:52:31.504Z</time>
      </trkpt>
      <trkpt lat="44.46859" lon="1.9519">
        <ele>390.099368</ele>
        <time>2022-05-22T08:52:35.502Z</time>
      </trkpt>
      <trkpt lat="44.46852" lon="1.95198">
        <ele>390.174287</ele>
        <time>2022-05-22T08:52:39.501Z</time>
      </trkpt>
      <trkpt lat="44.46844" lon="1.95209">
        <ele>390.262279</ele>
        <time>2022-05-22T08:52:43.509Z</time>
      </trkpt>
      <trkpt lat="44.46838" lon="1.95222">
        <ele>390.344186</ele>
        <time>2022-05-22T08:52:47.502Z</time>
      </trkpt>
      <trkpt lat="44.46835" lon="1.95234">
        <ele>390.419579</ele>
        <time>2022-05-22T08:52:51.502Z</time>
      </trkpt>
      <trkpt lat="44.46829" lon="1.95249">
        <ele>390.511807</ele>
        <time>2022-05-22T08:52:55.504Z</time>
      </trkpt>
      <trkpt lat="44.46824" lon="1.95263">
        <ele>390.601224</ele>
        <time>2022-05-22T08:52:59.501Z</time>
      </trkpt>
      <trkpt lat="44.46821" lon="1.95275">
        <ele>390.673963</ele>
        <time>2022-05-22T08:53:04.502Z</time>
      </trkpt>
      <trkpt lat="44.46819" lon="1.95291">
        <ele>390.761413</ele>
        <time>2022-05-22T08:53:09.501Z</time>
      </trkpt>
      <trkpt lat="44.46816" lon="1.95305">
        <ele>390.843181</ele>
        <time>2022-05-22T08:53:13.503Z</time>
      </trkpt>
      <trkpt lat="44.46816" lon="1.9532">
        <ele>390.92642</ele>
        <time>2022-05-22T08:53:18.545Z</time>
      </trkpt>
      <trkpt lat="44.46815" lon="1.95333">
        <ele>391.002377</ele>
        <time>2022-05-22T08:53:22.543Z</time>
      </trkpt>
      <trkpt lat="44.46812" lon="1.95345">
        <ele>391.073559</ele>
        <time>2022-05-22T08:53:25.543Z</time>
      </trkpt>
      <trkpt lat="44.46809" lon="1.95359">
        <ele>391.154557</ele>
        <time>2022-05-22T08:53:29.543Z</time>
      </trkpt>
      <trkpt lat="44.46807" lon="1.95374">
        <ele>391.241017</ele>
        <time>2022-05-22T08:53:33.538Z</time>
      </trkpt>
      <trkpt lat="44.46804" lon="1.95389">
        <ele>391.154507</ele>
        <time>2022-05-22T08:53:37.543Z</time>
      </trkpt>
      <trkpt lat="44.46803" lon="1.95403">
        <ele>390.525328</ele>
        <time>2022-05-22T08:53:41.538Z</time>
      </trkpt>
      <trkpt lat="44.468" lon="1.95418">
        <ele>389.854105</ele>
        <time>2022-05-22T08:53:46.539Z</time>
      </trkpt>
      <trkpt lat="44.46803" lon="1.95432">
        <ele>389.251365</ele>
        <time>2022-05-22T08:53:49.546Z</time>
      </trkpt>
      <trkpt lat="44.46802" lon="1.95446">
        <ele>388.665132</ele>
        <time>2022-05-22T08:53:52.543Z</time>
      </trkpt>
      <trkpt lat="44.468" lon="1.95469">
        <ele>387.636064</ele>
        <time>2022-05-22T08:53:55.547Z</time>
      </trkpt>
      <trkpt lat="44.46801" lon="1.95484">
        <ele>386.992189</ele>
        <time>2022-05-22T08:53:57.538Z</time>
      </trkpt>
      <trkpt lat="44.46802" lon="1.95498">
        <ele>386.381264</ele>
        <time>2022-05-22T08:53:59.543Z</time>
      </trkpt>
      <trkpt lat="44.46803" lon="1.95512">
        <ele>385.791353</ele>
        <time>2022-05-22T08:54:01.542Z</time>
      </trkpt>
      <trkpt lat="44.46802" lon="1.95528">
        <ele>385.115458</ele>
        <time>2022-05-22T08:54:04.541Z</time>
      </trkpt>
      <trkpt lat="44.46799" lon="1.9554">
        <ele>384.559978</ele>
        <time>2022-05-22T08:54:07.541Z</time>
      </trkpt>
      <trkpt lat="44.46789" lon="1.95544">
        <ele>383.90168</ele>
        <time>2022-05-22T08:54:11.535Z</time>
      </trkpt>
      <trkpt lat="44.46779" lon="1.95545">
        <ele>383.316502</ele>
        <time>2022-05-22T08:54:14.546Z</time>
      </trkpt>
      <trkpt lat="44.46767" lon="1.95544">
        <ele>382.598457</ele>
        <time>2022-05-22T08:54:17.534Z</time>
      </trkpt>
      <trkpt lat="44.46754" lon="1.95544">
        <ele>381.802565</ele>
        <time>2022-05-22T08:54:20.537Z</time>
      </trkpt>
      <trkpt lat="44.46743" lon="1.95543">
        <ele>381.132497</ele>
        <time>2022-05-22T08:54:23.540Z</time>
      </trkpt>
      <trkpt lat="44.46732" lon="1.95545">
        <ele>380.512714</ele>
        <time>2022-05-22T08:54:26.540Z</time>
      </trkpt>
      <trkpt lat="44.46723" lon="1.95554">
        <ele>380.241586</ele>
        <time>2022-05-22T08:54:29.542Z</time>
      </trkpt>
      <trkpt lat="44.46718" lon="1.95565">
        <ele>380.04377</ele>
        <time>2022-05-22T08:54:32.551Z</time>
      </trkpt>
      <trkpt lat="44.46717" lon="1.9558">
        <ele>379.821222</ele>
        <time>2022-05-22T08:54:35.544Z</time>
      </trkpt>
      <trkpt lat="44.46718" lon="1.95595">
        <ele>379.611797</ele>
        <time>2022-05-22T08:54:38.536Z</time>
      </trkpt>
      <trkpt lat="44.46717" lon="1.95608">
        <ele>379.40894</ele>
        <time>2022-05-22T08:54:39.541Z</time>
      </trkpt>
      <trkpt lat="44.46716" lon="1.95621">
        <ele>379.218502</ele>
        <time>2022-05-22T08:54:41.540Z</time>
      </trkpt>
      <trkpt lat="44.46717" lon="1.95639">
        <ele>378.959482</ele>
        <time>2022-05-22T08:54:44.538Z</time>
      </trkpt>
      <trkpt lat="44.46716" lon="1.95652">
        <ele>378.767319</ele>
        <time>2022-05-22T08:54:47.018Z</time>
      </trkpt>
      <trkpt lat="44.46715" lon="1.9567">
        <ele>378.497169</ele>
        <time>2022-05-22T08:54:49.554Z</time>
      </trkpt>
      <trkpt lat="44.46714" lon="1.95684">
        <ele>378.296355</ele>
        <time>2022-05-22T08:54:51.542Z</time>
      </trkpt>
      <trkpt lat="44.46713" lon="1.95697">
        <ele>378.111178</ele>
        <time>2022-05-22T08:54:53.537Z</time>
      </trkpt>
      <trkpt lat="44.46712" lon="1.9571">
        <ele>377.911415</ele>
        <time>2022-05-22T08:54:55.536Z</time>
      </trkpt>
      <trkpt lat="44.46712" lon="1.95724">
        <ele>377.710193</ele>
        <time>2022-05-22T08:54:57.542Z</time>
      </trkpt>
      <trkpt lat="44.46712" lon="1.95737">
        <ele>377.515486</ele>
        <time>2022-05-22T08:54:59.542Z</time>
      </trkpt>
      <trkpt lat="44.46711" lon="1.95751">
        <ele>377.314766</ele>
        <time>2022-05-22T08:55:01.542Z</time>
      </trkpt>
      <trkpt lat="44.4671" lon="1.95764">
        <ele>377.118767</ele>
        <time>2022-05-22T08:55:03.545Z</time>
      </trkpt>
      <trkpt lat="44.46709" lon="1.95778">
        <ele>376.913804</ele>
        <time>2022-05-22T08:55:05.539Z</time>
      </trkpt>
      <trkpt lat="44.46708" lon="1.95792">
        <ele>376.907029</ele>
        <time>2022-05-22T08:55:07.539Z</time>
      </trkpt>
      <trkpt lat="44.46706" lon="1.95811">
        <ele>377.455056</ele>
        <time>2022-05-22T08:55:10.546Z</time>
      </trkpt>
      <trkpt lat="44.46705" lon="1.95827">
        <ele>377.950136</ele>
        <time>2022-05-22T08:55:13.538Z</time>
      </trkpt>
      <trkpt lat="44.46705" lon="1.95842">
        <ele>378.404508</ele>
        <time>2022-05-22T08:55:16.544Z</time>
      </trkpt>
      <trkpt lat="44.46704" lon="1.95858">
        <ele>378.866004</ele>
        <time>2022-05-22T08:55:19.539Z</time>
      </trkpt>
      <trkpt lat="44.46703" lon="1.95873">
        <ele>379.328174</ele>
        <time>2022-05-22T08:55:22.541Z</time>
      </trkpt>
      <trkpt lat="44.46701" lon="1.95889">
        <ele>379.790936</ele>
        <time>2022-05-22T08:55:25.531Z</time>
      </trkpt>
      <trkpt lat="44.46701" lon="1.95904">
        <ele>380.24947</ele>
        <time>2022-05-22T08:55:28.538Z</time>
      </trkpt>
      <trkpt lat="44.467" lon="1.95919">
        <ele>380.68761</ele>
        <time>2022-05-22T08:55:31.539Z</time>
      </trkpt>
      <trkpt lat="44.46698" lon="1.95934">
        <ele>381.130432</ele>
        <time>2022-05-22T08:55:34.538Z</time>
      </trkpt>
      <trkpt lat="44.46696" lon="1.95948">
        <ele>381.560254</ele>
        <time>2022-05-22T08:55:37.540Z</time>
      </trkpt>
      <trkpt lat="44.46695" lon="1.95962">
        <ele>381.979775</ele>
        <time>2022-05-22T08:55:40.535Z</time>
      </trkpt>
      <trkpt lat="44.46692" lon="1.95975">
        <ele>382.381411</ele>
        <time>2022-05-22T08:55:43.537Z</time>
      </trkpt>
      <trkpt lat="44.46687" lon="1.9599">
        <ele>382.872148</ele>
        <time>2022-05-22T08:55:47.106Z</time>
      </trkpt>
      <trkpt lat="44.46683" lon="1.96002">
        <ele>383.264886</ele>
        <time>2022-05-22T08:55:51.101Z</time>
      </trkpt>
      <trkpt lat="44.46679" lon="1.96013">
        <ele>383.647108</ele>
        <time>2022-05-22T08:55:55.109Z</time>
      </trkpt>
      <trkpt lat="44.46675" lon="1.96026">
        <ele>384.058822</ele>
        <time>2022-05-22T08:56:00.061Z</time>
      </trkpt>
      <trkpt lat="44.4667" lon="1.96039">
        <ele>384.336485</ele>
        <time>2022-05-22T08:56:05.263Z</time>
      </trkpt>
      <trkpt lat="44.46665" lon="1.96052">
        <ele>384.48628</ele>
        <time>2022-05-22T08:56:10.261Z</time>
      </trkpt>
      <trkpt lat="44.4666" lon="1.96066">
        <ele>384.638937</ele>
        <time>2022-05-22T08:56:15.260Z</time>
      </trkpt>
      <trkpt lat="44.46655" lon="1.9608">
        <ele>384.789477</ele>
        <time>2022-05-22T08:56:20.254Z</time>
      </trkpt>
      <trkpt lat="44.4665" lon="1.9609">
        <ele>384.914758</ele>
        <time>2022-05-22T08:56:24.252Z</time>
      </trkpt>
      <trkpt lat="44.46645" lon="1.96103">
        <ele>385.051353</ele>
        <time>2022-05-22T08:56:29.259Z</time>
      </trkpt>
      <trkpt lat="44.46644" lon="1.96116">
        <ele>385.188757</ele>
        <time>2022-05-22T08:56:33.256Z</time>
      </trkpt>
      <trkpt lat="44.46643" lon="1.96132">
        <ele>385.340665</ele>
        <time>2022-05-22T08:56:38.264Z</time>
      </trkpt>
      <trkpt lat="44.46644" lon="1.96146">
        <ele>385.477946</ele>
        <time>2022-05-22T08:56:43.393Z</time>
      </trkpt>
      <trkpt lat="44.46637" lon="1.96155">
        <ele>385.609588</ele>
        <time>2022-05-22T08:56:48.265Z</time>
      </trkpt>
      <trkpt lat="44.46631" lon="1.96168">
        <ele>385.758523</ele>
        <time>2022-05-22T08:56:53.255Z</time>
      </trkpt>
      <trkpt lat="44.46629" lon="1.96182">
        <ele>385.902462</ele>
        <time>2022-05-22T08:56:57.259Z</time>
      </trkpt>
      <trkpt lat="44.46633" lon="1.96198">
        <ele>386.06753</ele>
        <time>2022-05-22T08:57:01.257Z</time>
      </trkpt>
      <trkpt lat="44.46634" lon="1.9621">
        <ele>386.191938</ele>
        <time>2022-05-22T08:57:04.256Z</time>
      </trkpt>
      <trkpt lat="44.46636" lon="1.96227">
        <ele>386.356103</ele>
        <time>2022-05-22T08:57:07.259Z</time>
      </trkpt>
      <trkpt lat="44.46641" lon="1.96239">
        <ele>386.495964</ele>
        <time>2022-05-22T08:57:09.254Z</time>
      </trkpt>
      <trkpt lat="44.46645" lon="1.96254">
        <ele>386.652065</ele>
        <time>2022-05-22T08:57:11.261Z</time>
      </trkpt>
      <trkpt lat="44.46647" lon="1.96269">
        <ele>386.655105</ele>
        <time>2022-05-22T08:57:13.256Z</time>
      </trkpt>
      <trkpt lat="44.46649" lon="1.96286">
        <ele>386.398527</ele>
        <time>2022-05-22T08:57:15.258Z</time>
      </trkpt>
      <trkpt lat="44.46648" lon="1.96303">
        <ele>386.139344</ele>
        <time>2022-05-22T08:57:17.258Z</time>
      </trkpt>
      <trkpt lat="44.46648" lon="1.96319">
        <ele>385.890747</ele>
        <time>2022-05-22T08:57:19.258Z</time>
      </trkpt>
      <trkpt lat="44.46652" lon="1.96339">
        <ele>385.591152</ele>
        <time>2022-05-22T08:57:21.254Z</time>
      </trkpt>
      <trkpt lat="44.46657" lon="1.96359">
        <ele>385.270495</ele>
        <time>2022-05-22T08:57:23.258Z</time>
      </trkpt>
      <trkpt lat="44.46661" lon="1.9638">
        <ele>384.939613</ele>
        <time>2022-05-22T08:57:25.256Z</time>
      </trkpt>
      <trkpt lat="44.46665" lon="1.96398">
        <ele>384.653544</ele>
        <time>2022-05-22T08:57:27.263Z</time>
      </trkpt>
      <trkpt lat="44.46669" lon="1.96414">
        <ele>384.393191</ele>
        <time>2022-05-22T08:57:29.263Z</time>
      </trkpt>
      <trkpt lat="44.46673" lon="1.96427">
        <ele>384.194557</ele>
        <time>2022-05-22T08:57:31.263Z</time>
      </trkpt>
      <trkpt lat="44.46678" lon="1.96438">
        <ele>383.990742</ele>
        <time>2022-05-22T08:57:34.264Z</time>
      </trkpt>
      <trkpt lat="44.46683" lon="1.9645">
        <ele>383.77336</ele>
        <time>2022-05-22T08:57:38.264Z</time>
      </trkpt>
      <trkpt lat="44.46687" lon="1.96463">
        <ele>383.558145</ele>
        <time>2022-05-22T08:57:42.253Z</time>
      </trkpt>
      <trkpt lat="44.46692" lon="1.96477">
        <ele>383.32074</ele>
        <time>2022-05-22T08:57:46.258Z</time>
      </trkpt>
      <trkpt lat="44.46698" lon="1.96489">
        <ele>383.098782</ele>
        <time>2022-05-22T08:57:50.267Z</time>
      </trkpt>
      <trkpt lat="44.46704" lon="1.96501">
        <ele>382.959646</ele>
        <time>2022-05-22T08:57:54.259Z</time>
      </trkpt>
      <trkpt lat="44.4671" lon="1.96514">
        <ele>383.003345</ele>
        <time>2022-05-22T08:57:58.262Z</time>
      </trkpt>
      <trkpt lat="44.46717" lon="1.96527">
        <ele>383.053664</ele>
        <time>2022-05-22T08:58:03.270Z</time>
      </trkpt>
      <trkpt lat="44.46723" lon="1.96538">
        <ele>383.09536</ele>
        <time>2022-05-22T08:58:07.281Z</time>
      </trkpt>
      <trkpt lat="44.4673" lon="1.9655">
        <ele>383.142451</ele>
        <time>2022-05-22T08:58:12.260Z</time>
      </trkpt>
      <trkpt lat="44.46736" lon="1.9656">
        <ele>383.183555</ele>
        <time>2022-05-22T08:58:16.257Z</time>
      </trkpt>
      <trkpt lat="44.46741" lon="1.96572">
        <ele>383.225902</ele>
        <time>2022-05-22T08:58:21.256Z</time>
      </trkpt>
      <trkpt lat="44.46747" lon="1.96584">
        <ele>383.269831</ele>
        <time>2022-05-22T08:58:26.257Z</time>
      </trkpt>
      <trkpt lat="44.46744" lon="1.96597">
        <ele>383.311649</ele>
        <time>2022-05-22T08:58:30.256Z</time>
      </trkpt>
      <trkpt lat="44.46737" lon="1.96609">
        <ele>383.358648</ele>
        <time>2022-05-22T08:58:34.256Z</time>
      </trkpt>
      <trkpt lat="44.46733" lon="1.96623">
        <ele>383.404034</ele>
        <time>2022-05-22T08:58:38.261Z</time>
      </trkpt>
      <trkpt lat="44.46732" lon="1.96637">
        <ele>383.446813</ele>
        <time>2022-05-22T08:58:42.258Z</time>
      </trkpt>
      <trkpt lat="44.46726" lon="1.9665">
        <ele>383.492563</ele>
        <time>2022-05-22T08:58:45.258Z</time>
      </trkpt>
      <trkpt lat="44.46722" lon="1.96663">
        <ele>383.536184</ele>
        <time>2022-05-22T08:58:48.261Z</time>
      </trkpt>
      <trkpt lat="44.46721" lon="1.96677">
        <ele>383.577356</ele>
        <time>2022-05-22T08:58:51.255Z</time>
      </trkpt>
      <trkpt lat="44.46722" lon="1.96692">
        <ele>383.622935</ele>
        <time>2022-05-22T08:58:55.255Z</time>
      </trkpt>
      <trkpt lat="44.46721" lon="1.96706">
        <ele>383.668172</ele>
        <time>2022-05-22T08:58:58.257Z</time>
      </trkpt>
      <trkpt lat="44.46722" lon="1.9672">
        <ele>383.709412</ele>
        <time>2022-05-22T08:59:01.255Z</time>
      </trkpt>
      <trkpt lat="44.46726" lon="1.96736">
        <ele>383.556026</ele>
        <time>2022-05-22T08:59:04.257Z</time>
      </trkpt>
      <trkpt lat="44.4673" lon="1.9675">
        <ele>383.419134</ele>
        <time>2022-05-22T08:59:06.255Z</time>
      </trkpt>
      <trkpt lat="44.46732" lon="1.96765">
        <ele>383.277816</ele>
        <time>2022-05-22T08:59:08.257Z</time>
      </trkpt>
      <trkpt lat="44.46732" lon="1.96781">
        <ele>383.132759</ele>
        <time>2022-05-22T08:59:10.256Z</time>
      </trkpt>
      <trkpt lat="44.46735" lon="1.96794">
        <ele>383.011118</ele>
        <time>2022-05-22T08:59:12.248Z</time>
      </trkpt>
      <trkpt lat="44.4674" lon="1.96811">
        <ele>382.836788</ele>
        <time>2022-05-22T08:59:14.270Z</time>
      </trkpt>
      <trkpt lat="44.46744" lon="1.96828">
        <ele>382.678632</ele>
        <time>2022-05-22T08:59:16.258Z</time>
      </trkpt>
      <trkpt lat="44.46749" lon="1.96846">
        <ele>382.503518</ele>
        <time>2022-05-22T08:59:18.260Z</time>
      </trkpt>
      <trkpt lat="44.46753" lon="1.96861">
        <ele>382.353437</ele>
        <time>2022-05-22T08:59:20.262Z</time>
      </trkpt>
      <trkpt lat="44.4676" lon="1.96873">
        <ele>382.204972</ele>
        <time>2022-05-22T08:59:23.256Z</time>
      </trkpt>
      <trkpt lat="44.46771" lon="1.96874">
        <ele>382.066138</ele>
        <time>2022-05-22T08:59:26.260Z</time>
      </trkpt>
      <trkpt lat="44.4678" lon="1.96874">
        <ele>381.946741</ele>
        <time>2022-05-22T08:59:29.255Z</time>
      </trkpt>
      <trkpt lat="44.4679" lon="1.96872">
        <ele>381.819056</ele>
        <time>2022-05-22T08:59:33.260Z</time>
      </trkpt>
      <trkpt lat="44.46801" lon="1.96871">
        <ele>381.684797</ele>
        <time>2022-05-22T08:59:37.265Z</time>
      </trkpt>
      <trkpt lat="44.4681" lon="1.96872">
        <ele>381.568381</ele>
        <time>2022-05-22T08:59:40.251Z</time>
      </trkpt>
      <trkpt lat="44.46819" lon="1.96872">
        <ele>381.450266</ele>
        <time>2022-05-22T08:59:44.256Z</time>
      </trkpt>
      <trkpt lat="44.46828" lon="1.96869">
        <ele>381.617121</ele>
        <time>2022-05-22T08:59:49.266Z</time>
      </trkpt>
      <trkpt lat="44.46838" lon="1.96865">
        <ele>381.999021</ele>
        <time>2022-05-22T08:59:53.260Z</time>
      </trkpt>
      <trkpt lat="44.46849" lon="1.96865">
        <ele>382.405407</ele>
        <time>2022-05-22T08:59:58.262Z</time>
      </trkpt>
      <trkpt lat="44.46859" lon="1.96863">
        <ele>382.789606</ele>
        <time>2022-05-22T09:00:02.266Z</time>
      </trkpt>
      <trkpt lat="44.4687" lon="1.96862">
        <ele>383.212068</ele>
        <time>2022-05-22T09:00:06.259Z</time>
      </trkpt>
      <trkpt lat="44.4688" lon="1.96859">
        <ele>383.598466</ele>
        <time>2022-05-22T09:00:09.262Z</time>
      </trkpt>
      <trkpt lat="44.46891" lon="1.96858">
        <ele>383.990538</ele>
        <time>2022-05-22T09:00:13.260Z</time>
      </trkpt>
      <trkpt lat="44.46902" lon="1.96855">
        <ele>384.427801</ele>
        <time>2022-05-22T09:00:17.255Z</time>
      </trkpt>
      <trkpt lat="44.46912" lon="1.96855">
        <ele>384.796903</ele>
        <time>2022-05-22T09:00:20.253Z</time>
      </trkpt>
      <trkpt lat="44.4692" lon="1.96851">
        <ele>385.140605</ele>
        <time>2022-05-22T09:00:23.259Z</time>
      </trkpt>
      <trkpt lat="44.46932" lon="1.96846">
        <ele>385.602939</ele>
        <time>2022-05-22T09:00:27.261Z</time>
      </trkpt>
      <trkpt lat="44.46941" lon="1.96846">
        <ele>385.949955</ele>
        <time>2022-05-22T09:00:30.260Z</time>
      </trkpt>
      <trkpt lat="44.46953" lon="1.96847">
        <ele>386.387622</ele>
        <time>2022-05-22T09:00:33.261Z</time>
      </trkpt>
      <trkpt lat="44.46963" lon="1.96847">
        <ele>386.760144</ele>
        <time>2022-05-22T09:00:36.262Z</time>
      </trkpt>
      <trkpt lat="44.46973" lon="1.96845">
        <ele>387.127651</ele>
        <time>2022-05-22T09:00:39.257Z</time>
      </trkpt>
      <trkpt lat="44.46983" lon="1.96843">
        <ele>387.517588</ele>
        <time>2022-05-22T09:00:45.257Z</time>
      </trkpt>
      <trkpt lat="44.46992" lon="1.96842">
        <ele>387.858951</ele>
        <time>2022-05-22T09:00:49.258Z</time>
      </trkpt>
      <trkpt lat="44.47003" lon="1.96836">
        <ele>387.99592</ele>
        <time>2022-05-22T09:00:53.255Z</time>
      </trkpt>
      <trkpt lat="44.47013" lon="1.96836">
        <ele>387.490489</ele>
        <time>2022-05-22T09:00:56.256Z</time>
      </trkpt>
      <trkpt lat="44.47031" lon="1.96837">
        <ele>386.570153</ele>
        <time>2022-05-22T09:00:59.256Z</time>
      </trkpt>
      <trkpt lat="44.47042" lon="1.96835">
        <ele>386.020004</ele>
        <time>2022-05-22T09:01:02.256Z</time>
      </trkpt>
      <trkpt lat="44.47052" lon="1.96832">
        <ele>385.489234</ele>
        <time>2022-05-22T09:01:05.261Z</time>
      </trkpt>
      <trkpt lat="44.47066" lon="1.9683">
        <ele>384.794955</ele>
        <time>2022-05-22T09:01:08.258Z</time>
      </trkpt>
      <trkpt lat="44.47079" lon="1.96831">
        <ele>384.137806</ele>
        <time>2022-05-22T09:01:11.260Z</time>
      </trkpt>
      <trkpt lat="44.47091" lon="1.96833">
        <ele>383.525144</ele>
        <time>2022-05-22T09:01:13.254Z</time>
      </trkpt>
      <trkpt lat="44.47102" lon="1.96837">
        <ele>382.919703</ele>
        <time>2022-05-22T09:01:16.255Z</time>
      </trkpt>
      <trkpt lat="44.47114" lon="1.96838">
        <ele>382.312115</ele>
        <time>2022-05-22T09:01:19.259Z</time>
      </trkpt>
      <trkpt lat="44.47125" lon="1.96839">
        <ele>381.774311</ele>
        <time>2022-05-22T09:01:22.258Z</time>
      </trkpt>
      <trkpt lat="44.47134" lon="1.96841">
        <ele>381.299953</ele>
        <time>2022-05-22T09:01:24.256Z</time>
      </trkpt>
      <trkpt lat="44.47144" lon="1.96846">
        <ele>380.772788</ele>
        <time>2022-05-22T09:01:26.259Z</time>
      </trkpt>
      <trkpt lat="44.47153" lon="1.96851">
        <ele>380.308805</ele>
        <time>2022-05-22T09:01:28.260Z</time>
      </trkpt>
      <trkpt lat="44.47162" lon="1.96853">
        <ele>379.847049</ele>
        <time>2022-05-22T09:01:30.258Z</time>
      </trkpt>
      <trkpt lat="44.47173" lon="1.96859">
        <ele>379.219552</ele>
        <time>2022-05-22T09:01:33.261Z</time>
      </trkpt>
      <trkpt lat="44.47183" lon="1.96865">
        <ele>378.784105</ele>
        <time>2022-05-22T09:01:36.255Z</time>
      </trkpt>
      <trkpt lat="44.47195" lon="1.96868">
        <ele>378.350526</ele>
        <time>2022-05-22T09:01:40.260Z</time>
      </trkpt>
      <trkpt lat="44.47205" lon="1.96873">
        <ele>377.973786</ele>
        <time>2022-05-22T09:01:43.261Z</time>
      </trkpt>
      <trkpt lat="44.47216" lon="1.96879">
        <ele>377.545246</ele>
        <time>2022-05-22T09:01:46.258Z</time>
      </trkpt>
      <trkpt lat="44.47227" lon="1.96883">
        <ele>377.141471</ele>
        <time>2022-05-22T09:01:49.257Z</time>
      </trkpt>
      <trkpt lat="44.47238" lon="1.96888">
        <ele>376.714906</ele>
        <time>2022-05-22T09:01:52.256Z</time>
      </trkpt>
      <trkpt lat="44.47249" lon="1.96895">
        <ele>376.250366</ele>
        <time>2022-05-22T09:01:56.254Z</time>
      </trkpt>
      <trkpt lat="44.4726" lon="1.969">
        <ele>375.86162</ele>
        <time>2022-05-22T09:01:59.262Z</time>
      </trkpt>
      <trkpt lat="44.47269" lon="1.96904">
        <ele>375.498512</ele>
        <time>2022-05-22T09:02:02.259Z</time>
      </trkpt>
      <trkpt lat="44.47277" lon="1.9691">
        <ele>375.159622</ele>
        <time>2022-05-22T09:02:05.261Z</time>
      </trkpt>
      <trkpt lat="44.47289" lon="1.96916">
        <ele>374.709715</ele>
        <time>2022-05-22T09:02:08.259Z</time>
      </trkpt>
      <trkpt lat="44.47299" lon="1.96918">
        <ele>374.326355</ele>
        <time>2022-05-22T09:02:11.257Z</time>
      </trkpt>
      <trkpt lat="44.47311" lon="1.96922">
        <ele>373.885393</ele>
        <time>2022-05-22T09:02:14.262Z</time>
      </trkpt>
      <trkpt lat="44.47321" lon="1.96923">
        <ele>373.534061</ele>
        <time>2022-05-22T09:02:16.261Z</time>
      </trkpt>
      <trkpt lat="44.47331" lon="1.96926">
        <ele>373.169757</ele>
        <time>2022-05-22T09:02:19.253Z</time>
      </trkpt>
      <trkpt lat="44.47342" lon="1.96928">
        <ele>372.771398</ele>
        <time>2022-05-22T09:02:21.260Z</time>
      </trkpt>
      <trkpt lat="44.47354" lon="1.96929">
        <ele>372.248654</ele>
        <time>2022-05-22T09:02:24.252Z</time>
      </trkpt>
      <trkpt lat="44.47368" lon="1.96928">
        <ele>371.637989</ele>
        <time>2022-05-22T09:02:27.258Z</time>
      </trkpt>
      <trkpt lat="44.47378" lon="1.96926">
        <ele>371.1999</ele>
        <time>2022-05-22T09:02:29.264Z</time>
      </trkpt>
      <trkpt lat="44.47388" lon="1.96928">
        <ele>370.752976</ele>
        <time>2022-05-22T09:02:31.258Z</time>
      </trkpt>
      <trkpt lat="44.47398" lon="1.96928">
        <ele>370.29077</ele>
        <time>2022-05-22T09:02:33.262Z</time>
      </trkpt>
      <trkpt lat="44.47411" lon="1.96927">
        <ele>369.729552</ele>
        <time>2022-05-22T09:02:35.259Z</time>
      </trkpt>
      <trkpt lat="44.47422" lon="1.96926">
        <ele>369.222941</ele>
        <time>2022-05-22T09:02:37.259Z</time>
      </trkpt>
      <trkpt lat="44.47434" lon="1.96925">
        <ele>368.683656</ele>
        <time>2022-05-22T09:02:39.260Z</time>
      </trkpt>
      <trkpt lat="44.47448" lon="1.96924">
        <ele>368.060352</ele>
        <time>2022-05-22T09:02:41.258Z</time>
      </trkpt>
      <trkpt lat="44.47461" lon="1.96923">
        <ele>367.520815</ele>
        <time>2022-05-22T09:02:43.256Z</time>
      </trkpt>
      <trkpt lat="44.47472" lon="1.96921">
        <ele>366.994286</ele>
        <time>2022-05-22T09:02:45.261Z</time>
      </trkpt>
      <trkpt lat="44.47483" lon="1.96919">
        <ele>366.519791</ele>
        <time>2022-05-22T09:02:47.261Z</time>
      </trkpt>
      <trkpt lat="44.47493" lon="1.96918">
        <ele>366.063323</ele>
        <time>2022-05-22T09:02:49.263Z</time>
      </trkpt>
      <trkpt lat="44.47503" lon="1.96917">
        <ele>365.640858</ele>
        <time>2022-05-22T09:02:51.258Z</time>
      </trkpt>
      <trkpt lat="44.47513" lon="1.96916">
        <ele>365.193934</ele>
        <time>2022-05-22T09:02:53.258Z</time>
      </trkpt>
      <trkpt lat="44.47523" lon="1.96915">
        <ele>364.753888</ele>
        <time>2022-05-22T09:02:55.258Z</time>
      </trkpt>
      <trkpt lat="44.47533" lon="1.96916">
        <ele>364.551138</ele>
        <time>2022-05-22T09:02:57.265Z</time>
      </trkpt>
      <trkpt lat="44.47543" lon="1.96916">
        <ele>364.56283</ele>
        <time>2022-05-22T09:02:59.258Z</time>
      </trkpt>
      <trkpt lat="44.47552" lon="1.96916">
        <ele>364.57428</ele>
        <time>2022-05-22T09:03:01.259Z</time>
      </trkpt>
      <trkpt lat="44.47561" lon="1.96914">
        <ele>364.585381</ele>
        <time>2022-05-22T09:03:03.257Z</time>
      </trkpt>
      <trkpt lat="44.47571" lon="1.96915">
        <ele>364.597316</ele>
        <time>2022-05-22T09:03:06.261Z</time>
      </trkpt>
      <trkpt lat="44.47582" lon="1.96913">
        <ele>364.609815</ele>
        <time>2022-05-22T09:03:08.257Z</time>
      </trkpt>
      <trkpt lat="44.47591" lon="1.96911">
        <ele>364.621595</ele>
        <time>2022-05-22T09:03:10.262Z</time>
      </trkpt>
      <trkpt lat="44.47601" lon="1.96911">
        <ele>364.632824</ele>
        <time>2022-05-22T09:03:12.255Z</time>
      </trkpt>
      <trkpt lat="44.47613" lon="1.96907">
        <ele>364.648203</ele>
        <time>2022-05-22T09:03:15.256Z</time>
      </trkpt>
      <trkpt lat="44.47624" lon="1.96904">
        <ele>364.66178</ele>
        <time>2022-05-22T09:03:18.262Z</time>
      </trkpt>
      <trkpt lat="44.47633" lon="1.96904">
        <ele>364.67287</ele>
        <time>2022-05-22T09:03:20.255Z</time>
      </trkpt>
      <trkpt lat="44.47646" lon="1.96903">
        <ele>364.688204</ele>
        <time>2022-05-22T09:03:23.256Z</time>
      </trkpt>
      <trkpt lat="44.47656" lon="1.96903">
        <ele>364.700135</ele>
        <time>2022-05-22T09:03:25.256Z</time>
      </trkpt>
      <trkpt lat="44.47666" lon="1.969">
        <ele>364.711902</ele>
        <time>2022-05-22T09:03:27.255Z</time>
      </trkpt>
      <trkpt lat="44.47678" lon="1.96899">
        <ele>364.726909</ele>
        <time>2022-05-22T09:03:30.259Z</time>
      </trkpt>
      <trkpt lat="44.47691" lon="1.96897">
        <ele>364.74233</ele>
        <time>2022-05-22T09:03:33.264Z</time>
      </trkpt>
      <trkpt lat="44.47704" lon="1.96897">
        <ele>364.7586</ele>
        <time>2022-05-22T09:03:36.258Z</time>
      </trkpt>
      <trkpt lat="44.47716" lon="1.96902">
        <ele>364.797254</ele>
        <time>2022-05-22T09:03:39.258Z</time>
      </trkpt>
      <trkpt lat="44.4773" lon="1.96906">
        <ele>364.848169</ele>
        <time>2022-05-22T09:03:42.262Z</time>
      </trkpt>
      <trkpt lat="44.47742" lon="1.96906">
        <ele>364.88952</ele>
        <time>2022-05-22T09:03:45.268Z</time>
      </trkpt>
      <trkpt lat="44.47754" lon="1.96906">
        <ele>364.930522</ele>
        <time>2022-05-22T09:03:48.258Z</time>
      </trkpt>
      <trkpt lat="44.47763" lon="1.96905">
        <ele>364.961892</ele>
        <time>2022-05-22T09:03:50.255Z</time>
      </trkpt>
      <trkpt lat="44.47772" lon="1.96904">
        <ele>364.994648</ele>
        <time>2022-05-22T09:03:52.265Z</time>
      </trkpt>
      <trkpt lat="44.47783" lon="1.96905">
        <ele>365.03063</ele>
        <time>2022-05-22T09:03:54.257Z</time>
      </trkpt>
      <trkpt lat="44.47794" lon="1.96904">
        <ele>365.068197</ele>
        <time>2022-05-22T09:03:57.263Z</time>
      </trkpt>
      <trkpt lat="44.47802" lon="1.96903">
        <ele>365.099344</ele>
        <time>2022-05-22T09:03:59.262Z</time>
      </trkpt>
      <trkpt lat="44.47816" lon="1.96901">
        <ele>365.145796</ele>
        <time>2022-05-22T09:04:02.260Z</time>
      </trkpt>
      <trkpt lat="44.47825" lon="1.96901">
        <ele>365.177767</ele>
        <time>2022-05-22T09:04:04.253Z</time>
      </trkpt>
      <trkpt lat="44.47834" lon="1.96901">
        <ele>365.210433</ele>
        <time>2022-05-22T09:04:06.259Z</time>
      </trkpt>
      <trkpt lat="44.47849" lon="1.969">
        <ele>365.259813</ele>
        <time>2022-05-22T09:04:09.259Z</time>
      </trkpt>
      <trkpt lat="44.47859" lon="1.96899">
        <ele>365.295726</ele>
        <time>2022-05-22T09:04:11.254Z</time>
      </trkpt>
      <trkpt lat="44.47873" lon="1.96901">
        <ele>365.343907</ele>
        <time>2022-05-22T09:04:14.260Z</time>
      </trkpt>
      <trkpt lat="44.47886" lon="1.96901">
        <ele>365.38449</ele>
        <time>2022-05-22T09:04:17.260Z</time>
      </trkpt>
      <trkpt lat="44.47895" lon="1.96902">
        <ele>365.375723</ele>
        <time>2022-05-22T09:04:19.259Z</time>
      </trkpt>
      <trkpt lat="44.47907" lon="1.96904">
        <ele>365.36432</ele>
        <time>2022-05-22T09:04:22.257Z</time>
      </trkpt>
      <trkpt lat="44.47919" lon="1.96903">
        <ele>365.353147</ele>
        <time>2022-05-22T09:04:25.259Z</time>
      </trkpt>
      <trkpt lat="44.47931" lon="1.96906">
        <ele>365.341632</ele>
        <time>2022-05-22T09:04:28.265Z</time>
      </trkpt>
      <trkpt lat="44.47942" lon="1.96909">
        <ele>365.330852</ele>
        <time>2022-05-22T09:04:31.265Z</time>
      </trkpt>
      <trkpt lat="44.47956" lon="1.96911">
        <ele>365.317807</ele>
        <time>2022-05-22T09:04:34.253Z</time>
      </trkpt>
      <trkpt lat="44.47966" lon="1.96912">
        <ele>365.308112</ele>
        <time>2022-05-22T09:04:36.266Z</time>
      </trkpt>
      <trkpt lat="44.47977" lon="1.96913">
        <ele>365.297411</ele>
        <time>2022-05-22T09:04:39.265Z</time>
      </trkpt>
      <trkpt lat="44.47989" lon="1.96912">
        <ele>365.286312</ele>
        <time>2022-05-22T09:04:42.249Z</time>
      </trkpt>
      <trkpt lat="44.47999" lon="1.96913">
        <ele>365.276634</ele>
        <time>2022-05-22T09:04:45.257Z</time>
      </trkpt>
      <trkpt lat="44.48011" lon="1.96911">
        <ele>365.265419</ele>
        <time>2022-05-22T09:04:49.264Z</time>
      </trkpt>
      <trkpt lat="44.48022" lon="1.96909">
        <ele>365.255442</ele>
        <time>2022-05-22T09:04:52.250Z</time>
      </trkpt>
      <trkpt lat="44.48032" lon="1.96907">
        <ele>365.245169</ele>
        <time>2022-05-22T09:04:55.255Z</time>
      </trkpt>
      <trkpt lat="44.48043" lon="1.96906">
        <ele>365.23528</ele>
        <time>2022-05-22T09:04:58.261Z</time>
      </trkpt>
      <trkpt lat="44.48053" lon="1.96905">
        <ele>365.225974</ele>
        <time>2022-05-22T09:05:01.258Z</time>
      </trkpt>
      <trkpt lat="44.48062" lon="1.96904">
        <ele>365.216845</ele>
        <time>2022-05-22T09:05:04.260Z</time>
      </trkpt>
      <trkpt lat="44.48072" lon="1.96901">
        <ele>365.1658</ele>
        <time>2022-05-22T09:05:08.269Z</time>
      </trkpt>
      <trkpt lat="44.48084" lon="1.96902">
        <ele>365.098415</ele>
        <time>2022-05-22T09:05:11.255Z</time>
      </trkpt>
      <trkpt lat="44.48097" lon="1.96901">
        <ele>365.027058</ele>
        <time>2022-05-22T09:05:14.261Z</time>
      </trkpt>
      <trkpt lat="44.48109" lon="1.96899">
        <ele>364.957508</ele>
        <time>2022-05-22T09:05:17.259Z</time>
      </trkpt>
      <trkpt lat="44.48122" lon="1.96896">
        <ele>364.884912</ele>
        <time>2022-05-22T09:05:20.263Z</time>
      </trkpt>
      <trkpt lat="44.48136" lon="1.96894">
        <ele>364.807713</ele>
        <time>2022-05-22T09:05:23.258Z</time>
      </trkpt>
      <trkpt lat="44.48149" lon="1.96895">
        <ele>364.732498</ele>
        <time>2022-05-22T09:05:26.262Z</time>
      </trkpt>
      <trkpt lat="44.48159" lon="1.96893">
        <ele>364.678791</ele>
        <time>2022-05-22T09:05:28.263Z</time>
      </trkpt>
      <trkpt lat="44.4817" lon="1.96892">
        <ele>364.613075</ele>
        <time>2022-05-22T09:05:30.259Z</time>
      </trkpt>
      <trkpt lat="44.48181" lon="1.96893">
        <ele>364.555212</ele>
        <time>2022-05-22T09:05:32.256Z</time>
      </trkpt>
      <trkpt lat="44.48194" lon="1.96893">
        <ele>364.482225</ele>
        <time>2022-05-22T09:05:35.263Z</time>
      </trkpt>
      <trkpt lat="44.48205" lon="1.96895">
        <ele>364.420263</ele>
        <time>2022-05-22T09:05:38.263Z</time>
      </trkpt>
      <trkpt lat="44.48215" lon="1.96895">
        <ele>364.364132</ele>
        <time>2022-05-22T09:05:40.262Z</time>
      </trkpt>
      <trkpt lat="44.48226" lon="1.96895">
        <ele>364.302388</ele>
        <time>2022-05-22T09:05:42.264Z</time>
      </trkpt>
      <trkpt lat="44.48235" lon="1.96895">
        <ele>364.250112</ele>
        <time>2022-05-22T09:05:44.266Z</time>
      </trkpt>
      <trkpt lat="44.48245" lon="1.96898">
        <ele>364.154555</ele>
        <time>2022-05-22T09:05:46.264Z</time>
      </trkpt>
      <trkpt lat="44.48256" lon="1.96901">
        <ele>363.948692</ele>
        <time>2022-05-22T09:05:48.256Z</time>
      </trkpt>
      <trkpt lat="44.48266" lon="1.96904">
        <ele>363.74108</ele>
        <time>2022-05-22T09:05:50.261Z</time>
      </trkpt>
      <trkpt lat="44.48277" lon="1.96899">
        <ele>363.514609</ele>
        <time>2022-05-22T09:05:53.254Z</time>
      </trkpt>
      <trkpt lat="44.48284" lon="1.96884">
        <ele>363.278756</ele>
        <time>2022-05-22T09:05:56.287Z</time>
      </trkpt>
      <trkpt lat="44.4829" lon="1.96874">
        <ele>363.093807</ele>
        <time>2022-05-22T09:05:58.294Z</time>
      </trkpt>
      <trkpt lat="44.48299" lon="1.96862">
        <ele>362.862105</ele>
        <time>2022-05-22T09:06:00.293Z</time>
      </trkpt>
      <trkpt lat="44.48306" lon="1.96848">
        <ele>362.622928</ele>
        <time>2022-05-22T09:06:02.287Z</time>
      </trkpt>
      <trkpt lat="44.48315" lon="1.96834">
        <ele>362.372927</ele>
        <time>2022-05-22T09:06:04.054Z</time>
      </trkpt>
      <trkpt lat="44.48323" lon="1.9682">
        <ele>362.120185</ele>
        <time>2022-05-22T09:06:05.983Z</time>
      </trkpt>
      <trkpt lat="44.4833" lon="1.96805">
        <ele>361.874361</ele>
        <time>2022-05-22T09:06:07.975Z</time>
      </trkpt>
      <trkpt lat="44.48336" lon="1.9679">
        <ele>361.636583</ele>
        <time>2022-05-22T09:06:09.977Z</time>
      </trkpt>
      <trkpt lat="44.4834" lon="1.96774">
        <ele>361.407788</ele>
        <time>2022-05-22T09:06:11.979Z</time>
      </trkpt>
      <trkpt lat="44.48343" lon="1.96758">
        <ele>361.183027</ele>
        <time>2022-05-22T09:06:13.978Z</time>
      </trkpt>
      <trkpt lat="44.48346" lon="1.96744">
        <ele>360.980016</ele>
        <time>2022-05-22T09:06:15.980Z</time>
      </trkpt>
      <trkpt lat="44.48349" lon="1.96732">
        <ele>360.800209</ele>
        <time>2022-05-22T09:06:17.982Z</time>
      </trkpt>
      <trkpt lat="44.48352" lon="1.96718">
        <ele>360.787832</ele>
        <time>2022-05-22T09:06:19.981Z</time>
      </trkpt>
      <trkpt lat="44.48354" lon="1.96703">
        <ele>360.848351</ele>
        <time>2022-05-22T09:06:21.982Z</time>
      </trkpt>
      <trkpt lat="44.48356" lon="1.96689">
        <ele>360.903668</ele>
        <time>2022-05-22T09:06:23.981Z</time>
      </trkpt>
      <trkpt lat="44.48359" lon="1.96674">
        <ele>360.965807</ele>
        <time>2022-05-22T09:06:25.980Z</time>
      </trkpt>
      <trkpt lat="44.48361" lon="1.96659">
        <ele>361.027811</ele>
        <time>2022-05-22T09:06:28.674Z</time>
      </trkpt>
      <trkpt lat="44.48364" lon="1.96646">
        <ele>361.084252</ele>
        <time>2022-05-22T09:06:30.667Z</time>
      </trkpt>
      <trkpt lat="44.48367" lon="1.96633">
        <ele>361.136992</ele>
        <time>2022-05-22T09:06:32.668Z</time>
      </trkpt>
      <trkpt lat="44.48369" lon="1.9662">
        <ele>361.18958</ele>
        <time>2022-05-22T09:06:34.669Z</time>
      </trkpt>
      <trkpt lat="44.48372" lon="1.96607">
        <ele>361.244009</ele>
        <time>2022-05-22T09:06:36.664Z</time>
      </trkpt>
      <trkpt lat="44.48376" lon="1.96593">
        <ele>361.303229</ele>
        <time>2022-05-22T09:06:39.666Z</time>
      </trkpt>
      <trkpt lat="44.4838" lon="1.96579">
        <ele>361.36454</ele>
        <time>2022-05-22T09:06:42.666Z</time>
      </trkpt>
      <trkpt lat="44.48382" lon="1.96563">
        <ele>361.430656</ele>
        <time>2022-05-22T09:06:45.667Z</time>
      </trkpt>
      <trkpt lat="44.48383" lon="1.96546">
        <ele>361.497997</ele>
        <time>2022-05-22T09:06:48.670Z</time>
      </trkpt>
      <trkpt lat="44.48384" lon="1.96529">
        <ele>361.567197</ele>
        <time>2022-05-22T09:06:51.679Z</time>
      </trkpt>
      <trkpt lat="44.48384" lon="1.96516">
        <ele>361.617246</ele>
        <time>2022-05-22T09:06:53.669Z</time>
      </trkpt>
      <trkpt lat="44.48386" lon="1.96503">
        <ele>361.670002</ele>
        <time>2022-05-22T09:06:55.672Z</time>
      </trkpt>
      <trkpt lat="44.4839" lon="1.9649">
        <ele>361.728521</ele>
        <time>2022-05-22T09:06:57.673Z</time>
      </trkpt>
      <trkpt lat="44.48392" lon="1.96475">
        <ele>361.273988</ele>
        <time>2022-05-22T09:06:59.668Z</time>
      </trkpt>
      <trkpt lat="44.48395" lon="1.96458">
        <ele>360.410406</ele>
        <time>2022-05-22T09:07:01.666Z</time>
      </trkpt>
      <trkpt lat="44.48396" lon="1.96442">
        <ele>359.585422</ele>
        <time>2022-05-22T09:07:03.665Z</time>
      </trkpt>
      <trkpt lat="44.484" lon="1.96427">
        <ele>358.745491</ele>
        <time>2022-05-22T09:07:05.670Z</time>
      </trkpt>
      <trkpt lat="44.48402" lon="1.96411">
        <ele>357.915397</ele>
        <time>2022-05-22T09:07:07.668Z</time>
      </trkpt>
      <trkpt lat="44.48404" lon="1.96394">
        <ele>357.017995</ele>
        <time>2022-05-22T09:07:09.702Z</time>
      </trkpt>
      <trkpt lat="44.48405" lon="1.96378">
        <ele>356.154416</ele>
        <time>2022-05-22T09:07:11.298Z</time>
      </trkpt>
      <trkpt lat="44.48408" lon="1.96361">
        <ele>355.272127</ele>
        <time>2022-05-22T09:07:13.307Z</time>
      </trkpt>
      <trkpt lat="44.4841" lon="1.96345">
        <ele>354.444213</ele>
        <time>2022-05-22T09:07:15.327Z</time>
      </trkpt>
      <trkpt lat="44.48411" lon="1.96328">
        <ele>353.576527</ele>
        <time>2022-05-22T09:07:17.867Z</time>
      </trkpt>
      <trkpt lat="44.48412" lon="1.96311">
        <ele>352.690079</ele>
        <time>2022-05-22T09:07:19.863Z</time>
      </trkpt>
      <trkpt lat="44.48413" lon="1.96298">
        <ele>352.028332</ele>
        <time>2022-05-22T09:07:21.855Z</time>
      </trkpt>
      <trkpt lat="44.4842" lon="1.96287">
        <ele>351.258479</ele>
        <time>2022-05-22T09:07:24.866Z</time>
      </trkpt>
      <trkpt lat="44.48429" lon="1.96274">
        <ele>350.329295</ele>
        <time>2022-05-22T09:07:28.861Z</time>
      </trkpt>
      <trkpt lat="44.48434" lon="1.9626">
        <ele>349.533882</ele>
        <time>2022-05-22T09:07:31.871Z</time>
      </trkpt>
      <trkpt lat="44.48434" lon="1.96242">
        <ele>348.421499</ele>
        <time>2022-05-22T09:07:34.863Z</time>
      </trkpt>
      <trkpt lat="44.48436" lon="1.96222">
        <ele>345.84759</ele>
        <time>2022-05-22T09:07:37.863Z</time>
      </trkpt>
      <trkpt lat="44.48437" lon="1.96204">
        <ele>343.611986</ele>
        <time>2022-05-22T09:07:40.863Z</time>
      </trkpt>
      <trkpt lat="44.48439" lon="1.96189">
        <ele>341.651164</ele>
        <time>2022-05-22T09:07:43.866Z</time>
      </trkpt>
      <trkpt lat="44.48441" lon="1.96177">
        <ele>340.046586</ele>
        <time>2022-05-22T09:07:45.869Z</time>
      </trkpt>
      <trkpt lat="44.48442" lon="1.96157">
        <ele>337.636794</ele>
        <time>2022-05-22T09:07:48.861Z</time>
      </trkpt>
      <trkpt lat="44.48444" lon="1.96144">
        <ele>335.889548</ele>
        <time>2022-05-22T09:07:50.859Z</time>
      </trkpt>
      <trkpt lat="44.48447" lon="1.96127">
        <ele>333.738033</ele>
        <time>2022-05-22T09:07:53.863Z</time>
      </trkpt>
      <trkpt lat="44.48447" lon="1.96112">
        <ele>331.760557</ele>
        <time>2022-05-22T09:07:56.861Z</time>
      </trkpt>
      <trkpt lat="44.48447" lon="1.96095">
        <ele>329.679596</ele>
        <time>2022-05-22T09:07:59.862Z</time>
      </trkpt>
      <trkpt lat="44.48449" lon="1.9608">
        <ele>327.676071</ele>
        <time>2022-05-22T09:08:03.863Z</time>
      </trkpt>
      <trkpt lat="44.48452" lon="1.96067">
        <ele>325.955332</ele>
        <time>2022-05-22T09:08:06.861Z</time>
      </trkpt>
      <trkpt lat="44.48455" lon="1.96051">
        <ele>323.923242</ele>
        <time>2022-05-22T09:08:09.862Z</time>
      </trkpt>
      <trkpt lat="44.48455" lon="1.96036">
        <ele>322.007725</ele>
        <time>2022-05-22T09:08:12.860Z</time>
      </trkpt>
      <trkpt lat="44.48459" lon="1.96021">
        <ele>320.070025</ele>
        <time>2022-05-22T09:08:15.862Z</time>
      </trkpt>
      <trkpt lat="44.48463" lon="1.96008">
        <ele>318.263197</ele>
        <time>2022-05-22T09:08:19.863Z</time>
      </trkpt>
      <trkpt lat="44.48463" lon="1.95992">
        <ele>316.34737</ele>
        <time>2022-05-22T09:08:23.862Z</time>
      </trkpt>
      <trkpt lat="44.4847" lon="1.95976">
        <ele>314.429711</ele>
        <time>2022-05-22T09:08:26.865Z</time>
      </trkpt>
      <trkpt lat="44.48476" lon="1.95964">
        <ele>312.866575</ele>
        <time>2022-05-22T09:08:28.863Z</time>
      </trkpt>
      <trkpt lat="44.48486" lon="1.95951">
        <ele>310.852116</ele>
        <time>2022-05-22T09:08:31.864Z</time>
      </trkpt>
      <trkpt lat="44.48498" lon="1.9594">
        <ele>308.886397</ele>
        <time>2022-05-22T09:08:34.862Z</time>
      </trkpt>
      <trkpt lat="44.48506" lon="1.95933">
        <ele>307.506519</ele>
        <time>2022-05-22T09:08:36.863Z</time>
      </trkpt>
      <trkpt lat="44.48515" lon="1.9592">
        <ele>305.561933</ele>
        <time>2022-05-22T09:08:39.865Z</time>
      </trkpt>
      <trkpt lat="44.48524" lon="1.95911">
        <ele>304.062276</ele>
        <time>2022-05-22T09:08:41.868Z</time>
      </trkpt>
      <trkpt lat="44.48531" lon="1.959">
        <ele>302.484107</ele>
        <time>2022-05-22T09:08:43.860Z</time>
      </trkpt>
      <trkpt lat="44.48541" lon="1.95888">
        <ele>300.638518</ele>
        <time>2022-05-22T09:08:45.863Z</time>
      </trkpt>
      <trkpt lat="44.4855" lon="1.95876">
        <ele>298.800011</ele>
        <time>2022-05-22T09:08:47.863Z</time>
      </trkpt>
      <trkpt lat="44.48558" lon="1.95863">
        <ele>297.030452</ele>
        <time>2022-05-22T09:08:49.863Z</time>
      </trkpt>
      <trkpt lat="44.48567" lon="1.95851">
        <ele>295.237859</ele>
        <time>2022-05-22T09:08:51.866Z</time>
      </trkpt>
      <trkpt lat="44.48577" lon="1.95839">
        <ele>293.309535</ele>
        <time>2022-05-22T09:08:53.863Z</time>
      </trkpt>
      <trkpt lat="44.48587" lon="1.9583">
        <ele>291.562697</ele>
        <time>2022-05-22T09:08:55.864Z</time>
      </trkpt>
      <trkpt lat="44.48596" lon="1.95822">
        <ele>290.741202</ele>
        <time>2022-05-22T09:08:57.867Z</time>
      </trkpt>
      <trkpt lat="44.48605" lon="1.95814">
        <ele>290.233364</ele>
        <time>2022-05-22T09:08:59.864Z</time>
      </trkpt>
      <trkpt lat="44.48614" lon="1.95806">
        <ele>289.738752</ele>
        <time>2022-05-22T09:09:01.862Z</time>
      </trkpt>
      <trkpt lat="44.48624" lon="1.95797">
        <ele>289.156674</ele>
        <time>2022-05-22T09:09:03.865Z</time>
      </trkpt>
      <trkpt lat="44.48635" lon="1.95785">
        <ele>288.531747</ele>
        <time>2022-05-22T09:09:05.862Z</time>
      </trkpt>
      <trkpt lat="44.48646" lon="1.95773">
        <ele>287.879178</ele>
        <time>2022-05-22T09:09:07.861Z</time>
      </trkpt>
      <trkpt lat="44.4866" lon="1.95766">
        <ele>287.153205</ele>
        <time>2022-05-22T09:09:09.863Z</time>
      </trkpt>
      <trkpt lat="44.4867" lon="1.9576">
        <ele>286.661561</ele>
        <time>2022-05-22T09:09:11.863Z</time>
      </trkpt>
      <trkpt lat="44.48682" lon="1.95753">
        <ele>286.054003</ele>
        <time>2022-05-22T09:09:14.863Z</time>
      </trkpt>
      <trkpt lat="44.48693" lon="1.95745">
        <ele>285.470075</ele>
        <time>2022-05-22T09:09:17.863Z</time>
      </trkpt>
      <trkpt lat="44.48703" lon="1.95735">
        <ele>284.897809</ele>
        <time>2022-05-22T09:09:20.863Z</time>
      </trkpt>
      <trkpt lat="44.4871" lon="1.95727">
        <ele>284.455242</ele>
        <time>2022-05-22T09:09:22.869Z</time>
      </trkpt>
      <trkpt lat="44.48721" lon="1.95719">
        <ele>283.917821</ele>
        <time>2022-05-22T09:09:24.872Z</time>
      </trkpt>
      <trkpt lat="44.4873" lon="1.95709">
        <ele>283.354738</ele>
        <time>2022-05-22T09:09:26.864Z</time>
      </trkpt>
      <trkpt lat="44.48741" lon="1.95699">
        <ele>282.76447</ele>
        <time>2022-05-22T09:09:28.863Z</time>
      </trkpt>
      <trkpt lat="44.48751" lon="1.95692">
        <ele>283.598043</ele>
        <time>2022-05-22T09:09:30.865Z</time>
      </trkpt>
      <trkpt lat="44.48759" lon="1.95686">
        <ele>284.661216</ele>
        <time>2022-05-22T09:09:33.862Z</time>
      </trkpt>
      <trkpt lat="44.4877" lon="1.95686">
        <ele>285.974207</ele>
        <time>2022-05-22T09:09:37.863Z</time>
      </trkpt>
      <trkpt lat="44.48779" lon="1.9568">
        <ele>287.09005</ele>
        <time>2022-05-22T09:09:41.866Z</time>
      </trkpt>
      <trkpt lat="44.48787" lon="1.9567">
        <ele>288.373734</ele>
        <time>2022-05-22T09:09:46.862Z</time>
      </trkpt>
      <trkpt lat="44.48796" lon="1.95664">
        <ele>289.507654</ele>
        <time>2022-05-22T09:09:51.864Z</time>
      </trkpt>
      <trkpt lat="44.48806" lon="1.95662">
        <ele>290.674678</ele>
        <time>2022-05-22T09:09:57.862Z</time>
      </trkpt>
      <trkpt lat="44.48817" lon="1.95663">
        <ele>291.899831</ele>
        <time>2022-05-22T09:10:02.863Z</time>
      </trkpt>
      <trkpt lat="44.48826" lon="1.95664">
        <ele>293.041181</ele>
        <time>2022-05-22T09:10:08.863Z</time>
      </trkpt>
      <trkpt lat="44.48836" lon="1.95663">
        <ele>294.208529</ele>
        <time>2022-05-22T09:10:15.863Z</time>
      </trkpt>
      <trkpt lat="44.48846" lon="1.95662">
        <ele>295.315778</ele>
        <time>2022-05-22T09:10:26.862Z</time>
      </trkpt>
      <trkpt lat="44.48855" lon="1.95663">
        <ele>296.398069</ele>
        <time>2022-05-22T09:10:39.862Z</time>
      </trkpt>
      <trkpt lat="44.48865" lon="1.95662">
        <ele>297.491076</ele>
        <time>2022-05-22T09:10:52.865Z</time>
      </trkpt>
      <trkpt lat="44.48874" lon="1.95661">
        <ele>298.590003</ele>
        <time>2022-05-22T09:11:03.863Z</time>
      </trkpt>
      <trkpt lat="44.48883" lon="1.95661">
        <ele>299.658775</ele>
        <time>2022-05-22T09:11:16.867Z</time>
      </trkpt>
      <trkpt lat="44.48893" lon="1.95658">
        <ele>300.76367</ele>
        <time>2022-05-22T09:11:28.863Z</time>
      </trkpt>
      <trkpt lat="44.48902" lon="1.9566">
        <ele>301.82898</ele>
        <time>2022-05-22T09:11:38.863Z</time>
      </trkpt>
      <trkpt lat="44.48911" lon="1.95662">
        <ele>302.96631</ele>
        <time>2022-05-22T09:11:51.864Z</time>
      </trkpt>
      <trkpt lat="44.48921" lon="1.95661">
        <ele>304.209602</ele>
        <time>2022-05-22T09:12:01.861Z</time>
      </trkpt>
      <trkpt lat="44.4893" lon="1.95663">
        <ele>305.591686</ele>
        <time>2022-05-22T09:12:13.862Z</time>
      </trkpt>
      <trkpt lat="44.48939" lon="1.95664">
        <ele>307.030937</ele>
        <time>2022-05-22T09:12:26.879Z</time>
      </trkpt>
      <trkpt lat="44.48948" lon="1.95666">
        <ele>308.431481</ele>
        <time>2022-05-22T09:12:36.872Z</time>
      </trkpt>
      <trkpt lat="44.48958" lon="1.95666">
        <ele>309.851625</ele>
        <time>2022-05-22T09:12:46.864Z</time>
      </trkpt>
      <trkpt lat="44.48967" lon="1.95667">
        <ele>311.235878</ele>
        <time>2022-05-22T09:12:55.864Z</time>
      </trkpt>
      <trkpt lat="44.48975" lon="1.95673">
        <ele>312.591151</ele>
        <time>2022-05-22T09:13:05.868Z</time>
      </trkpt>
      <trkpt lat="44.48984" lon="1.95676">
        <ele>314.023187</ele>
        <time>2022-05-22T09:13:16.864Z</time>
      </trkpt>
      <trkpt lat="44.48993" lon="1.95681">
        <ele>315.501438</ele>
        <time>2022-05-22T09:13:28.866Z</time>
      </trkpt>
      <trkpt lat="44.49002" lon="1.95685">
        <ele>316.904167</ele>
        <time>2022-05-22T09:13:38.854Z</time>
      </trkpt>
      <trkpt lat="44.49011" lon="1.9569">
        <ele>318.394859</ele>
        <time>2022-05-22T09:13:48.864Z</time>
      </trkpt>
      <trkpt lat="44.4902" lon="1.95695">
        <ele>319.797323</ele>
        <time>2022-05-22T09:13:57.876Z</time>
      </trkpt>
      <trkpt lat="44.49027" lon="1.95703">
        <ele>321.261175</ele>
        <time>2022-05-22T09:14:08.863Z</time>
      </trkpt>
      <trkpt lat="44.49034" lon="1.95712">
        <ele>322.69642</ele>
        <time>2022-05-22T09:14:19.882Z</time>
      </trkpt>
      <trkpt lat="44.49037" lon="1.95725">
        <ele>324.07477</ele>
        <time>2022-05-22T09:14:31.863Z</time>
      </trkpt>
      <trkpt lat="44.49036" lon="1.95737">
        <ele>325.451787</ele>
        <time>2022-05-22T09:14:45.861Z</time>
      </trkpt>
      <trkpt lat="44.49034" lon="1.95751">
        <ele>326.903047</ele>
        <time>2022-05-22T09:14:57.866Z</time>
      </trkpt>
      <trkpt lat="44.49038" lon="1.95763">
        <ele>328.346719</ele>
        <time>2022-05-22T09:15:08.864Z</time>
      </trkpt>
      <trkpt lat="44.49038" lon="1.95775">
        <ele>329.715756</ele>
        <time>2022-05-22T09:15:17.864Z</time>
      </trkpt>
      <trkpt lat="44.4904" lon="1.95789">
        <ele>331.153303</ele>
        <time>2022-05-22T09:15:29.869Z</time>
      </trkpt>
      <trkpt lat="44.4904" lon="1.95801">
        <ele>332.435797</ele>
        <time>2022-05-22T09:15:42.864Z</time>
      </trkpt>
      <trkpt lat="44.49038" lon="1.95814">
        <ele>333.76143</ele>
        <time>2022-05-22T09:15:51.867Z</time>
      </trkpt>
      <trkpt lat="44.49036" lon="1.95827">
        <ele>335.102695</ele>
        <time>2022-05-22T09:16:02.863Z</time>
      </trkpt>
      <trkpt lat="44.49034" lon="1.95839">
        <ele>336.392131</ele>
        <time>2022-05-22T09:16:12.866Z</time>
      </trkpt>
      <trkpt lat="44.49033" lon="1.95853">
        <ele>337.753596</ele>
        <time>2022-05-22T09:16:23.864Z</time>
      </trkpt>
      <trkpt lat="44.49036" lon="1.95866">
        <ele>339.152621</ele>
        <time>2022-05-22T09:16:34.862Z</time>
      </trkpt>
      <trkpt lat="44.49041" lon="1.95878">
        <ele>340.589428</ele>
        <time>2022-05-22T09:16:42.866Z</time>
      </trkpt>
      <trkpt lat="44.49047" lon="1.95889">
        <ele>341.983272</ele>
        <time>2022-05-22T09:16:52.863Z</time>
      </trkpt>
      <trkpt lat="44.49054" lon="1.95898">
        <ele>343.340659</ele>
        <time>2022-05-22T09:17:03.864Z</time>
      </trkpt>
      <trkpt lat="44.4906" lon="1.95909">
        <ele>344.73964</ele>
        <time>2022-05-22T09:17:13.870Z</time>
      </trkpt>
      <trkpt lat="44.49064" lon="1.95921">
        <ele>346.105141</ele>
        <time>2022-05-22T09:17:23.865Z</time>
      </trkpt>
      <trkpt lat="44.49068" lon="1.95933">
        <ele>347.486151</ele>
        <time>2022-05-22T09:17:34.876Z</time>
      </trkpt>
      <trkpt lat="44.49074" lon="1.95944">
        <ele>348.810753</ele>
        <time>2022-05-22T09:17:46.872Z</time>
      </trkpt>
      <trkpt lat="44.49081" lon="1.95951">
        <ele>350.135584</ele>
        <time>2022-05-22T09:17:59.865Z</time>
      </trkpt>
      <trkpt lat="44.49089" lon="1.95958">
        <ele>351.434254</ele>
        <time>2022-05-22T09:18:11.871Z</time>
      </trkpt>
      <trkpt lat="44.49098" lon="1.95966">
        <ele>352.865891</ele>
        <time>2022-05-22T09:18:21.865Z</time>
      </trkpt>
      <trkpt lat="44.49107" lon="1.9597">
        <ele>354.29191</ele>
        <time>2022-05-22T09:18:28.864Z</time>
      </trkpt>
      <trkpt lat="44.49116" lon="1.95976">
        <ele>355.626359</ele>
        <time>2022-05-22T09:18:34.863Z</time>
      </trkpt>
      <trkpt lat="44.49125" lon="1.95982">
        <ele>356.335099</ele>
        <time>2022-05-22T09:18:41.864Z</time>
      </trkpt>
      <trkpt lat="44.49133" lon="1.9599">
        <ele>356.335099</ele>
        <time>2022-05-22T09:18:47.867Z</time>
      </trkpt>
      <trkpt lat="44.49141" lon="1.95996">
        <ele>356.335099</ele>
        <time>2022-05-22T09:18:54.866Z</time>
      </trkpt>
      <trkpt lat="44.49151" lon="1.96004">
        <ele>356.335099</ele>
        <time>2022-05-22T09:19:00.861Z</time>
      </trkpt>
      <trkpt lat="44.49159" lon="1.96019">
        <ele>356.335099</ele>
        <time>2022-05-22T09:19:06.881Z</time>
      </trkpt>
      <trkpt lat="44.49162" lon="1.96032">
        <ele>356.335099</ele>
        <time>2022-05-22T09:19:12.863Z</time>
      </trkpt>
      <trkpt lat="44.49163" lon="1.96046">
        <ele>356.335099</ele>
        <time>2022-05-22T09:19:18.868Z</time>
      </trkpt>
      <trkpt lat="44.49165" lon="1.96059">
        <ele>356.335099</ele>
        <time>2022-05-22T09:19:24.858Z</time>
      </trkpt>
      <trkpt lat="44.49171" lon="1.96071">
        <ele>356.335099</ele>
        <time>2022-05-22T09:19:28.867Z</time>
      </trkpt>
      <trkpt lat="44.49172" lon="1.96086">
        <ele>356.335099</ele>
        <time>2022-05-22T09:19:32.870Z</time>
      </trkpt>
      <trkpt lat="44.49176" lon="1.96099">
        <ele>356.335099</ele>
        <time>2022-05-22T09:19:37.870Z</time>
      </trkpt>
      <trkpt lat="44.49181" lon="1.96126">
        <ele>356.335099</ele>
        <time>2022-05-22T09:20:15.826Z</time>
      </trkpt>
      <trkpt lat="44.49174" lon="1.96134">
        <ele>356.335099</ele>
        <time>2022-05-22T09:20:26.728Z</time>
      </trkpt>
      <trkpt lat="44.49174" lon="1.96136">
        <ele>356.335099</ele>
        <time>2022-05-22T09:32:35.615Z</time>
      </trkpt>
    </trkseg>
  </trk>
</gpx>